<?xml version='1.0' encoding='UTF-8'?><gpx version="1.1" creator="JPX - https://github.com/jenetics/jpx" xmlns="http://www.topografix.com/GPX/1/1"><trk><trkseg><trkpt lat="43.8575721" lon="11.569818"><ele>304.8</ele><time>2026-04-18T11:59:07.847Z</time></trkpt><trkpt lat="43.8576395" lon="11.5696577"><ele>301.6</ele><time>2026-04-18T11:59:09.38Z</time></trkpt><trkpt lat="43.8577177" lon="11.5696365"><ele>298.4</ele><time>2026-04-18T11:59:24.091Z</time></trkpt><trkpt lat="43.8577316" lon="11.5698389"><ele>295.2</ele><time>2026-04-18T11:59:26.001Z</time></trkpt><trkpt lat="43.8577478" lon="11.5699347"><ele>292.0</ele><time>2026-04-18T11:59:31.095Z</time></trkpt><trkpt lat="43.8577713" lon="11.5700374"><ele>292.0</ele><time>2026-04-18T11:59:42.012Z</time></trkpt><trkpt lat="43.8576932" lon="11.5699818"><ele>292.0</ele><time>2026-04-18T12:00:07.019Z</time></trkpt><trkpt lat="43.8576467" lon="11.5698985"><ele>292.0</ele><time>2026-04-18T12:01:01.058Z</time></trkpt><trkpt lat="43.8576317" lon="11.5697933"><ele>292.0</ele><time>2026-04-18T12:01:04.012Z</time></trkpt><trkpt lat="43.8576017" lon="11.5696883"><ele>292.0</ele><time>2026-04-18T12:01:06.012Z</time></trkpt><trkpt lat="43.85759" lon="11.5695667"><ele>292.0</ele><time>2026-04-18T12:01:09.012Z</time></trkpt><trkpt lat="43.8575817" lon="11.5694583"><ele>292.0</ele><time>2026-04-18T12:01:13.003Z</time></trkpt><trkpt lat="43.8575517" lon="11.56937"><ele>292.0</ele><time>2026-04-18T12:01:17.014Z</time></trkpt><trkpt lat="43.857505" lon="11.569305"><ele>292.0</ele><time>2026-04-18T12:01:27.013Z</time></trkpt><trkpt lat="43.857495" lon="11.5692183"><ele>292.0</ele><time>2026-04-18T12:01:40.014Z</time></trkpt><trkpt lat="43.85754" lon="11.5691217"><ele>292.0</ele><time>2026-04-18T12:02:40.012Z</time></trkpt><trkpt lat="43.857505" lon="11.56921"><ele>292.0</ele><time>2026-04-18T12:02:46.014Z</time></trkpt><trkpt lat="43.85753" lon="11.5693467"><ele>292.0</ele><time>2026-04-18T12:02:48.012Z</time></trkpt><trkpt lat="43.8575617" lon="11.569495"><ele>292.0</ele><time>2026-04-18T12:02:50.015Z</time></trkpt><trkpt lat="43.857605" lon="11.569665"><ele>292.0</ele><time>2026-04-18T12:02:52.013Z</time></trkpt><trkpt lat="43.8576283" lon="11.5697517"><ele>292.0</ele><time>2026-04-18T12:02:53.012Z</time></trkpt><trkpt lat="43.857655" lon="11.5698367"><ele>292.0</ele><time>2026-04-18T12:02:54.013Z</time></trkpt><trkpt lat="43.8576833" lon="11.5699217"><ele>292.0</ele><time>2026-04-18T12:02:55.015Z</time></trkpt><trkpt lat="43.8577133" lon="11.570005"><ele>292.0</ele><time>2026-04-18T12:02:56.014Z</time></trkpt><trkpt lat="43.8577467" lon="11.5700817"><ele>292.0</ele><time>2026-04-18T12:02:57.012Z</time></trkpt><trkpt lat="43.85781" lon="11.5702267"><ele>292.0</ele><time>2026-04-18T12:02:59.013Z</time></trkpt><trkpt lat="43.857905" lon="11.5703333"><ele>292.0</ele><time>2026-04-18T12:03:01.012Z</time></trkpt><trkpt lat="43.8579633" lon="11.5703667"><ele>292.0</ele><time>2026-04-18T12:03:02.014Z</time></trkpt><trkpt lat="43.8580283" lon="11.570395"><ele>292.0</ele><time>2026-04-18T12:03:03.012Z</time></trkpt><trkpt lat="43.858095" lon="11.5704233"><ele>295.3333333333333</ele><time>2026-04-18T12:03:04.012Z</time></trkpt><trkpt lat="43.8581633" lon="11.5704467"><ele>298.66666666666663</ele><time>2026-04-18T12:03:05.013Z</time></trkpt><trkpt lat="43.858235" lon="11.5704633"><ele>302.0</ele><time>2026-04-18T12:03:06.012Z</time></trkpt><trkpt lat="43.8583083" lon="11.5704783"><ele>305.3333333333333</ele><time>2026-04-18T12:03:07.012Z</time></trkpt><trkpt lat="43.8583867" lon="11.570485"><ele>308.6666666666667</ele><time>2026-04-18T12:03:08.013Z</time></trkpt><trkpt lat="43.8584633" lon="11.57048"><ele>312.0</ele><time>2026-04-18T12:03:09.012Z</time></trkpt><trkpt lat="43.8585433" lon="11.570465"><ele>312.0</ele><time>2026-04-18T12:03:10.011Z</time></trkpt><trkpt lat="43.858625" lon="11.5704383"><ele>312.0</ele><time>2026-04-18T12:03:11.014Z</time></trkpt><trkpt lat="43.8587117" lon="11.5704167"><ele>312.0</ele><time>2026-04-18T12:03:12.012Z</time></trkpt><trkpt lat="43.8588017" lon="11.5703983"><ele>312.0</ele><time>2026-04-18T12:03:13.013Z</time></trkpt><trkpt lat="43.8588933" lon="11.5703917"><ele>312.0</ele><time>2026-04-18T12:03:14.015Z</time></trkpt><trkpt lat="43.8589883" lon="11.5703883"><ele>312.0</ele><time>2026-04-18T12:03:15.014Z</time></trkpt><trkpt lat="43.8590817" lon="11.5703917"><ele>312.0</ele><time>2026-04-18T12:03:16.014Z</time></trkpt><trkpt lat="43.8591767" lon="11.5703917"><ele>312.0</ele><time>2026-04-18T12:03:17.014Z</time></trkpt><trkpt lat="43.8592617" lon="11.570385"><ele>312.0</ele><time>2026-04-18T12:03:18.012Z</time></trkpt><trkpt lat="43.8593367" lon="11.570385"><ele>312.0</ele><time>2026-04-18T12:03:19.013Z</time></trkpt><trkpt lat="43.8593983" lon="11.570405"><ele>312.0</ele><time>2026-04-18T12:03:20.015Z</time></trkpt><trkpt lat="43.8594467" lon="11.5705233"><ele>312.0</ele><time>2026-04-18T12:03:22.012Z</time></trkpt><trkpt lat="43.859385" lon="11.5706917"><ele>312.0</ele><time>2026-04-18T12:03:24.011Z</time></trkpt><trkpt lat="43.8593417" lon="11.5707917"><ele>312.0</ele><time>2026-04-18T12:03:25.014Z</time></trkpt><trkpt lat="43.8593067" lon="11.5709017"><ele>312.0</ele><time>2026-04-18T12:03:26.015Z</time></trkpt><trkpt lat="43.8592733" lon="11.5710167"><ele>312.0</ele><time>2026-04-18T12:03:27.011Z</time></trkpt><trkpt lat="43.8592433" lon="11.5711317"><ele>313.6666666666667</ele><time>2026-04-18T12:03:28.012Z</time></trkpt><trkpt lat="43.859205" lon="11.57124"><ele>315.3333333333333</ele><time>2026-04-18T12:03:29.014Z</time></trkpt><trkpt lat="43.8591617" lon="11.5713417"><ele>317.0</ele><time>2026-04-18T12:03:30.013Z</time></trkpt><trkpt lat="43.85911" lon="11.57144"><ele>318.66666666666663</ele><time>2026-04-18T12:03:31.013Z</time></trkpt><trkpt lat="43.8590517" lon="11.57153"><ele>320.3333333333333</ele><time>2026-04-18T12:03:32.015Z</time></trkpt><trkpt lat="43.85899" lon="11.5716133"><ele>322.0</ele><time>2026-04-18T12:03:33.014Z</time></trkpt><trkpt lat="43.8589217" lon="11.5716983"><ele>322.0</ele><time>2026-04-18T12:03:34.013Z</time></trkpt><trkpt lat="43.85885" lon="11.5717833"><ele>322.0</ele><time>2026-04-18T12:03:35.013Z</time></trkpt><trkpt lat="43.8587833" lon="11.57187"><ele>322.0</ele><time>2026-04-18T12:03:36.013Z</time></trkpt><trkpt lat="43.858715" lon="11.5719633"><ele>322.0</ele><time>2026-04-18T12:03:37.015Z</time></trkpt><trkpt lat="43.85865" lon="11.5720567"><ele>322.0</ele><time>2026-04-18T12:03:38.006Z</time></trkpt><trkpt lat="43.8585783" lon="11.5721517"><ele>321.66666666666663</ele><time>2026-04-18T12:03:39.012Z</time></trkpt><trkpt lat="43.85851" lon="11.5722467"><ele>321.3333333333333</ele><time>2026-04-18T12:03:40.012Z</time></trkpt><trkpt lat="43.8584433" lon="11.57234"><ele>321.0</ele><time>2026-04-18T12:03:41.013Z</time></trkpt><trkpt lat="43.8583783" lon="11.57243"><ele>320.6666666666667</ele><time>2026-04-18T12:03:42.013Z</time></trkpt><trkpt lat="43.8583233" lon="11.5725117"><ele>320.33333333333337</ele><time>2026-04-18T12:03:43.013Z</time></trkpt><trkpt lat="43.8582867" lon="11.5725933"><ele>320.0</ele><time>2026-04-18T12:03:44.014Z</time></trkpt><trkpt lat="43.858255" lon="11.572695"><ele>324.4</ele><time>2026-04-18T12:03:45.011Z</time></trkpt><trkpt lat="43.858245" lon="11.5728133"><ele>328.8</ele><time>2026-04-18T12:03:46.012Z</time></trkpt><trkpt lat="43.8582367" lon="11.5729383"><ele>333.20000000000005</ele><time>2026-04-18T12:03:47.013Z</time></trkpt><trkpt lat="43.858225" lon="11.5730717"><ele>337.6</ele><time>2026-04-18T12:03:48.012Z</time></trkpt><trkpt lat="43.8582017" lon="11.5732"><ele>342.0</ele><time>2026-04-18T12:03:49.013Z</time></trkpt><trkpt lat="43.8581667" lon="11.5733033"><ele>342.0</ele><time>2026-04-18T12:03:50.014Z</time></trkpt><trkpt lat="43.8581183" lon="11.5733867"><ele>342.0</ele><time>2026-04-18T12:03:51.011Z</time></trkpt><trkpt lat="43.85806" lon="11.573435"><ele>342.0</ele><time>2026-04-18T12:03:52.012Z</time></trkpt><trkpt lat="43.8579633" lon="11.5733767"><ele>342.0</ele><time>2026-04-18T12:03:54.012Z</time></trkpt><trkpt lat="43.8579367" lon="11.573295"><ele>342.0</ele><time>2026-04-18T12:03:55.013Z</time></trkpt><trkpt lat="43.857915" lon="11.5732017"><ele>342.0</ele><time>2026-04-18T12:03:56.015Z</time></trkpt><trkpt lat="43.85791" lon="11.573085"><ele>342.0</ele><time>2026-04-18T12:03:57.011Z</time></trkpt><trkpt lat="43.8579283" lon="11.572935"><ele>342.0</ele><time>2026-04-18T12:03:58.013Z</time></trkpt><trkpt lat="43.8579617" lon="11.57278"><ele>342.0</ele><time>2026-04-18T12:03:59.013Z</time></trkpt><trkpt lat="43.8579867" lon="11.57264"><ele>342.0</ele><time>2026-04-18T12:04:00.013Z</time></trkpt><trkpt lat="43.85801" lon="11.572525"><ele>342.0</ele><time>2026-04-18T12:04:01.011Z</time></trkpt><trkpt lat="43.8580183" lon="11.5724317"><ele>342.5</ele><time>2026-04-18T12:04:02.015Z</time></trkpt><trkpt lat="43.8579633" lon="11.5723667"><ele>343.0</ele><time>2026-04-18T12:04:04.014Z</time></trkpt><trkpt lat="43.8579" lon="11.5724133"><ele>343.5</ele><time>2026-04-18T12:04:06.013Z</time></trkpt><trkpt lat="43.8578783" lon="11.5725"><ele>344.0</ele><time>2026-04-18T12:04:07.012Z</time></trkpt><trkpt lat="43.8578517" lon="11.5726067"><ele>344.5</ele><time>2026-04-18T12:04:08.015Z</time></trkpt><trkpt lat="43.8578217" lon="11.5727183"><ele>345.0</ele><time>2026-04-18T12:04:09.012Z</time></trkpt><trkpt lat="43.857775" lon="11.5728367"><ele>344.5</ele><time>2026-04-18T12:04:10.012Z</time></trkpt><trkpt lat="43.8577383" lon="11.5729433"><ele>344.0</ele><time>2026-04-18T12:04:11.013Z</time></trkpt><trkpt lat="43.8576983" lon="11.5730467"><ele>343.5</ele><time>2026-04-18T12:04:12.014Z</time></trkpt><trkpt lat="43.8576583" lon="11.5731417"><ele>343.0</ele><time>2026-04-18T12:04:13.013Z</time></trkpt><trkpt lat="43.8576183" lon="11.5732133"><ele>342.5</ele><time>2026-04-18T12:04:14.015Z</time></trkpt><trkpt lat="43.8575467" lon="11.5732133"><ele>342.0</ele><time>2026-04-18T12:04:16.009Z</time></trkpt><trkpt lat="43.8574717" lon="11.5730883"><ele>347.2857142857143</ele><time>2026-04-18T12:04:18.011Z</time></trkpt><trkpt lat="43.8574383" lon="11.573"><ele>352.57142857142856</ele><time>2026-04-18T12:04:19.013Z</time></trkpt><trkpt lat="43.85741" lon="11.57291"><ele>357.8571428571429</ele><time>2026-04-18T12:04:20.015Z</time></trkpt><trkpt lat="43.8573967" lon="11.5728183"><ele>363.1428571428571</ele><time>2026-04-18T12:04:21.011Z</time></trkpt><trkpt lat="43.8573917" lon="11.57273"><ele>368.42857142857144</ele><time>2026-04-18T12:04:22.013Z</time></trkpt><trkpt lat="43.85741" lon="11.5726433"><ele>373.7142857142857</ele><time>2026-04-18T12:04:23.014Z</time></trkpt><trkpt lat="43.8573967" lon="11.5725333"><ele>379.0</ele><time>2026-04-18T12:04:25.013Z</time></trkpt><trkpt lat="43.8573333" lon="11.5726467"><ele>379.0</ele><time>2026-04-18T12:04:28.013Z</time></trkpt><trkpt lat="43.8572967" lon="11.572725"><ele>379.0</ele><time>2026-04-18T12:04:29.013Z</time></trkpt><trkpt lat="43.8572517" lon="11.572805"><ele>379.0</ele><time>2026-04-18T12:04:30.01Z</time></trkpt><trkpt lat="43.8572083" lon="11.572895"><ele>379.0</ele><time>2026-04-18T12:04:31.012Z</time></trkpt><trkpt lat="43.8571767" lon="11.5729983"><ele>379.0</ele><time>2026-04-18T12:04:32.013Z</time></trkpt><trkpt lat="43.8571467" lon="11.57309"><ele>379.0</ele><time>2026-04-18T12:04:33.013Z</time></trkpt><trkpt lat="43.8570767" lon="11.5732233"><ele>379.0</ele><time>2026-04-18T12:04:35.015Z</time></trkpt><trkpt lat="43.8570183" lon="11.573265"><ele>379.0</ele><time>2026-04-18T12:04:36.011Z</time></trkpt><trkpt lat="43.8569217" lon="11.5733683"><ele>379.0</ele><time>2026-04-18T12:04:38.016Z</time></trkpt><trkpt lat="43.8568583" lon="11.573435"><ele>379.0</ele><time>2026-04-18T12:04:40.014Z</time></trkpt><trkpt lat="43.8567933" lon="11.5735367"><ele>379.0</ele><time>2026-04-18T12:04:50.013Z</time></trkpt><trkpt lat="43.8566883" lon="11.5736117"><ele>383.3333333333333</ele><time>2026-04-18T12:04:52.015Z</time></trkpt><trkpt lat="43.8566217" lon="11.5736167"><ele>387.66666666666663</ele><time>2026-04-18T12:04:53.013Z</time></trkpt><trkpt lat="43.856545" lon="11.573605"><ele>392.0</ele><time>2026-04-18T12:04:54.012Z</time></trkpt><trkpt lat="43.85647" lon="11.5735867"><ele>396.3333333333333</ele><time>2026-04-18T12:04:55.014Z</time></trkpt><trkpt lat="43.856385" lon="11.573565"><ele>400.6666666666667</ele><time>2026-04-18T12:04:56.015Z</time></trkpt><trkpt lat="43.8562967" lon="11.5735367"><ele>405.0</ele><time>2026-04-18T12:04:57.011Z</time></trkpt><trkpt lat="43.8562133" lon="11.5735067"><ele>405.0</ele><time>2026-04-18T12:04:58.01Z</time></trkpt><trkpt lat="43.8561333" lon="11.5734817"><ele>405.0</ele><time>2026-04-18T12:04:59.013Z</time></trkpt><trkpt lat="43.8560533" lon="11.5734717"><ele>405.0</ele><time>2026-04-18T12:05:00.012Z</time></trkpt><trkpt lat="43.8559717" lon="11.57347"><ele>405.0</ele><time>2026-04-18T12:05:01.011Z</time></trkpt><trkpt lat="43.85589" lon="11.5734867"><ele>405.0</ele><time>2026-04-18T12:05:02.015Z</time></trkpt><trkpt lat="43.8558133" lon="11.57352"><ele>405.0</ele><time>2026-04-18T12:05:03.012Z</time></trkpt><trkpt lat="43.8557433" lon="11.5735767"><ele>407.8333333333333</ele><time>2026-04-18T12:05:04.012Z</time></trkpt><trkpt lat="43.8556683" lon="11.5736283"><ele>410.66666666666663</ele><time>2026-04-18T12:05:05.012Z</time></trkpt><trkpt lat="43.8555917" lon="11.57368"><ele>413.5</ele><time>2026-04-18T12:05:06.012Z</time></trkpt><trkpt lat="43.8555133" lon="11.57374"><ele>416.3333333333333</ele><time>2026-04-18T12:05:07.012Z</time></trkpt><trkpt lat="43.8554467" lon="11.573795"><ele>419.16666666666663</ele><time>2026-04-18T12:05:08.015Z</time></trkpt><trkpt lat="43.8553983" lon="11.5738617"><ele>422.0</ele><time>2026-04-18T12:05:09.013Z</time></trkpt><trkpt lat="43.8553633" lon="11.57395"><ele>423.0</ele><time>2026-04-18T12:05:10.013Z</time></trkpt><trkpt lat="43.8553433" lon="11.5740483"><ele>424.0</ele><time>2026-04-18T12:05:11.016Z</time></trkpt><trkpt lat="43.8553217" lon="11.5741483"><ele>425.0</ele><time>2026-04-18T12:05:12.015Z</time></trkpt><trkpt lat="43.8553133" lon="11.5742533"><ele>426.0</ele><time>2026-04-18T12:05:13.014Z</time></trkpt><trkpt lat="43.855315" lon="11.5743583"><ele>427.0</ele><time>2026-04-18T12:05:14.015Z</time></trkpt><trkpt lat="43.855335" lon="11.5744583"><ele>428.0</ele><time>2026-04-18T12:05:15.012Z</time></trkpt><trkpt lat="43.8553533" lon="11.5745433"><ele>429.0</ele><time>2026-04-18T12:05:16.014Z</time></trkpt><trkpt lat="43.855365" lon="11.57469"><ele>429.0</ele><time>2026-04-18T12:05:18.012Z</time></trkpt><trkpt lat="43.855275" lon="11.5748017"><ele>429.0</ele><time>2026-04-18T12:05:20.015Z</time></trkpt><trkpt lat="43.8552133" lon="11.574845"><ele>429.0</ele><time>2026-04-18T12:05:21.012Z</time></trkpt><trkpt lat="43.8551583" lon="11.574895"><ele>429.0</ele><time>2026-04-18T12:05:22.014Z</time></trkpt><trkpt lat="43.85507" lon="11.5749633"><ele>429.0</ele><time>2026-04-18T12:05:24.013Z</time></trkpt><trkpt lat="43.8550233" lon="11.5750367"><ele>429.0</ele><time>2026-04-18T12:05:27.013Z</time></trkpt><trkpt lat="43.85503" lon="11.5751517"><ele>432.79999999999995</ele><time>2026-04-18T12:05:46.013Z</time></trkpt><trkpt lat="43.85497" lon="11.5752833"><ele>436.59999999999997</ele><time>2026-04-18T12:05:48.013Z</time></trkpt><trkpt lat="43.85492" lon="11.5753583"><ele>440.4</ele><time>2026-04-18T12:05:49.013Z</time></trkpt><trkpt lat="43.854855" lon="11.575445"><ele>444.2</ele><time>2026-04-18T12:05:50.016Z</time></trkpt><trkpt lat="43.8547917" lon="11.5755367"><ele>448.0</ele><time>2026-04-18T12:05:51.013Z</time></trkpt><trkpt lat="43.8547267" lon="11.5756217"><ele>448.6666666666667</ele><time>2026-04-18T12:05:52.013Z</time></trkpt><trkpt lat="43.8546617" lon="11.5757067"><ele>449.33333333333337</ele><time>2026-04-18T12:05:53.016Z</time></trkpt><trkpt lat="43.854595" lon="11.5757817"><ele>450.0</ele><time>2026-04-18T12:05:54.012Z</time></trkpt><trkpt lat="43.8545317" lon="11.5758183"><ele>450.66666666666663</ele><time>2026-04-18T12:05:55.013Z</time></trkpt><trkpt lat="43.854465" lon="11.5758283"><ele>451.3333333333333</ele><time>2026-04-18T12:05:56.015Z</time></trkpt><trkpt lat="43.8543817" lon="11.575825"><ele>452.0</ele><time>2026-04-18T12:05:57.012Z</time></trkpt><trkpt lat="43.8542967" lon="11.5758183"><ele>454.3333333333333</ele><time>2026-04-18T12:05:58.012Z</time></trkpt><trkpt lat="43.854215" lon="11.5758317"><ele>456.66666666666663</ele><time>2026-04-18T12:05:59.013Z</time></trkpt><trkpt lat="43.85414" lon="11.57586"><ele>459.0</ele><time>2026-04-18T12:06:00.011Z</time></trkpt><trkpt lat="43.8540583" lon="11.5759117"><ele>461.33333333333337</ele><time>2026-04-18T12:06:01.012Z</time></trkpt><trkpt lat="43.85398" lon="11.5759717"><ele>463.6666666666667</ele><time>2026-04-18T12:06:02.015Z</time></trkpt><trkpt lat="43.8539017" lon="11.5760317"><ele>466.0</ele><time>2026-04-18T12:06:03.011Z</time></trkpt><trkpt lat="43.85381" lon="11.5760783"><ele>466.00000000000006</ele><time>2026-04-18T12:06:04.013Z</time></trkpt><trkpt lat="43.85372" lon="11.5761167"><ele>466.0</ele><time>2026-04-18T12:06:05.013Z</time></trkpt><trkpt lat="43.8536317" lon="11.5761483"><ele>466.0</ele><time>2026-04-18T12:06:06.013Z</time></trkpt><trkpt lat="43.8535467" lon="11.5761783"><ele>466.0</ele><time>2026-04-18T12:06:07.014Z</time></trkpt><trkpt lat="43.8534717" lon="11.5762"><ele>466.00000000000006</ele><time>2026-04-18T12:06:08.015Z</time></trkpt><trkpt lat="43.853405" lon="11.5762117"><ele>466.0</ele><time>2026-04-18T12:06:09.012Z</time></trkpt><trkpt lat="43.8533167" lon="11.576225"><ele>466.00000000000006</ele><time>2026-04-18T12:06:11.014Z</time></trkpt><trkpt lat="43.8532483" lon="11.5762383"><ele>466.0</ele><time>2026-04-18T12:06:14.015Z</time></trkpt><trkpt lat="43.8531767" lon="11.5762467"><ele>466.0</ele><time>2026-04-18T12:06:19.014Z</time></trkpt><trkpt lat="43.8532833" lon="11.5761967"><ele>466.0</ele><time>2026-04-18T12:07:05.014Z</time></trkpt><trkpt lat="43.85336" lon="11.5761883"><ele>466.00000000000006</ele><time>2026-04-18T12:07:06.012Z</time></trkpt><trkpt lat="43.8534517" lon="11.576175"><ele>466.0</ele><time>2026-04-18T12:07:07.012Z</time></trkpt><trkpt lat="43.8535467" lon="11.5761533"><ele>466.00000000000006</ele><time>2026-04-18T12:07:08.014Z</time></trkpt><trkpt lat="43.8536333" lon="11.57613"><ele>466.0</ele><time>2026-04-18T12:07:09.013Z</time></trkpt><trkpt lat="43.8537117" lon="11.5761"><ele>466.0</ele><time>2026-04-18T12:07:10.013Z</time></trkpt><trkpt lat="43.8537867" lon="11.5760667"><ele>466.0</ele><time>2026-04-18T12:07:11.015Z</time></trkpt><trkpt lat="43.8538617" lon="11.5760217"><ele>466.00000000000006</ele><time>2026-04-18T12:07:12.014Z</time></trkpt><trkpt lat="43.85394" lon="11.57597"><ele>466.0</ele><time>2026-04-18T12:07:13.013Z</time></trkpt><trkpt lat="43.8540133" lon="11.575915"><ele>466.00000000000006</ele><time>2026-04-18T12:07:14.016Z</time></trkpt><trkpt lat="43.8540833" lon="11.5758583"><ele>466.0</ele><time>2026-04-18T12:07:15.011Z</time></trkpt><trkpt lat="43.8541417" lon="11.5758083"><ele>466.0</ele><time>2026-04-18T12:07:16.013Z</time></trkpt><trkpt lat="43.8542067" lon="11.5757667"><ele>466.0</ele><time>2026-04-18T12:07:17.014Z</time></trkpt><trkpt lat="43.8542833" lon="11.5757517"><ele>466.00000000000006</ele><time>2026-04-18T12:07:18.012Z</time></trkpt><trkpt lat="43.8543733" lon="11.57575"><ele>466.0</ele><time>2026-04-18T12:07:19.016Z</time></trkpt><trkpt lat="43.85446" lon="11.5757517"><ele>463.20000000000005</ele><time>2026-04-18T12:07:20.015Z</time></trkpt><trkpt lat="43.85453" lon="11.5757467"><ele>460.40000000000003</ele><time>2026-04-18T12:07:21.011Z</time></trkpt><trkpt lat="43.8546433" lon="11.57566"><ele>457.6</ele><time>2026-04-18T12:07:23.015Z</time></trkpt><trkpt lat="43.854715" lon="11.5755867"><ele>454.8</ele><time>2026-04-18T12:07:24.013Z</time></trkpt><trkpt lat="43.8547783" lon="11.57551"><ele>452.0</ele><time>2026-04-18T12:07:25.015Z</time></trkpt><trkpt lat="43.8548383" lon="11.5754283"><ele>451.3333333333333</ele><time>2026-04-18T12:07:26.016Z</time></trkpt><trkpt lat="43.8548967" lon="11.5753433"><ele>450.66666666666663</ele><time>2026-04-18T12:07:27.013Z</time></trkpt><trkpt lat="43.85495" lon="11.575265"><ele>450.0</ele><time>2026-04-18T12:07:28.013Z</time></trkpt><trkpt lat="43.8550283" lon="11.5751517"><ele>449.33333333333337</ele><time>2026-04-18T12:07:30.013Z</time></trkpt><trkpt lat="43.8550533" lon="11.5750567"><ele>448.6666666666667</ele><time>2026-04-18T12:07:32.014Z</time></trkpt><trkpt lat="43.8550083" lon="11.5749917"><ele>448.0</ele><time>2026-04-18T12:07:35.013Z</time></trkpt><trkpt lat="43.8550417" lon="11.575075"><ele>448.0</ele><time>2026-04-18T12:08:53.016Z</time></trkpt><trkpt lat="43.855025" lon="11.57518"><ele>447.99999999999994</ele><time>2026-04-18T12:08:57.013Z</time></trkpt><trkpt lat="43.85495" lon="11.5752867"><ele>447.99999999999994</ele><time>2026-04-18T12:09:00.014Z</time></trkpt><trkpt lat="43.8548917" lon="11.5753883"><ele>448.0</ele><time>2026-04-18T12:09:02.014Z</time></trkpt><trkpt lat="43.85483" lon="11.5755117"><ele>448.0</ele><time>2026-04-18T12:09:04.012Z</time></trkpt><trkpt lat="43.8547483" lon="11.57561"><ele>448.79999999999995</ele><time>2026-04-18T12:09:06.011Z</time></trkpt><trkpt lat="43.854655" lon="11.57572"><ele>449.59999999999997</ele><time>2026-04-18T12:09:08.014Z</time></trkpt><trkpt lat="43.8545667" lon="11.5757883"><ele>450.40000000000003</ele><time>2026-04-18T12:09:10.012Z</time></trkpt><trkpt lat="43.85446" lon="11.5757917"><ele>451.20000000000005</ele><time>2026-04-18T12:09:12.002Z</time></trkpt><trkpt lat="43.8543883" lon="11.5757933"><ele>452.0</ele><time>2026-04-18T12:09:13.015Z</time></trkpt><trkpt lat="43.8543233" lon="11.5757917"><ele>454.3333333333333</ele><time>2026-04-18T12:09:14.014Z</time></trkpt><trkpt lat="43.8542067" lon="11.5758167"><ele>456.66666666666663</ele><time>2026-04-18T12:09:16.012Z</time></trkpt><trkpt lat="43.8541483" lon="11.5758533"><ele>459.0</ele><time>2026-04-18T12:09:17.014Z</time></trkpt><trkpt lat="43.8540833" lon="11.5758917"><ele>461.33333333333337</ele><time>2026-04-18T12:09:18.012Z</time></trkpt><trkpt lat="43.8540167" lon="11.5759317"><ele>463.6666666666667</ele><time>2026-04-18T12:09:19.014Z</time></trkpt><trkpt lat="43.8539583" lon="11.5759733"><ele>466.0</ele><time>2026-04-18T12:09:20.016Z</time></trkpt><trkpt lat="43.8538483" lon="11.576055"><ele>466.0</ele><time>2026-04-18T12:09:22.013Z</time></trkpt><trkpt lat="43.8537367" lon="11.576115"><ele>466.0</ele><time>2026-04-18T12:09:24.013Z</time></trkpt><trkpt lat="43.8536267" lon="11.5761533"><ele>466.0</ele><time>2026-04-18T12:09:26.015Z</time></trkpt><trkpt lat="43.8535117" lon="11.5761833"><ele>466.0</ele><time>2026-04-18T12:09:28.012Z</time></trkpt><trkpt lat="43.8533883" lon="11.5762033"><ele>465.6</ele><time>2026-04-18T12:09:30.011Z</time></trkpt><trkpt lat="43.8533233" lon="11.5762117"><ele>465.20000000000005</ele><time>2026-04-18T12:09:31.012Z</time></trkpt><trkpt lat="43.8532583" lon="11.576225"><ele>464.79999999999995</ele><time>2026-04-18T12:09:32.014Z</time></trkpt><trkpt lat="43.8531333" lon="11.5762283"><ele>464.4</ele><time>2026-04-18T12:09:34.013Z</time></trkpt><trkpt lat="43.8530183" lon="11.57622"><ele>464.0</ele><time>2026-04-18T12:09:36.013Z</time></trkpt><trkpt lat="43.8529033" lon="11.576225"><ele>463.99999999999994</ele><time>2026-04-18T12:09:38.015Z</time></trkpt><trkpt lat="43.85284" lon="11.576245"><ele>464.0</ele><time>2026-04-18T12:09:39.012Z</time></trkpt><trkpt lat="43.8527733" lon="11.5762633"><ele>464.0</ele><time>2026-04-18T12:09:40.016Z</time></trkpt><trkpt lat="43.8527033" lon="11.5762767"><ele>464.0</ele><time>2026-04-18T12:09:41.017Z</time></trkpt><trkpt lat="43.85264" lon="11.576275"><ele>463.99999999999994</ele><time>2026-04-18T12:09:42.013Z</time></trkpt><trkpt lat="43.8525167" lon="11.5762617"><ele>464.0</ele><time>2026-04-18T12:09:44.015Z</time></trkpt><trkpt lat="43.852455" lon="11.5762433"><ele>464.0</ele><time>2026-04-18T12:09:45.013Z</time></trkpt><trkpt lat="43.8523917" lon="11.5762217"><ele>464.0</ele><time>2026-04-18T12:09:46.013Z</time></trkpt><trkpt lat="43.8523267" lon="11.576195"><ele>464.0</ele><time>2026-04-18T12:09:47.015Z</time></trkpt><trkpt lat="43.8522067" lon="11.5761683"><ele>464.0</ele><time>2026-04-18T12:09:49.015Z</time></trkpt><trkpt lat="43.8520783" lon="11.5761567"><ele>464.0</ele><time>2026-04-18T12:09:51.013Z</time></trkpt><trkpt lat="43.8520067" lon="11.57616"><ele>465.66666666666663</ele><time>2026-04-18T12:09:52.014Z</time></trkpt><trkpt lat="43.851935" lon="11.5761633"><ele>467.3333333333333</ele><time>2026-04-18T12:09:53.015Z</time></trkpt><trkpt lat="43.85186" lon="11.57617"><ele>469.0</ele><time>2026-04-18T12:09:54.013Z</time></trkpt><trkpt lat="43.8517867" lon="11.5761733"><ele>470.66666666666663</ele><time>2026-04-18T12:09:55.016Z</time></trkpt><trkpt lat="43.85171" lon="11.57616"><ele>472.3333333333333</ele><time>2026-04-18T12:09:56.016Z</time></trkpt><trkpt lat="43.8516317" lon="11.5761417"><ele>474.0</ele><time>2026-04-18T12:09:57.012Z</time></trkpt><trkpt lat="43.8515583" lon="11.5761183"><ele>474.1666666666667</ele><time>2026-04-18T12:09:58.015Z</time></trkpt><trkpt lat="43.851485" lon="11.5760833"><ele>474.33333333333337</ele><time>2026-04-18T12:09:59.012Z</time></trkpt><trkpt lat="43.8514133" lon="11.576035"><ele>474.5</ele><time>2026-04-18T12:10:00.012Z</time></trkpt><trkpt lat="43.851345" lon="11.5759967"><ele>474.6666666666667</ele><time>2026-04-18T12:10:01.012Z</time></trkpt><trkpt lat="43.851285" lon="11.57596"><ele>474.83333333333337</ele><time>2026-04-18T12:10:02.016Z</time></trkpt><trkpt lat="43.8512" lon="11.5758867"><ele>475.0</ele><time>2026-04-18T12:10:04.013Z</time></trkpt><trkpt lat="43.8511417" lon="11.575815"><ele>475.00000000000006</ele><time>2026-04-18T12:10:06.013Z</time></trkpt><trkpt lat="43.8510917" lon="11.5757067"><ele>475.0</ele><time>2026-04-18T12:10:08.014Z</time></trkpt><trkpt lat="43.8510067" lon="11.575575"><ele>475.0</ele><time>2026-04-18T12:10:10.014Z</time></trkpt><trkpt lat="43.850955" lon="11.5755"><ele>475.0</ele><time>2026-04-18T12:10:11.017Z</time></trkpt><trkpt lat="43.8509" lon="11.575425"><ele>475.00000000000006</ele><time>2026-04-18T12:10:12.013Z</time></trkpt><trkpt lat="43.85087" lon="11.5753417"><ele>475.0</ele><time>2026-04-18T12:10:13.015Z</time></trkpt><trkpt lat="43.8508483" lon="11.575255"><ele>478.4</ele><time>2026-04-18T12:10:14.015Z</time></trkpt><trkpt lat="43.8508033" lon="11.5751683"><ele>481.8</ele><time>2026-04-18T12:10:15.012Z</time></trkpt><trkpt lat="43.8507433" lon="11.5751"><ele>485.20000000000005</ele><time>2026-04-18T12:10:16.013Z</time></trkpt><trkpt lat="43.8506367" lon="11.575035"><ele>488.6</ele><time>2026-04-18T12:10:18.013Z</time></trkpt><trkpt lat="43.8505183" lon="11.5749967"><ele>492.0</ele><time>2026-04-18T12:10:20.015Z</time></trkpt><trkpt lat="43.8503983" lon="11.5749467"><ele>492.0</ele><time>2026-04-18T12:10:22.014Z</time></trkpt><trkpt lat="43.8503383" lon="11.574905"><ele>492.0</ele><time>2026-04-18T12:10:23.015Z</time></trkpt><trkpt lat="43.8502817" lon="11.574855"><ele>492.0</ele><time>2026-04-18T12:10:24.014Z</time></trkpt><trkpt lat="43.85018" lon="11.5747483"><ele>492.0</ele><time>2026-04-18T12:10:26.015Z</time></trkpt><trkpt lat="43.8501167" lon="11.5746983"><ele>492.0</ele><time>2026-04-18T12:10:27.013Z</time></trkpt><trkpt lat="43.8500533" lon="11.5746617"><ele>492.0</ele><time>2026-04-18T12:10:28.013Z</time></trkpt><trkpt lat="43.84999" lon="11.5746083"><ele>494.8333333333333</ele><time>2026-04-18T12:10:29.013Z</time></trkpt><trkpt lat="43.8499317" lon="11.5745467"><ele>497.66666666666663</ele><time>2026-04-18T12:10:30.013Z</time></trkpt><trkpt lat="43.84987" lon="11.5744733"><ele>500.5</ele><time>2026-04-18T12:10:31.013Z</time></trkpt><trkpt lat="43.8498033" lon="11.5743883"><ele>503.3333333333333</ele><time>2026-04-18T12:10:32.014Z</time></trkpt><trkpt lat="43.849735" lon="11.57431"><ele>506.16666666666663</ele><time>2026-04-18T12:10:33.012Z</time></trkpt><trkpt lat="43.8496683" lon="11.5742267"><ele>509.0</ele><time>2026-04-18T12:10:34.012Z</time></trkpt><trkpt lat="43.8496033" lon="11.5741433"><ele>509.0</ele><time>2026-04-18T12:10:35.013Z</time></trkpt><trkpt lat="43.8495517" lon="11.5740667"><ele>509.0</ele><time>2026-04-18T12:10:36.013Z</time></trkpt><trkpt lat="43.8495" lon="11.5739983"><ele>509.0</ele><time>2026-04-18T12:10:37.015Z</time></trkpt><trkpt lat="43.8494167" lon="11.5739083"><ele>509.0</ele><time>2026-04-18T12:10:39.013Z</time></trkpt><trkpt lat="43.849325" lon="11.5739033"><ele>509.0</ele><time>2026-04-18T12:10:41.014Z</time></trkpt><trkpt lat="43.8492233" lon="11.57398"><ele>513.6666666666666</ele><time>2026-04-18T12:10:43.014Z</time></trkpt><trkpt lat="43.8491683" lon="11.5740367"><ele>518.3333333333333</ele><time>2026-04-18T12:10:44.017Z</time></trkpt><trkpt lat="43.8490917" lon="11.574105"><ele>523.0</ele><time>2026-04-18T12:10:45.013Z</time></trkpt><trkpt lat="43.8490233" lon="11.5741783"><ele>527.6666666666666</ele><time>2026-04-18T12:10:46.013Z</time></trkpt><trkpt lat="43.8489583" lon="11.574245"><ele>532.3333333333334</ele><time>2026-04-18T12:10:47.015Z</time></trkpt><trkpt lat="43.8488917" lon="11.57429"><ele>537.0</ele><time>2026-04-18T12:10:48.014Z</time></trkpt><trkpt lat="43.8488067" lon="11.574335"><ele>537.0</ele><time>2026-04-18T12:10:49.016Z</time></trkpt><trkpt lat="43.8487217" lon="11.5743933"><ele>537.0</ele><time>2026-04-18T12:10:50.016Z</time></trkpt><trkpt lat="43.8486333" lon="11.5744583"><ele>537.0</ele><time>2026-04-18T12:10:51.011Z</time></trkpt><trkpt lat="43.8485667" lon="11.5744183"><ele>537.0</ele><time>2026-04-18T12:10:52.012Z</time></trkpt><trkpt lat="43.8484883" lon="11.57443"><ele>537.0</ele><time>2026-04-18T12:10:53.013Z</time></trkpt><trkpt lat="43.8484183" lon="11.574425"><ele>537.0</ele><time>2026-04-18T12:10:54.012Z</time></trkpt><trkpt lat="43.8483067" lon="11.5744083"><ele>537.1666666666666</ele><time>2026-04-18T12:10:56.015Z</time></trkpt><trkpt lat="43.8481883" lon="11.57443"><ele>537.3333333333334</ele><time>2026-04-18T12:10:58.013Z</time></trkpt><trkpt lat="43.848125" lon="11.5744467"><ele>537.5</ele><time>2026-04-18T12:10:59.014Z</time></trkpt><trkpt lat="43.8480483" lon="11.574445"><ele>537.6666666666667</ele><time>2026-04-18T12:11:00.012Z</time></trkpt><trkpt lat="43.84797" lon="11.5744483"><ele>537.8333333333334</ele><time>2026-04-18T12:11:01.012Z</time></trkpt><trkpt lat="43.8479033" lon="11.5744583"><ele>538.0</ele><time>2026-04-18T12:11:02.013Z</time></trkpt><trkpt lat="43.84778" lon="11.5745217"><ele>537.6666666666667</ele><time>2026-04-18T12:11:04.012Z</time></trkpt><trkpt lat="43.847705" lon="11.5745633"><ele>537.3333333333334</ele><time>2026-04-18T12:11:05.013Z</time></trkpt><trkpt lat="43.8476183" lon="11.5745917"><ele>537.0</ele><time>2026-04-18T12:11:06.011Z</time></trkpt><trkpt lat="43.8475333" lon="11.574595"><ele>536.6666666666666</ele><time>2026-04-18T12:11:07.014Z</time></trkpt><trkpt lat="43.8474517" lon="11.5745717"><ele>536.3333333333333</ele><time>2026-04-18T12:11:08.015Z</time></trkpt><trkpt lat="43.84738" lon="11.57452"><ele>536.0</ele><time>2026-04-18T12:11:09.012Z</time></trkpt><trkpt lat="43.847315" lon="11.574445"><ele>536.0</ele><time>2026-04-18T12:11:10.013Z</time></trkpt><trkpt lat="43.847255" lon="11.5743617"><ele>536.0</ele><time>2026-04-18T12:11:11.013Z</time></trkpt><trkpt lat="43.8471967" lon="11.57427"><ele>536.0</ele><time>2026-04-18T12:11:12.012Z</time></trkpt><trkpt lat="43.8471567" lon="11.57418"><ele>536.0</ele><time>2026-04-18T12:11:13.014Z</time></trkpt><trkpt lat="43.84712" lon="11.5740833"><ele>536.0</ele><time>2026-04-18T12:11:14.015Z</time></trkpt><trkpt lat="43.84708" lon="11.5739767"><ele>536.0</ele><time>2026-04-18T12:11:15.014Z</time></trkpt><trkpt lat="43.8470583" lon="11.5738767"><ele>536.0</ele><time>2026-04-18T12:11:16.012Z</time></trkpt><trkpt lat="43.84702" lon="11.573785"><ele>536.0</ele><time>2026-04-18T12:11:17.014Z</time></trkpt><trkpt lat="43.8469667" lon="11.5737"><ele>536.0</ele><time>2026-04-18T12:11:18.012Z</time></trkpt><trkpt lat="43.8469067" lon="11.5736233"><ele>536.0</ele><time>2026-04-18T12:11:19.013Z</time></trkpt><trkpt lat="43.846835" lon="11.5735617"><ele>536.0</ele><time>2026-04-18T12:11:20.015Z</time></trkpt><trkpt lat="43.84676" lon="11.5735167"><ele>536.0</ele><time>2026-04-18T12:11:21.012Z</time></trkpt><trkpt lat="43.8466433" lon="11.573545"><ele>534.8</ele><time>2026-04-18T12:11:23.015Z</time></trkpt><trkpt lat="43.8465967" lon="11.573625"><ele>533.6</ele><time>2026-04-18T12:11:24.013Z</time></trkpt><trkpt lat="43.846545" lon="11.57374"><ele>532.4</ele><time>2026-04-18T12:11:25.013Z</time></trkpt><trkpt lat="43.8464917" lon="11.5738483"><ele>531.2</ele><time>2026-04-18T12:11:26.015Z</time></trkpt><trkpt lat="43.8464333" lon="11.5739667"><ele>530.0</ele><time>2026-04-18T12:11:27.003Z</time></trkpt><trkpt lat="43.8463883" lon="11.574085"><ele>531.0</ele><time>2026-04-18T12:11:28.012Z</time></trkpt><trkpt lat="43.8463433" lon="11.574175"><ele>532.0</ele><time>2026-04-18T12:11:29.013Z</time></trkpt><trkpt lat="43.84629" lon="11.5742533"><ele>533.0</ele><time>2026-04-18T12:11:30.01Z</time></trkpt><trkpt lat="43.84622" lon="11.5743133"><ele>534.0</ele><time>2026-04-18T12:11:31.012Z</time></trkpt><trkpt lat="43.8461283" lon="11.5743483"><ele>535.0</ele><time>2026-04-18T12:11:32.015Z</time></trkpt><trkpt lat="43.846035" lon="11.574395"><ele>536.0</ele><time>2026-04-18T12:11:33.012Z</time></trkpt><trkpt lat="43.845935" lon="11.5744633"><ele>541.2</ele><time>2026-04-18T12:11:34.013Z</time></trkpt><trkpt lat="43.845835" lon="11.5745317"><ele>546.4000000000001</ele><time>2026-04-18T12:11:35.013Z</time></trkpt><trkpt lat="43.84576" lon="11.5746133"><ele>551.6</ele><time>2026-04-18T12:11:36.014Z</time></trkpt><trkpt lat="43.8456917" lon="11.5747133"><ele>556.8000000000001</ele><time>2026-04-18T12:11:37.012Z</time></trkpt><trkpt lat="43.845635" lon="11.5748"><ele>562.0</ele><time>2026-04-18T12:11:38.014Z</time></trkpt><trkpt lat="43.8455733" lon="11.57487"><ele>562.0</ele><time>2026-04-18T12:11:39.011Z</time></trkpt><trkpt lat="43.8454917" lon="11.5749167"><ele>562.0</ele><time>2026-04-18T12:11:40.012Z</time></trkpt><trkpt lat="43.8453983" lon="11.57495"><ele>562.0</ele><time>2026-04-18T12:11:41.011Z</time></trkpt><trkpt lat="43.8453167" lon="11.574975"><ele>562.0</ele><time>2026-04-18T12:11:42.011Z</time></trkpt><trkpt lat="43.84523" lon="11.5749867"><ele>562.0</ele><time>2026-04-18T12:11:43.012Z</time></trkpt><trkpt lat="43.8451517" lon="11.5749917"><ele>562.0</ele><time>2026-04-18T12:11:44.015Z</time></trkpt><trkpt lat="43.845085" lon="11.5750033"><ele>562.0</ele><time>2026-04-18T12:11:45.012Z</time></trkpt><trkpt lat="43.8450167" lon="11.5750117"><ele>562.0</ele><time>2026-04-18T12:11:46.012Z</time></trkpt><trkpt lat="43.8449233" lon="11.57503"><ele>562.0</ele><time>2026-04-18T12:11:48.012Z</time></trkpt><trkpt lat="43.8450067" lon="11.5750983"><ele>562.0</ele><time>2026-04-18T12:12:05.003Z</time></trkpt><trkpt lat="43.845125" lon="11.5751433"><ele>562.0</ele><time>2026-04-18T12:12:07.014Z</time></trkpt><trkpt lat="43.8451917" lon="11.575185"><ele>562.0</ele><time>2026-04-18T12:12:08.015Z</time></trkpt><trkpt lat="43.8452733" lon="11.5752267"><ele>562.0</ele><time>2026-04-18T12:12:09.011Z</time></trkpt><trkpt lat="43.8453667" lon="11.5752533"><ele>562.0</ele><time>2026-04-18T12:12:10.013Z</time></trkpt><trkpt lat="43.8454667" lon="11.5752633"><ele>562.0</ele><time>2026-04-18T12:12:11.012Z</time></trkpt><trkpt lat="43.84558" lon="11.5752533"><ele>562.0</ele><time>2026-04-18T12:12:12.011Z</time></trkpt><trkpt lat="43.8456683" lon="11.575215"><ele>562.0</ele><time>2026-04-18T12:12:13.014Z</time></trkpt><trkpt lat="43.845745" lon="11.5751433"><ele>562.0</ele><time>2026-04-18T12:12:14.015Z</time></trkpt><trkpt lat="43.8458167" lon="11.5751367"><ele>562.0</ele><time>2026-04-18T12:12:15.012Z</time></trkpt><trkpt lat="43.8458983" lon="11.57519"><ele>562.0</ele><time>2026-04-18T12:12:17.015Z</time></trkpt><trkpt lat="43.8458583" lon="11.5753367"><ele>562.0</ele><time>2026-04-18T12:12:19.014Z</time></trkpt><trkpt lat="43.84581" lon="11.57542"><ele>562.0</ele><time>2026-04-18T12:12:20.015Z</time></trkpt><trkpt lat="43.845775" lon="11.5755283"><ele>563.8000000000001</ele><time>2026-04-18T12:12:21.011Z</time></trkpt><trkpt lat="43.8457317" lon="11.575675"><ele>565.6</ele><time>2026-04-18T12:12:22.013Z</time></trkpt><trkpt lat="43.8457067" lon="11.5758333"><ele>567.4000000000001</ele><time>2026-04-18T12:12:23.013Z</time></trkpt><trkpt lat="43.8456817" lon="11.5759783"><ele>569.2</ele><time>2026-04-18T12:12:24.013Z</time></trkpt><trkpt lat="43.8456667" lon="11.57612"><ele>571.0</ele><time>2026-04-18T12:12:25.013Z</time></trkpt><trkpt lat="43.84563" lon="11.5762283"><ele>571.0</ele><time>2026-04-18T12:12:26.014Z</time></trkpt><trkpt lat="43.8455817" lon="11.5763067"><ele>571.0</ele><time>2026-04-18T12:12:27.011Z</time></trkpt><trkpt lat="43.845515" lon="11.57636"><ele>571.0</ele><time>2026-04-18T12:12:28.013Z</time></trkpt><trkpt lat="43.8454267" lon="11.5763517"><ele>571.0</ele><time>2026-04-18T12:12:29.013Z</time></trkpt><trkpt lat="43.84532" lon="11.5763433"><ele>571.0</ele><time>2026-04-18T12:12:30.01Z</time></trkpt><trkpt lat="43.8451983" lon="11.5763233"><ele>570.0</ele><time>2026-04-18T12:12:31.012Z</time></trkpt><trkpt lat="43.8450833" lon="11.5762533"><ele>569.0</ele><time>2026-04-18T12:12:32.014Z</time></trkpt><trkpt lat="43.8449767" lon="11.5761933"><ele>568.0</ele><time>2026-04-18T12:12:33.012Z</time></trkpt><trkpt lat="43.84488" lon="11.5761383"><ele>567.0</ele><time>2026-04-18T12:12:34.013Z</time></trkpt><trkpt lat="43.8447967" lon="11.576135"><ele>566.0</ele><time>2026-04-18T12:12:35.013Z</time></trkpt><trkpt lat="43.8447217" lon="11.5761667"><ele>569.6</ele><time>2026-04-18T12:12:36.012Z</time></trkpt><trkpt lat="43.84469" lon="11.5762833"><ele>573.2</ele><time>2026-04-18T12:12:38.015Z</time></trkpt><trkpt lat="43.8447733" lon="11.57638"><ele>576.8</ele><time>2026-04-18T12:12:40.013Z</time></trkpt><trkpt lat="43.8448567" lon="11.5764133"><ele>580.4</ele><time>2026-04-18T12:12:41.014Z</time></trkpt><trkpt lat="43.8449517" lon="11.57646"><ele>584.0</ele><time>2026-04-18T12:12:42.013Z</time></trkpt><trkpt lat="43.84505" lon="11.5765167"><ele>581.4</ele><time>2026-04-18T12:12:43.014Z</time></trkpt><trkpt lat="43.8451517" lon="11.5765617"><ele>578.8</ele><time>2026-04-18T12:12:44.015Z</time></trkpt><trkpt lat="43.8452383" lon="11.5765967"><ele>576.2</ele><time>2026-04-18T12:12:45.011Z</time></trkpt><trkpt lat="43.845315" lon="11.5766433"><ele>573.6</ele><time>2026-04-18T12:12:46.014Z</time></trkpt><trkpt lat="43.84539" lon="11.5767567"><ele>571.0</ele><time>2026-04-18T12:12:48.012Z</time></trkpt><trkpt lat="43.84537" lon="11.5768617"><ele>568.0</ele><time>2026-04-18T12:12:50.014Z</time></trkpt><trkpt lat="43.845345" lon="11.5770233"><ele>565.0</ele><time>2026-04-18T12:13:05.014Z</time></trkpt><trkpt lat="43.8453233" lon="11.5771283"><ele>562.0</ele><time>2026-04-18T12:13:07.011Z</time></trkpt><trkpt lat="43.8452867" lon="11.577245"><ele>559.0</ele><time>2026-04-18T12:13:09.014Z</time></trkpt><trkpt lat="43.8452367" lon="11.5773683"><ele>556.0</ele><time>2026-04-18T12:13:11.013Z</time></trkpt><trkpt lat="43.8451717" lon="11.577475"><ele>561.6</ele><time>2026-04-18T12:13:13.014Z</time></trkpt><trkpt lat="43.8451017" lon="11.5775583"><ele>567.2</ele><time>2026-04-18T12:13:15.013Z</time></trkpt><trkpt lat="43.8450817" lon="11.5776667"><ele>572.8</ele><time>2026-04-18T12:13:17.013Z</time></trkpt><trkpt lat="43.84502" lon="11.5778017"><ele>578.4</ele><time>2026-04-18T12:13:19.014Z</time></trkpt><trkpt lat="43.8449633" lon="11.57787"><ele>584.0</ele><time>2026-04-18T12:13:20.015Z</time></trkpt><trkpt lat="43.8448917" lon="11.5779467"><ele>584.0</ele><time>2026-04-18T12:13:21.013Z</time></trkpt><trkpt lat="43.84482" lon="11.5780167"><ele>584.0</ele><time>2026-04-18T12:13:22.013Z</time></trkpt><trkpt lat="43.8447517" lon="11.5780917"><ele>584.0</ele><time>2026-04-18T12:13:23.015Z</time></trkpt><trkpt lat="43.8446917" lon="11.57818"><ele>584.0</ele><time>2026-04-18T12:13:24.013Z</time></trkpt><trkpt lat="43.8446333" lon="11.57828"><ele>584.0</ele><time>2026-04-18T12:13:25.015Z</time></trkpt><trkpt lat="43.8445733" lon="11.5784067"><ele>584.0</ele><time>2026-04-18T12:13:26.015Z</time></trkpt><trkpt lat="43.84451" lon="11.5785217"><ele>584.0</ele><time>2026-04-18T12:13:27.013Z</time></trkpt><trkpt lat="43.84445" lon="11.5786367"><ele>584.0</ele><time>2026-04-18T12:13:28.013Z</time></trkpt><trkpt lat="43.8443883" lon="11.5787633"><ele>584.0</ele><time>2026-04-18T12:13:29.013Z</time></trkpt><trkpt lat="43.8443433" lon="11.5788767"><ele>584.0</ele><time>2026-04-18T12:13:30.012Z</time></trkpt><trkpt lat="43.8443017" lon="11.57899"><ele>587.0</ele><time>2026-04-18T12:13:31.013Z</time></trkpt><trkpt lat="43.8442517" lon="11.5790867"><ele>590.0</ele><time>2026-04-18T12:13:32.016Z</time></trkpt><trkpt lat="43.8441933" lon="11.5791633"><ele>593.0</ele><time>2026-04-18T12:13:33.013Z</time></trkpt><trkpt lat="43.8441433" lon="11.5792317"><ele>596.0</ele><time>2026-04-18T12:13:34.013Z</time></trkpt><trkpt lat="43.8440933" lon="11.579295"><ele>599.0</ele><time>2026-04-18T12:13:36.012Z</time></trkpt><trkpt lat="43.844035" lon="11.57923"><ele>602.0</ele><time>2026-04-18T12:13:39.013Z</time></trkpt><trkpt lat="43.84397" lon="11.5792333"><ele>605.0</ele><time>2026-04-18T12:13:41.014Z</time></trkpt><trkpt lat="43.84391" lon="11.5793283"><ele>605.0</ele><time>2026-04-18T12:13:44.015Z</time></trkpt><trkpt lat="43.8438817" lon="11.5794867"><ele>605.0</ele><time>2026-04-18T12:13:46.013Z</time></trkpt><trkpt lat="43.8438583" lon="11.5795867"><ele>605.0</ele><time>2026-04-18T12:13:47.013Z</time></trkpt><trkpt lat="43.8438333" lon="11.5797033"><ele>605.0</ele><time>2026-04-18T12:13:48.014Z</time></trkpt><trkpt lat="43.8438067" lon="11.5798217"><ele>605.0</ele><time>2026-04-18T12:13:49.013Z</time></trkpt><trkpt lat="43.8437783" lon="11.5799333"><ele>605.4</ele><time>2026-04-18T12:13:50.015Z</time></trkpt><trkpt lat="43.8437533" lon="11.5800633"><ele>605.8</ele><time>2026-04-18T12:13:51.012Z</time></trkpt><trkpt lat="43.843735" lon="11.5802167"><ele>606.2</ele><time>2026-04-18T12:13:52.013Z</time></trkpt><trkpt lat="43.84371" lon="11.5803567"><ele>606.6</ele><time>2026-04-18T12:13:53.014Z</time></trkpt><trkpt lat="43.843685" lon="11.580475"><ele>607.0</ele><time>2026-04-18T12:13:54.015Z</time></trkpt><trkpt lat="43.8436667" lon="11.5805867"><ele>607.3333333333334</ele><time>2026-04-18T12:13:55.015Z</time></trkpt><trkpt lat="43.8436533" lon="11.580695"><ele>607.6666666666667</ele><time>2026-04-18T12:13:56.017Z</time></trkpt><trkpt lat="43.84364" lon="11.58079"><ele>608.0</ele><time>2026-04-18T12:13:57.012Z</time></trkpt><trkpt lat="43.8436283" lon="11.5808833"><ele>608.3333333333334</ele><time>2026-04-18T12:13:58.012Z</time></trkpt><trkpt lat="43.843625" lon="11.581035"><ele>608.6666666666666</ele><time>2026-04-18T12:14:00.014Z</time></trkpt><trkpt lat="43.8436333" lon="11.5811483"><ele>609.0</ele><time>2026-04-18T12:14:02.003Z</time></trkpt><trkpt lat="43.84363" lon="11.5812583"><ele>609.1666666666666</ele><time>2026-04-18T12:14:04.014Z</time></trkpt><trkpt lat="43.84361" lon="11.5813867"><ele>609.3333333333334</ele><time>2026-04-18T12:14:06.013Z</time></trkpt><trkpt lat="43.8435933" lon="11.5815133"><ele>609.5</ele><time>2026-04-18T12:14:08.017Z</time></trkpt><trkpt lat="43.8435933" lon="11.5816133"><ele>609.6666666666667</ele><time>2026-04-18T12:14:10.012Z</time></trkpt><trkpt lat="43.8435817" lon="11.58172"><ele>609.8333333333334</ele><time>2026-04-18T12:14:12.013Z</time></trkpt><trkpt lat="43.8435717" lon="11.5818133"><ele>610.0</ele><time>2026-04-18T12:14:15.014Z</time></trkpt><trkpt lat="43.8436367" lon="11.58182"><ele>610.0</ele><time>2026-04-18T12:14:22.011Z</time></trkpt><trkpt lat="43.843705" lon="11.5818433"><ele>610.0</ele><time>2026-04-18T12:14:25.014Z</time></trkpt><trkpt lat="43.8437367" lon="11.58192"><ele>610.0</ele><time>2026-04-18T12:14:27.012Z</time></trkpt><trkpt lat="43.8437733" lon="11.5820717"><ele>610.0</ele><time>2026-04-18T12:14:29.013Z</time></trkpt><trkpt lat="43.8438017" lon="11.5821717"><ele>610.0</ele><time>2026-04-18T12:14:30.012Z</time></trkpt><trkpt lat="43.8438333" lon="11.5822733"><ele>610.0</ele><time>2026-04-18T12:14:31.013Z</time></trkpt><trkpt lat="43.8438633" lon="11.582375"><ele>609.5</ele><time>2026-04-18T12:14:32.014Z</time></trkpt><trkpt lat="43.8438717" lon="11.5824817"><ele>609.0</ele><time>2026-04-18T12:14:33.012Z</time></trkpt><trkpt lat="43.8438433" lon="11.5825883"><ele>608.5</ele><time>2026-04-18T12:14:34.014Z</time></trkpt><trkpt lat="43.8437983" lon="11.5826683"><ele>608.0</ele><time>2026-04-18T12:14:35.015Z</time></trkpt><trkpt lat="43.8437467" lon="11.582755"><ele>607.5</ele><time>2026-04-18T12:14:37.014Z</time></trkpt><trkpt lat="43.8436783" lon="11.5828467"><ele>607.0</ele><time>2026-04-18T12:16:01.013Z</time></trkpt><trkpt lat="43.84367" lon="11.5829467"><ele>606.2</ele><time>2026-04-18T12:16:03.013Z</time></trkpt><trkpt lat="43.8436533" lon="11.583065"><ele>605.4000000000001</ele><time>2026-04-18T12:16:05.014Z</time></trkpt><trkpt lat="43.84364" lon="11.58316"><ele>604.5999999999999</ele><time>2026-04-18T12:16:07.013Z</time></trkpt><trkpt lat="43.8436467" lon="11.5832483"><ele>603.8</ele><time>2026-04-18T12:16:09.012Z</time></trkpt><trkpt lat="43.8436383" lon="11.5834467"><ele>603.0</ele><time>2026-04-18T12:18:22.013Z</time></trkpt><trkpt lat="43.8436683" lon="11.5835983"><ele>602.1999999999999</ele><time>2026-04-18T12:20:20.016Z</time></trkpt><trkpt lat="43.8436783" lon="11.5837417"><ele>601.4</ele><time>2026-04-18T12:20:43.015Z</time></trkpt><trkpt lat="43.8436933" lon="11.583835"><ele>600.5999999999999</ele><time>2026-04-18T12:20:44.016Z</time></trkpt><trkpt lat="43.84371" lon="11.583965"><ele>599.8</ele><time>2026-04-18T12:20:45.014Z</time></trkpt><trkpt lat="43.8437317" lon="11.58409"><ele>599.0</ele><time>2026-04-18T12:20:46.014Z</time></trkpt><trkpt lat="43.8437367" lon="11.58422"><ele>599.0</ele><time>2026-04-18T12:20:47.015Z</time></trkpt><trkpt lat="43.8437283" lon="11.584365"><ele>599.0</ele><time>2026-04-18T12:20:48.013Z</time></trkpt><trkpt lat="43.8437317" lon="11.584505"><ele>599.0</ele><time>2026-04-18T12:20:49.015Z</time></trkpt><trkpt lat="43.8437267" lon="11.584635"><ele>599.0</ele><time>2026-04-18T12:20:50.016Z</time></trkpt><trkpt lat="43.8437267" lon="11.5847633"><ele>599.0</ele><time>2026-04-18T12:20:51.013Z</time></trkpt><trkpt lat="43.8437017" lon="11.584895"><ele>600.0</ele><time>2026-04-18T12:20:52.021Z</time></trkpt><trkpt lat="43.8436767" lon="11.58503"><ele>601.0</ele><time>2026-04-18T12:20:53.015Z</time></trkpt><trkpt lat="43.8436567" lon="11.5851817"><ele>602.0</ele><time>2026-04-18T12:20:54.015Z</time></trkpt><trkpt lat="43.843625" lon="11.5853167"><ele>603.0</ele><time>2026-04-18T12:20:55.015Z</time></trkpt><trkpt lat="43.8435783" lon="11.5854517"><ele>604.0</ele><time>2026-04-18T12:20:56.019Z</time></trkpt><trkpt lat="43.8435433" lon="11.585585"><ele>606.3333333333334</ele><time>2026-04-18T12:20:57.015Z</time></trkpt><trkpt lat="43.843525" lon="11.585715"><ele>608.6666666666667</ele><time>2026-04-18T12:20:58.013Z</time></trkpt><trkpt lat="43.8435167" lon="11.58582"><ele>611.0</ele><time>2026-04-18T12:20:59.013Z</time></trkpt><trkpt lat="43.8435333" lon="11.5859133"><ele>613.3333333333334</ele><time>2026-04-18T12:21:00.015Z</time></trkpt><trkpt lat="43.84358" lon="11.5859883"><ele>615.6666666666666</ele><time>2026-04-18T12:21:01.014Z</time></trkpt><trkpt lat="43.8436667" lon="11.5860033"><ele>618.0</ele><time>2026-04-18T12:21:02.017Z</time></trkpt><trkpt lat="43.84376" lon="11.5859867"><ele>618.0</ele><time>2026-04-18T12:21:03.013Z</time></trkpt><trkpt lat="43.8438517" lon="11.585975"><ele>618.0</ele><time>2026-04-18T12:21:04.014Z</time></trkpt><trkpt lat="43.8439533" lon="11.5859967"><ele>618.0</ele><time>2026-04-18T12:21:05.014Z</time></trkpt><trkpt lat="43.844065" lon="11.58602"><ele>618.0</ele><time>2026-04-18T12:21:06.014Z</time></trkpt><trkpt lat="43.8441767" lon="11.5860233"><ele>618.0</ele><time>2026-04-18T12:21:07.017Z</time></trkpt><trkpt lat="43.8442833" lon="11.5859933"><ele>622.0</ele><time>2026-04-18T12:21:08.015Z</time></trkpt><trkpt lat="43.8443983" lon="11.5859433"><ele>626.0</ele><time>2026-04-18T12:21:09.014Z</time></trkpt><trkpt lat="43.84452" lon="11.585895"><ele>630.0</ele><time>2026-04-18T12:21:10.015Z</time></trkpt><trkpt lat="43.844645" lon="11.5858483"><ele>634.0</ele><time>2026-04-18T12:21:11.015Z</time></trkpt><trkpt lat="43.8447583" lon="11.5858033"><ele>634.0</ele><time>2026-04-18T12:21:12.016Z</time></trkpt><trkpt lat="43.844855" lon="11.58574"><ele>634.0</ele><time>2026-04-18T12:21:13.015Z</time></trkpt><trkpt lat="43.8449367" lon="11.5856583"><ele>634.0</ele><time>2026-04-18T12:21:14.016Z</time></trkpt><trkpt lat="43.8450033" lon="11.585565"><ele>634.0</ele><time>2026-04-18T12:21:15.013Z</time></trkpt><trkpt lat="43.8450683" lon="11.58548"><ele>634.0</ele><time>2026-04-18T12:21:16.014Z</time></trkpt><trkpt lat="43.84513" lon="11.5854067"><ele>634.4285714285714</ele><time>2026-04-18T12:21:17.015Z</time></trkpt><trkpt lat="43.8451833" lon="11.58535"><ele>634.8571428571429</ele><time>2026-04-18T12:21:18.014Z</time></trkpt><trkpt lat="43.8452333" lon="11.5852767"><ele>635.2857142857142</ele><time>2026-04-18T12:21:28.013Z</time></trkpt><trkpt lat="43.8451633" lon="11.585315"><ele>635.7142857142858</ele><time>2026-04-18T12:21:31.015Z</time></trkpt><trkpt lat="43.8451433" lon="11.585405"><ele>636.1428571428571</ele><time>2026-04-18T12:21:33.013Z</time></trkpt><trkpt lat="43.8452083" lon="11.58537"><ele>636.5714285714286</ele><time>2026-04-18T12:21:36.013Z</time></trkpt><trkpt lat="43.8452783" lon="11.5853283"><ele>637.0</ele><time>2026-04-18T12:21:42.014Z</time></trkpt><trkpt lat="43.8453733" lon="11.5853517"><ele>637.0</ele><time>2026-04-18T12:21:45.013Z</time></trkpt><trkpt lat="43.8454567" lon="11.585355"><ele>637.0</ele><time>2026-04-18T12:21:47.016Z</time></trkpt><trkpt lat="43.84553" lon="11.5853583"><ele>637.0</ele><time>2026-04-18T12:21:50.016Z</time></trkpt><trkpt lat="43.845575" lon="11.5854367"><ele>637.0</ele><time>2026-04-18T12:21:54.012Z</time></trkpt><trkpt lat="43.8456" lon="11.5855183"><ele>637.0</ele><time>2026-04-18T12:22:13.015Z</time></trkpt><trkpt lat="43.8455417" lon="11.5856283"><ele>637.0</ele><time>2026-04-18T12:22:31.013Z</time></trkpt><trkpt lat="43.8456067" lon="11.5857933"><ele>637.0</ele><time>2026-04-18T12:23:03.012Z</time></trkpt><trkpt lat="43.8456117" lon="11.58589"><ele>637.0</ele><time>2026-04-18T12:23:05.016Z</time></trkpt><trkpt lat="43.84561" lon="11.5859933"><ele>637.0</ele><time>2026-04-18T12:23:07.015Z</time></trkpt><trkpt lat="43.8456033" lon="11.5860883"><ele>637.0</ele><time>2026-04-18T12:23:09.014Z</time></trkpt><trkpt lat="43.8455983" lon="11.5861883"><ele>637.0</ele><time>2026-04-18T12:23:11.004Z</time></trkpt><trkpt lat="43.84563" lon="11.5862967"><ele>637.0</ele><time>2026-04-18T12:23:14.018Z</time></trkpt><trkpt lat="43.8456733" lon="11.5863767"><ele>637.0</ele><time>2026-04-18T12:23:17.015Z</time></trkpt><trkpt lat="43.8457333" lon="11.586465"><ele>639.8571428571429</ele><time>2026-04-18T12:29:05.014Z</time></trkpt><trkpt lat="43.84583" lon="11.5865083"><ele>642.7142857142858</ele><time>2026-04-18T12:29:08.015Z</time></trkpt><trkpt lat="43.8458933" lon="11.586535"><ele>645.5714285714286</ele><time>2026-04-18T12:29:10.013Z</time></trkpt><trkpt lat="43.84596" lon="11.5865467"><ele>648.4285714285714</ele><time>2026-04-18T12:29:12.014Z</time></trkpt><trkpt lat="43.8460233" lon="11.5865317"><ele>651.2857142857143</ele><time>2026-04-18T12:29:14.014Z</time></trkpt><trkpt lat="43.8460883" lon="11.5865317"><ele>654.1428571428571</ele><time>2026-04-18T12:29:16.013Z</time></trkpt><trkpt lat="43.8461733" lon="11.5865283"><ele>657.0</ele><time>2026-04-18T12:29:18.012Z</time></trkpt><trkpt lat="43.8462567" lon="11.5865333"><ele>657.3333333333334</ele><time>2026-04-18T12:29:20.015Z</time></trkpt><trkpt lat="43.8463317" lon="11.5865217"><ele>657.6666666666666</ele><time>2026-04-18T12:29:22.012Z</time></trkpt><trkpt lat="43.8464067" lon="11.5865283"><ele>658.0</ele><time>2026-04-18T12:29:24.013Z</time></trkpt><trkpt lat="43.846495" lon="11.5865583"><ele>658.3333333333333</ele><time>2026-04-18T12:29:26.016Z</time></trkpt><trkpt lat="43.8465783" lon="11.5865967"><ele>658.6666666666666</ele><time>2026-04-18T12:29:28.015Z</time></trkpt><trkpt lat="43.8466567" lon="11.5866233"><ele>659.0</ele><time>2026-04-18T12:29:30.015Z</time></trkpt><trkpt lat="43.8467567" lon="11.5866467"><ele>657.8333333333333</ele><time>2026-04-18T12:29:32.014Z</time></trkpt><trkpt lat="43.8468517" lon="11.5866617"><ele>656.6666666666666</ele><time>2026-04-18T12:29:34.014Z</time></trkpt><trkpt lat="43.8469283" lon="11.5866233"><ele>655.5</ele><time>2026-04-18T12:29:36.016Z</time></trkpt><trkpt lat="43.8469933" lon="11.586535"><ele>654.3333333333334</ele><time>2026-04-18T12:29:38.015Z</time></trkpt><trkpt lat="43.8470783" lon="11.5864967"><ele>653.1666666666667</ele><time>2026-04-18T12:29:41.001Z</time></trkpt><trkpt lat="43.84714" lon="11.5865233"><ele>652.0</ele><time>2026-04-18T12:29:43.012Z</time></trkpt><trkpt lat="43.8471617" lon="11.5866383"><ele>652.0</ele><time>2026-04-18T12:29:47.014Z</time></trkpt><trkpt lat="43.8471567" lon="11.586775"><ele>652.0</ele><time>2026-04-18T12:29:54.015Z</time></trkpt><trkpt lat="43.8471583" lon="11.586925"><ele>652.0</ele><time>2026-04-18T12:29:56.015Z</time></trkpt><trkpt lat="43.8471283" lon="11.587025"><ele>652.0</ele><time>2026-04-18T12:29:58.002Z</time></trkpt><trkpt lat="43.8470817" lon="11.5871067"><ele>652.0</ele><time>2026-04-18T12:30:00.014Z</time></trkpt><trkpt lat="43.84703" lon="11.587195"><ele>652.0</ele><time>2026-04-18T12:30:03.014Z</time></trkpt><trkpt lat="43.8469567" lon="11.5873033"><ele>651.8333333333334</ele><time>2026-04-18T12:30:55.008Z</time></trkpt><trkpt lat="43.8468783" lon="11.587355"><ele>651.6666666666667</ele><time>2026-04-18T12:30:57.025Z</time></trkpt><trkpt lat="43.8468267" lon="11.587435"><ele>651.5</ele><time>2026-04-18T12:30:59.014Z</time></trkpt><trkpt lat="43.8467933" lon="11.58753"><ele>651.3333333333334</ele><time>2026-04-18T12:31:01.016Z</time></trkpt><trkpt lat="43.84676" lon="11.58762"><ele>651.1666666666666</ele><time>2026-04-18T12:31:05.015Z</time></trkpt><trkpt lat="43.8467283" lon="11.5877433"><ele>651.0</ele><time>2026-04-18T12:31:25.013Z</time></trkpt><trkpt lat="43.8466717" lon="11.5878367"><ele>652.0</ele><time>2026-04-18T12:31:27.012Z</time></trkpt><trkpt lat="43.8466333" lon="11.5879267"><ele>653.0</ele><time>2026-04-18T12:31:29.014Z</time></trkpt><trkpt lat="43.8466367" lon="11.5880217"><ele>654.0</ele><time>2026-04-18T12:31:32.015Z</time></trkpt><trkpt lat="43.8467" lon="11.5880683"><ele>655.0</ele><time>2026-04-18T12:31:34.003Z</time></trkpt><trkpt lat="43.8467583" lon="11.5881583"><ele>656.0</ele><time>2026-04-18T12:31:36.013Z</time></trkpt><trkpt lat="43.8468" lon="11.58825"><ele>657.0</ele><time>2026-04-18T12:31:38.015Z</time></trkpt><trkpt lat="43.846845" lon="11.588325"><ele>657.0</ele><time>2026-04-18T12:31:45.012Z</time></trkpt><trkpt lat="43.8469367" lon="11.5883983"><ele>657.0</ele><time>2026-04-18T12:31:48.011Z</time></trkpt><trkpt lat="43.847" lon="11.5885133"><ele>657.0</ele><time>2026-04-18T12:31:50.018Z</time></trkpt><trkpt lat="43.8470267" lon="11.5886017"><ele>657.0</ele><time>2026-04-18T12:31:51.014Z</time></trkpt><trkpt lat="43.8470567" lon="11.5886917"><ele>657.0</ele><time>2026-04-18T12:31:52.013Z</time></trkpt><trkpt lat="43.8470733" lon="11.588825"><ele>657.0</ele><time>2026-04-18T12:31:54.014Z</time></trkpt><trkpt lat="43.84699" lon="11.5888917"><ele>658.6</ele><time>2026-04-18T12:31:57.02Z</time></trkpt><trkpt lat="43.8469067" lon="11.58894"><ele>660.2</ele><time>2026-04-18T12:31:59.014Z</time></trkpt><trkpt lat="43.8468367" lon="11.58897"><ele>661.8</ele><time>2026-04-18T12:32:01.015Z</time></trkpt><trkpt lat="43.8467833" lon="11.5890733"><ele>663.4</ele><time>2026-04-18T12:32:30.014Z</time></trkpt><trkpt lat="43.8467233" lon="11.58924"><ele>665.0</ele><time>2026-04-18T12:33:31.004Z</time></trkpt><trkpt lat="43.846655" lon="11.5892833"><ele>670.3333333333333</ele><time>2026-04-18T12:33:34.016Z</time></trkpt><trkpt lat="43.846685" lon="11.589195"><ele>675.6666666666666</ele><time>2026-04-18T12:38:07.013Z</time></trkpt><trkpt lat="43.846745" lon="11.5891217"><ele>681.0</ele><time>2026-04-18T12:38:11.012Z</time></trkpt><trkpt lat="43.8466983" lon="11.5892183"><ele>686.3333333333334</ele><time>2026-04-18T12:38:39.012Z</time></trkpt><trkpt lat="43.84665" lon="11.589275"><ele>691.6666666666667</ele><time>2026-04-18T12:38:40.013Z</time></trkpt><trkpt lat="43.8466" lon="11.589345"><ele>697.0</ele><time>2026-04-18T12:38:41.013Z</time></trkpt><trkpt lat="43.8465317" lon="11.58941"><ele>697.0</ele><time>2026-04-18T12:38:42.013Z</time></trkpt><trkpt lat="43.84643" lon="11.5894633"><ele>697.0</ele><time>2026-04-18T12:38:44.014Z</time></trkpt><trkpt lat="43.8463583" lon="11.58945"><ele>697.0</ele><time>2026-04-18T12:38:45.014Z</time></trkpt><trkpt lat="43.8462833" lon="11.5894117"><ele>697.0</ele><time>2026-04-18T12:38:46.012Z</time></trkpt><trkpt lat="43.8462067" lon="11.5893633"><ele>697.0</ele><time>2026-04-18T12:38:47.015Z</time></trkpt><trkpt lat="43.846135" lon="11.58932"><ele>697.0</ele><time>2026-04-18T12:38:48.014Z</time></trkpt><trkpt lat="43.8460233" lon="11.5892833"><ele>699.3333333333334</ele><time>2026-04-18T12:38:50.014Z</time></trkpt><trkpt lat="43.8459167" lon="11.5893483"><ele>701.6666666666667</ele><time>2026-04-18T12:38:52.013Z</time></trkpt><trkpt lat="43.84586" lon="11.5893967"><ele>704.0</ele><time>2026-04-18T12:38:53.012Z</time></trkpt><trkpt lat="43.8457817" lon="11.589435"><ele>706.3333333333334</ele><time>2026-04-18T12:38:54.012Z</time></trkpt><trkpt lat="43.8457083" lon="11.5894683"><ele>708.6666666666666</ele><time>2026-04-18T12:38:55.012Z</time></trkpt><trkpt lat="43.8456283" lon="11.58954"><ele>711.0</ele><time>2026-04-18T12:38:57.013Z</time></trkpt><trkpt lat="43.8455967" lon="11.5896333"><ele>711.8333333333334</ele><time>2026-04-18T12:38:59.013Z</time></trkpt><trkpt lat="43.845525" lon="11.589655"><ele>712.6666666666666</ele><time>2026-04-18T12:39:13.015Z</time></trkpt><trkpt lat="43.8454483" lon="11.589765"><ele>713.5</ele><time>2026-04-18T12:39:15.013Z</time></trkpt><trkpt lat="43.8454083" lon="11.5898383"><ele>714.3333333333333</ele><time>2026-04-18T12:39:16.012Z</time></trkpt><trkpt lat="43.8453483" lon="11.589915"><ele>715.1666666666666</ele><time>2026-04-18T12:39:17.014Z</time></trkpt><trkpt lat="43.8452783" lon="11.59"><ele>716.0</ele><time>2026-04-18T12:39:18.011Z</time></trkpt><trkpt lat="43.8452167" lon="11.59009"><ele>716.0</ele><time>2026-04-18T12:39:19.016Z</time></trkpt><trkpt lat="43.84517" lon="11.5901917"><ele>716.0</ele><time>2026-04-18T12:39:20.017Z</time></trkpt><trkpt lat="43.84514" lon="11.5903017"><ele>716.0</ele><time>2026-04-18T12:39:21.014Z</time></trkpt><trkpt lat="43.8451233" lon="11.5904317"><ele>716.0</ele><time>2026-04-18T12:39:22.015Z</time></trkpt><trkpt lat="43.845115" lon="11.5905817"><ele>716.0</ele><time>2026-04-18T12:39:23.016Z</time></trkpt><trkpt lat="43.8451017" lon="11.5907383"><ele>718.5999999999999</ele><time>2026-04-18T12:39:24.014Z</time></trkpt><trkpt lat="43.845095" lon="11.5908833"><ele>721.2</ele><time>2026-04-18T12:39:25.017Z</time></trkpt><trkpt lat="43.8450933" lon="11.5910233"><ele>723.8</ele><time>2026-04-18T12:39:26.018Z</time></trkpt><trkpt lat="43.8450983" lon="11.591155"><ele>726.4000000000001</ele><time>2026-04-18T12:39:27.015Z</time></trkpt><trkpt lat="43.84511" lon="11.591275"><ele>729.0</ele><time>2026-04-18T12:39:28.016Z</time></trkpt><trkpt lat="43.8451233" lon="11.5913817"><ele>730.0</ele><time>2026-04-18T12:39:29.016Z</time></trkpt><trkpt lat="43.8451383" lon="11.59147"><ele>731.0</ele><time>2026-04-18T12:39:30.014Z</time></trkpt><trkpt lat="43.8451667" lon="11.59158"><ele>732.0</ele><time>2026-04-18T12:39:32.017Z</time></trkpt><trkpt lat="43.8451383" lon="11.59167"><ele>733.0</ele><time>2026-04-18T12:40:00.002Z</time></trkpt><trkpt lat="43.8450133" lon="11.59174"><ele>734.0</ele><time>2026-04-18T12:40:02.014Z</time></trkpt><trkpt lat="43.84493" lon="11.59175"><ele>735.0</ele><time>2026-04-18T12:40:03.012Z</time></trkpt><trkpt lat="43.8448333" lon="11.5917383"><ele>735.0</ele><time>2026-04-18T12:40:04.014Z</time></trkpt><trkpt lat="43.8447333" lon="11.5917133"><ele>735.0</ele><time>2026-04-18T12:40:05.012Z</time></trkpt><trkpt lat="43.8446183" lon="11.591735"><ele>735.0</ele><time>2026-04-18T12:40:06.011Z</time></trkpt><trkpt lat="43.844515" lon="11.5917333"><ele>735.0</ele><time>2026-04-18T12:40:07.015Z</time></trkpt><trkpt lat="43.8444167" lon="11.5917417"><ele>735.0</ele><time>2026-04-18T12:40:08.014Z</time></trkpt><trkpt lat="43.84436" lon="11.5916667"><ele>735.0</ele><time>2026-04-18T12:40:09.012Z</time></trkpt><trkpt lat="43.8443333" lon="11.591545"><ele>735.0</ele><time>2026-04-18T12:40:10.012Z</time></trkpt><trkpt lat="43.84431" lon="11.5914217"><ele>735.0</ele><time>2026-04-18T12:40:11.012Z</time></trkpt><trkpt lat="43.844245" lon="11.59134"><ele>735.0</ele><time>2026-04-18T12:40:12.013Z</time></trkpt><trkpt lat="43.8441633" lon="11.5912933"><ele>735.0</ele><time>2026-04-18T12:40:13.012Z</time></trkpt><trkpt lat="43.8440617" lon="11.5912583"><ele>735.2</ele><time>2026-04-18T12:40:14.014Z</time></trkpt><trkpt lat="43.84395" lon="11.5912117"><ele>735.4</ele><time>2026-04-18T12:40:15.012Z</time></trkpt><trkpt lat="43.8438517" lon="11.59116"><ele>735.5999999999999</ele><time>2026-04-18T12:40:16.014Z</time></trkpt><trkpt lat="43.843775" lon="11.591125"><ele>735.8</ele><time>2026-04-18T12:40:17.012Z</time></trkpt><trkpt lat="43.8436767" lon="11.5911017"><ele>736.0</ele><time>2026-04-18T12:40:19.014Z</time></trkpt><trkpt lat="43.8436" lon="11.591055"><ele>736.0</ele><time>2026-04-18T12:40:21.013Z</time></trkpt><trkpt lat="43.84351" lon="11.591055"><ele>736.0</ele><time>2026-04-18T12:40:23.014Z</time></trkpt><trkpt lat="43.8434917" lon="11.59118"><ele>736.0</ele><time>2026-04-18T12:40:25.014Z</time></trkpt><trkpt lat="43.8435217" lon="11.5912667"><ele>736.0</ele><time>2026-04-18T12:40:26.016Z</time></trkpt><trkpt lat="43.8435483" lon="11.5913667"><ele>736.0</ele><time>2026-04-18T12:40:27.013Z</time></trkpt><trkpt lat="43.843555" lon="11.5914783"><ele>736.0</ele><time>2026-04-18T12:40:28.013Z</time></trkpt><trkpt lat="43.8435383" lon="11.59159"><ele>738.5</ele><time>2026-04-18T12:40:29.013Z</time></trkpt><trkpt lat="43.8435083" lon="11.5916933"><ele>741.0</ele><time>2026-04-18T12:40:30.011Z</time></trkpt><trkpt lat="43.8434667" lon="11.5917933"><ele>743.5</ele><time>2026-04-18T12:40:31.012Z</time></trkpt><trkpt lat="43.843415" lon="11.59188"><ele>746.0</ele><time>2026-04-18T12:40:32.025Z</time></trkpt><trkpt lat="43.843345" lon="11.5919567"><ele>748.5</ele><time>2026-04-18T12:40:33.015Z</time></trkpt><trkpt lat="43.8432667" lon="11.5920367"><ele>751.0</ele><time>2026-04-18T12:40:34.012Z</time></trkpt><trkpt lat="43.843195" lon="11.59212"><ele>752.4</ele><time>2026-04-18T12:40:35.013Z</time></trkpt><trkpt lat="43.8431333" lon="11.5922183"><ele>753.8</ele><time>2026-04-18T12:40:36.015Z</time></trkpt><trkpt lat="43.84308" lon="11.592335"><ele>755.1999999999999</ele><time>2026-04-18T12:40:37.013Z</time></trkpt><trkpt lat="43.8430267" lon="11.5924533"><ele>756.5999999999999</ele><time>2026-04-18T12:40:38.016Z</time></trkpt><trkpt lat="43.8429667" lon="11.5925733"><ele>758.0</ele><time>2026-04-18T12:40:39.013Z</time></trkpt><trkpt lat="43.8429" lon="11.5926917"><ele>758.0</ele><time>2026-04-18T12:40:40.013Z</time></trkpt><trkpt lat="43.8428317" lon="11.5928133"><ele>758.0</ele><time>2026-04-18T12:40:41.015Z</time></trkpt><trkpt lat="43.8427667" lon="11.5929217"><ele>758.0</ele><time>2026-04-18T12:40:42.013Z</time></trkpt><trkpt lat="43.84271" lon="11.5930167"><ele>758.0</ele><time>2026-04-18T12:40:43.016Z</time></trkpt><trkpt lat="43.84267" lon="11.5931183"><ele>758.0</ele><time>2026-04-18T12:40:44.016Z</time></trkpt><trkpt lat="43.8426467" lon="11.5932367"><ele>759.8</ele><time>2026-04-18T12:40:45.013Z</time></trkpt><trkpt lat="43.842625" lon="11.5933667"><ele>761.5999999999999</ele><time>2026-04-18T12:40:46.013Z</time></trkpt><trkpt lat="43.8426" lon="11.5935"><ele>763.4000000000001</ele><time>2026-04-18T12:40:47.013Z</time></trkpt><trkpt lat="43.8425767" lon="11.5936417"><ele>765.2</ele><time>2026-04-18T12:40:48.013Z</time></trkpt><trkpt lat="43.8425567" lon="11.5937933"><ele>767.0</ele><time>2026-04-18T12:40:49.014Z</time></trkpt><trkpt lat="43.8425333" lon="11.59395"><ele>770.5</ele><time>2026-04-18T12:40:50.016Z</time></trkpt><trkpt lat="43.8425117" lon="11.594115"><ele>774.0</ele><time>2026-04-18T12:40:51.013Z</time></trkpt><trkpt lat="43.8424833" lon="11.5942767"><ele>777.5</ele><time>2026-04-18T12:40:52.014Z</time></trkpt><trkpt lat="43.842465" lon="11.5944267"><ele>781.0</ele><time>2026-04-18T12:40:53.014Z</time></trkpt><trkpt lat="43.84246" lon="11.5945733"><ele>783.1999999999999</ele><time>2026-04-18T12:40:54.014Z</time></trkpt><trkpt lat="43.8424533" lon="11.5947133"><ele>785.4</ele><time>2026-04-18T12:40:55.014Z</time></trkpt><trkpt lat="43.8424417" lon="11.5948517"><ele>787.6</ele><time>2026-04-18T12:40:56.016Z</time></trkpt><trkpt lat="43.8424217" lon="11.5949833"><ele>789.8</ele><time>2026-04-18T12:40:57.015Z</time></trkpt><trkpt lat="43.8423817" lon="11.595085"><ele>792.0</ele><time>2026-04-18T12:40:58.015Z</time></trkpt><trkpt lat="43.84233" lon="11.5951733"><ele>792.0</ele><time>2026-04-18T12:40:59.013Z</time></trkpt><trkpt lat="43.8422733" lon="11.59526"><ele>792.0</ele><time>2026-04-18T12:41:00.012Z</time></trkpt><trkpt lat="43.8422233" lon="11.595345"><ele>792.0</ele><time>2026-04-18T12:41:01.013Z</time></trkpt><trkpt lat="43.8421917" lon="11.5954283"><ele>792.0</ele><time>2026-04-18T12:41:02.015Z</time></trkpt><trkpt lat="43.8422083" lon="11.5955567"><ele>792.0</ele><time>2026-04-18T12:41:04.013Z</time></trkpt><trkpt lat="43.8422667" lon="11.5955933"><ele>792.0</ele><time>2026-04-18T12:41:06.014Z</time></trkpt><trkpt lat="43.84233" lon="11.5956517"><ele>793.4000000000001</ele><time>2026-04-18T12:41:24.004Z</time></trkpt><trkpt lat="43.8424083" lon="11.5957817"><ele>794.8000000000001</ele><time>2026-04-18T12:41:26.017Z</time></trkpt><trkpt lat="43.84244" lon="11.5958967"><ele>796.2</ele><time>2026-04-18T12:41:27.013Z</time></trkpt><trkpt lat="43.8424633" lon="11.5960267"><ele>797.6</ele><time>2026-04-18T12:41:28.013Z</time></trkpt><trkpt lat="43.8425083" lon="11.5961667"><ele>799.0</ele><time>2026-04-18T12:41:29.015Z</time></trkpt><trkpt lat="43.8425717" lon="11.5963083"><ele>795.25</ele><time>2026-04-18T12:41:30.014Z</time></trkpt><trkpt lat="43.8426367" lon="11.5964483"><ele>791.5</ele><time>2026-04-18T12:41:31.015Z</time></trkpt><trkpt lat="43.8426933" lon="11.5965867"><ele>787.75</ele><time>2026-04-18T12:41:32.015Z</time></trkpt><trkpt lat="43.8427383" lon="11.5967283"><ele>784.0</ele><time>2026-04-18T12:41:33.013Z</time></trkpt><trkpt lat="43.8427717" lon="11.596865"><ele>784.0</ele><time>2026-04-18T12:41:34.019Z</time></trkpt><trkpt lat="43.842795" lon="11.5969933"><ele>784.0</ele><time>2026-04-18T12:41:35.017Z</time></trkpt><trkpt lat="43.8428" lon="11.5971233"><ele>784.0</ele><time>2026-04-18T12:41:36.014Z</time></trkpt><trkpt lat="43.842785" lon="11.597265"><ele>784.0</ele><time>2026-04-18T12:41:37.014Z</time></trkpt><trkpt lat="43.8427517" lon="11.5974117"><ele>784.0</ele><time>2026-04-18T12:41:38.016Z</time></trkpt><trkpt lat="43.842705" lon="11.597565"><ele>784.5</ele><time>2026-04-18T12:41:39.013Z</time></trkpt><trkpt lat="43.8426417" lon="11.5977183"><ele>785.0</ele><time>2026-04-18T12:41:40.012Z</time></trkpt><trkpt lat="43.84257" lon="11.5978767"><ele>785.5</ele><time>2026-04-18T12:41:41.012Z</time></trkpt><trkpt lat="43.842505" lon="11.5980283"><ele>786.0</ele><time>2026-04-18T12:41:42.012Z</time></trkpt><trkpt lat="43.842445" lon="11.5981667"><ele>791.1666666666666</ele><time>2026-04-18T12:41:43.015Z</time></trkpt><trkpt lat="43.842395" lon="11.598285"><ele>796.3333333333333</ele><time>2026-04-18T12:41:44.014Z</time></trkpt><trkpt lat="43.8423483" lon="11.5983667"><ele>801.5</ele><time>2026-04-18T12:41:45.014Z</time></trkpt><trkpt lat="43.8422817" lon="11.5983833"><ele>806.6666666666666</ele><time>2026-04-18T12:41:47.014Z</time></trkpt><trkpt lat="43.8422183" lon="11.59832"><ele>811.8333333333333</ele><time>2026-04-18T12:41:49.017Z</time></trkpt><trkpt lat="43.84212" lon="11.5982233"><ele>817.0</ele><time>2026-04-18T12:41:51.013Z</time></trkpt><trkpt lat="43.8420333" lon="11.5982117"><ele>816.9999999999999</ele><time>2026-04-18T12:41:53.014Z</time></trkpt><trkpt lat="43.8419967" lon="11.5983083"><ele>817.0</ele><time>2026-04-18T12:41:55.012Z</time></trkpt><trkpt lat="43.8419583" lon="11.5984333"><ele>817.0</ele><time>2026-04-18T12:41:57.014Z</time></trkpt><trkpt lat="43.84193" lon="11.5985133"><ele>817.0</ele><time>2026-04-18T12:41:58.016Z</time></trkpt><trkpt lat="43.8418983" lon="11.5985967"><ele>816.9999999999999</ele><time>2026-04-18T12:41:59.014Z</time></trkpt><trkpt lat="43.8418633" lon="11.5986833"><ele>817.0</ele><time>2026-04-18T12:42:00.019Z</time></trkpt><trkpt lat="43.8418267" lon="11.5987717"><ele>821.3333333333333</ele><time>2026-04-18T12:42:01.013Z</time></trkpt><trkpt lat="43.8417883" lon="11.59887"><ele>825.6666666666666</ele><time>2026-04-18T12:42:02.017Z</time></trkpt><trkpt lat="43.8417467" lon="11.5989717"><ele>830.0</ele><time>2026-04-18T12:42:03.011Z</time></trkpt><trkpt lat="43.8417033" lon="11.59907"><ele>834.3333333333333</ele><time>2026-04-18T12:42:04.012Z</time></trkpt><trkpt lat="43.8416683" lon="11.5991717"><ele>838.6666666666666</ele><time>2026-04-18T12:42:05.013Z</time></trkpt><trkpt lat="43.8416517" lon="11.599285"><ele>843.0</ele><time>2026-04-18T12:42:06.014Z</time></trkpt><trkpt lat="43.8416433" lon="11.5994083"><ele>845.0</ele><time>2026-04-18T12:42:07.011Z</time></trkpt><trkpt lat="43.8416367" lon="11.5995367"><ele>847.0</ele><time>2026-04-18T12:42:08.014Z</time></trkpt><trkpt lat="43.8416267" lon="11.599655"><ele>849.0</ele><time>2026-04-18T12:42:09.012Z</time></trkpt><trkpt lat="43.841605" lon="11.59976"><ele>851.0</ele><time>2026-04-18T12:42:10.013Z</time></trkpt><trkpt lat="43.8415583" lon="11.5998467"><ele>853.0</ele><time>2026-04-18T12:42:11.014Z</time></trkpt><trkpt lat="43.8415033" lon="11.5999267"><ele>855.0</ele><time>2026-04-18T12:42:12.014Z</time></trkpt><trkpt lat="43.8414483" lon="11.6000133"><ele>855.0</ele><time>2026-04-18T12:42:13.012Z</time></trkpt><trkpt lat="43.8413983" lon="11.600115"><ele>855.0</ele><time>2026-04-18T12:42:14.015Z</time></trkpt><trkpt lat="43.8413433" lon="11.60022"><ele>855.0</ele><time>2026-04-18T12:42:15.012Z</time></trkpt><trkpt lat="43.8412767" lon="11.6003117"><ele>855.0</ele><time>2026-04-18T12:42:16.012Z</time></trkpt><trkpt lat="43.8412033" lon="11.6003883"><ele>855.0</ele><time>2026-04-18T12:42:17.015Z</time></trkpt><trkpt lat="43.841125" lon="11.6004283"><ele>856.5</ele><time>2026-04-18T12:42:18.012Z</time></trkpt><trkpt lat="43.8410467" lon="11.60043"><ele>858.0</ele><time>2026-04-18T12:42:19.012Z</time></trkpt><trkpt lat="43.840965" lon="11.6004033"><ele>859.5</ele><time>2026-04-18T12:42:20.015Z</time></trkpt><trkpt lat="43.8408867" lon="11.60037"><ele>861.0</ele><time>2026-04-18T12:42:21.012Z</time></trkpt><trkpt lat="43.8408017" lon="11.600345"><ele>862.5</ele><time>2026-04-18T12:42:22.014Z</time></trkpt><trkpt lat="43.8407133" lon="11.600335"><ele>864.0</ele><time>2026-04-18T12:42:23.013Z</time></trkpt><trkpt lat="43.8406133" lon="11.60035"><ele>868.0</ele><time>2026-04-18T12:42:24.013Z</time></trkpt><trkpt lat="43.8405167" lon="11.6003717"><ele>872.0000000000001</ele><time>2026-04-18T12:42:25.012Z</time></trkpt><trkpt lat="43.84043" lon="11.6003833"><ele>876.0000000000001</ele><time>2026-04-18T12:42:26.015Z</time></trkpt><trkpt lat="43.84034" lon="11.600385"><ele>880.0</ele><time>2026-04-18T12:42:27.012Z</time></trkpt><trkpt lat="43.840245" lon="11.6003883"><ele>884.0</ele><time>2026-04-18T12:42:28.014Z</time></trkpt><trkpt lat="43.8401483" lon="11.6004033"><ele>886.1666666666667</ele><time>2026-04-18T12:42:29.013Z</time></trkpt><trkpt lat="43.8400483" lon="11.6004217"><ele>888.3333333333334</ele><time>2026-04-18T12:42:30.013Z</time></trkpt><trkpt lat="43.8399583" lon="11.600445"><ele>890.5</ele><time>2026-04-18T12:42:31.013Z</time></trkpt><trkpt lat="43.83987" lon="11.60047"><ele>892.6666666666667</ele><time>2026-04-18T12:42:32.016Z</time></trkpt><trkpt lat="43.8397883" lon="11.6005083"><ele>894.8333333333334</ele><time>2026-04-18T12:42:33.013Z</time></trkpt><trkpt lat="43.8397267" lon="11.6005617"><ele>897.0</ele><time>2026-04-18T12:42:34.013Z</time></trkpt><trkpt lat="43.8396967" lon="11.6007483"><ele>897.0</ele><time>2026-04-18T12:42:36.014Z</time></trkpt><trkpt lat="43.8396933" lon="11.6008433"><ele>897.0</ele><time>2026-04-18T12:42:37.013Z</time></trkpt><trkpt lat="43.8397" lon="11.6009567"><ele>897.0</ele><time>2026-04-18T12:42:39.012Z</time></trkpt><trkpt lat="43.8397833" lon="11.6010183"><ele>897.0</ele><time>2026-04-18T12:43:07.013Z</time></trkpt><trkpt lat="43.8399017" lon="11.6011217"><ele>897.0</ele><time>2026-04-18T12:43:09.015Z</time></trkpt><trkpt lat="43.8399783" lon="11.6011833"><ele>897.0</ele><time>2026-04-18T12:43:10.013Z</time></trkpt><trkpt lat="43.84006" lon="11.6012433"><ele>897.0</ele><time>2026-04-18T12:43:11.012Z</time></trkpt><trkpt lat="43.8401283" lon="11.60132"><ele>897.0</ele><time>2026-04-18T12:43:12.015Z</time></trkpt><trkpt lat="43.8401817" lon="11.6014367"><ele>897.0</ele><time>2026-04-18T12:43:13.014Z</time></trkpt><trkpt lat="43.84021" lon="11.6015433"><ele>897.0</ele><time>2026-04-18T12:43:14.015Z</time></trkpt><trkpt lat="43.8402367" lon="11.6016483"><ele>897.0</ele><time>2026-04-18T12:43:15.017Z</time></trkpt><trkpt lat="43.8402333" lon="11.6017567"><ele>897.0</ele><time>2026-04-18T12:43:16.019Z</time></trkpt><trkpt lat="43.8402233" lon="11.6018683"><ele>897.0</ele><time>2026-04-18T12:43:17.019Z</time></trkpt><trkpt lat="43.8402067" lon="11.601985"><ele>897.0</ele><time>2026-04-18T12:43:18.014Z</time></trkpt><trkpt lat="43.84019" lon="11.6021117"><ele>897.0</ele><time>2026-04-18T12:43:19.014Z</time></trkpt><trkpt lat="43.84018" lon="11.6022483"><ele>897.0</ele><time>2026-04-18T12:43:20.014Z</time></trkpt><trkpt lat="43.8401767" lon="11.6023667"><ele>897.0</ele><time>2026-04-18T12:43:21.011Z</time></trkpt><trkpt lat="43.8401833" lon="11.602455"><ele>899.2</ele><time>2026-04-18T12:43:22.013Z</time></trkpt><trkpt lat="43.8402317" lon="11.6025683"><ele>901.4000000000001</ele><time>2026-04-18T12:43:35.014Z</time></trkpt><trkpt lat="43.840225" lon="11.6027683"><ele>903.5999999999999</ele><time>2026-04-18T12:43:37.001Z</time></trkpt><trkpt lat="43.840215" lon="11.6028917"><ele>905.8</ele><time>2026-04-18T12:43:38.014Z</time></trkpt><trkpt lat="43.840195" lon="11.60304"><ele>908.0</ele><time>2026-04-18T12:43:39.012Z</time></trkpt><trkpt lat="43.8401783" lon="11.60319"><ele>909.75</ele><time>2026-04-18T12:43:40.013Z</time></trkpt><trkpt lat="43.8401517" lon="11.6033417"><ele>911.5</ele><time>2026-04-18T12:43:41.014Z</time></trkpt><trkpt lat="43.8401283" lon="11.6034983"><ele>913.25</ele><time>2026-04-18T12:43:42.012Z</time></trkpt><trkpt lat="43.8401117" lon="11.6036633"><ele>915.0</ele><time>2026-04-18T12:43:43.014Z</time></trkpt><trkpt lat="43.8401017" lon="11.603825"><ele>922.2</ele><time>2026-04-18T12:43:44.014Z</time></trkpt><trkpt lat="43.8401017" lon="11.6039883"><ele>929.4</ele><time>2026-04-18T12:43:45.014Z</time></trkpt><trkpt lat="43.8401017" lon="11.60416"><ele>936.5999999999999</ele><time>2026-04-18T12:43:46.013Z</time></trkpt><trkpt lat="43.8401" lon="11.604305"><ele>943.8</ele><time>2026-04-18T12:43:47.017Z</time></trkpt><trkpt lat="43.8400983" lon="11.60442"><ele>951.0</ele><time>2026-04-18T12:43:48.014Z</time></trkpt><trkpt lat="43.8400917" lon="11.60452"><ele>951.4</ele><time>2026-04-18T12:43:49.016Z</time></trkpt><trkpt lat="43.8400717" lon="11.6046067"><ele>951.8</ele><time>2026-04-18T12:43:50.018Z</time></trkpt><trkpt lat="43.8400517" lon="11.6047633"><ele>952.1999999999999</ele><time>2026-04-18T12:43:52.014Z</time></trkpt><trkpt lat="43.840025" lon="11.6049067"><ele>952.5999999999999</ele><time>2026-04-18T12:43:54.017Z</time></trkpt><trkpt lat="43.84" lon="11.6050283"><ele>953.0</ele><time>2026-04-18T12:44:22.013Z</time></trkpt><trkpt lat="43.8399317" lon="11.6050883"><ele>953.0000000000001</ele><time>2026-04-18T12:44:35.017Z</time></trkpt><trkpt lat="43.8398667" lon="11.6051183"><ele>953.0</ele><time>2026-04-18T12:45:07.012Z</time></trkpt><trkpt lat="43.83981" lon="11.6049933"><ele>953.0</ele><time>2026-04-18T12:45:09.013Z</time></trkpt><trkpt lat="43.839755" lon="11.6049317"><ele>953.0</ele><time>2026-04-18T12:45:10.013Z</time></trkpt><trkpt lat="43.8396983" lon="11.6048633"><ele>953.0000000000001</ele><time>2026-04-18T12:45:11.013Z</time></trkpt><trkpt lat="43.8396433" lon="11.60479"><ele>953.0</ele><time>2026-04-18T12:45:12.013Z</time></trkpt><trkpt lat="43.839575" lon="11.6047067"><ele>953.0000000000001</ele><time>2026-04-18T12:45:13.101Z</time></trkpt><trkpt lat="43.8394983" lon="11.6046117"><ele>953.0</ele><time>2026-04-18T12:45:14.015Z</time></trkpt><trkpt lat="43.839425" lon="11.60452"><ele>953.0</ele><time>2026-04-18T12:45:15.011Z</time></trkpt><trkpt lat="43.83936" lon="11.6044433"><ele>953.0</ele><time>2026-04-18T12:45:16.012Z</time></trkpt><trkpt lat="43.8393" lon="11.6043767"><ele>953.0000000000001</ele><time>2026-04-18T12:45:17.014Z</time></trkpt><trkpt lat="43.8392367" lon="11.6043217"><ele>953.0</ele><time>2026-04-18T12:45:18.012Z</time></trkpt><trkpt lat="43.8391617" lon="11.6042717"><ele>953.8333333333334</ele><time>2026-04-18T12:45:19.012Z</time></trkpt><trkpt lat="43.8390883" lon="11.6042183"><ele>954.6666666666667</ele><time>2026-04-18T12:45:20.014Z</time></trkpt><trkpt lat="43.83902" lon="11.6041583"><ele>955.5</ele><time>2026-04-18T12:45:21.015Z</time></trkpt><trkpt lat="43.8389617" lon="11.6040933"><ele>956.3333333333333</ele><time>2026-04-18T12:45:22.013Z</time></trkpt><trkpt lat="43.83891" lon="11.6040233"><ele>957.1666666666666</ele><time>2026-04-18T12:45:23.012Z</time></trkpt><trkpt lat="43.838855" lon="11.6039483"><ele>958.0</ele><time>2026-04-18T12:45:24.012Z</time></trkpt><trkpt lat="43.838805" lon="11.60388"><ele>957.9999999999999</ele><time>2026-04-18T12:45:25.014Z</time></trkpt><trkpt lat="43.83875" lon="11.6038233"><ele>958.0</ele><time>2026-04-18T12:45:26.015Z</time></trkpt><trkpt lat="43.83864" lon="11.6037667"><ele>958.0</ele><time>2026-04-18T12:45:28.016Z</time></trkpt><trkpt lat="43.838575" lon="11.60377"><ele>958.0</ele><time>2026-04-18T12:45:29.012Z</time></trkpt><trkpt lat="43.8385117" lon="11.60378"><ele>957.9999999999999</ele><time>2026-04-18T12:45:30.012Z</time></trkpt><trkpt lat="43.8384067" lon="11.6038117"><ele>958.0</ele><time>2026-04-18T12:45:32.014Z</time></trkpt><trkpt lat="43.838325" lon="11.6038717"><ele>959.1666666666666</ele><time>2026-04-18T12:45:34.012Z</time></trkpt><trkpt lat="43.8382417" lon="11.6039433"><ele>960.3333333333333</ele><time>2026-04-18T12:45:36.013Z</time></trkpt><trkpt lat="43.8381867" lon="11.6040017"><ele>961.5</ele><time>2026-04-18T12:45:38.015Z</time></trkpt><trkpt lat="43.8381083" lon="11.604085"><ele>962.6666666666667</ele><time>2026-04-18T12:45:41.014Z</time></trkpt><trkpt lat="43.83804" lon="11.6041467"><ele>963.8333333333334</ele><time>2026-04-18T12:45:43.002Z</time></trkpt><trkpt lat="43.8379783" lon="11.6042083"><ele>965.0</ele><time>2026-04-18T12:45:45.013Z</time></trkpt><trkpt lat="43.8378983" lon="11.6042683"><ele>965.0</ele><time>2026-04-18T12:45:47.013Z</time></trkpt><trkpt lat="43.8378083" lon="11.6043383"><ele>965.0</ele><time>2026-04-18T12:45:49.014Z</time></trkpt><trkpt lat="43.83772" lon="11.6043967"><ele>965.0</ele><time>2026-04-18T12:45:51.015Z</time></trkpt><trkpt lat="43.8376317" lon="11.6044717"><ele>965.0</ele><time>2026-04-18T12:45:53.012Z</time></trkpt><trkpt lat="43.8375383" lon="11.6045833"><ele>965.0</ele><time>2026-04-18T12:45:55.015Z</time></trkpt><trkpt lat="43.837445" lon="11.60466"><ele>968.6</ele><time>2026-04-18T12:45:57.013Z</time></trkpt><trkpt lat="43.8373383" lon="11.6047"><ele>972.2</ele><time>2026-04-18T12:45:59.015Z</time></trkpt><trkpt lat="43.83724" lon="11.6047217"><ele>975.8</ele><time>2026-04-18T12:46:01.013Z</time></trkpt><trkpt lat="43.8371633" lon="11.604735"><ele>979.4</ele><time>2026-04-18T12:46:03.002Z</time></trkpt><trkpt lat="43.837075" lon="11.6047467"><ele>983.0</ele><time>2026-04-18T12:46:05.014Z</time></trkpt><trkpt lat="43.8369917" lon="11.60477"><ele>983.0</ele><time>2026-04-18T12:46:07.014Z</time></trkpt><trkpt lat="43.8369067" lon="11.6048083"><ele>983.0</ele><time>2026-04-18T12:46:09.013Z</time></trkpt><trkpt lat="43.8368117" lon="11.604875"><ele>983.0</ele><time>2026-04-18T12:46:11.013Z</time></trkpt><trkpt lat="43.8367083" lon="11.6049517"><ele>983.0</ele><time>2026-04-18T12:46:13.013Z</time></trkpt><trkpt lat="43.836605" lon="11.604995"><ele>983.0</ele><time>2026-04-18T12:46:15.015Z</time></trkpt><trkpt lat="43.8365033" lon="11.605"><ele>985.0</ele><time>2026-04-18T12:46:17.013Z</time></trkpt><trkpt lat="43.8363867" lon="11.6050033"><ele>987.0</ele><time>2026-04-18T12:46:19.014Z</time></trkpt><trkpt lat="43.836285" lon="11.6049967"><ele>989.0</ele><time>2026-04-18T12:46:21.014Z</time></trkpt><trkpt lat="43.8361883" lon="11.604985"><ele>991.0</ele><time>2026-04-18T12:46:24.013Z</time></trkpt><trkpt lat="43.8361117" lon="11.6049633"><ele>993.0</ele><time>2026-04-18T12:46:27.013Z</time></trkpt><trkpt lat="43.8360367" lon="11.60492"><ele>993.0</ele><time>2026-04-18T12:46:31.013Z</time></trkpt><trkpt lat="43.83598" lon="11.604875"><ele>993.0</ele><time>2026-04-18T12:46:33.013Z</time></trkpt><trkpt lat="43.8359083" lon="11.6047633"><ele>993.0</ele><time>2026-04-18T12:46:35.014Z</time></trkpt><trkpt lat="43.8358333" lon="11.6046567"><ele>993.0</ele><time>2026-04-18T12:46:37.016Z</time></trkpt><trkpt lat="43.8357283" lon="11.604585"><ele>993.0</ele><time>2026-04-18T12:46:39.021Z</time></trkpt><trkpt lat="43.8356483" lon="11.604545"><ele>992.8</ele><time>2026-04-18T12:46:40.021Z</time></trkpt><trkpt lat="43.835545" lon="11.6044817"><ele>992.5999999999999</ele><time>2026-04-18T12:46:41.014Z</time></trkpt><trkpt lat="43.835445" lon="11.6044083"><ele>992.4000000000001</ele><time>2026-04-18T12:46:42.014Z</time></trkpt><trkpt lat="43.8353633" lon="11.6043417"><ele>992.2</ele><time>2026-04-18T12:46:43.013Z</time></trkpt><trkpt lat="43.835285" lon="11.6042883"><ele>992.0</ele><time>2026-04-18T12:46:44.016Z</time></trkpt><trkpt lat="43.8352117" lon="11.6042317"><ele>992.0000000000001</ele><time>2026-04-18T12:46:45.013Z</time></trkpt><trkpt lat="43.8351467" lon="11.6041783"><ele>992.0</ele><time>2026-04-18T12:46:46.014Z</time></trkpt><trkpt lat="43.8350817" lon="11.6041467"><ele>992.0</ele><time>2026-04-18T12:46:47.016Z</time></trkpt><trkpt lat="43.8350083" lon="11.6041167"><ele>992.0</ele><time>2026-04-18T12:46:48.014Z</time></trkpt><trkpt lat="43.8349267" lon="11.6040933"><ele>992.0000000000001</ele><time>2026-04-18T12:46:49.015Z</time></trkpt><trkpt lat="43.834855" lon="11.6040733"><ele>992.0</ele><time>2026-04-18T12:46:50.017Z</time></trkpt><trkpt lat="43.8347317" lon="11.604065"><ele>994.4285714285714</ele><time>2026-04-18T12:46:52.013Z</time></trkpt><trkpt lat="43.83465" lon="11.6040783"><ele>996.8571428571429</ele><time>2026-04-18T12:46:54.012Z</time></trkpt><trkpt lat="43.8345883" lon="11.60412"><ele>999.2857142857143</ele><time>2026-04-18T12:47:06.01Z</time></trkpt><trkpt lat="43.8345583" lon="11.604035"><ele>1001.7142857142858</ele><time>2026-04-18T12:47:09.011Z</time></trkpt><trkpt lat="43.8345333" lon="11.6039467"><ele>1004.1428571428571</ele><time>2026-04-18T12:47:11.015Z</time></trkpt><trkpt lat="43.8345017" lon="11.6038567"><ele>1006.5714285714287</ele><time>2026-04-18T12:47:12.014Z</time></trkpt><trkpt lat="43.83447" lon="11.603765"><ele>1009.0</ele><time>2026-04-18T12:47:13.014Z</time></trkpt><trkpt lat="43.8344217" lon="11.603675"><ele>1007.5</ele><time>2026-04-18T12:47:14.015Z</time></trkpt><trkpt lat="43.834365" lon="11.603545"><ele>1006.0</ele><time>2026-04-18T12:47:16.012Z</time></trkpt><trkpt lat="43.834295" lon="11.6034317"><ele>1004.5</ele><time>2026-04-18T12:47:18.012Z</time></trkpt><trkpt lat="43.8342083" lon="11.6033167"><ele>1003.0</ele><time>2026-04-18T12:47:20.016Z</time></trkpt><trkpt lat="43.8341183" lon="11.60322"><ele>1003.0</ele><time>2026-04-18T12:47:22.012Z</time></trkpt><trkpt lat="43.8340167" lon="11.603155"><ele>1003.0</ele><time>2026-04-18T12:47:24.014Z</time></trkpt><trkpt lat="43.83392" lon="11.6030967"><ele>1003.0</ele><time>2026-04-18T12:47:26.015Z</time></trkpt><trkpt lat="43.83384" lon="11.60311"><ele>1003.0</ele><time>2026-04-18T12:47:28.013Z</time></trkpt><trkpt lat="43.8337367" lon="11.6031367"><ele>1003.0</ele><time>2026-04-18T12:47:30.012Z</time></trkpt><trkpt lat="43.833655" lon="11.6031833"><ele>1003.0</ele><time>2026-04-18T12:47:32.014Z</time></trkpt><trkpt lat="43.8335883" lon="11.6032367"><ele>1003.0</ele><time>2026-04-18T12:47:34.014Z</time></trkpt><trkpt lat="43.8335233" lon="11.6032883"><ele>1003.0</ele><time>2026-04-18T12:47:36.013Z</time></trkpt><trkpt lat="43.8345583" lon="11.604035"><ele>1002.9999999999999</ele><time>2026-04-18T12:47:09.011Z</time></trkpt><trkpt lat="43.8345333" lon="11.6039467"><ele>1003.0</ele><time>2026-04-18T12:47:11.015Z</time></trkpt><trkpt lat="43.8345017" lon="11.6038567"><ele>1003.0</ele><time>2026-04-18T12:47:12.014Z</time></trkpt><trkpt lat="43.83447" lon="11.603765"><ele>1003.0</ele><time>2026-04-18T12:47:13.014Z</time></trkpt><trkpt lat="43.8344217" lon="11.603675"><ele>1002.9999999999999</ele><time>2026-04-18T12:47:14.015Z</time></trkpt><trkpt lat="43.834365" lon="11.603545"><ele>1003.0</ele><time>2026-04-18T12:47:16.012Z</time></trkpt><trkpt lat="43.834295" lon="11.6034317"><ele>1003.0</ele><time>2026-04-18T12:47:18.012Z</time></trkpt><trkpt lat="43.8342083" lon="11.6033167"><ele>1003.0</ele><time>2026-04-18T12:47:20.016Z</time></trkpt><trkpt lat="43.8341183" lon="11.60322"><ele>1003.0</ele><time>2026-04-18T12:47:22.012Z</time></trkpt><trkpt lat="43.8340167" lon="11.603155"><ele>1003.0</ele><time>2026-04-18T12:47:24.014Z</time></trkpt><trkpt lat="43.83392" lon="11.6030967"><ele>1002.9999999999999</ele><time>2026-04-18T12:47:26.015Z</time></trkpt><trkpt lat="43.83384" lon="11.60311"><ele>1003.0</ele><time>2026-04-18T12:47:28.013Z</time></trkpt><trkpt lat="43.8337367" lon="11.6031367"><ele>1003.0</ele><time>2026-04-18T12:47:30.012Z</time></trkpt><trkpt lat="43.833655" lon="11.6031833"><ele>1003.0</ele><time>2026-04-18T12:47:32.014Z</time></trkpt><trkpt lat="43.8335883" lon="11.6032367"><ele>1002.9999999999999</ele><time>2026-04-18T12:47:34.014Z</time></trkpt><trkpt lat="43.8335233" lon="11.6032883"><ele>1003.0</ele><time>2026-04-18T12:47:36.013Z</time></trkpt><trkpt lat="43.8334517" lon="11.6033467"><ele>1002.4999999999999</ele><time>2026-04-18T12:47:38.015Z</time></trkpt><trkpt lat="43.8334" lon="11.6034417"><ele>1002.0</ele><time>2026-04-18T12:47:40.012Z</time></trkpt><trkpt lat="43.8333383" lon="11.6035117"><ele>1001.5</ele><time>2026-04-18T12:47:42.011Z</time></trkpt><trkpt lat="43.8332867" lon="11.6035717"><ele>1001.0</ele><time>2026-04-18T12:47:44.015Z</time></trkpt><trkpt lat="43.8331933" lon="11.603565"><ele>1000.4999999999999</ele><time>2026-04-18T12:47:47.014Z</time></trkpt><trkpt lat="43.833115" lon="11.603515"><ele>1000.0</ele><time>2026-04-18T12:47:50.016Z</time></trkpt><trkpt lat="43.8330367" lon="11.6035067"><ele>1000.0</ele><time>2026-04-18T12:47:52.014Z</time></trkpt><trkpt lat="43.832945" lon="11.6035017"><ele>1000.0</ele><time>2026-04-18T12:47:54.013Z</time></trkpt><trkpt lat="43.8328333" lon="11.603505"><ele>1000.0</ele><time>2026-04-18T12:47:56.016Z</time></trkpt><trkpt lat="43.8327467" lon="11.6035083"><ele>1000.0</ele><time>2026-04-18T12:47:58.014Z</time></trkpt><trkpt lat="43.8326767" lon="11.6035"><ele>1000.0</ele><time>2026-04-18T12:48:00.013Z</time></trkpt><trkpt lat="43.8325817" lon="11.603455"><ele>999.4999999999999</ele><time>2026-04-18T12:48:03.002Z</time></trkpt><trkpt lat="43.8325183" lon="11.6034167"><ele>999.0</ele><time>2026-04-18T12:48:05.015Z</time></trkpt><trkpt lat="43.83243" lon="11.6033767"><ele>998.5</ele><time>2026-04-18T12:48:08.016Z</time></trkpt><trkpt lat="43.8323483" lon="11.603365"><ele>998.0</ele><time>2026-04-18T12:48:10.013Z</time></trkpt><trkpt lat="43.832275" lon="11.6033633"><ele>997.4999999999999</ele><time>2026-04-18T12:48:14.016Z</time></trkpt><trkpt lat="43.8322083" lon="11.6033817"><ele>997.0</ele><time>2026-04-18T12:48:16.014Z</time></trkpt><trkpt lat="43.832105" lon="11.6034167"><ele>996.9999999999999</ele><time>2026-04-18T12:48:18.013Z</time></trkpt><trkpt lat="43.83202" lon="11.6034617"><ele>997.0</ele><time>2026-04-18T12:48:20.016Z</time></trkpt><trkpt lat="43.8319583" lon="11.6035017"><ele>997.0</ele><time>2026-04-18T12:48:23.017Z</time></trkpt><trkpt lat="43.8318983" lon="11.6035333"><ele>997.0</ele><time>2026-04-18T12:48:26.017Z</time></trkpt><trkpt lat="43.831805" lon="11.60358"><ele>996.9999999999999</ele><time>2026-04-18T12:48:28.013Z</time></trkpt><trkpt lat="43.8317317" lon="11.6036083"><ele>997.0</ele><time>2026-04-18T12:48:29.015Z</time></trkpt><trkpt lat="43.8316433" lon="11.6036283"><ele>997.0</ele><time>2026-04-18T12:48:30.015Z</time></trkpt><trkpt lat="43.83154" lon="11.6036467"><ele>997.0</ele><time>2026-04-18T12:48:31.016Z</time></trkpt><trkpt lat="43.8313933" lon="11.6036517"><ele>997.0</ele><time>2026-04-18T12:48:32.017Z</time></trkpt><trkpt lat="43.831265" lon="11.603665"><ele>997.0</ele><time>2026-04-18T12:48:33.014Z</time></trkpt><trkpt lat="43.83115" lon="11.6036767"><ele>996.9999999999999</ele><time>2026-04-18T12:48:34.014Z</time></trkpt><trkpt lat="43.8310483" lon="11.6036767"><ele>997.0</ele><time>2026-04-18T12:48:35.017Z</time></trkpt><trkpt lat="43.83098" lon="11.6036717"><ele>997.0</ele><time>2026-04-18T12:48:36.015Z</time></trkpt><trkpt lat="43.8309117" lon="11.6036683"><ele>997.0</ele><time>2026-04-18T12:48:38.016Z</time></trkpt><trkpt lat="43.8308283" lon="11.6036933"><ele>996.9999999999999</ele><time>2026-04-18T12:49:11.014Z</time></trkpt><trkpt lat="43.8308067" lon="11.6037883"><ele>997.0</ele><time>2026-04-18T12:49:14.016Z</time></trkpt><trkpt lat="43.83087" lon="11.6038333"><ele>995.4285714285713</ele><time>2026-04-18T12:49:17.014Z</time></trkpt><trkpt lat="43.83092" lon="11.603765"><ele>993.8571428571429</ele><time>2026-04-18T12:49:21.013Z</time></trkpt><trkpt lat="43.8308467" lon="11.6037983"><ele>992.2857142857142</ele><time>2026-04-18T12:49:28.013Z</time></trkpt><trkpt lat="43.8309183" lon="11.6037917"><ele>990.7142857142857</ele><time>2026-04-18T12:52:44.014Z</time></trkpt><trkpt lat="43.830935" lon="11.6036983"><ele>989.1428571428571</ele><time>2026-04-18T12:52:47.014Z</time></trkpt><trkpt lat="43.8308467" lon="11.603725"><ele>987.5714285714286</ele><time>2026-04-18T12:52:50.02Z</time></trkpt><trkpt lat="43.83079" lon="11.6037633"><ele>986.0</ele><time>2026-04-18T12:52:52.013Z</time></trkpt><trkpt lat="43.8307" lon="11.6038167"><ele>986.0</ele><time>2026-04-18T12:52:54.013Z</time></trkpt><trkpt lat="43.8305983" lon="11.6038633"><ele>985.9999999999999</ele><time>2026-04-18T12:52:56.015Z</time></trkpt><trkpt lat="43.8304967" lon="11.6038683"><ele>985.9999999999999</ele><time>2026-04-18T12:52:58.012Z</time></trkpt><trkpt lat="43.8304" lon="11.60386"><ele>986.0</ele><time>2026-04-18T12:53:00.013Z</time></trkpt><trkpt lat="43.830305" lon="11.60385"><ele>986.0</ele><time>2026-04-18T12:53:02.016Z</time></trkpt><trkpt lat="43.83019" lon="11.60379"><ele>986.0000000000001</ele><time>2026-04-18T12:53:04.014Z</time></trkpt><trkpt lat="43.830125" lon="11.6037617"><ele>986.0</ele><time>2026-04-18T12:53:05.013Z</time></trkpt><trkpt lat="43.83006" lon="11.6037383"><ele>986.0</ele><time>2026-04-18T12:53:06.011Z</time></trkpt><trkpt lat="43.829995" lon="11.6037183"><ele>986.0</ele><time>2026-04-18T12:53:07.014Z</time></trkpt><trkpt lat="43.8298917" lon="11.6037583"><ele>986.0000000000001</ele><time>2026-04-18T12:53:09.013Z</time></trkpt><trkpt lat="43.8298017" lon="11.6038583"><ele>986.0</ele><time>2026-04-18T12:53:11.014Z</time></trkpt><trkpt lat="43.829705" lon="11.6039233"><ele>986.0</ele><time>2026-04-18T12:53:13.015Z</time></trkpt><trkpt lat="43.8296733" lon="11.6040017"><ele>985.9999999999999</ele><time>2026-04-18T12:53:15.013Z</time></trkpt><trkpt lat="43.8297533" lon="11.60412"><ele>985.9999999999999</ele><time>2026-04-18T12:53:17.014Z</time></trkpt><trkpt lat="43.8298617" lon="11.6042117"><ele>986.0</ele><time>2026-04-18T12:53:18.012Z</time></trkpt><trkpt lat="43.8299133" lon="11.6043083"><ele>986.0</ele><time>2026-04-18T12:53:19.014Z</time></trkpt><trkpt lat="43.8299467" lon="11.6044233"><ele>984.4</ele><time>2026-04-18T12:53:20.017Z</time></trkpt><trkpt lat="43.8299417" lon="11.6045333"><ele>982.8</ele><time>2026-04-18T12:53:21.012Z</time></trkpt><trkpt lat="43.8298967" lon="11.60464"><ele>981.1999999999999</ele><time>2026-04-18T12:53:22.014Z</time></trkpt><trkpt lat="43.8298367" lon="11.6047367"><ele>979.5999999999999</ele><time>2026-04-18T12:53:23.013Z</time></trkpt><trkpt lat="43.8297533" lon="11.6048083"><ele>978.0</ele><time>2026-04-18T12:53:24.015Z</time></trkpt><trkpt lat="43.82966" lon="11.6048667"><ele>978.0</ele><time>2026-04-18T12:53:25.013Z</time></trkpt><trkpt lat="43.82956" lon="11.6048967"><ele>978.0</ele><time>2026-04-18T12:53:26.016Z</time></trkpt><trkpt lat="43.829465" lon="11.60492"><ele>978.0</ele><time>2026-04-18T12:53:27.015Z</time></trkpt><trkpt lat="43.829385" lon="11.60496"><ele>978.0</ele><time>2026-04-18T12:53:28.013Z</time></trkpt><trkpt lat="43.8293233" lon="11.6050283"><ele>978.0</ele><time>2026-04-18T12:53:29.013Z</time></trkpt><trkpt lat="43.8292633" lon="11.6051133"><ele>978.0</ele><time>2026-04-18T12:53:30.01Z</time></trkpt><trkpt lat="43.8292083" lon="11.6051917"><ele>979.5</ele><time>2026-04-18T12:53:31.013Z</time></trkpt><trkpt lat="43.8291633" lon="11.6052617"><ele>981.0</ele><time>2026-04-18T12:53:32.015Z</time></trkpt><trkpt lat="43.82911" lon="11.6053417"><ele>982.5</ele><time>2026-04-18T12:53:33.013Z</time></trkpt><trkpt lat="43.82904" lon="11.60543"><ele>984.0</ele><time>2026-04-18T12:53:34.012Z</time></trkpt><trkpt lat="43.828965" lon="11.60552"><ele>985.5</ele><time>2026-04-18T12:53:35.013Z</time></trkpt><trkpt lat="43.8289" lon="11.6056083"><ele>987.0</ele><time>2026-04-18T12:53:36.012Z</time></trkpt><trkpt lat="43.8288467" lon="11.6056983"><ele>987.0</ele><time>2026-04-18T12:53:37.013Z</time></trkpt><trkpt lat="43.8287967" lon="11.6057617"><ele>987.0</ele><time>2026-04-18T12:53:38.015Z</time></trkpt><trkpt lat="43.8287367" lon="11.6058667"><ele>987.0</ele><time>2026-04-18T12:53:40.013Z</time></trkpt><trkpt lat="43.8286567" lon="11.6059967"><ele>987.0</ele><time>2026-04-18T12:53:42.013Z</time></trkpt><trkpt lat="43.8286133" lon="11.60611"><ele>987.0</ele><time>2026-04-18T12:53:43.02Z</time></trkpt><trkpt lat="43.8285667" lon="11.6062167"><ele>985.1666666666666</ele><time>2026-04-18T12:53:44.015Z</time></trkpt><trkpt lat="43.8285117" lon="11.6063117"><ele>983.3333333333333</ele><time>2026-04-18T12:53:45.012Z</time></trkpt><trkpt lat="43.8284583" lon="11.6063783"><ele>981.5</ele><time>2026-04-18T12:53:46.012Z</time></trkpt><trkpt lat="43.8283667" lon="11.6064617"><ele>979.6666666666666</ele><time>2026-04-18T12:53:47.013Z</time></trkpt><trkpt lat="43.8282817" lon="11.6064967"><ele>977.8333333333333</ele><time>2026-04-18T12:53:48.013Z</time></trkpt><trkpt lat="43.8281917" lon="11.6065167"><ele>976.0</ele><time>2026-04-18T12:53:49.014Z</time></trkpt><trkpt lat="43.8281017" lon="11.60653"><ele>979.6666666666666</ele><time>2026-04-18T12:53:50.015Z</time></trkpt><trkpt lat="43.82803" lon="11.60655"><ele>983.3333333333333</ele><time>2026-04-18T12:53:51.013Z</time></trkpt><trkpt lat="43.8279617" lon="11.6065683"><ele>987.0</ele><time>2026-04-18T12:53:53.016Z</time></trkpt><trkpt lat="43.8278867" lon="11.6066467"><ele>990.6666666666667</ele><time>2026-04-18T12:53:57.012Z</time></trkpt><trkpt lat="43.8278317" lon="11.6067383"><ele>994.3333333333334</ele><time>2026-04-18T12:53:59.015Z</time></trkpt><trkpt lat="43.8278217" lon="11.6068267"><ele>998.0</ele><time>2026-04-18T12:54:01.015Z</time></trkpt><trkpt lat="43.82784" lon="11.6069233"><ele>995.2</ele><time>2026-04-18T12:54:03.013Z</time></trkpt><trkpt lat="43.827865" lon="11.6070567"><ele>992.4</ele><time>2026-04-18T12:54:05.014Z</time></trkpt><trkpt lat="43.8279017" lon="11.607205"><ele>989.6000000000001</ele><time>2026-04-18T12:54:07.015Z</time></trkpt><trkpt lat="43.8279567" lon="11.6073683"><ele>986.8000000000001</ele><time>2026-04-18T12:54:09.012Z</time></trkpt><trkpt lat="43.82797" lon="11.6074833"><ele>984.0</ele><time>2026-04-18T12:54:10.012Z</time></trkpt><trkpt lat="43.8279733" lon="11.607585"><ele>984.0</ele><time>2026-04-18T12:54:11.014Z</time></trkpt><trkpt lat="43.82796" lon="11.6076717"><ele>984.0</ele><time>2026-04-18T12:54:12.012Z</time></trkpt><trkpt lat="43.8279233" lon="11.6077583"><ele>984.0</ele><time>2026-04-18T12:54:13.014Z</time></trkpt><trkpt lat="43.82786" lon="11.6078617"><ele>984.0</ele><time>2026-04-18T12:54:14.014Z</time></trkpt><trkpt lat="43.8277833" lon="11.6079667"><ele>984.0</ele><time>2026-04-18T12:54:15.011Z</time></trkpt><trkpt lat="43.82771" lon="11.6080467"><ele>984.0</ele><time>2026-04-18T12:54:16.012Z</time></trkpt><trkpt lat="43.8276317" lon="11.6081217"><ele>983.8000000000001</ele><time>2026-04-18T12:54:17.012Z</time></trkpt><trkpt lat="43.8275583" lon="11.6082033"><ele>983.6000000000001</ele><time>2026-04-18T12:54:18.014Z</time></trkpt><trkpt lat="43.8274967" lon="11.6082917"><ele>983.4</ele><time>2026-04-18T12:54:19.014Z</time></trkpt><trkpt lat="43.8274417" lon="11.6083967"><ele>983.2</ele><time>2026-04-18T12:54:20.016Z</time></trkpt><trkpt lat="43.8274267" lon="11.6085567"><ele>983.0</ele><time>2026-04-18T12:54:21.013Z</time></trkpt><trkpt lat="43.82742" lon="11.6087017"><ele>983.0000000000001</ele><time>2026-04-18T12:54:22.011Z</time></trkpt><trkpt lat="43.8274183" lon="11.6088167"><ele>983.0</ele><time>2026-04-18T12:54:23.012Z</time></trkpt><trkpt lat="43.8273983" lon="11.6089017"><ele>983.0</ele><time>2026-04-18T12:54:24.011Z</time></trkpt><trkpt lat="43.8273683" lon="11.6090783"><ele>983.0</ele><time>2026-04-18T12:54:26.018Z</time></trkpt><trkpt lat="43.827325" lon="11.6091467"><ele>983.0000000000001</ele><time>2026-04-18T12:54:27.012Z</time></trkpt><trkpt lat="43.82727" lon="11.6091933"><ele>983.0</ele><time>2026-04-18T12:54:28.011Z</time></trkpt><trkpt lat="43.8272033" lon="11.6092033"><ele>983.0</ele><time>2026-04-18T12:54:29.014Z</time></trkpt><trkpt lat="43.8271233" lon="11.6091733"><ele>983.0</ele><time>2026-04-18T12:54:30.015Z</time></trkpt><trkpt lat="43.8270417" lon="11.6091233"><ele>983.0</ele><time>2026-04-18T12:54:31.012Z</time></trkpt><trkpt lat="43.8269383" lon="11.6090617"><ele>983.0</ele><time>2026-04-18T12:54:32.014Z</time></trkpt><trkpt lat="43.8268417" lon="11.6089967"><ele>983.0</ele><time>2026-04-18T12:54:33.011Z</time></trkpt><trkpt lat="43.8267517" lon="11.6089317"><ele>982.1666666666667</ele><time>2026-04-18T12:54:34.013Z</time></trkpt><trkpt lat="43.82666" lon="11.6088717"><ele>981.3333333333334</ele><time>2026-04-18T12:54:35.012Z</time></trkpt><trkpt lat="43.82658" lon="11.60881"><ele>980.5</ele><time>2026-04-18T12:54:36.014Z</time></trkpt><trkpt lat="43.8265083" lon="11.6087583"><ele>979.6666666666667</ele><time>2026-04-18T12:54:37.014Z</time></trkpt><trkpt lat="43.826445" lon="11.6087083"><ele>978.8333333333334</ele><time>2026-04-18T12:54:38.016Z</time></trkpt><trkpt lat="43.8263817" lon="11.6086533"><ele>978.0</ele><time>2026-04-18T12:54:39.012Z</time></trkpt><trkpt lat="43.826305" lon="11.6085967"><ele>976.8333333333334</ele><time>2026-04-18T12:54:40.013Z</time></trkpt><trkpt lat="43.82623" lon="11.6085367"><ele>975.6666666666667</ele><time>2026-04-18T12:54:41.014Z</time></trkpt><trkpt lat="43.8261633" lon="11.608475"><ele>974.5</ele><time>2026-04-18T12:54:42.013Z</time></trkpt><trkpt lat="43.8260967" lon="11.6084017"><ele>973.3333333333334</ele><time>2026-04-18T12:54:43.013Z</time></trkpt><trkpt lat="43.82603" lon="11.60833"><ele>972.1666666666667</ele><time>2026-04-18T12:54:44.015Z</time></trkpt><trkpt lat="43.8259783" lon="11.6082517"><ele>971.0</ele><time>2026-04-18T12:54:45.012Z</time></trkpt><trkpt lat="43.8259283" lon="11.60817"><ele>971.0000000000001</ele><time>2026-04-18T12:54:46.014Z</time></trkpt><trkpt lat="43.8258767" lon="11.6080917"><ele>971.0</ele><time>2026-04-18T12:54:47.015Z</time></trkpt><trkpt lat="43.8258183" lon="11.6080167"><ele>971.0</ele><time>2026-04-18T12:54:48.012Z</time></trkpt><trkpt lat="43.8257533" lon="11.6079517"><ele>971.0</ele><time>2026-04-18T12:54:49.016Z</time></trkpt><trkpt lat="43.8256933" lon="11.6078967"><ele>971.0000000000001</ele><time>2026-04-18T12:54:50.014Z</time></trkpt><trkpt lat="43.82561" lon="11.6077533"><ele>971.0</ele><time>2026-04-18T12:54:52.012Z</time></trkpt><trkpt lat="43.8255583" lon="11.6076667"><ele>973.5000000000001</ele><time>2026-04-18T12:54:53.013Z</time></trkpt><trkpt lat="43.8254933" lon="11.6075767"><ele>976.0</ele><time>2026-04-18T12:54:54.013Z</time></trkpt><trkpt lat="43.8254267" lon="11.607485"><ele>978.5</ele><time>2026-04-18T12:54:55.015Z</time></trkpt><trkpt lat="43.8253667" lon="11.6074083"><ele>981.0</ele><time>2026-04-18T12:54:56.015Z</time></trkpt><trkpt lat="43.82532" lon="11.6073483"><ele>983.5000000000001</ele><time>2026-04-18T12:54:57.013Z</time></trkpt><trkpt lat="43.8252433" lon="11.6072783"><ele>986.0</ele><time>2026-04-18T12:54:59.014Z</time></trkpt><trkpt lat="43.8251537" lon="11.6071876"><ele>983.0</ele><time>2026-04-18T12:55:01.013Z</time></trkpt><trkpt lat="43.8250767" lon="11.6070997"><ele>979.9999999999999</ele><time>2026-04-18T12:55:03.013Z</time></trkpt><trkpt lat="43.8250272" lon="11.6070121"><ele>976.9999999999999</ele><time>2026-04-18T12:55:05.002Z</time></trkpt><trkpt lat="43.8249825" lon="11.6069122"><ele>974.0</ele><time>2026-04-18T12:55:07.014Z</time></trkpt><trkpt lat="43.82493" lon="11.606784"><ele>971.0</ele><time>2026-04-18T12:55:09.012Z</time></trkpt><trkpt lat="43.8248646" lon="11.6067016"><ele>971.0</ele><time>2026-04-18T12:55:11.013Z</time></trkpt><trkpt lat="43.8247651" lon="11.6067458"><ele>970.9999999999999</ele><time>2026-04-18T12:55:13.014Z</time></trkpt><trkpt lat="43.8246806" lon="11.6067768"><ele>970.9999999999999</ele><time>2026-04-18T12:55:14.015Z</time></trkpt><trkpt lat="43.8245873" lon="11.6067955"><ele>971.0</ele><time>2026-04-18T12:55:15.011Z</time></trkpt><trkpt lat="43.824503" lon="11.6068057"><ele>971.0</ele><time>2026-04-18T12:55:16.013Z</time></trkpt><trkpt lat="43.8244017" lon="11.6067691"><ele>971.0</ele><time>2026-04-18T12:55:18.012Z</time></trkpt><trkpt lat="43.8243868" lon="11.6066463"><ele>970.9999999999999</ele><time>2026-04-18T12:55:20.015Z</time></trkpt><trkpt lat="43.8243917" lon="11.6065183"><ele>970.9999999999999</ele><time>2026-04-18T12:55:22.004Z</time></trkpt><trkpt lat="43.8243267" lon="11.606445"><ele>971.0</ele><time>2026-04-18T12:56:15.013Z</time></trkpt><trkpt lat="43.8242733" lon="11.6063567"><ele>971.0</ele><time>2026-04-18T12:56:18.011Z</time></trkpt><trkpt lat="43.82422" lon="11.6062317"><ele>971.3333333333334</ele><time>2026-04-18T12:56:20.015Z</time></trkpt><trkpt lat="43.8241567" lon="11.6060817"><ele>971.6666666666667</ele><time>2026-04-18T12:56:22.012Z</time></trkpt><trkpt lat="43.824115" lon="11.606015"><ele>972.0</ele><time>2026-04-18T12:56:23.015Z</time></trkpt><trkpt lat="43.8240617" lon="11.6059683"><ele>972.3333333333333</ele><time>2026-04-18T12:56:24.014Z</time></trkpt><trkpt lat="43.8239617" lon="11.6059117"><ele>972.6666666666666</ele><time>2026-04-18T12:56:26.015Z</time></trkpt><trkpt lat="43.8238883" lon="11.6059317"><ele>973.0</ele><time>2026-04-18T12:56:28.012Z</time></trkpt><trkpt lat="43.8238167" lon="11.6059767"><ele>972.9999999999999</ele><time>2026-04-18T12:56:30.001Z</time></trkpt><trkpt lat="43.8237117" lon="11.6060783"><ele>973.0</ele><time>2026-04-18T12:56:32.017Z</time></trkpt><trkpt lat="43.8236417" lon="11.6061167"><ele>973.0</ele><time>2026-04-18T12:56:33.012Z</time></trkpt><trkpt lat="43.8235667" lon="11.60614"><ele>973.0</ele><time>2026-04-18T12:56:34.013Z</time></trkpt><trkpt lat="43.8234883" lon="11.60616"><ele>972.9999999999999</ele><time>2026-04-18T12:56:35.013Z</time></trkpt><trkpt lat="43.82341" lon="11.6061717"><ele>973.0</ele><time>2026-04-18T12:56:36.014Z</time></trkpt><trkpt lat="43.823335" lon="11.606165"><ele>971.3333333333333</ele><time>2026-04-18T12:56:37.015Z</time></trkpt><trkpt lat="43.82326" lon="11.6061433"><ele>969.6666666666666</ele><time>2026-04-18T12:56:38.014Z</time></trkpt><trkpt lat="43.823185" lon="11.60611"><ele>968.0</ele><time>2026-04-18T12:56:39.011Z</time></trkpt><trkpt lat="43.8231117" lon="11.6060717"><ele>966.3333333333333</ele><time>2026-04-18T12:56:40.011Z</time></trkpt><trkpt lat="43.8230333" lon="11.6060617"><ele>964.6666666666666</ele><time>2026-04-18T12:56:41.013Z</time></trkpt><trkpt lat="43.8229483" lon="11.6060617"><ele>963.0</ele><time>2026-04-18T12:56:42.012Z</time></trkpt><trkpt lat="43.8228617" lon="11.60605"><ele>963.0</ele><time>2026-04-18T12:56:43.013Z</time></trkpt><trkpt lat="43.822795" lon="11.6060267"><ele>963.0</ele><time>2026-04-18T12:56:44.014Z</time></trkpt><trkpt lat="43.8227133" lon="11.60595"><ele>963.0</ele><time>2026-04-18T12:56:46.013Z</time></trkpt><trkpt lat="43.82264" lon="11.6058317"><ele>963.0</ele><time>2026-04-18T12:56:48.013Z</time></trkpt><trkpt lat="43.82257" lon="11.6057883"><ele>963.0</ele><time>2026-04-18T12:56:51.013Z</time></trkpt><trkpt lat="43.8225217" lon="11.6058983"><ele>963.0</ele><time>2026-04-18T12:56:53.013Z</time></trkpt><trkpt lat="43.82249" lon="11.6061133"><ele>963.0</ele><time>2026-04-18T12:56:55.011Z</time></trkpt><trkpt lat="43.82247" lon="11.6062283"><ele>963.0</ele><time>2026-04-18T12:56:56.015Z</time></trkpt><trkpt lat="43.8224383" lon="11.6063583"><ele>963.0</ele><time>2026-04-18T12:56:57.012Z</time></trkpt><trkpt lat="43.8224217" lon="11.6064967"><ele>963.0</ele><time>2026-04-18T12:56:58.013Z</time></trkpt><trkpt lat="43.822415" lon="11.6066367"><ele>963.0</ele><time>2026-04-18T12:56:59.014Z</time></trkpt><trkpt lat="43.8224017" lon="11.6067633"><ele>963.0</ele><time>2026-04-18T12:57:00.015Z</time></trkpt><trkpt lat="43.822395" lon="11.6068833"><ele>963.0</ele><time>2026-04-18T12:57:01.014Z</time></trkpt><trkpt lat="43.82238" lon="11.6070017"><ele>963.0</ele><time>2026-04-18T12:57:02.015Z</time></trkpt><trkpt lat="43.8223667" lon="11.6071183"><ele>963.0</ele><time>2026-04-18T12:57:03.013Z</time></trkpt><trkpt lat="43.8223683" lon="11.60723"><ele>963.0</ele><time>2026-04-18T12:57:04.004Z</time></trkpt><trkpt lat="43.82239" lon="11.607335"><ele>961.1428571428573</ele><time>2026-04-18T12:57:05.014Z</time></trkpt><trkpt lat="43.8224133" lon="11.607445"><ele>959.2857142857143</ele><time>2026-04-18T12:57:06.013Z</time></trkpt><trkpt lat="43.822435" lon="11.6075633"><ele>957.4285714285716</ele><time>2026-04-18T12:57:07.015Z</time></trkpt><trkpt lat="43.8224517" lon="11.6076617"><ele>955.5714285714287</ele><time>2026-04-18T12:57:08.015Z</time></trkpt><trkpt lat="43.8224767" lon="11.607745"><ele>953.7142857142858</ele><time>2026-04-18T12:57:09.011Z</time></trkpt><trkpt lat="43.8224983" lon="11.6078283"><ele>951.8571428571429</ele><time>2026-04-18T12:57:10.015Z</time></trkpt><trkpt lat="43.8225117" lon="11.607915"><ele>950.0</ele><time>2026-04-18T12:57:11.014Z</time></trkpt><trkpt lat="43.8224517" lon="11.6080833"><ele>947.0</ele><time>2026-04-18T12:57:13.015Z</time></trkpt><trkpt lat="43.8224017" lon="11.6081767"><ele>944.0</ele><time>2026-04-18T12:57:14.015Z</time></trkpt><trkpt lat="43.822365" lon="11.6082683"><ele>941.0</ele><time>2026-04-18T12:57:15.012Z</time></trkpt><trkpt lat="43.8223417" lon="11.6083567"><ele>938.0</ele><time>2026-04-18T12:57:16.014Z</time></trkpt><trkpt lat="43.8222633" lon="11.608475"><ele>935.0</ele><time>2026-04-18T12:57:18.012Z</time></trkpt><trkpt lat="43.82215" lon="11.60848"><ele>935.0000000000001</ele><time>2026-04-18T12:57:20.016Z</time></trkpt><trkpt lat="43.8220867" lon="11.6084533"><ele>935.0</ele><time>2026-04-18T12:57:21.012Z</time></trkpt><trkpt lat="43.8219633" lon="11.6084217"><ele>935.0</ele><time>2026-04-18T12:57:23.013Z</time></trkpt><trkpt lat="43.8218967" lon="11.6084067"><ele>935.0</ele><time>2026-04-18T12:57:24.013Z</time></trkpt><trkpt lat="43.8218317" lon="11.6083817"><ele>935.0000000000001</ele><time>2026-04-18T12:57:25.013Z</time></trkpt><trkpt lat="43.8217317" lon="11.6083267"><ele>935.0</ele><time>2026-04-18T12:57:27.012Z</time></trkpt><trkpt lat="43.82163" lon="11.608235"><ele>933.8</ele><time>2026-04-18T12:57:29.013Z</time></trkpt><trkpt lat="43.82153" lon="11.6081717"><ele>932.6</ele><time>2026-04-18T12:57:31.014Z</time></trkpt><trkpt lat="43.8214267" lon="11.6081533"><ele>931.4000000000001</ele><time>2026-04-18T12:57:33.012Z</time></trkpt><trkpt lat="43.821335" lon="11.60812"><ele>930.2</ele><time>2026-04-18T12:57:35.015Z</time></trkpt><trkpt lat="43.8212283" lon="11.6080567"><ele>929.0</ele><time>2026-04-18T12:57:37.013Z</time></trkpt><trkpt lat="43.8211233" lon="11.6079883"><ele>929.0000000000001</ele><time>2026-04-18T12:57:39.013Z</time></trkpt><trkpt lat="43.8210367" lon="11.6079417"><ele>929.0</ele><time>2026-04-18T12:57:41.015Z</time></trkpt><trkpt lat="43.820925" lon="11.607865"><ele>929.0</ele><time>2026-04-18T12:57:43.013Z</time></trkpt><trkpt lat="43.82087" lon="11.60782"><ele>929.0</ele><time>2026-04-18T12:57:44.016Z</time></trkpt><trkpt lat="43.8208083" lon="11.6077683"><ele>929.0000000000001</ele><time>2026-04-18T12:57:45.013Z</time></trkpt><trkpt lat="43.8207467" lon="11.6077067"><ele>929.0</ele><time>2026-04-18T12:57:46.014Z</time></trkpt><trkpt lat="43.8206917" lon="11.6076333"><ele>928.8000000000001</ele><time>2026-04-18T12:57:47.013Z</time></trkpt><trkpt lat="43.8206133" lon="11.6075317"><ele>928.6000000000001</ele><time>2026-04-18T12:57:49.014Z</time></trkpt><trkpt lat="43.8205167" lon="11.607515"><ele>928.4</ele><time>2026-04-18T12:57:51.013Z</time></trkpt><trkpt lat="43.8204133" lon="11.6074967"><ele>928.2</ele><time>2026-04-18T12:57:53.014Z</time></trkpt><trkpt lat="43.8203067" lon="11.6074717"><ele>928.0</ele><time>2026-04-18T12:57:55.013Z</time></trkpt><trkpt lat="43.8202183" lon="11.6074567"><ele>925.1666666666666</ele><time>2026-04-18T12:57:57.012Z</time></trkpt><trkpt lat="43.820125" lon="11.6074517"><ele>922.3333333333333</ele><time>2026-04-18T12:57:59.014Z</time></trkpt><trkpt lat="43.8200217" lon="11.607465"><ele>919.5</ele><time>2026-04-18T12:58:01.013Z</time></trkpt><trkpt lat="43.8199233" lon="11.6074783"><ele>916.6666666666667</ele><time>2026-04-18T12:58:03.012Z</time></trkpt><trkpt lat="43.81984" lon="11.60748"><ele>913.8333333333334</ele><time>2026-04-18T12:58:05.002Z</time></trkpt><trkpt lat="43.8197733" lon="11.60747"><ele>911.0</ele><time>2026-04-18T12:58:07.013Z</time></trkpt><trkpt lat="43.81971" lon="11.6074567"><ele>911.0000000000001</ele><time>2026-04-18T12:58:09.012Z</time></trkpt><trkpt lat="43.819655" lon="11.6075183"><ele>911.0</ele><time>2026-04-18T12:58:11.013Z</time></trkpt><trkpt lat="43.819585" lon="11.6075633"><ele>911.0</ele><time>2026-04-18T12:58:13.014Z</time></trkpt><trkpt lat="43.8194933" lon="11.6075783"><ele>911.0</ele><time>2026-04-18T12:58:15.012Z</time></trkpt><trkpt lat="43.8194133" lon="11.6075967"><ele>911.0000000000001</ele><time>2026-04-18T12:58:17.012Z</time></trkpt><trkpt lat="43.8193467" lon="11.6076783"><ele>911.0</ele><time>2026-04-18T12:58:20.014Z</time></trkpt><trkpt lat="43.819315" lon="11.6077983"><ele>911.8333333333334</ele><time>2026-04-18T12:58:23.013Z</time></trkpt><trkpt lat="43.81929" lon="11.6079033"><ele>912.6666666666667</ele><time>2026-04-18T12:58:25.013Z</time></trkpt><trkpt lat="43.8192183" lon="11.6079867"><ele>913.5</ele><time>2026-04-18T12:58:27.012Z</time></trkpt><trkpt lat="43.8191483" lon="11.6080183"><ele>914.3333333333333</ele><time>2026-04-18T12:58:29.013Z</time></trkpt><trkpt lat="43.8190867" lon="11.60806"><ele>915.1666666666666</ele><time>2026-04-18T12:58:32.016Z</time></trkpt><trkpt lat="43.8191" lon="11.6081567"><ele>916.0</ele><time>2026-04-18T12:58:36.012Z</time></trkpt><trkpt lat="43.8191833" lon="11.6081983"><ele>915.9999999999999</ele><time>2026-04-18T12:59:23.002Z</time></trkpt><trkpt lat="43.819255" lon="11.608235"><ele>916.0</ele><time>2026-04-18T12:59:25.012Z</time></trkpt><trkpt lat="43.8193117" lon="11.6083067"><ele>916.0</ele><time>2026-04-18T12:59:27.012Z</time></trkpt><trkpt lat="43.81937" lon="11.6083617"><ele>916.0</ele><time>2026-04-18T12:59:30.013Z</time></trkpt><trkpt lat="43.8194267" lon="11.6084117"><ele>915.9999999999999</ele><time>2026-04-18T12:59:32.014Z</time></trkpt><trkpt lat="43.8194883" lon="11.6084733"><ele>916.0</ele><time>2026-04-18T12:59:35.012Z</time></trkpt><trkpt lat="43.8195317" lon="11.60858"><ele>917.8</ele><time>2026-04-18T12:59:38.015Z</time></trkpt><trkpt lat="43.8195233" lon="11.608695"><ele>919.5999999999999</ele><time>2026-04-18T12:59:41.014Z</time></trkpt><trkpt lat="43.8195283" lon="11.6088717"><ele>921.4</ele><time>2026-04-18T12:59:56.017Z</time></trkpt><trkpt lat="43.8195283" lon="11.6089783"><ele>923.2</ele><time>2026-04-18T12:59:59.013Z</time></trkpt><trkpt lat="43.8195133" lon="11.60909"><ele>925.0</ele><time>2026-04-18T13:00:02.016Z</time></trkpt><trkpt lat="43.8194983" lon="11.6092367"><ele>925.0</ele><time>2026-04-18T13:01:55.016Z</time></trkpt><trkpt lat="43.8194333" lon="11.609105"><ele>925.0</ele><time>2026-04-18T13:03:08.014Z</time></trkpt><trkpt lat="43.81936" lon="11.6090333"><ele>925.0</ele><time>2026-04-18T13:03:10.013Z</time></trkpt><trkpt lat="43.8192933" lon="11.6090217"><ele>925.0</ele><time>2026-04-18T13:03:12.013Z</time></trkpt><trkpt lat="43.8193767" lon="11.609025"><ele>925.0</ele><time>2026-04-18T13:03:22.002Z</time></trkpt><trkpt lat="43.8194533" lon="11.6091233"><ele>924.9999999999999</ele><time>2026-04-18T13:03:25.014Z</time></trkpt><trkpt lat="43.819505" lon="11.609225"><ele>925.0</ele><time>2026-04-18T13:03:26.015Z</time></trkpt><trkpt lat="43.81954" lon="11.609325"><ele>925.0</ele><time>2026-04-18T13:03:27.012Z</time></trkpt><trkpt lat="43.8195733" lon="11.6094267"><ele>925.0</ele><time>2026-04-18T13:03:28.013Z</time></trkpt><trkpt lat="43.819605" lon="11.60951"><ele>924.9999999999999</ele><time>2026-04-18T13:03:29.014Z</time></trkpt><trkpt lat="43.8196483" lon="11.609585"><ele>925.0</ele><time>2026-04-18T13:03:30.015Z</time></trkpt><trkpt lat="43.8196933" lon="11.6096533"><ele>923.3333333333333</ele><time>2026-04-18T13:03:31.016Z</time></trkpt><trkpt lat="43.8197417" lon="11.6097133"><ele>921.6666666666666</ele><time>2026-04-18T13:03:32.015Z</time></trkpt><trkpt lat="43.81987" lon="11.609755"><ele>920.0</ele><time>2026-04-18T13:03:34.014Z</time></trkpt><trkpt lat="43.8199533" lon="11.6097533"><ele>918.3333333333333</ele><time>2026-04-18T13:03:35.013Z</time></trkpt><trkpt lat="43.8200317" lon="11.60975"><ele>916.6666666666666</ele><time>2026-04-18T13:03:36.012Z</time></trkpt><trkpt lat="43.820095" lon="11.6097767"><ele>915.0</ele><time>2026-04-18T13:03:37.014Z</time></trkpt><trkpt lat="43.8201517" lon="11.60982"><ele>915.0</ele><time>2026-04-18T13:03:38.015Z</time></trkpt><trkpt lat="43.820205" lon="11.60988"><ele>915.0</ele><time>2026-04-18T13:03:39.013Z</time></trkpt><trkpt lat="43.8202433" lon="11.6099517"><ele>915.0</ele><time>2026-04-18T13:03:40.014Z</time></trkpt><trkpt lat="43.8203117" lon="11.6100933"><ele>915.0</ele><time>2026-04-18T13:03:42.013Z</time></trkpt><trkpt lat="43.820355" lon="11.6101617"><ele>915.0</ele><time>2026-04-18T13:03:43.014Z</time></trkpt><trkpt lat="43.8204483" lon="11.61026"><ele>915.0</ele><time>2026-04-18T13:03:45.012Z</time></trkpt><trkpt lat="43.8205417" lon="11.6103383"><ele>918.8</ele><time>2026-04-18T13:03:46.013Z</time></trkpt><trkpt lat="43.8206267" lon="11.6103933"><ele>922.6</ele><time>2026-04-18T13:03:47.014Z</time></trkpt><trkpt lat="43.8207183" lon="11.6104617"><ele>926.4000000000001</ele><time>2026-04-18T13:03:48.014Z</time></trkpt><trkpt lat="43.8208033" lon="11.6105433"><ele>930.2</ele><time>2026-04-18T13:03:49.014Z</time></trkpt><trkpt lat="43.8208833" lon="11.6106233"><ele>934.0</ele><time>2026-04-18T13:03:50.015Z</time></trkpt><trkpt lat="43.820945" lon="11.6106983"><ele>930.4999999999999</ele><time>2026-04-18T13:03:51.013Z</time></trkpt><trkpt lat="43.8210033" lon="11.6107867"><ele>927.0</ele><time>2026-04-18T13:03:52.013Z</time></trkpt><trkpt lat="43.821045" lon="11.6108917"><ele>923.5</ele><time>2026-04-18T13:03:53.016Z</time></trkpt><trkpt lat="43.821065" lon="11.6110017"><ele>920.0</ele><time>2026-04-18T13:03:54.013Z</time></trkpt><trkpt lat="43.8210783" lon="11.6111233"><ele>916.4999999999999</ele><time>2026-04-18T13:03:55.014Z</time></trkpt><trkpt lat="43.821085" lon="11.611255"><ele>913.0</ele><time>2026-04-18T13:03:56.016Z</time></trkpt><trkpt lat="43.8210833" lon="11.6113783"><ele>912.9999999999999</ele><time>2026-04-18T13:03:57.015Z</time></trkpt><trkpt lat="43.8210783" lon="11.6114717"><ele>913.0</ele><time>2026-04-18T13:03:58.013Z</time></trkpt><trkpt lat="43.8210533" lon="11.61161"><ele>913.0</ele><time>2026-04-18T13:04:00.014Z</time></trkpt><trkpt lat="43.8210083" lon="11.6117283"><ele>913.0</ele><time>2026-04-18T13:04:03.014Z</time></trkpt><trkpt lat="43.8209933" lon="11.6118467"><ele>912.9999999999999</ele><time>2026-04-18T13:04:05.016Z</time></trkpt><trkpt lat="43.8210317" lon="11.611925"><ele>913.0</ele><time>2026-04-18T13:04:07.015Z</time></trkpt><trkpt lat="43.821115" lon="11.61196"><ele>912.9999999999999</ele><time>2026-04-18T13:04:09.012Z</time></trkpt><trkpt lat="43.82118" lon="11.611975"><ele>913.0</ele><time>2026-04-18T13:04:12.012Z</time></trkpt><trkpt lat="43.8212433" lon="11.6119533"><ele>913.0</ele><time>2026-04-18T13:04:38.014Z</time></trkpt><trkpt lat="43.8213183" lon="11.6119367"><ele>913.0</ele><time>2026-04-18T13:04:40.013Z</time></trkpt><trkpt lat="43.8214" lon="11.6119233"><ele>912.9999999999999</ele><time>2026-04-18T13:04:42.013Z</time></trkpt><trkpt lat="43.8214933" lon="11.61194"><ele>913.0</ele><time>2026-04-18T13:04:44.014Z</time></trkpt><trkpt lat="43.82159" lon="11.6119717"><ele>913.0</ele><time>2026-04-18T13:04:46.012Z</time></trkpt><trkpt lat="43.8216983" lon="11.611985"><ele>913.0</ele><time>2026-04-18T13:04:48.012Z</time></trkpt><trkpt lat="43.8217733" lon="11.612"><ele>913.0</ele><time>2026-04-18T13:04:49.013Z</time></trkpt><trkpt lat="43.8218417" lon="11.6120067"><ele>913.0</ele><time>2026-04-18T13:04:50.015Z</time></trkpt><trkpt lat="43.8219817" lon="11.61199"><ele>913.0</ele><time>2026-04-18T13:04:52.013Z</time></trkpt><trkpt lat="43.8220667" lon="11.611985"><ele>912.8333333333333</ele><time>2026-04-18T13:04:53.015Z</time></trkpt><trkpt lat="43.8221417" lon="11.6119733"><ele>912.6666666666666</ele><time>2026-04-18T13:04:54.013Z</time></trkpt><trkpt lat="43.82221" lon="11.6119633"><ele>912.5</ele><time>2026-04-18T13:04:55.013Z</time></trkpt><trkpt lat="43.8222833" lon="11.611955"><ele>912.3333333333333</ele><time>2026-04-18T13:04:56.014Z</time></trkpt><trkpt lat="43.8223533" lon="11.61195"><ele>912.1666666666666</ele><time>2026-04-18T13:04:57.013Z</time></trkpt><trkpt lat="43.8224217" lon="11.611955"><ele>912.0</ele><time>2026-04-18T13:04:58.012Z</time></trkpt><trkpt lat="43.822545" lon="11.6119917"><ele>905.2</ele><time>2026-04-18T13:05:00.012Z</time></trkpt><trkpt lat="43.8226583" lon="11.6120167"><ele>898.4000000000001</ele><time>2026-04-18T13:05:02.014Z</time></trkpt><trkpt lat="43.8227683" lon="11.6120483"><ele>891.5999999999999</ele><time>2026-04-18T13:05:04.015Z</time></trkpt><trkpt lat="43.822875" lon="11.6120983"><ele>884.8</ele><time>2026-04-18T13:05:06.011Z</time></trkpt><trkpt lat="43.8229383" lon="11.6121567"><ele>878.0</ele><time>2026-04-18T13:05:08.015Z</time></trkpt><trkpt lat="43.8229933" lon="11.6122517"><ele>878.0000000000001</ele><time>2026-04-18T13:05:10.012Z</time></trkpt><trkpt lat="43.8230617" lon="11.6123867"><ele>878.0</ele><time>2026-04-18T13:05:12.013Z</time></trkpt><trkpt lat="43.8231" lon="11.6124617"><ele>878.0</ele><time>2026-04-18T13:05:13.013Z</time></trkpt><trkpt lat="43.823135" lon="11.6125383"><ele>878.0</ele><time>2026-04-18T13:05:14.016Z</time></trkpt><trkpt lat="43.82317" lon="11.6126133"><ele>878.0000000000001</ele><time>2026-04-18T13:05:15.013Z</time></trkpt><trkpt lat="43.8231967" lon="11.61276"><ele>878.0</ele><time>2026-04-18T13:05:17.013Z</time></trkpt><trkpt lat="43.8231767" lon="11.6129033"><ele>879.4285714285714</ele><time>2026-04-18T13:05:19.013Z</time></trkpt><trkpt lat="43.8231483" lon="11.6129817"><ele>880.8571428571429</ele><time>2026-04-18T13:05:20.015Z</time></trkpt><trkpt lat="43.8231267" lon="11.6130667"><ele>882.2857142857142</ele><time>2026-04-18T13:05:21.012Z</time></trkpt><trkpt lat="43.8231117" lon="11.6131733"><ele>883.7142857142858</ele><time>2026-04-18T13:05:22.013Z</time></trkpt><trkpt lat="43.8230867" lon="11.6132617"><ele>885.1428571428572</ele><time>2026-04-18T13:05:23.013Z</time></trkpt><trkpt lat="43.82306" lon="11.6133417"><ele>886.5714285714286</ele><time>2026-04-18T13:05:24.013Z</time></trkpt><trkpt lat="43.8229933" lon="11.613445"><ele>888.0</ele><time>2026-04-18T13:05:26.014Z</time></trkpt><trkpt lat="43.82295" lon="11.6135433"><ele>888.0</ele><time>2026-04-18T13:05:28.013Z</time></trkpt><trkpt lat="43.8229217" lon="11.6136233"><ele>888.0</ele><time>2026-04-18T13:05:30.013Z</time></trkpt><trkpt lat="43.82281" lon="11.6137267"><ele>888.0</ele><time>2026-04-18T13:05:43.002Z</time></trkpt><trkpt lat="43.8227517" lon="11.6138"><ele>888.0</ele><time>2026-04-18T13:05:46.014Z</time></trkpt><trkpt lat="43.822825" lon="11.6137983"><ele>888.0</ele><time>2026-04-18T13:05:50.003Z</time></trkpt><trkpt lat="43.8228933" lon="11.613745"><ele>888.0</ele><time>2026-04-18T13:05:52.013Z</time></trkpt><trkpt lat="43.8229417" lon="11.6136883"><ele>888.0</ele><time>2026-04-18T13:05:53.013Z</time></trkpt><trkpt lat="43.82303" lon="11.6135867"><ele>888.0</ele><time>2026-04-18T13:05:55.015Z</time></trkpt><trkpt lat="43.8230833" lon="11.61349"><ele>888.0</ele><time>2026-04-18T13:05:56.014Z</time></trkpt><trkpt lat="43.8231333" lon="11.6134083"><ele>888.0</ele><time>2026-04-18T13:05:57.011Z</time></trkpt><trkpt lat="43.8231783" lon="11.6133367"><ele>888.0</ele><time>2026-04-18T13:05:58.014Z</time></trkpt><trkpt lat="43.8232817" lon="11.6132683"><ele>888.0</ele><time>2026-04-18T13:06:00.014Z</time></trkpt><trkpt lat="43.8233733" lon="11.61318"><ele>888.0</ele><time>2026-04-18T13:06:02.015Z</time></trkpt><trkpt lat="43.82343" lon="11.6131117"><ele>888.0</ele><time>2026-04-18T13:06:03.012Z</time></trkpt><trkpt lat="43.8235033" lon="11.613045"><ele>888.0</ele><time>2026-04-18T13:06:04.015Z</time></trkpt><trkpt lat="43.823555" lon="11.61298"><ele>888.0</ele><time>2026-04-18T13:06:05.015Z</time></trkpt><trkpt lat="43.8236417" lon="11.612925"><ele>888.0</ele><time>2026-04-18T13:06:07.015Z</time></trkpt><trkpt lat="43.8237233" lon="11.6129867"><ele>888.2857142857142</ele><time>2026-04-18T13:06:09.013Z</time></trkpt><trkpt lat="43.8237283" lon="11.6131017"><ele>888.5714285714287</ele><time>2026-04-18T13:06:11.012Z</time></trkpt><trkpt lat="43.82372" lon="11.613195"><ele>888.8571428571429</ele><time>2026-04-18T13:06:12.013Z</time></trkpt><trkpt lat="43.8237283" lon="11.6132867"><ele>889.1428571428571</ele><time>2026-04-18T13:06:13.013Z</time></trkpt><trkpt lat="43.8237517" lon="11.6133867"><ele>889.4285714285713</ele><time>2026-04-18T13:06:14.014Z</time></trkpt><trkpt lat="43.82378" lon="11.6134767"><ele>889.7142857142858</ele><time>2026-04-18T13:06:15.014Z</time></trkpt><trkpt lat="43.823815" lon="11.6135617"><ele>890.0</ele><time>2026-04-18T13:06:16.013Z</time></trkpt><trkpt lat="43.8238617" lon="11.613655"><ele>893.1666666666667</ele><time>2026-04-18T13:06:17.013Z</time></trkpt><trkpt lat="43.8238933" lon="11.6137367"><ele>896.3333333333334</ele><time>2026-04-18T13:06:18.013Z</time></trkpt><trkpt lat="43.8239283" lon="11.613815"><ele>899.5</ele><time>2026-04-18T13:06:19.013Z</time></trkpt><trkpt lat="43.823965" lon="11.61395"><ele>902.6666666666667</ele><time>2026-04-18T13:06:21.012Z</time></trkpt><trkpt lat="43.8239883" lon="11.6140567"><ele>905.8333333333334</ele><time>2026-04-18T13:06:23.013Z</time></trkpt><trkpt lat="43.82402" lon="11.614215"><ele>909.0</ele><time>2026-04-18T13:06:25.014Z</time></trkpt><trkpt lat="43.8240183" lon="11.6143383"><ele>909.0</ele><time>2026-04-18T13:06:26.015Z</time></trkpt><trkpt lat="43.82401" lon="11.614455"><ele>909.0</ele><time>2026-04-18T13:06:27.012Z</time></trkpt><trkpt lat="43.8239883" lon="11.6145517"><ele>909.0</ele><time>2026-04-18T13:06:28.013Z</time></trkpt><trkpt lat="43.8240017" lon="11.614665"><ele>909.0</ele><time>2026-04-18T13:06:30.013Z</time></trkpt><trkpt lat="43.8240583" lon="11.6147167"><ele>909.0</ele><time>2026-04-18T13:06:33.012Z</time></trkpt><trkpt lat="43.82413" lon="11.6146667"><ele>909.0</ele><time>2026-04-18T13:06:35.013Z</time></trkpt><trkpt lat="43.8242367" lon="11.6146583"><ele>909.4000000000001</ele><time>2026-04-18T13:06:37.015Z</time></trkpt><trkpt lat="43.8243167" lon="11.6147167"><ele>909.8000000000001</ele><time>2026-04-18T13:06:39.012Z</time></trkpt><trkpt lat="43.8243" lon="11.614835"><ele>910.1999999999999</ele><time>2026-04-18T13:06:41.012Z</time></trkpt><trkpt lat="43.8242817" lon="11.614955"><ele>910.5999999999999</ele><time>2026-04-18T13:06:43.012Z</time></trkpt><trkpt lat="43.8242733" lon="11.6150833"><ele>911.0</ele><time>2026-04-18T13:06:45.013Z</time></trkpt><trkpt lat="43.8242517" lon="11.6152133"><ele>915.8</ele><time>2026-04-18T13:06:47.011Z</time></trkpt><trkpt lat="43.8242133" lon="11.615335"><ele>920.5999999999999</ele><time>2026-04-18T13:06:49.012Z</time></trkpt><trkpt lat="43.8241583" lon="11.6154317"><ele>925.4</ele><time>2026-04-18T13:06:51.014Z</time></trkpt><trkpt lat="43.82411" lon="11.615535"><ele>930.2</ele><time>2026-04-18T13:06:53.016Z</time></trkpt><trkpt lat="43.8240417" lon="11.6156267"><ele>935.0</ele><time>2026-04-18T13:06:55.014Z</time></trkpt><trkpt lat="43.823965" lon="11.61573"><ele>935.0000000000001</ele><time>2026-04-18T13:06:57.012Z</time></trkpt><trkpt lat="43.8239133" lon="11.6158683"><ele>935.0</ele><time>2026-04-18T13:06:59.015Z</time></trkpt><trkpt lat="43.823895" lon="11.6159667"><ele>935.0</ele><time>2026-04-18T13:07:00.013Z</time></trkpt><trkpt lat="43.8238767" lon="11.6160667"><ele>935.0</ele><time>2026-04-18T13:07:01.012Z</time></trkpt><trkpt lat="43.82387" lon="11.6161817"><ele>935.0000000000001</ele><time>2026-04-18T13:07:02.014Z</time></trkpt><trkpt lat="43.823858" lon="11.6162845"><ele>935.0</ele><time>2026-04-18T13:07:03.011Z</time></trkpt><trkpt lat="43.8238476" lon="11.6163808"><ele>935.5000000000001</ele><time>2026-04-18T13:07:04.014Z</time></trkpt><trkpt lat="43.8238403" lon="11.6164782"><ele>936.0</ele><time>2026-04-18T13:07:05.013Z</time></trkpt><trkpt lat="43.823825" lon="11.6165769"><ele>936.5</ele><time>2026-04-18T13:07:06.013Z</time></trkpt><trkpt lat="43.8238038" lon="11.6166737"><ele>937.0</ele><time>2026-04-18T13:07:07.014Z</time></trkpt><trkpt lat="43.8237389" lon="11.6168084"><ele>937.5000000000001</ele><time>2026-04-18T13:07:09.013Z</time></trkpt><trkpt lat="43.8236395" lon="11.6168854"><ele>938.0</ele><time>2026-04-18T13:07:11.013Z</time></trkpt><trkpt lat="43.8235771" lon="11.6169187"><ele>938.0</ele><time>2026-04-18T13:07:12.014Z</time></trkpt><trkpt lat="43.823516" lon="11.6169605"><ele>938.0</ele><time>2026-04-18T13:07:13.013Z</time></trkpt><trkpt lat="43.8234608" lon="11.6170129"><ele>938.0</ele><time>2026-04-18T13:07:14.015Z</time></trkpt><trkpt lat="43.8234085" lon="11.6170794"><ele>938.0</ele><time>2026-04-18T13:07:15.012Z</time></trkpt><trkpt lat="43.823362" lon="11.6171621"><ele>938.0</ele><time>2026-04-18T13:07:16.013Z</time></trkpt><trkpt lat="43.8233189" lon="11.6172317"><ele>938.0</ele><time>2026-04-18T13:07:17.013Z</time></trkpt><trkpt lat="43.823232" lon="11.6172972"><ele>938.0</ele><time>2026-04-18T13:07:19.016Z</time></trkpt><trkpt lat="43.8231202" lon="11.6173344"><ele>941.4</ele><time>2026-04-18T13:07:21.013Z</time></trkpt><trkpt lat="43.8230245" lon="11.6173492"><ele>944.8</ele><time>2026-04-18T13:07:23.015Z</time></trkpt><trkpt lat="43.822945" lon="11.6173317"><ele>948.2</ele><time>2026-04-18T13:07:26.015Z</time></trkpt><trkpt lat="43.8228783" lon="11.61733"><ele>951.6</ele><time>2026-04-18T13:07:28.013Z</time></trkpt><trkpt lat="43.8227667" lon="11.6173417"><ele>955.0</ele><time>2026-04-18T13:07:30.003Z</time></trkpt><trkpt lat="43.8226433" lon="11.617325"><ele>956.1666666666666</ele><time>2026-04-18T13:07:32.016Z</time></trkpt><trkpt lat="43.822575" lon="11.6173067"><ele>957.3333333333333</ele><time>2026-04-18T13:07:33.014Z</time></trkpt><trkpt lat="43.8225" lon="11.61727"><ele>958.5</ele><time>2026-04-18T13:07:34.013Z</time></trkpt><trkpt lat="43.8224317" lon="11.6172267"><ele>959.6666666666667</ele><time>2026-04-18T13:07:35.013Z</time></trkpt><trkpt lat="43.822325" lon="11.61715"><ele>960.8333333333334</ele><time>2026-04-18T13:07:37.015Z</time></trkpt><trkpt lat="43.822225" lon="11.6171067"><ele>962.0</ele><time>2026-04-18T13:07:39.012Z</time></trkpt><trkpt lat="43.8221217" lon="11.6171267"><ele>962.0000000000001</ele><time>2026-04-18T13:07:41.015Z</time></trkpt><trkpt lat="43.8220167" lon="11.6171983"><ele>962.0</ele><time>2026-04-18T13:07:43.013Z</time></trkpt><trkpt lat="43.8219567" lon="11.6172433"><ele>962.0</ele><time>2026-04-18T13:07:44.017Z</time></trkpt><trkpt lat="43.8218883" lon="11.617285"><ele>962.0</ele><time>2026-04-18T13:07:45.013Z</time></trkpt><trkpt lat="43.8218183" lon="11.61731"><ele>962.0000000000001</ele><time>2026-04-18T13:07:46.012Z</time></trkpt><trkpt lat="43.8217367" lon="11.6173117"><ele>962.0</ele><time>2026-04-18T13:07:47.013Z</time></trkpt><trkpt lat="43.8216483" lon="11.6173133"><ele>964.0000000000001</ele><time>2026-04-18T13:07:48.013Z</time></trkpt><trkpt lat="43.8215683" lon="11.617325"><ele>966.0</ele><time>2026-04-18T13:07:49.013Z</time></trkpt><trkpt lat="43.8214983" lon="11.61734"><ele>968.0</ele><time>2026-04-18T13:07:50.015Z</time></trkpt><trkpt lat="43.8213767" lon="11.617395"><ele>970.0</ele><time>2026-04-18T13:07:52.013Z</time></trkpt><trkpt lat="43.8213117" lon="11.61745"><ele>972.0000000000001</ele><time>2026-04-18T13:07:53.014Z</time></trkpt><trkpt lat="43.8212467" lon="11.61751"><ele>974.0</ele><time>2026-04-18T13:07:54.013Z</time></trkpt><trkpt lat="43.8211667" lon="11.6175483"><ele>974.0</ele><time>2026-04-18T13:07:56.014Z</time></trkpt><trkpt lat="43.821085" lon="11.6175017"><ele>974.0000000000001</ele><time>2026-04-18T13:07:59.013Z</time></trkpt><trkpt lat="43.82101" lon="11.6175917"><ele>974.0000000000001</ele><time>2026-04-18T13:08:02.014Z</time></trkpt><trkpt lat="43.82097" lon="11.617685"><ele>974.0</ele><time>2026-04-18T13:08:04.014Z</time></trkpt><trkpt lat="43.8209133" lon="11.6177933"><ele>974.0</ele><time>2026-04-18T13:08:06.014Z</time></trkpt><trkpt lat="43.8208333" lon="11.6179083"><ele>977.1666666666667</ele><time>2026-04-18T13:08:08.015Z</time></trkpt><trkpt lat="43.8207333" lon="11.618025"><ele>980.3333333333334</ele><time>2026-04-18T13:08:10.013Z</time></trkpt><trkpt lat="43.8206817" lon="11.6180933"><ele>983.5</ele><time>2026-04-18T13:08:11.014Z</time></trkpt><trkpt lat="43.8206167" lon="11.6181467"><ele>986.6666666666667</ele><time>2026-04-18T13:08:13.018Z</time></trkpt><trkpt lat="43.8205483" lon="11.6182083"><ele>989.8333333333334</ele><time>2026-04-18T13:08:24.003Z</time></trkpt><trkpt lat="43.8204717" lon="11.618255"><ele>993.0</ele><time>2026-04-18T13:08:26.015Z</time></trkpt><trkpt lat="43.820345" lon="11.61831"><ele>993.0</ele><time>2026-04-18T13:08:28.013Z</time></trkpt><trkpt lat="43.82027" lon="11.618335"><ele>993.0</ele><time>2026-04-18T13:08:29.014Z</time></trkpt><trkpt lat="43.8202017" lon="11.6183683"><ele>993.0</ele><time>2026-04-18T13:08:30.012Z</time></trkpt><trkpt lat="43.8201417" lon="11.6184183"><ele>993.0</ele><time>2026-04-18T13:08:31.014Z</time></trkpt><trkpt lat="43.82009" lon="11.6184867"><ele>993.0</ele><time>2026-04-18T13:08:32.015Z</time></trkpt><trkpt lat="43.82001" lon="11.618615"><ele>993.0</ele><time>2026-04-18T13:08:34.013Z</time></trkpt><trkpt lat="43.8199533" lon="11.6186567"><ele>994.8333333333334</ele><time>2026-04-18T13:08:35.015Z</time></trkpt><trkpt lat="43.819875" lon="11.61869"><ele>996.6666666666667</ele><time>2026-04-18T13:08:36.015Z</time></trkpt><trkpt lat="43.8197917" lon="11.6187217"><ele>998.5</ele><time>2026-04-18T13:08:37.014Z</time></trkpt><trkpt lat="43.8197083" lon="11.61874"><ele>1000.3333333333334</ele><time>2026-04-18T13:08:38.016Z</time></trkpt><trkpt lat="43.819645" lon="11.61876"><ele>1002.1666666666667</ele><time>2026-04-18T13:08:39.014Z</time></trkpt><trkpt lat="43.81955" lon="11.6188533"><ele>1004.0</ele><time>2026-04-18T13:08:41.015Z</time></trkpt><trkpt lat="43.81949" lon="11.6189533"><ele>1004.0</ele><time>2026-04-18T13:08:43.015Z</time></trkpt><trkpt lat="43.8194633" lon="11.6190383"><ele>1004.0000000000001</ele><time>2026-04-18T13:08:45.014Z</time></trkpt><trkpt lat="43.8194667" lon="11.6192233"><ele>1004.0000000000001</ele><time>2026-04-18T13:11:10.015Z</time></trkpt><trkpt lat="43.8194283" lon="11.6193183"><ele>1004.0</ele><time>2026-04-18T13:11:14.016Z</time></trkpt><trkpt lat="43.819385" lon="11.6194483"><ele>1004.0</ele><time>2026-04-18T13:11:16.014Z</time></trkpt><trkpt lat="43.81936" lon="11.61954"><ele>1002.4000000000001</ele><time>2026-04-18T13:11:18.013Z</time></trkpt><trkpt lat="43.81935" lon="11.619685"><ele>1000.8000000000001</ele><time>2026-04-18T13:11:20.015Z</time></trkpt><trkpt lat="43.8193083" lon="11.6198"><ele>999.1999999999999</ele><time>2026-04-18T13:11:22.014Z</time></trkpt><trkpt lat="43.81924" lon="11.61992"><ele>997.5999999999999</ele><time>2026-04-18T13:11:24.014Z</time></trkpt><trkpt lat="43.8191633" lon="11.620055"><ele>996.0</ele><time>2026-04-18T13:11:26.014Z</time></trkpt><trkpt lat="43.8190917" lon="11.6201833"><ele>998.5999999999999</ele><time>2026-04-18T13:11:28.012Z</time></trkpt><trkpt lat="43.8190283" lon="11.62019"><ele>1001.1999999999999</ele><time>2026-04-18T13:11:29.012Z</time></trkpt><trkpt lat="43.8189183" lon="11.6202383"><ele>1003.8000000000001</ele><time>2026-04-18T13:11:31.015Z</time></trkpt><trkpt lat="43.818835" lon="11.6203"><ele>1006.4000000000001</ele><time>2026-04-18T13:11:33.012Z</time></trkpt><trkpt lat="43.8187733" lon="11.62039"><ele>1009.0</ele><time>2026-04-18T13:11:35.013Z</time></trkpt><trkpt lat="43.818735" lon="11.6204983"><ele>1008.9999999999999</ele><time>2026-04-18T13:11:38.015Z</time></trkpt><trkpt lat="43.818795" lon="11.6205733"><ele>1009.0</ele><time>2026-04-18T13:11:41.012Z</time></trkpt><trkpt lat="43.8188633" lon="11.6206383"><ele>1009.0</ele><time>2026-04-18T13:11:44.015Z</time></trkpt><trkpt lat="43.818935" lon="11.62074"><ele>1009.0</ele><time>2026-04-18T13:11:46.013Z</time></trkpt><trkpt lat="43.8189817" lon="11.620815"><ele>1008.9999999999999</ele><time>2026-04-18T13:11:47.013Z</time></trkpt><trkpt lat="43.8190067" lon="11.6209183"><ele>1009.0</ele><time>2026-04-18T13:11:49.013Z</time></trkpt><trkpt lat="43.8189883" lon="11.621045"><ele>1012.0</ele><time>2026-04-18T13:11:51.013Z</time></trkpt><trkpt lat="43.8189217" lon="11.621165"><ele>1015.0000000000001</ele><time>2026-04-18T13:11:53.012Z</time></trkpt><trkpt lat="43.8188833" lon="11.621265"><ele>1018.0000000000001</ele><time>2026-04-18T13:11:55.012Z</time></trkpt><trkpt lat="43.818935" lon="11.6213983"><ele>1021.0</ele><time>2026-04-18T13:11:57.014Z</time></trkpt><trkpt lat="43.8189867" lon="11.6214683"><ele>1024.0</ele><time>2026-04-18T13:11:58.013Z</time></trkpt><trkpt lat="43.8190683" lon="11.6215583"><ele>1023.9999999999999</ele><time>2026-04-18T13:12:00.014Z</time></trkpt><trkpt lat="43.8191183" lon="11.6216283"><ele>1024.0</ele><time>2026-04-18T13:13:37.013Z</time></trkpt><trkpt lat="43.81919" lon="11.621655"><ele>1024.0</ele><time>2026-04-18T13:13:41.014Z</time></trkpt><trkpt lat="43.8192667" lon="11.621675"><ele>1024.0</ele><time>2026-04-18T13:13:44.014Z</time></trkpt><trkpt lat="43.819355" lon="11.6217383"><ele>1023.9999999999999</ele><time>2026-04-18T13:13:54.012Z</time></trkpt><trkpt lat="43.8194367" lon="11.6218233"><ele>1024.0</ele><time>2026-04-18T13:13:56.013Z</time></trkpt><trkpt lat="43.8195333" lon="11.6219267"><ele>1024.4</ele><time>2026-04-18T13:13:58.012Z</time></trkpt><trkpt lat="43.8195883" lon="11.6219933"><ele>1024.8000000000002</ele><time>2026-04-18T13:13:59.012Z</time></trkpt><trkpt lat="43.8196367" lon="11.62206"><ele>1025.1999999999998</ele><time>2026-04-18T13:14:00.013Z</time></trkpt><trkpt lat="43.8197067" lon="11.6221817"><ele>1025.6</ele><time>2026-04-18T13:14:02.015Z</time></trkpt><trkpt lat="43.8197517" lon="11.6223"><ele>1026.0</ele><time>2026-04-18T13:14:04.013Z</time></trkpt><trkpt lat="43.8197967" lon="11.622425"><ele>1026.0</ele><time>2026-04-18T13:14:06.012Z</time></trkpt><trkpt lat="43.819865" lon="11.6225633"><ele>1026.0</ele><time>2026-04-18T13:14:08.013Z</time></trkpt><trkpt lat="43.8199167" lon="11.62264"><ele>1026.0</ele><time>2026-04-18T13:14:09.012Z</time></trkpt><trkpt lat="43.8199717" lon="11.6227733"><ele>1026.0</ele><time>2026-04-18T13:14:11.013Z</time></trkpt><trkpt lat="43.8200333" lon="11.6228783"><ele>1026.0</ele><time>2026-04-18T13:14:13.015Z</time></trkpt><trkpt lat="43.82012" lon="11.622935"><ele>1025.6</ele><time>2026-04-18T13:14:15.013Z</time></trkpt><trkpt lat="43.8202033" lon="11.6229817"><ele>1025.1999999999998</ele><time>2026-04-18T13:14:17.017Z</time></trkpt><trkpt lat="43.8202683" lon="11.62302"><ele>1024.8000000000002</ele><time>2026-04-18T13:14:21.013Z</time></trkpt><trkpt lat="43.8203433" lon="11.6229733"><ele>1024.4</ele><time>2026-04-18T13:14:26.015Z</time></trkpt><trkpt lat="43.8203983" lon="11.6228483"><ele>1024.0</ele><time>2026-04-18T13:14:28.014Z</time></trkpt><trkpt lat="43.82051" lon="11.6227417"><ele>1024.0</ele><time>2026-04-18T13:14:30.011Z</time></trkpt><trkpt lat="43.820575" lon="11.6227033"><ele>1024.0</ele><time>2026-04-18T13:14:31.015Z</time></trkpt><trkpt lat="43.820685" lon="11.62266"><ele>1024.0</ele><time>2026-04-18T13:14:33.012Z</time></trkpt><trkpt lat="43.8207367" lon="11.6225767"><ele>1024.0</ele><time>2026-04-18T13:14:35.014Z</time></trkpt><trkpt lat="43.82079" lon="11.6224"><ele>1024.0</ele><time>2026-04-18T13:14:37.013Z</time></trkpt><trkpt lat="43.82084" lon="11.6223117"><ele>1024.0</ele><time>2026-04-18T13:14:38.02Z</time></trkpt><trkpt lat="43.8209083" lon="11.62221"><ele>1024.0</ele><time>2026-04-18T13:14:39.013Z</time></trkpt><trkpt lat="43.8209783" lon="11.6221133"><ele>1024.0</ele><time>2026-04-18T13:14:40.013Z</time></trkpt><trkpt lat="43.8210417" lon="11.6220417"><ele>1024.0</ele><time>2026-04-18T13:14:41.014Z</time></trkpt><trkpt lat="43.82115" lon="11.6220133"><ele>1024.0</ele><time>2026-04-18T13:14:43.013Z</time></trkpt><trkpt lat="43.821215" lon="11.6220467"><ele>1026.0</ele><time>2026-04-18T13:14:44.016Z</time></trkpt><trkpt lat="43.8212883" lon="11.62208"><ele>1028.0</ele><time>2026-04-18T13:14:45.012Z</time></trkpt><trkpt lat="43.8213533" lon="11.62209"><ele>1030.0</ele><time>2026-04-18T13:14:46.013Z</time></trkpt><trkpt lat="43.8214183" lon="11.6220933"><ele>1032.0</ele><time>2026-04-18T13:14:47.015Z</time></trkpt><trkpt lat="43.8214933" lon="11.6220783"><ele>1034.0</ele><time>2026-04-18T13:14:48.014Z</time></trkpt><trkpt lat="43.821565" lon="11.6220567"><ele>1036.0</ele><time>2026-04-18T13:14:49.014Z</time></trkpt><trkpt lat="43.8216683" lon="11.62203"><ele>1036.0</ele><time>2026-04-18T13:14:51.013Z</time></trkpt><trkpt lat="43.821745" lon="11.6219967"><ele>1036.0</ele><time>2026-04-18T13:14:53.015Z</time></trkpt><trkpt lat="43.8218233" lon="11.6219983"><ele>1036.0</ele><time>2026-04-18T13:14:55.016Z</time></trkpt><trkpt lat="43.8219167" lon="11.6219833"><ele>1036.0</ele><time>2026-04-18T13:14:57.014Z</time></trkpt><trkpt lat="43.8220133" lon="11.621955"><ele>1036.0</ele><time>2026-04-18T13:14:59.016Z</time></trkpt><trkpt lat="43.8221017" lon="11.6219033"><ele>1036.0</ele><time>2026-04-18T13:15:01.015Z</time></trkpt><trkpt lat="43.8221517" lon="11.6218433"><ele>1034.5</ele><time>2026-04-18T13:15:02.015Z</time></trkpt><trkpt lat="43.8222083" lon="11.6217767"><ele>1033.0</ele><time>2026-04-18T13:15:03.013Z</time></trkpt><trkpt lat="43.8222717" lon="11.6217133"><ele>1031.5</ele><time>2026-04-18T13:15:04.014Z</time></trkpt><trkpt lat="43.822335" lon="11.62167"><ele>1030.0</ele><time>2026-04-18T13:15:05.014Z</time></trkpt><trkpt lat="43.8224033" lon="11.6216267"><ele>1028.5</ele><time>2026-04-18T13:15:06.012Z</time></trkpt><trkpt lat="43.8224817" lon="11.6216033"><ele>1027.0</ele><time>2026-04-18T13:15:07.016Z</time></trkpt><trkpt lat="43.8225533" lon="11.62159"><ele>1026.8333333333333</ele><time>2026-04-18T13:15:08.015Z</time></trkpt><trkpt lat="43.822655" lon="11.6216067"><ele>1026.6666666666665</ele><time>2026-04-18T13:15:10.014Z</time></trkpt><trkpt lat="43.8227017" lon="11.6216917"><ele>1026.5</ele><time>2026-04-18T13:15:12.013Z</time></trkpt><trkpt lat="43.8226933" lon="11.6217817"><ele>1026.3333333333333</ele><time>2026-04-18T13:15:14.016Z</time></trkpt><trkpt lat="43.8226883" lon="11.6218917"><ele>1026.1666666666667</ele><time>2026-04-18T13:15:16.013Z</time></trkpt><trkpt lat="43.8226867" lon="11.6220333"><ele>1026.0</ele><time>2026-04-18T13:15:18.012Z</time></trkpt><trkpt lat="43.82268" lon="11.6221233"><ele>1026.0</ele><time>2026-04-18T13:15:19.016Z</time></trkpt><trkpt lat="43.8226667" lon="11.6222333"><ele>1026.0</ele><time>2026-04-18T13:15:20.017Z</time></trkpt><trkpt lat="43.8225967" lon="11.622325"><ele>1026.0</ele><time>2026-04-18T13:15:22.003Z</time></trkpt><trkpt lat="43.8225083" lon="11.6223883"><ele>1026.0</ele><time>2026-04-18T13:15:24.016Z</time></trkpt><trkpt lat="43.82245" lon="11.6224583"><ele>1026.0</ele><time>2026-04-18T13:15:25.016Z</time></trkpt><trkpt lat="43.8223917" lon="11.6225333"><ele>1026.0</ele><time>2026-04-18T13:15:26.016Z</time></trkpt><trkpt lat="43.822325" lon="11.6226017"><ele>1028.3333333333333</ele><time>2026-04-18T13:15:27.015Z</time></trkpt><trkpt lat="43.8222567" lon="11.6226667"><ele>1030.6666666666667</ele><time>2026-04-18T13:15:28.015Z</time></trkpt><trkpt lat="43.8221883" lon="11.62273"><ele>1033.0</ele><time>2026-04-18T13:15:29.016Z</time></trkpt><trkpt lat="43.8221183" lon="11.6227767"><ele>1035.3333333333335</ele><time>2026-04-18T13:15:30.012Z</time></trkpt><trkpt lat="43.8220517" lon="11.6228167"><ele>1037.6666666666667</ele><time>2026-04-18T13:15:31.013Z</time></trkpt><trkpt lat="43.821985" lon="11.6228567"><ele>1040.0</ele><time>2026-04-18T13:15:32.015Z</time></trkpt><trkpt lat="43.82191" lon="11.62291"><ele>1041.6</ele><time>2026-04-18T13:15:33.012Z</time></trkpt><trkpt lat="43.82182" lon="11.6229517"><ele>1043.2</ele><time>2026-04-18T13:15:34.013Z</time></trkpt><trkpt lat="43.821735" lon="11.62299"><ele>1044.8</ele><time>2026-04-18T13:15:35.014Z</time></trkpt><trkpt lat="43.8216633" lon="11.62302"><ele>1046.4</ele><time>2026-04-18T13:15:36.015Z</time></trkpt><trkpt lat="43.821555" lon="11.6230983"><ele>1048.0</ele><time>2026-04-18T13:15:38.015Z</time></trkpt><trkpt lat="43.82148" lon="11.6232267"><ele>1049.0</ele><time>2026-04-18T13:15:40.012Z</time></trkpt><trkpt lat="43.82145" lon="11.623325"><ele>1050.0</ele><time>2026-04-18T13:15:41.012Z</time></trkpt><trkpt lat="43.8214133" lon="11.6234133"><ele>1051.0</ele><time>2026-04-18T13:15:42.012Z</time></trkpt><trkpt lat="43.8213783" lon="11.62352"><ele>1052.0</ele><time>2026-04-18T13:15:44.014Z</time></trkpt><trkpt lat="43.821355" lon="11.6236383"><ele>1053.0</ele><time>2026-04-18T13:15:47.014Z</time></trkpt><trkpt lat="43.8212933" lon="11.6237417"><ele>1054.0</ele><time>2026-04-18T13:15:49.013Z</time></trkpt><trkpt lat="43.8212417" lon="11.6237917"><ele>1054.2</ele><time>2026-04-18T13:15:50.015Z</time></trkpt><trkpt lat="43.8211817" lon="11.6238333"><ele>1054.4</ele><time>2026-04-18T13:15:51.012Z</time></trkpt><trkpt lat="43.8210733" lon="11.6238983"><ele>1054.6</ele><time>2026-04-18T13:15:53.015Z</time></trkpt><trkpt lat="43.82099" lon="11.6240117"><ele>1054.8</ele><time>2026-04-18T13:15:55.013Z</time></trkpt><trkpt lat="43.8209033" lon="11.6241267"><ele>1055.0</ele><time>2026-04-18T13:15:57.013Z</time></trkpt><trkpt lat="43.8208233" lon="11.6242417"><ele>1055.0</ele><time>2026-04-18T13:15:59.014Z</time></trkpt><trkpt lat="43.820785" lon="11.6243917"><ele>1055.0</ele><time>2026-04-18T13:16:01.014Z</time></trkpt><trkpt lat="43.8207617" lon="11.62449"><ele>1055.0</ele><time>2026-04-18T13:16:02.015Z</time></trkpt><trkpt lat="43.8207533" lon="11.6246117"><ele>1055.0</ele><time>2026-04-18T13:16:03.013Z</time></trkpt><trkpt lat="43.8207267" lon="11.624725"><ele>1055.0</ele><time>2026-04-18T13:16:04.012Z</time></trkpt><trkpt lat="43.8206883" lon="11.62483"><ele>1055.0</ele><time>2026-04-18T13:16:05.014Z</time></trkpt><trkpt lat="43.8206333" lon="11.624915"><ele>1058.6</ele><time>2026-04-18T13:16:06.013Z</time></trkpt><trkpt lat="43.8205717" lon="11.6249933"><ele>1062.2</ele><time>2026-04-18T13:16:07.015Z</time></trkpt><trkpt lat="43.82049" lon="11.62505"><ele>1065.8</ele><time>2026-04-18T13:16:08.015Z</time></trkpt><trkpt lat="43.820405" lon="11.6251033"><ele>1069.4</ele><time>2026-04-18T13:16:09.012Z</time></trkpt><trkpt lat="43.8202917" lon="11.6251183"><ele>1073.0</ele><time>2026-04-18T13:16:10.014Z</time></trkpt><trkpt lat="43.8202183" lon="11.62514"><ele>1071.0</ele><time>2026-04-18T13:16:11.015Z</time></trkpt><trkpt lat="43.8201333" lon="11.6251617"><ele>1069.0</ele><time>2026-04-18T13:16:12.002Z</time></trkpt><trkpt lat="43.8200417" lon="11.6251733"><ele>1067.0</ele><time>2026-04-18T13:16:13.013Z</time></trkpt><trkpt lat="43.8199617" lon="11.6251683"><ele>1065.0</ele><time>2026-04-18T13:16:14.014Z</time></trkpt><trkpt lat="43.8198517" lon="11.6251783"><ele>1063.0</ele><time>2026-04-18T13:16:16.013Z</time></trkpt><trkpt lat="43.8197667" lon="11.62522"><ele>1063.0</ele><time>2026-04-18T13:16:18.013Z</time></trkpt><trkpt lat="43.81967" lon="11.6252783"><ele>1063.0</ele><time>2026-04-18T13:16:20.015Z</time></trkpt><trkpt lat="43.819605" lon="11.625305"><ele>1063.0</ele><time>2026-04-18T13:16:21.014Z</time></trkpt><trkpt lat="43.81949" lon="11.6253083"><ele>1063.0</ele><time>2026-04-18T13:16:23.014Z</time></trkpt><trkpt lat="43.8194267" lon="11.6252983"><ele>1063.0</ele><time>2026-04-18T13:16:24.004Z</time></trkpt><trkpt lat="43.8193333" lon="11.6252517"><ele>1066.0</ele><time>2026-04-18T13:16:26.017Z</time></trkpt><trkpt lat="43.819255" lon="11.6251983"><ele>1069.0</ele><time>2026-04-18T13:16:28.013Z</time></trkpt><trkpt lat="43.819195" lon="11.62513"><ele>1072.0</ele><time>2026-04-18T13:16:30.015Z</time></trkpt><trkpt lat="43.81909" lon="11.6250433"><ele>1075.0</ele><time>2026-04-18T13:16:32.015Z</time></trkpt><trkpt lat="43.8190167" lon="11.6250183"><ele>1078.0</ele><time>2026-04-18T13:16:33.013Z</time></trkpt><trkpt lat="43.818925" lon="11.625015"><ele>1078.0</ele><time>2026-04-18T13:16:34.012Z</time></trkpt><trkpt lat="43.81883" lon="11.62505"><ele>1078.0</ele><time>2026-04-18T13:16:35.012Z</time></trkpt><trkpt lat="43.818735" lon="11.625095"><ele>1078.0</ele><time>2026-04-18T13:16:36.012Z</time></trkpt><trkpt lat="43.8186517" lon="11.6251217"><ele>1078.0</ele><time>2026-04-18T13:16:37.013Z</time></trkpt><trkpt lat="43.8185683" lon="11.6251417"><ele>1078.0</ele><time>2026-04-18T13:16:38.015Z</time></trkpt><trkpt lat="43.81849" lon="11.6251533"><ele>1078.0</ele><time>2026-04-18T13:16:39.012Z</time></trkpt><trkpt lat="43.8184167" lon="11.6251483"><ele>1080.2</ele><time>2026-04-18T13:16:40.013Z</time></trkpt><trkpt lat="43.81833" lon="11.625125"><ele>1082.4</ele><time>2026-04-18T13:16:41.012Z</time></trkpt><trkpt lat="43.818235" lon="11.6251133"><ele>1084.6000000000001</ele><time>2026-04-18T13:16:42.013Z</time></trkpt><trkpt lat="43.8181283" lon="11.6251167"><ele>1086.8</ele><time>2026-04-18T13:16:43.013Z</time></trkpt><trkpt lat="43.8180233" lon="11.62512"><ele>1089.0</ele><time>2026-04-18T13:16:44.003Z</time></trkpt><trkpt lat="43.8179133" lon="11.6251217"><ele>1089.0</ele><time>2026-04-18T13:16:45.016Z</time></trkpt><trkpt lat="43.817785" lon="11.625125"><ele>1089.0</ele><time>2026-04-18T13:16:46.015Z</time></trkpt><trkpt lat="43.8176683" lon="11.62513"><ele>1089.0</ele><time>2026-04-18T13:16:47.013Z</time></trkpt><trkpt lat="43.8175783" lon="11.625135"><ele>1089.0</ele><time>2026-04-18T13:16:48.013Z</time></trkpt><trkpt lat="43.8174917" lon="11.6251467"><ele>1089.0</ele><time>2026-04-18T13:16:50.004Z</time></trkpt><trkpt lat="43.8173917" lon="11.6251533"><ele>1090.4</ele><time>2026-04-18T13:18:37.013Z</time></trkpt><trkpt lat="43.8174617" lon="11.6251217"><ele>1091.8000000000002</ele><time>2026-04-18T13:38:03.002Z</time></trkpt><trkpt lat="43.8175217" lon="11.6253017"><ele>1093.1999999999998</ele><time>2026-04-18T13:38:24.012Z</time></trkpt><trkpt lat="43.8175517" lon="11.625405"><ele>1094.6</ele><time>2026-04-18T13:38:27.013Z</time></trkpt><trkpt lat="43.81757" lon="11.62551"><ele>1096.0</ele><time>2026-04-18T13:38:30.011Z</time></trkpt><trkpt lat="43.8175333" lon="11.6253683"><ele>1097.3999999999999</ele><time>2026-04-18T13:38:58.013Z</time></trkpt><trkpt lat="43.8174683" lon="11.625235"><ele>1098.8</ele><time>2026-04-18T13:39:00.01Z</time></trkpt><trkpt lat="43.81741" lon="11.6251267"><ele>1100.1999999999998</ele><time>2026-04-18T13:39:02.014Z</time></trkpt><trkpt lat="43.8173533" lon="11.624995"><ele>1101.6</ele><time>2026-04-18T13:39:04.012Z</time></trkpt><trkpt lat="43.8173167" lon="11.62483"><ele>1103.0</ele><time>2026-04-18T13:39:06.013Z</time></trkpt><trkpt lat="43.81729" lon="11.62473"><ele>1103.0</ele><time>2026-04-18T13:39:07.012Z</time></trkpt><trkpt lat="43.8172567" lon="11.624635"><ele>1103.0</ele><time>2026-04-18T13:39:08.014Z</time></trkpt><trkpt lat="43.8172067" lon="11.6245217"><ele>1103.0</ele><time>2026-04-18T13:39:10.012Z</time></trkpt><trkpt lat="43.8171517" lon="11.62447"><ele>1103.0</ele><time>2026-04-18T13:39:20.017Z</time></trkpt><trkpt lat="43.817075" lon="11.62439"><ele>1103.0</ele><time>2026-04-18T13:39:22.013Z</time></trkpt><trkpt lat="43.8170167" lon="11.6243533"><ele>1103.0</ele><time>2026-04-18T13:39:23.013Z</time></trkpt><trkpt lat="43.8169" lon="11.624375"><ele>1104.3333333333335</ele><time>2026-04-18T13:39:25.012Z</time></trkpt><trkpt lat="43.81684" lon="11.624405"><ele>1105.6666666666667</ele><time>2026-04-18T13:39:26.014Z</time></trkpt><trkpt lat="43.816785" lon="11.6244533"><ele>1107.0</ele><time>2026-04-18T13:39:27.011Z</time></trkpt><trkpt lat="43.8167267" lon="11.6244967"><ele>1108.3333333333333</ele><time>2026-04-18T13:39:28.013Z</time></trkpt><trkpt lat="43.816675" lon="11.6245567"><ele>1109.6666666666665</ele><time>2026-04-18T13:39:29.015Z</time></trkpt><trkpt lat="43.8165717" lon="11.6245983"><ele>1111.0</ele><time>2026-04-18T13:39:31.012Z</time></trkpt><trkpt lat="43.8165017" lon="11.624545"><ele>1111.0</ele><time>2026-04-18T13:39:33.011Z</time></trkpt><trkpt lat="43.8164217" lon="11.6245217"><ele>1111.0</ele><time>2026-04-18T13:39:35.011Z</time></trkpt><trkpt lat="43.8163433" lon="11.6245333"><ele>1111.0</ele><time>2026-04-18T13:39:38.014Z</time></trkpt><trkpt lat="43.816285" lon="11.6244767"><ele>1111.0</ele><time>2026-04-18T13:39:41.015Z</time></trkpt><trkpt lat="43.8162083" lon="11.6244067"><ele>1111.0</ele><time>2026-04-18T13:39:44.014Z</time></trkpt><trkpt lat="43.8160933" lon="11.6243517"><ele>1111.0</ele><time>2026-04-18T13:39:46.011Z</time></trkpt><trkpt lat="43.8159817" lon="11.6243317"><ele>1113.3999999999999</ele><time>2026-04-18T13:39:48.01Z</time></trkpt><trkpt lat="43.8159067" lon="11.624315"><ele>1115.8</ele><time>2026-04-18T13:39:50.002Z</time></trkpt><trkpt lat="43.815835" lon="11.62424"><ele>1118.1999999999998</ele><time>2026-04-18T13:39:52.012Z</time></trkpt><trkpt lat="43.8157467" lon="11.6241717"><ele>1120.6</ele><time>2026-04-18T13:39:54.014Z</time></trkpt><trkpt lat="43.8156283" lon="11.624155"><ele>1123.0</ele><time>2026-04-18T13:39:56.015Z</time></trkpt><trkpt lat="43.8155617" lon="11.62415"><ele>1122.9999999999998</ele><time>2026-04-18T13:39:57.011Z</time></trkpt><trkpt lat="43.8154883" lon="11.6241383"><ele>1123.0</ele><time>2026-04-18T13:39:58.013Z</time></trkpt><trkpt lat="43.81542" lon="11.6241083"><ele>1123.0</ele><time>2026-04-18T13:39:59.012Z</time></trkpt><trkpt lat="43.8153583" lon="11.6240633"><ele>1123.0</ele><time>2026-04-18T13:40:00.01Z</time></trkpt><trkpt lat="43.81529" lon="11.6240117"><ele>1123.0</ele><time>2026-04-18T13:40:01.012Z</time></trkpt><trkpt lat="43.8152217" lon="11.6239617"><ele>1122.9999999999998</ele><time>2026-04-18T13:40:02.014Z</time></trkpt><trkpt lat="43.8151533" lon="11.6239117"><ele>1123.0</ele><time>2026-04-18T13:40:03.013Z</time></trkpt><trkpt lat="43.815095" lon="11.6238717"><ele>1122.6666666666665</ele><time>2026-04-18T13:40:04.013Z</time></trkpt><trkpt lat="43.81501" lon="11.6238083"><ele>1122.3333333333333</ele><time>2026-04-18T13:40:06.013Z</time></trkpt><trkpt lat="43.8149433" lon="11.6237267"><ele>1122.0</ele><time>2026-04-18T13:40:09.012Z</time></trkpt><trkpt lat="43.8148633" lon="11.62363"><ele>1121.6666666666667</ele><time>2026-04-18T13:40:11.014Z</time></trkpt><trkpt lat="43.814815" lon="11.62357"><ele>1121.3333333333335</ele><time>2026-04-18T13:40:13.017Z</time></trkpt><trkpt lat="43.814785" lon="11.62346"><ele>1121.0</ele><time>2026-04-18T13:40:17.012Z</time></trkpt><trkpt lat="43.8147867" lon="11.6233417"><ele>1122.857142857143</ele><time>2026-04-18T13:40:19.017Z</time></trkpt><trkpt lat="43.8147767" lon="11.623255"><ele>1124.7142857142858</ele><time>2026-04-18T13:40:20.016Z</time></trkpt><trkpt lat="43.8147583" lon="11.6231517"><ele>1126.5714285714284</ele><time>2026-04-18T13:40:21.013Z</time></trkpt><trkpt lat="43.8147467" lon="11.6230633"><ele>1128.4285714285716</ele><time>2026-04-18T13:40:22.013Z</time></trkpt><trkpt lat="43.81473" lon="11.622975"><ele>1130.2857142857142</ele><time>2026-04-18T13:40:23.014Z</time></trkpt><trkpt lat="43.8147083" lon="11.6228917"><ele>1132.142857142857</ele><time>2026-04-18T13:40:24.013Z</time></trkpt><trkpt lat="43.8147017" lon="11.6228017"><ele>1134.0</ele><time>2026-04-18T13:40:25.016Z</time></trkpt><trkpt lat="43.8147" lon="11.62271"><ele>1134.0</ele><time>2026-04-18T13:40:26.016Z</time></trkpt><trkpt lat="43.814685" lon="11.6226083"><ele>1134.0</ele><time>2026-04-18T13:40:27.013Z</time></trkpt><trkpt lat="43.8146717" lon="11.6225083"><ele>1134.0</ele><time>2026-04-18T13:40:28.013Z</time></trkpt><trkpt lat="43.8146567" lon="11.62242"><ele>1134.0</ele><time>2026-04-18T13:40:29.012Z</time></trkpt><trkpt lat="43.814645" lon="11.62233"><ele>1134.0</ele><time>2026-04-18T13:40:30.012Z</time></trkpt><trkpt lat="43.8146333" lon="11.6222267"><ele>1134.0</ele><time>2026-04-18T13:40:31.013Z</time></trkpt><trkpt lat="43.8146217" lon="11.6221033"><ele>1134.0</ele><time>2026-04-18T13:40:32.014Z</time></trkpt><trkpt lat="43.8146083" lon="11.621975"><ele>1133.5</ele><time>2026-04-18T13:40:33.013Z</time></trkpt><trkpt lat="43.8145933" lon="11.6218517"><ele>1133.0</ele><time>2026-04-18T13:40:34.012Z</time></trkpt><trkpt lat="43.814585" lon="11.6217333"><ele>1132.5</ele><time>2026-04-18T13:40:35.013Z</time></trkpt><trkpt lat="43.81457" lon="11.6216133"><ele>1132.0</ele><time>2026-04-18T13:40:36.012Z</time></trkpt><trkpt lat="43.8145533" lon="11.6215033"><ele>1131.5</ele><time>2026-04-18T13:40:37.011Z</time></trkpt><trkpt lat="43.814525" lon="11.6214017"><ele>1131.0</ele><time>2026-04-18T13:40:38.014Z</time></trkpt><trkpt lat="43.8144783" lon="11.6212517"><ele>1131.0</ele><time>2026-04-18T13:40:40.013Z</time></trkpt><trkpt lat="43.8144483" lon="11.6211683"><ele>1131.0</ele><time>2026-04-18T13:40:41.011Z</time></trkpt><trkpt lat="43.8144067" lon="11.6210933"><ele>1131.0</ele><time>2026-04-18T13:40:42.011Z</time></trkpt><trkpt lat="43.8143533" lon="11.6209717"><ele>1131.0</ele><time>2026-04-18T13:40:44.013Z</time></trkpt><trkpt lat="43.8143233" lon="11.620875"><ele>1131.0</ele><time>2026-04-18T13:40:46.013Z</time></trkpt><trkpt lat="43.814235" lon="11.6207883"><ele>1131.0</ele><time>2026-04-18T13:40:48.012Z</time></trkpt><trkpt lat="43.8141783" lon="11.620725"><ele>1132.0</ele><time>2026-04-18T13:40:50.014Z</time></trkpt><trkpt lat="43.81413" lon="11.6205883"><ele>1133.0</ele><time>2026-04-18T13:40:52.013Z</time></trkpt><trkpt lat="43.8141017" lon="11.6204767"><ele>1134.0</ele><time>2026-04-18T13:40:53.013Z</time></trkpt><trkpt lat="43.8140817" lon="11.6203533"><ele>1135.0</ele><time>2026-04-18T13:40:54.011Z</time></trkpt><trkpt lat="43.8140633" lon="11.6202383"><ele>1136.0</ele><time>2026-04-18T13:40:55.014Z</time></trkpt><trkpt lat="43.8140417" lon="11.6201367"><ele>1137.0</ele><time>2026-04-18T13:40:56.016Z</time></trkpt><trkpt lat="43.8140233" lon="11.62005"><ele>1137.4</ele><time>2026-04-18T13:40:57.011Z</time></trkpt><trkpt lat="43.814" lon="11.6199117"><ele>1137.8000000000002</ele><time>2026-04-18T13:40:59.011Z</time></trkpt><trkpt lat="43.8139733" lon="11.6198183"><ele>1138.2</ele><time>2026-04-18T13:41:00.013Z</time></trkpt><trkpt lat="43.8139467" lon="11.6196933"><ele>1138.6000000000001</ele><time>2026-04-18T13:41:01.012Z</time></trkpt><trkpt lat="43.8139117" lon="11.6195267"><ele>1139.0</ele><time>2026-04-18T13:41:02.014Z</time></trkpt><trkpt lat="43.8138767" lon="11.6193683"><ele>1138.6000000000001</ele><time>2026-04-18T13:41:03.012Z</time></trkpt><trkpt lat="43.8138383" lon="11.6192117"><ele>1138.2</ele><time>2026-04-18T13:41:04.012Z</time></trkpt><trkpt lat="43.813815" lon="11.6190617"><ele>1137.8000000000002</ele><time>2026-04-18T13:41:05.011Z</time></trkpt><trkpt lat="43.8137917" lon="11.6189167"><ele>1137.4</ele><time>2026-04-18T13:41:06.011Z</time></trkpt><trkpt lat="43.8137733" lon="11.6187667"><ele>1137.0</ele><time>2026-04-18T13:41:07.013Z</time></trkpt><trkpt lat="43.813755" lon="11.6186133"><ele>1137.0</ele><time>2026-04-18T13:41:08.014Z</time></trkpt><trkpt lat="43.81374" lon="11.6184683"><ele>1137.0</ele><time>2026-04-18T13:41:09.012Z</time></trkpt><trkpt lat="43.813725" lon="11.6183367"><ele>1137.0</ele><time>2026-04-18T13:41:10.008Z</time></trkpt><trkpt lat="43.8137117" lon="11.6182167"><ele>1137.0</ele><time>2026-04-18T13:41:11.011Z</time></trkpt><trkpt lat="43.81371" lon="11.6181183"><ele>1137.0</ele><time>2026-04-18T13:41:12.014Z</time></trkpt><trkpt lat="43.8137217" lon="11.6179567"><ele>1137.5</ele><time>2026-04-18T13:41:14.014Z</time></trkpt><trkpt lat="43.8137783" lon="11.6178133"><ele>1138.0</ele><time>2026-04-18T13:41:16.012Z</time></trkpt><trkpt lat="43.8138233" lon="11.6177517"><ele>1138.5</ele><time>2026-04-18T13:41:17.012Z</time></trkpt><trkpt lat="43.81388" lon="11.6177017"><ele>1139.0</ele><time>2026-04-18T13:41:18.013Z</time></trkpt><trkpt lat="43.81398" lon="11.6176483"><ele>1139.5</ele><time>2026-04-18T13:41:20.014Z</time></trkpt><trkpt lat="43.8140433" lon="11.6176217"><ele>1140.0</ele><time>2026-04-18T13:41:23.013Z</time></trkpt><trkpt lat="43.8141183" lon="11.61757"><ele>1140.0</ele><time>2026-04-18T13:41:49.014Z</time></trkpt><trkpt lat="43.8142083" lon="11.6175017"><ele>1140.0</ele><time>2026-04-18T13:41:51.012Z</time></trkpt><trkpt lat="43.814335" lon="11.6174417"><ele>1140.0</ele><time>2026-04-18T13:41:53.013Z</time></trkpt><trkpt lat="43.8144367" lon="11.61735"><ele>1140.0</ele><time>2026-04-18T13:41:55.012Z</time></trkpt><trkpt lat="43.8145167" lon="11.6172133"><ele>1135.0</ele><time>2026-04-18T13:41:57.012Z</time></trkpt><trkpt lat="43.814575" lon="11.6170883"><ele>1130.0</ele><time>2026-04-18T13:41:59.015Z</time></trkpt><trkpt lat="43.8146367" lon="11.6169683"><ele>1125.0</ele><time>2026-04-18T13:42:01.014Z</time></trkpt><trkpt lat="43.8146867" lon="11.61684"><ele>1120.0</ele><time>2026-04-18T13:42:03.012Z</time></trkpt><trkpt lat="43.8147383" lon="11.6166917"><ele>1115.0</ele><time>2026-04-18T13:42:05.015Z</time></trkpt><trkpt lat="43.81477" lon="11.6166133"><ele>1114.2</ele><time>2026-04-18T13:42:06.012Z</time></trkpt><trkpt lat="43.8148317" lon="11.616465"><ele>1113.4</ele><time>2026-04-18T13:42:08.015Z</time></trkpt><trkpt lat="43.8148933" lon="11.61634"><ele>1112.6</ele><time>2026-04-18T13:42:10.014Z</time></trkpt><trkpt lat="43.8148467" lon="11.6161867"><ele>1111.8</ele><time>2026-04-18T13:42:12.014Z</time></trkpt><trkpt lat="43.8147733" lon="11.6161017"><ele>1111.0</ele><time>2026-04-18T13:42:13.015Z</time></trkpt><trkpt lat="43.8146983" lon="11.6160283"><ele>1110.2</ele><time>2026-04-18T13:42:14.016Z</time></trkpt><trkpt lat="43.8146083" lon="11.61596"><ele>1109.3999999999999</ele><time>2026-04-18T13:42:15.012Z</time></trkpt><trkpt lat="43.8145017" lon="11.6159267"><ele>1108.6</ele><time>2026-04-18T13:42:16.012Z</time></trkpt><trkpt lat="43.8144067" lon="11.615935"><ele>1107.8</ele><time>2026-04-18T13:42:17.012Z</time></trkpt><trkpt lat="43.8143283" lon="11.6159217"><ele>1107.0</ele><time>2026-04-18T13:42:18.014Z</time></trkpt><trkpt lat="43.8142633" lon="11.6159017"><ele>1107.0</ele><time>2026-04-18T13:42:19.012Z</time></trkpt><trkpt lat="43.8141917" lon="11.6157917"><ele>1107.0</ele><time>2026-04-18T13:42:21.014Z</time></trkpt><trkpt lat="43.8142167" lon="11.61567"><ele>1107.0</ele><time>2026-04-18T13:42:22.014Z</time></trkpt><trkpt lat="43.8142067" lon="11.6155633"><ele>1107.0</ele><time>2026-04-18T13:42:23.013Z</time></trkpt><trkpt lat="43.81419" lon="11.6154783"><ele>1107.0</ele><time>2026-04-18T13:42:24.012Z</time></trkpt><trkpt lat="43.81414" lon="11.6154167"><ele>1107.0</ele><time>2026-04-18T13:42:25.003Z</time></trkpt><trkpt lat="43.8140633" lon="11.61542"><ele>1107.0</ele><time>2026-04-18T13:42:26.014Z</time></trkpt><trkpt lat="43.8139783" lon="11.61545"><ele>1107.0</ele><time>2026-04-18T13:42:27.012Z</time></trkpt><trkpt lat="43.813895" lon="11.6154683"><ele>1107.0</ele><time>2026-04-18T13:42:28.014Z</time></trkpt><trkpt lat="43.8138233" lon="11.615475"><ele>1107.0</ele><time>2026-04-18T13:42:29.012Z</time></trkpt><trkpt lat="43.81371" lon="11.6155167"><ele>1107.0</ele><time>2026-04-18T13:42:31.012Z</time></trkpt><trkpt lat="43.8135817" lon="11.61562"><ele>1107.0</ele><time>2026-04-18T13:42:33.012Z</time></trkpt><trkpt lat="43.813505" lon="11.6156817"><ele>1107.0</ele><time>2026-04-18T13:42:34.012Z</time></trkpt><trkpt lat="43.8134317" lon="11.6157117"><ele>1107.0</ele><time>2026-04-18T13:42:35.013Z</time></trkpt><trkpt lat="43.8133633" lon="11.6157067"><ele>1107.0</ele><time>2026-04-18T13:42:36.012Z</time></trkpt><trkpt lat="43.8132917" lon="11.6156633"><ele>1107.0</ele><time>2026-04-18T13:42:37.014Z</time></trkpt><trkpt lat="43.8132333" lon="11.6156217"><ele>1107.0</ele><time>2026-04-18T13:42:38.018Z</time></trkpt><trkpt lat="43.8131467" lon="11.6155317"><ele>1105.1666666666667</ele><time>2026-04-18T13:42:40.015Z</time></trkpt><trkpt lat="43.8130817" lon="11.6155133"><ele>1103.3333333333333</ele><time>2026-04-18T13:42:41.015Z</time></trkpt><trkpt lat="43.81296" lon="11.615475"><ele>1101.5</ele><time>2026-04-18T13:42:43.015Z</time></trkpt><trkpt lat="43.8128933" lon="11.6154883"><ele>1099.6666666666665</ele><time>2026-04-18T13:42:44.014Z</time></trkpt><trkpt lat="43.8128167" lon="11.61554"><ele>1097.8333333333333</ele><time>2026-04-18T13:42:45.011Z</time></trkpt><trkpt lat="43.812735" lon="11.6155817"><ele>1096.0</ele><time>2026-04-18T13:42:46.011Z</time></trkpt><trkpt lat="43.812665" lon="11.61559"><ele>1092.2</ele><time>2026-04-18T13:42:47.012Z</time></trkpt><trkpt lat="43.81258" lon="11.615545"><ele>1088.3999999999999</ele><time>2026-04-18T13:42:49.011Z</time></trkpt><trkpt lat="43.8125217" lon="11.6154467"><ele>1084.6</ele><time>2026-04-18T13:42:51.012Z</time></trkpt><trkpt lat="43.8124767" lon="11.6153067"><ele>1080.8</ele><time>2026-04-18T13:42:53.016Z</time></trkpt><trkpt lat="43.812425" lon="11.6152267"><ele>1077.0</ele><time>2026-04-18T13:42:54.026Z</time></trkpt><trkpt lat="43.8123633" lon="11.6151567"><ele>1074.8</ele><time>2026-04-18T13:42:55.017Z</time></trkpt><trkpt lat="43.8123067" lon="11.6150583"><ele>1072.6</ele><time>2026-04-18T13:42:56.005Z</time></trkpt><trkpt lat="43.81224" lon="11.6149633"><ele>1070.3999999999999</ele><time>2026-04-18T13:42:57.011Z</time></trkpt><trkpt lat="43.8121767" lon="11.614835"><ele>1068.2</ele><time>2026-04-18T13:42:58.015Z</time></trkpt><trkpt lat="43.81212" lon="11.614735"><ele>1066.0</ele><time>2026-04-18T13:42:59.015Z</time></trkpt><trkpt lat="43.8120767" lon="11.614645"><ele>1066.0</ele><time>2026-04-18T13:43:00.014Z</time></trkpt><trkpt lat="43.8120267" lon="11.614575"><ele>1066.0</ele><time>2026-04-18T13:43:01.013Z</time></trkpt><trkpt lat="43.8119733" lon="11.6144433"><ele>1066.0</ele><time>2026-04-18T13:43:03.013Z</time></trkpt><trkpt lat="43.8119867" lon="11.6143017"><ele>1066.0</ele><time>2026-04-18T13:43:05.011Z</time></trkpt><trkpt lat="43.8119833" lon="11.6142117"><ele>1066.0</ele><time>2026-04-18T13:43:06.012Z</time></trkpt><trkpt lat="43.8119517" lon="11.6141017"><ele>1066.0</ele><time>2026-04-18T13:43:08.017Z</time></trkpt><trkpt lat="43.8118783" lon="11.6139967"><ele>1063.6666666666665</ele><time>2026-04-18T13:43:10.013Z</time></trkpt><trkpt lat="43.8118117" lon="11.6139"><ele>1061.3333333333333</ele><time>2026-04-18T13:43:12.011Z</time></trkpt><trkpt lat="43.8117383" lon="11.613815"><ele>1059.0</ele><time>2026-04-18T13:43:14.014Z</time></trkpt><trkpt lat="43.8116733" lon="11.613755"><ele>1056.6666666666667</ele><time>2026-04-18T13:43:16.012Z</time></trkpt><trkpt lat="43.8115967" lon="11.613715"><ele>1054.3333333333335</ele><time>2026-04-18T13:43:18.011Z</time></trkpt><trkpt lat="43.81151" lon="11.6136867"><ele>1052.0</ele><time>2026-04-18T13:43:20.014Z</time></trkpt><trkpt lat="43.8114233" lon="11.6135967"><ele>1051.3333333333335</ele><time>2026-04-18T13:43:22.012Z</time></trkpt><trkpt lat="43.81137" lon="11.6135233"><ele>1050.6666666666667</ele><time>2026-04-18T13:43:23.014Z</time></trkpt><trkpt lat="43.8113067" lon="11.6134567"><ele>1050.0</ele><time>2026-04-18T13:43:24.012Z</time></trkpt><trkpt lat="43.811235" lon="11.6134083"><ele>1049.3333333333333</ele><time>2026-04-18T13:43:25.013Z</time></trkpt><trkpt lat="43.8111683" lon="11.6133683"><ele>1048.6666666666665</ele><time>2026-04-18T13:43:26.015Z</time></trkpt><trkpt lat="43.8111083" lon="11.6133167"><ele>1048.0</ele><time>2026-04-18T13:43:27.012Z</time></trkpt><trkpt lat="43.8110567" lon="11.6132467"><ele>1048.0</ele><time>2026-04-18T13:43:28.011Z</time></trkpt><trkpt lat="43.8110033" lon="11.6131483"><ele>1048.0</ele><time>2026-04-18T13:43:29.012Z</time></trkpt><trkpt lat="43.8109433" lon="11.6130467"><ele>1048.0</ele><time>2026-04-18T13:43:30.01Z</time></trkpt><trkpt lat="43.8108917" lon="11.6129467"><ele>1048.0</ele><time>2026-04-18T13:43:31.012Z</time></trkpt><trkpt lat="43.81085" lon="11.6128283"><ele>1048.0</ele><time>2026-04-18T13:43:32.013Z</time></trkpt><trkpt lat="43.8108217" lon="11.61271"><ele>1046.0</ele><time>2026-04-18T13:43:33.011Z</time></trkpt><trkpt lat="43.8107983" lon="11.6126033"><ele>1044.0</ele><time>2026-04-18T13:43:34.013Z</time></trkpt><trkpt lat="43.8107817" lon="11.6125083"><ele>1042.0</ele><time>2026-04-18T13:43:35.013Z</time></trkpt><trkpt lat="43.8107417" lon="11.6124133"><ele>1040.0</ele><time>2026-04-18T13:43:37.012Z</time></trkpt><trkpt lat="43.8106833" lon="11.6123733"><ele>1038.0</ele><time>2026-04-18T13:43:39.013Z</time></trkpt><trkpt lat="43.8105867" lon="11.6124167"><ele>1036.0</ele><time>2026-04-18T13:43:41.013Z</time></trkpt><trkpt lat="43.8104783" lon="11.612455"><ele>1036.0</ele><time>2026-04-18T13:43:43.013Z</time></trkpt><trkpt lat="43.8103667" lon="11.6124933"><ele>1036.0</ele><time>2026-04-18T13:43:45.012Z</time></trkpt><trkpt lat="43.8103" lon="11.6125117"><ele>1036.0</ele><time>2026-04-18T13:43:46.014Z</time></trkpt><trkpt lat="43.8102367" lon="11.6125317"><ele>1036.0</ele><time>2026-04-18T13:43:47.013Z</time></trkpt><trkpt lat="43.8101733" lon="11.6125533"><ele>1036.0</ele><time>2026-04-18T13:43:48.012Z</time></trkpt><trkpt lat="43.8101067" lon="11.612575"><ele>1036.0</ele><time>2026-04-18T13:43:49.013Z</time></trkpt><trkpt lat="43.8100383" lon="11.6125967"><ele>1031.8333333333333</ele><time>2026-04-18T13:43:50.025Z</time></trkpt><trkpt lat="43.8099633" lon="11.6126233"><ele>1027.6666666666665</ele><time>2026-04-18T13:43:51.013Z</time></trkpt><trkpt lat="43.80988" lon="11.61264"><ele>1023.5</ele><time>2026-04-18T13:43:52.014Z</time></trkpt><trkpt lat="43.8098" lon="11.6126267"><ele>1019.3333333333333</ele><time>2026-04-18T13:43:53.014Z</time></trkpt><trkpt lat="43.80974" lon="11.612585"><ele>1015.1666666666666</ele><time>2026-04-18T13:43:54.015Z</time></trkpt><trkpt lat="43.80968" lon="11.6124983"><ele>1011.0</ele><time>2026-04-18T13:43:55.017Z</time></trkpt><trkpt lat="43.8096483" lon="11.6123783"><ele>1011.0</ele><time>2026-04-18T13:43:56.014Z</time></trkpt><trkpt lat="43.8096533" lon="11.6122667"><ele>1011.0</ele><time>2026-04-18T13:43:57.013Z</time></trkpt><trkpt lat="43.8096633" lon="11.6121683"><ele>1011.0</ele><time>2026-04-18T13:43:58.012Z</time></trkpt><trkpt lat="43.8097117" lon="11.612025"><ele>1011.0</ele><time>2026-04-18T13:44:00.013Z</time></trkpt><trkpt lat="43.8097483" lon="11.611945"><ele>1011.0</ele><time>2026-04-18T13:44:01.013Z</time></trkpt><trkpt lat="43.8097783" lon="11.6118483"><ele>1011.0</ele><time>2026-04-18T13:44:02.015Z</time></trkpt><trkpt lat="43.80978" lon="11.611735"><ele>1011.1999999999999</ele><time>2026-04-18T13:44:03.012Z</time></trkpt><trkpt lat="43.8097467" lon="11.6115983"><ele>1011.3999999999999</ele><time>2026-04-18T13:44:04.013Z</time></trkpt><trkpt lat="43.8097117" lon="11.6114783"><ele>1011.6</ele><time>2026-04-18T13:44:05.013Z</time></trkpt><trkpt lat="43.8096933" lon="11.6113533"><ele>1011.8</ele><time>2026-04-18T13:44:06.012Z</time></trkpt><trkpt lat="43.80969" lon="11.611225"><ele>1012.0</ele><time>2026-04-18T13:44:07.014Z</time></trkpt><trkpt lat="43.8096967" lon="11.611115"><ele>1011.9999999999999</ele><time>2026-04-18T13:44:08.015Z</time></trkpt><trkpt lat="43.8097267" lon="11.6109733"><ele>1012.0</ele><time>2026-04-18T13:44:10.013Z</time></trkpt><trkpt lat="43.809765" lon="11.61082"><ele>1012.0</ele><time>2026-04-18T13:44:12.011Z</time></trkpt><trkpt lat="43.809765" lon="11.6107117"><ele>1012.0</ele><time>2026-04-18T13:44:13.013Z</time></trkpt><trkpt lat="43.8097533" lon="11.61061"><ele>1011.9999999999999</ele><time>2026-04-18T13:44:14.014Z</time></trkpt><trkpt lat="43.8097317" lon="11.61052"><ele>1012.0</ele><time>2026-04-18T13:44:15.011Z</time></trkpt><trkpt lat="43.8097183" lon="11.610335"><ele>1010.9999999999999</ele><time>2026-04-18T13:44:17.015Z</time></trkpt><trkpt lat="43.809715" lon="11.6102367"><ele>1010.0</ele><time>2026-04-18T13:44:18.013Z</time></trkpt><trkpt lat="43.80971" lon="11.6101367"><ele>1009.0</ele><time>2026-04-18T13:44:19.015Z</time></trkpt><trkpt lat="43.8097117" lon="11.6100283"><ele>1008.0</ele><time>2026-04-18T13:44:20.015Z</time></trkpt><trkpt lat="43.809705" lon="11.6099167"><ele>1006.9999999999999</ele><time>2026-04-18T13:44:21.013Z</time></trkpt><trkpt lat="43.8096833" lon="11.6098283"><ele>1006.0</ele><time>2026-04-18T13:44:22.013Z</time></trkpt><trkpt lat="43.809635" lon="11.6097383"><ele>1005.9999999999999</ele><time>2026-04-18T13:44:23.012Z</time></trkpt><trkpt lat="43.8095817" lon="11.609645"><ele>1006.0</ele><time>2026-04-18T13:44:24.012Z</time></trkpt><trkpt lat="43.809535" lon="11.6095533"><ele>1006.0</ele><time>2026-04-18T13:44:25.015Z</time></trkpt><trkpt lat="43.809485" lon="11.6094733"><ele>1006.0</ele><time>2026-04-18T13:44:26.014Z</time></trkpt><trkpt lat="43.8094317" lon="11.6094167"><ele>1005.9999999999999</ele><time>2026-04-18T13:44:27.013Z</time></trkpt><trkpt lat="43.80937" lon="11.6093783"><ele>1006.0</ele><time>2026-04-18T13:44:28.012Z</time></trkpt><trkpt lat="43.8093017" lon="11.609335"><ele>1001.0</ele><time>2026-04-18T13:44:29.014Z</time></trkpt><trkpt lat="43.809215" lon="11.6093033"><ele>995.9999999999999</ele><time>2026-04-18T13:44:30.015Z</time></trkpt><trkpt lat="43.8091167" lon="11.6092717"><ele>990.9999999999999</ele><time>2026-04-18T13:44:31.012Z</time></trkpt><trkpt lat="43.8090117" lon="11.6092333"><ele>986.0</ele><time>2026-04-18T13:44:32.014Z</time></trkpt><trkpt lat="43.8089133" lon="11.6091833"><ele>981.0</ele><time>2026-04-18T13:44:33.011Z</time></trkpt><trkpt lat="43.80884" lon="11.6091233"><ele>981.0</ele><time>2026-04-18T13:44:34.012Z</time></trkpt><trkpt lat="43.8087833" lon="11.609035"><ele>980.9999999999999</ele><time>2026-04-18T13:44:35.016Z</time></trkpt><trkpt lat="43.8087133" lon="11.6089283"><ele>980.9999999999999</ele><time>2026-04-18T13:44:36.012Z</time></trkpt><trkpt lat="43.808635" lon="11.608835"><ele>981.0</ele><time>2026-04-18T13:44:37.013Z</time></trkpt><trkpt lat="43.8085617" lon="11.6087567"><ele>981.0</ele><time>2026-04-18T13:44:38.015Z</time></trkpt><trkpt lat="43.8084917" lon="11.6086833"><ele>980.5</ele><time>2026-04-18T13:44:39.013Z</time></trkpt><trkpt lat="43.808425" lon="11.608605"><ele>980.0</ele><time>2026-04-18T13:44:40.013Z</time></trkpt><trkpt lat="43.8083567" lon="11.6085133"><ele>979.5</ele><time>2026-04-18T13:44:41.013Z</time></trkpt><trkpt lat="43.8082883" lon="11.6084217"><ele>979.0</ele><time>2026-04-18T13:44:42.013Z</time></trkpt><trkpt lat="43.8082317" lon="11.6083367"><ele>978.5</ele><time>2026-04-18T13:44:43.013Z</time></trkpt><trkpt lat="43.8081917" lon="11.60826"><ele>978.0</ele><time>2026-04-18T13:44:44.015Z</time></trkpt><trkpt lat="43.8081567" lon="11.6081533"><ele>978.0</ele><time>2026-04-18T13:44:46.014Z</time></trkpt><trkpt lat="43.80815" lon="11.6080433"><ele>978.0</ele><time>2026-04-18T13:44:48.012Z</time></trkpt><trkpt lat="43.8080867" lon="11.6079383"><ele>978.0</ele><time>2026-04-18T13:44:50.014Z</time></trkpt><trkpt lat="43.8080217" lon="11.6078983"><ele>978.0</ele><time>2026-04-18T13:44:52.012Z</time></trkpt><trkpt lat="43.808" lon="11.6079933"><ele>978.0</ele><time>2026-04-18T13:44:55.014Z</time></trkpt><trkpt lat="43.80805" lon="11.608075"><ele>978.0</ele><time>2026-04-18T13:47:18.012Z</time></trkpt><trkpt lat="43.8081067" lon="11.6081183"><ele>978.0</ele><time>2026-04-18T13:47:20.013Z</time></trkpt><trkpt lat="43.8081417" lon="11.6080083"><ele>978.0</ele><time>2026-04-18T13:47:23.013Z</time></trkpt><trkpt lat="43.8081533" lon="11.607855"><ele>978.0</ele><time>2026-04-18T13:47:25.012Z</time></trkpt><trkpt lat="43.8081867" lon="11.6076967"><ele>978.0</ele><time>2026-04-18T13:47:27.01Z</time></trkpt><trkpt lat="43.8082217" lon="11.60755"><ele>978.0</ele><time>2026-04-18T13:47:29.013Z</time></trkpt><trkpt lat="43.808275" lon="11.607425"><ele>978.0</ele><time>2026-04-18T13:47:31.013Z</time></trkpt><trkpt lat="43.8081933" lon="11.60748"><ele>978.0</ele><time>2026-04-18T13:47:37.013Z</time></trkpt><trkpt lat="43.8081633" lon="11.60756"><ele>978.0</ele><time>2026-04-18T13:47:39.012Z</time></trkpt><trkpt lat="43.80816" lon="11.6076533"><ele>978.0</ele><time>2026-04-18T13:47:52.011Z</time></trkpt><trkpt lat="43.8081483" lon="11.60782"><ele>978.0</ele><time>2026-04-18T13:47:54.012Z</time></trkpt><trkpt lat="43.8081183" lon="11.6079667"><ele>978.0</ele><time>2026-04-18T13:47:56.015Z</time></trkpt><trkpt lat="43.8081067" lon="11.6081017"><ele>978.0</ele><time>2026-04-18T13:48:03.011Z</time></trkpt><trkpt lat="43.80815" lon="11.6080333"><ele>978.0</ele><time>2026-04-18T13:48:07.012Z</time></trkpt><trkpt lat="43.80815" lon="11.607945"><ele>978.0</ele><time>2026-04-18T13:48:08.014Z</time></trkpt><trkpt lat="43.808175" lon="11.6077667"><ele>978.0</ele><time>2026-04-18T13:48:10.011Z</time></trkpt><trkpt lat="43.808195" lon="11.60767"><ele>978.0</ele><time>2026-04-18T13:48:11.011Z</time></trkpt><trkpt lat="43.80822" lon="11.6075667"><ele>978.5999999999999</ele><time>2026-04-18T13:48:12.01Z</time></trkpt><trkpt lat="43.8082517" lon="11.6074533"><ele>979.1999999999999</ele><time>2026-04-18T13:48:13.011Z</time></trkpt><trkpt lat="43.80829" lon="11.6073333"><ele>979.8</ele><time>2026-04-18T13:48:14.013Z</time></trkpt><trkpt lat="43.8083467" lon="11.6071917"><ele>980.4</ele><time>2026-04-18T13:48:15.013Z</time></trkpt><trkpt lat="43.8084183" lon="11.60706"><ele>981.0</ele><time>2026-04-18T13:48:16.012Z</time></trkpt><trkpt lat="43.8084783" lon="11.6069517"><ele>983.4</ele><time>2026-04-18T13:48:17.013Z</time></trkpt><trkpt lat="43.80852" lon="11.606855"><ele>985.8</ele><time>2026-04-18T13:48:18.013Z</time></trkpt><trkpt lat="43.8085067" lon="11.606755"><ele>988.1999999999999</ele><time>2026-04-18T13:48:19.012Z</time></trkpt><trkpt lat="43.8084717" lon="11.6066383"><ele>990.5999999999999</ele><time>2026-04-18T13:48:20.014Z</time></trkpt><trkpt lat="43.8084183" lon="11.6065033"><ele>993.0</ele><time>2026-04-18T13:48:21.011Z</time></trkpt><trkpt lat="43.808365" lon="11.6063367"><ele>993.0</ele><time>2026-04-18T13:48:22.012Z</time></trkpt><trkpt lat="43.8083183" lon="11.6061617"><ele>993.0</ele><time>2026-04-18T13:48:23.012Z</time></trkpt><trkpt lat="43.80827" lon="11.6059817"><ele>993.0</ele><time>2026-04-18T13:48:24.013Z</time></trkpt><trkpt lat="43.80822" lon="11.6058083"><ele>993.0</ele><time>2026-04-18T13:48:25.013Z</time></trkpt><trkpt lat="43.8081683" lon="11.6056517"><ele>995.5999999999999</ele><time>2026-04-18T13:48:26.013Z</time></trkpt><trkpt lat="43.8081233" lon="11.6055017"><ele>998.1999999999999</ele><time>2026-04-18T13:48:27.011Z</time></trkpt><trkpt lat="43.8080717" lon="11.6053683"><ele>1000.8</ele><time>2026-04-18T13:48:28.012Z</time></trkpt><trkpt lat="43.8080117" lon="11.605255"><ele>1003.4</ele><time>2026-04-18T13:48:29.012Z</time></trkpt><trkpt lat="43.8079367" lon="11.605185"><ele>1006.0</ele><time>2026-04-18T13:48:30.012Z</time></trkpt><trkpt lat="43.80784" lon="11.6051533"><ele>1006.0</ele><time>2026-04-18T13:48:31.012Z</time></trkpt><trkpt lat="43.8077333" lon="11.6051567"><ele>1005.9999999999999</ele><time>2026-04-18T13:48:32.013Z</time></trkpt><trkpt lat="43.80762" lon="11.6051917"><ele>1005.9999999999999</ele><time>2026-04-18T13:48:33.012Z</time></trkpt><trkpt lat="43.8075133" lon="11.605235"><ele>1006.0</ele><time>2026-04-18T13:48:34.012Z</time></trkpt><trkpt lat="43.8074167" lon="11.6052717"><ele>1006.0</ele><time>2026-04-18T13:48:35.015Z</time></trkpt><trkpt lat="43.8073267" lon="11.6053117"><ele>1004.4</ele><time>2026-04-18T13:48:36.012Z</time></trkpt><trkpt lat="43.8072367" lon="11.6053517"><ele>1002.8</ele><time>2026-04-18T13:48:37.014Z</time></trkpt><trkpt lat="43.8071467" lon="11.6053933"><ele>1001.1999999999999</ele><time>2026-04-18T13:48:38.015Z</time></trkpt><trkpt lat="43.807055" lon="11.6054367"><ele>999.5999999999999</ele><time>2026-04-18T13:48:39.012Z</time></trkpt><trkpt lat="43.806965" lon="11.60547"><ele>998.0</ele><time>2026-04-18T13:48:40.012Z</time></trkpt><trkpt lat="43.8068683" lon="11.605485"><ele>996.5</ele><time>2026-04-18T13:48:41.012Z</time></trkpt><trkpt lat="43.8067617" lon="11.6054767"><ele>995.0</ele><time>2026-04-18T13:48:42.012Z</time></trkpt><trkpt lat="43.8066433" lon="11.6054483"><ele>993.5</ele><time>2026-04-18T13:48:43.012Z</time></trkpt><trkpt lat="43.8065183" lon="11.6054067"><ele>992.0</ele><time>2026-04-18T13:48:44.013Z</time></trkpt><trkpt lat="43.806395" lon="11.6053683"><ele>992.25</ele><time>2026-04-18T13:48:45.013Z</time></trkpt><trkpt lat="43.8062733" lon="11.6053167"><ele>992.5</ele><time>2026-04-18T13:48:46.013Z</time></trkpt><trkpt lat="43.806143" lon="11.6052705"><ele>992.75</ele><time>2026-04-18T13:48:47.013Z</time></trkpt><trkpt lat="43.806017" lon="11.6052236"><ele>993.0</ele><time>2026-04-18T13:48:48.012Z</time></trkpt><trkpt lat="43.8059049" lon="11.6051775"><ele>994.0</ele><time>2026-04-18T13:48:49.012Z</time></trkpt><trkpt lat="43.8058162" lon="11.605121"><ele>995.0</ele><time>2026-04-18T13:48:50.014Z</time></trkpt><trkpt lat="43.8057444" lon="11.6050468"><ele>996.0</ele><time>2026-04-18T13:48:51.012Z</time></trkpt><trkpt lat="43.805674" lon="11.6049548"><ele>997.0</ele><time>2026-04-18T13:48:52.013Z</time></trkpt><trkpt lat="43.8055966" lon="11.6048578"><ele>998.0</ele><time>2026-04-18T13:48:53.012Z</time></trkpt><trkpt lat="43.805515" lon="11.6047643"><ele>998.0</ele><time>2026-04-18T13:48:54.012Z</time></trkpt><trkpt lat="43.8054335" lon="11.6046688"><ele>998.0</ele><time>2026-04-18T13:48:55.012Z</time></trkpt><trkpt lat="43.8053573" lon="11.6045741"><ele>998.0</ele><time>2026-04-18T13:48:56.014Z</time></trkpt><trkpt lat="43.8052945" lon="11.6044752"><ele>998.0</ele><time>2026-04-18T13:48:57.012Z</time></trkpt><trkpt lat="43.8052432" lon="11.6043651"><ele>998.0</ele><time>2026-04-18T13:48:58.012Z</time></trkpt><trkpt lat="43.8052041" lon="11.604241"><ele>999.4</ele><time>2026-04-18T13:48:59.012Z</time></trkpt><trkpt lat="43.8051713" lon="11.6041053"><ele>1000.8</ele><time>2026-04-18T13:49:00.012Z</time></trkpt><trkpt lat="43.8051471" lon="11.6039627"><ele>1002.2</ele><time>2026-04-18T13:49:01.013Z</time></trkpt><trkpt lat="43.8051357" lon="11.603815"><ele>1003.6</ele><time>2026-04-18T13:49:02.014Z</time></trkpt><trkpt lat="43.8051327" lon="11.603664"><ele>1005.0</ele><time>2026-04-18T13:49:03.01Z</time></trkpt><trkpt lat="43.8051307" lon="11.6035211"><ele>1005.0</ele><time>2026-04-18T13:49:04.013Z</time></trkpt><trkpt lat="43.8051242" lon="11.6033874"><ele>1005.0</ele><time>2026-04-18T13:49:05.012Z</time></trkpt><trkpt lat="43.8050989" lon="11.6032573"><ele>1005.0</ele><time>2026-04-18T13:49:06.015Z</time></trkpt><trkpt lat="43.8050582" lon="11.603137"><ele>1005.0</ele><time>2026-04-18T13:49:07.013Z</time></trkpt><trkpt lat="43.8050067" lon="11.6030223"><ele>1005.0</ele><time>2026-04-18T13:49:08.013Z</time></trkpt><trkpt lat="43.8049531" lon="11.602924"><ele>1005.0</ele><time>2026-04-18T13:49:09.012Z</time></trkpt><trkpt lat="43.8048871" lon="11.6028383"><ele>1005.0</ele><time>2026-04-18T13:49:10.012Z</time></trkpt><trkpt lat="43.8048124" lon="11.602765"><ele>1005.0</ele><time>2026-04-18T13:49:11.012Z</time></trkpt><trkpt lat="43.804721" lon="11.6027088"><ele>1005.0</ele><time>2026-04-18T13:49:12.012Z</time></trkpt><trkpt lat="43.8046227" lon="11.602661"><ele>1005.0</ele><time>2026-04-18T13:49:13.014Z</time></trkpt><trkpt lat="43.8045203" lon="11.6026201"><ele>1005.4</ele><time>2026-04-18T13:49:14.013Z</time></trkpt><trkpt lat="43.8044118" lon="11.6025925"><ele>1005.8</ele><time>2026-04-18T13:49:15.012Z</time></trkpt><trkpt lat="43.8043043" lon="11.6025734"><ele>1006.2</ele><time>2026-04-18T13:49:16.012Z</time></trkpt><trkpt lat="43.8041939" lon="11.6025846"><ele>1006.6</ele><time>2026-04-18T13:49:17.013Z</time></trkpt><trkpt lat="43.8040871" lon="11.602611"><ele>1007.0</ele><time>2026-04-18T13:49:18.012Z</time></trkpt><trkpt lat="43.8038933" lon="11.6026583"><ele>1007.0000000000001</ele><time>2026-04-18T13:49:20.016Z</time></trkpt><trkpt lat="43.8038083" lon="11.6026417"><ele>1007.0</ele><time>2026-04-18T13:49:21.012Z</time></trkpt><trkpt lat="43.8037267" lon="11.6025933"><ele>1007.0</ele><time>2026-04-18T13:49:22.013Z</time></trkpt><trkpt lat="43.80365" lon="11.6025483"><ele>1007.0</ele><time>2026-04-18T13:49:23.017Z</time></trkpt><trkpt lat="43.8035667" lon="11.602485"><ele>1007.0000000000001</ele><time>2026-04-18T13:49:24.015Z</time></trkpt><trkpt lat="43.8034867" lon="11.6024167"><ele>1007.0</ele><time>2026-04-18T13:49:25.014Z</time></trkpt><trkpt lat="43.8034167" lon="11.60233"><ele>1008.1666666666667</ele><time>2026-04-18T13:49:26.016Z</time></trkpt><trkpt lat="43.8033517" lon="11.60224"><ele>1009.3333333333334</ele><time>2026-04-18T13:49:27.012Z</time></trkpt><trkpt lat="43.8032883" lon="11.6021467"><ele>1010.5</ele><time>2026-04-18T13:49:28.017Z</time></trkpt><trkpt lat="43.8032267" lon="11.6020783"><ele>1011.6666666666667</ele><time>2026-04-18T13:49:29.012Z</time></trkpt><trkpt lat="43.8031583" lon="11.6020517"><ele>1012.8333333333334</ele><time>2026-04-18T13:49:30.012Z</time></trkpt><trkpt lat="43.8030933" lon="11.6020533"><ele>1014.0</ele><time>2026-04-18T13:49:31.013Z</time></trkpt><trkpt lat="43.8030083" lon="11.6020583"><ele>1014.0</ele><time>2026-04-18T13:49:32.015Z</time></trkpt><trkpt lat="43.8029083" lon="11.6020817"><ele>1014.0000000000001</ele><time>2026-04-18T13:49:33.013Z</time></trkpt><trkpt lat="43.8028217" lon="11.6021067"><ele>1014.0000000000001</ele><time>2026-04-18T13:49:34.013Z</time></trkpt><trkpt lat="43.802735" lon="11.6021333"><ele>1014.0</ele><time>2026-04-18T13:49:35.011Z</time></trkpt><trkpt lat="43.8026517" lon="11.6021867"><ele>1014.0</ele><time>2026-04-18T13:49:36.011Z</time></trkpt><trkpt lat="43.8025667" lon="11.602265"><ele>1013.0</ele><time>2026-04-18T13:49:37.013Z</time></trkpt><trkpt lat="43.8024817" lon="11.6023583"><ele>1012.0000000000001</ele><time>2026-04-18T13:49:38.012Z</time></trkpt><trkpt lat="43.8024" lon="11.6024517"><ele>1011.0000000000001</ele><time>2026-04-18T13:49:39.012Z</time></trkpt><trkpt lat="43.802325" lon="11.60253"><ele>1010.0</ele><time>2026-04-18T13:49:40.012Z</time></trkpt><trkpt lat="43.8022583" lon="11.6025983"><ele>1009.0</ele><time>2026-04-18T13:49:41.013Z</time></trkpt><trkpt lat="43.8021983" lon="11.602665"><ele>1009.0</ele><time>2026-04-18T13:49:42.012Z</time></trkpt><trkpt lat="43.8021383" lon="11.60274"><ele>1009.0</ele><time>2026-04-18T13:49:43.015Z</time></trkpt><trkpt lat="43.802085" lon="11.6028"><ele>1009.0</ele><time>2026-04-18T13:49:44.014Z</time></trkpt><trkpt lat="43.8020267" lon="11.6028483"><ele>1009.0</ele><time>2026-04-18T13:49:45.014Z</time></trkpt><trkpt lat="43.8019783" lon="11.602905"><ele>1009.0</ele><time>2026-04-18T13:49:46.013Z</time></trkpt><trkpt lat="43.8019183" lon="11.6029583"><ele>1009.0</ele><time>2026-04-18T13:49:47.014Z</time></trkpt><trkpt lat="43.8018633" lon="11.6030333"><ele>1009.0</ele><time>2026-04-18T13:49:48.012Z</time></trkpt><trkpt lat="43.8018083" lon="11.6031083"><ele>1009.0</ele><time>2026-04-18T13:49:49.013Z</time></trkpt><trkpt lat="43.8017533" lon="11.6031967"><ele>1009.0000000000001</ele><time>2026-04-18T13:49:50.014Z</time></trkpt><trkpt lat="43.8017233" lon="11.6033317"><ele>1009.0000000000001</ele><time>2026-04-18T13:49:51.012Z</time></trkpt><trkpt lat="43.8016983" lon="11.6034533"><ele>1009.0</ele><time>2026-04-18T13:49:52.013Z</time></trkpt><trkpt lat="43.8016617" lon="11.6035717"><ele>1009.0</ele><time>2026-04-18T13:49:53.012Z</time></trkpt><trkpt lat="43.8016183" lon="11.60368"><ele>1009.0</ele><time>2026-04-18T13:49:54.013Z</time></trkpt><trkpt lat="43.8015717" lon="11.603785"><ele>1009.0000000000001</ele><time>2026-04-18T13:49:55.011Z</time></trkpt><trkpt lat="43.8015083" lon="11.6038783"><ele>1009.0000000000001</ele><time>2026-04-18T13:49:56.015Z</time></trkpt><trkpt lat="43.8014367" lon="11.6039833"><ele>1009.0</ele><time>2026-04-18T13:49:57.012Z</time></trkpt><trkpt lat="43.801355" lon="11.6040817"><ele>1009.0</ele><time>2026-04-18T13:49:58.012Z</time></trkpt><trkpt lat="43.801275" lon="11.6041733"><ele>1009.0</ele><time>2026-04-18T13:49:59.014Z</time></trkpt><trkpt lat="43.8011983" lon="11.6042683"><ele>1009.0000000000001</ele><time>2026-04-18T13:50:00.012Z</time></trkpt><trkpt lat="43.801115" lon="11.6043533"><ele>1009.0000000000001</ele><time>2026-04-18T13:50:01.014Z</time></trkpt><trkpt lat="43.8010283" lon="11.60444"><ele>1009.0</ele><time>2026-04-18T13:50:02.013Z</time></trkpt><trkpt lat="43.8009417" lon="11.604525"><ele>1009.0</ele><time>2026-04-18T13:50:03.012Z</time></trkpt><trkpt lat="43.8008733" lon="11.604595"><ele>1005.2</ele><time>2026-04-18T13:50:04.012Z</time></trkpt><trkpt lat="43.800815" lon="11.604645"><ele>1001.4000000000001</ele><time>2026-04-18T13:50:05.013Z</time></trkpt><trkpt lat="43.8007533" lon="11.6046783"><ele>997.6</ele><time>2026-04-18T13:50:06.014Z</time></trkpt><trkpt lat="43.800635" lon="11.60467"><ele>993.8</ele><time>2026-04-18T13:50:08.014Z</time></trkpt><trkpt lat="43.8005317" lon="11.6046133"><ele>990.0</ele><time>2026-04-18T13:50:10.012Z</time></trkpt><trkpt lat="43.80043" lon="11.6045667"><ele>990.0</ele><time>2026-04-18T13:50:12.013Z</time></trkpt><trkpt lat="43.8003583" lon="11.6045383"><ele>990.0</ele><time>2026-04-18T13:50:13.012Z</time></trkpt><trkpt lat="43.8002767" lon="11.6045"><ele>990.0</ele><time>2026-04-18T13:50:14.015Z</time></trkpt><trkpt lat="43.8001983" lon="11.6044433"><ele>990.0</ele><time>2026-04-18T13:50:15.011Z</time></trkpt><trkpt lat="43.8001167" lon="11.604365"><ele>990.0</ele><time>2026-04-18T13:50:16.013Z</time></trkpt><trkpt lat="43.8000367" lon="11.6042883"><ele>990.0</ele><time>2026-04-18T13:50:17.012Z</time></trkpt><trkpt lat="43.7999433" lon="11.60423"><ele>989.8</ele><time>2026-04-18T13:50:18.01Z</time></trkpt><trkpt lat="43.7998533" lon="11.60418"><ele>989.6</ele><time>2026-04-18T13:50:19.014Z</time></trkpt><trkpt lat="43.7997467" lon="11.6041583"><ele>989.4000000000001</ele><time>2026-04-18T13:50:20.014Z</time></trkpt><trkpt lat="43.799635" lon="11.6041567"><ele>989.2</ele><time>2026-04-18T13:50:21.013Z</time></trkpt><trkpt lat="43.79951" lon="11.60417"><ele>989.0</ele><time>2026-04-18T13:50:22.013Z</time></trkpt><trkpt lat="43.79938" lon="11.6041633"><ele>990.25</ele><time>2026-04-18T13:50:23.012Z</time></trkpt><trkpt lat="43.7992533" lon="11.60415"><ele>991.5</ele><time>2026-04-18T13:50:24.01Z</time></trkpt><trkpt lat="43.799135" lon="11.604125"><ele>992.75</ele><time>2026-04-18T13:50:25.013Z</time></trkpt><trkpt lat="43.7990233" lon="11.6040917"><ele>994.0</ele><time>2026-04-18T13:50:26.015Z</time></trkpt><trkpt lat="43.7989133" lon="11.6040533"><ele>994.0</ele><time>2026-04-18T13:50:27.019Z</time></trkpt><trkpt lat="43.7988067" lon="11.6040083"><ele>994.0</ele><time>2026-04-18T13:50:28.013Z</time></trkpt><trkpt lat="43.7987017" lon="11.60396"><ele>994.0</ele><time>2026-04-18T13:50:29.014Z</time></trkpt><trkpt lat="43.79859" lon="11.603915"><ele>994.0</ele><time>2026-04-18T13:50:30.012Z</time></trkpt><trkpt lat="43.79848" lon="11.6038733"><ele>994.0</ele><time>2026-04-18T13:50:31.011Z</time></trkpt><trkpt lat="43.7983817" lon="11.6038317"><ele>994.0000000000001</ele><time>2026-04-18T13:50:32.014Z</time></trkpt><trkpt lat="43.7983033" lon="11.6037833"><ele>994.0000000000001</ele><time>2026-04-18T13:50:33.012Z</time></trkpt><trkpt lat="43.7982317" lon="11.6037133"><ele>994.0</ele><time>2026-04-18T13:50:34.013Z</time></trkpt><trkpt lat="43.7981567" lon="11.603625"><ele>994.0</ele><time>2026-04-18T13:50:35.013Z</time></trkpt><trkpt lat="43.7980783" lon="11.603535"><ele>993.9999999999999</ele><time>2026-04-18T13:50:36.013Z</time></trkpt><trkpt lat="43.798015" lon="11.60346"><ele>994.0</ele><time>2026-04-18T13:50:37.013Z</time></trkpt><trkpt lat="43.7979517" lon="11.6033983"><ele>994.0</ele><time>2026-04-18T13:50:38.015Z</time></trkpt><trkpt lat="43.7978867" lon="11.6033417"><ele>994.0</ele><time>2026-04-18T13:50:39.014Z</time></trkpt><trkpt lat="43.7978317" lon="11.6032917"><ele>993.9999999999999</ele><time>2026-04-18T13:50:40.012Z</time></trkpt><trkpt lat="43.7977167" lon="11.6032433"><ele>994.0</ele><time>2026-04-18T13:50:42.016Z</time></trkpt><trkpt lat="43.7976467" lon="11.6032583"><ele>991.8000000000001</ele><time>2026-04-18T13:50:43.012Z</time></trkpt><trkpt lat="43.7975567" lon="11.6032867"><ele>989.6000000000001</ele><time>2026-04-18T13:50:44.015Z</time></trkpt><trkpt lat="43.797465" lon="11.603325"><ele>987.4</ele><time>2026-04-18T13:50:45.013Z</time></trkpt><trkpt lat="43.7973833" lon="11.60336"><ele>985.2</ele><time>2026-04-18T13:50:46.012Z</time></trkpt><trkpt lat="43.7973217" lon="11.60338"><ele>983.0</ele><time>2026-04-18T13:50:47.013Z</time></trkpt><trkpt lat="43.7971967" lon="11.603425"><ele>983.0000000000001</ele><time>2026-04-18T13:50:49.013Z</time></trkpt><trkpt lat="43.7971283" lon="11.6034567"><ele>983.0</ele><time>2026-04-18T13:50:50.016Z</time></trkpt><trkpt lat="43.7970633" lon="11.6034833"><ele>983.0</ele><time>2026-04-18T13:50:51.013Z</time></trkpt><trkpt lat="43.7969583" lon="11.6035333"><ele>983.0</ele><time>2026-04-18T13:50:53.015Z</time></trkpt><trkpt lat="43.796875" lon="11.60358"><ele>983.0000000000001</ele><time>2026-04-18T13:50:55.012Z</time></trkpt><trkpt lat="43.7967817" lon="11.60364"><ele>983.0</ele><time>2026-04-18T13:50:57.013Z</time></trkpt><trkpt lat="43.7966833" lon="11.6037483"><ele>984.142857142857</ele><time>2026-04-18T13:50:59.012Z</time></trkpt><trkpt lat="43.79662" lon="11.60381"><ele>985.2857142857142</ele><time>2026-04-18T13:51:00.014Z</time></trkpt><trkpt lat="43.7965583" lon="11.6038733"><ele>986.4285714285714</ele><time>2026-04-18T13:51:01.014Z</time></trkpt><trkpt lat="43.79651" lon="11.6039367"><ele>987.5714285714286</ele><time>2026-04-18T13:51:02.014Z</time></trkpt><trkpt lat="43.7964633" lon="11.6040033"><ele>988.7142857142858</ele><time>2026-04-18T13:51:03.013Z</time></trkpt><trkpt lat="43.79641" lon="11.6040783"><ele>989.857142857143</ele><time>2026-04-18T13:51:04.013Z</time></trkpt><trkpt lat="43.7963517" lon="11.6041417"><ele>991.0000000000001</ele><time>2026-04-18T13:51:05.014Z</time></trkpt><trkpt lat="43.7962917" lon="11.60418"><ele>991.0</ele><time>2026-04-18T13:51:06.011Z</time></trkpt><trkpt lat="43.796185" lon="11.6041983"><ele>990.9999999999999</ele><time>2026-04-18T13:51:08.013Z</time></trkpt><trkpt lat="43.7961183" lon="11.6041267"><ele>990.9999999999999</ele><time>2026-04-18T13:51:11.012Z</time></trkpt><trkpt lat="43.7960417" lon="11.60404"><ele>991.0</ele><time>2026-04-18T13:51:14.016Z</time></trkpt><trkpt lat="43.7959583" lon="11.6039833"><ele>991.0</ele><time>2026-04-18T13:51:16.002Z</time></trkpt><trkpt lat="43.7959" lon="11.6039333"><ele>991.3333333333333</ele><time>2026-04-18T13:51:18.011Z</time></trkpt><trkpt lat="43.7958517" lon="11.60386"><ele>991.6666666666666</ele><time>2026-04-18T13:51:20.016Z</time></trkpt><trkpt lat="43.7957483" lon="11.6037517"><ele>992.0</ele><time>2026-04-18T13:51:22.013Z</time></trkpt><trkpt lat="43.7956933" lon="11.6037"><ele>992.3333333333333</ele><time>2026-04-18T13:51:23.016Z</time></trkpt><trkpt lat="43.7956417" lon="11.6036467"><ele>992.6666666666666</ele><time>2026-04-18T13:51:24.013Z</time></trkpt><trkpt lat="43.7955917" lon="11.6035867"><ele>993.0</ele><time>2026-04-18T13:51:25.016Z</time></trkpt><trkpt lat="43.7954967" lon="11.6034717"><ele>993.0</ele><time>2026-04-18T13:51:27.014Z</time></trkpt><trkpt lat="43.7954417" lon="11.603415"><ele>993.0</ele><time>2026-04-18T13:51:28.013Z</time></trkpt><trkpt lat="43.7953833" lon="11.60336"><ele>993.0</ele><time>2026-04-18T13:51:29.013Z</time></trkpt><trkpt lat="43.7953183" lon="11.6033133"><ele>993.0</ele><time>2026-04-18T13:51:30.012Z</time></trkpt><trkpt lat="43.79525" lon="11.6032717"><ele>993.0</ele><time>2026-04-18T13:51:31.012Z</time></trkpt><trkpt lat="43.7951483" lon="11.6032383"><ele>993.0</ele><time>2026-04-18T13:51:33.012Z</time></trkpt><trkpt lat="43.7950383" lon="11.6032267"><ele>994.5999999999999</ele><time>2026-04-18T13:51:56.015Z</time></trkpt><trkpt lat="43.7949533" lon="11.60319"><ele>996.1999999999999</ele><time>2026-04-18T13:51:57.012Z</time></trkpt><trkpt lat="43.7948667" lon="11.6031317"><ele>997.8</ele><time>2026-04-18T13:51:58.013Z</time></trkpt><trkpt lat="43.794775" lon="11.6030517"><ele>999.4</ele><time>2026-04-18T13:51:59.013Z</time></trkpt><trkpt lat="43.7946933" lon="11.6029867"><ele>1001.0</ele><time>2026-04-18T13:52:00.012Z</time></trkpt><trkpt lat="43.7946217" lon="11.6029267"><ele>1001.0</ele><time>2026-04-18T13:52:01.004Z</time></trkpt><trkpt lat="43.7945467" lon="11.6028717"><ele>1000.9999999999999</ele><time>2026-04-18T13:52:02.013Z</time></trkpt><trkpt lat="43.794465" lon="11.6028267"><ele>1000.9999999999999</ele><time>2026-04-18T13:52:03.011Z</time></trkpt><trkpt lat="43.79438" lon="11.6027633"><ele>1001.0</ele><time>2026-04-18T13:52:04.011Z</time></trkpt><trkpt lat="43.7942917" lon="11.6026933"><ele>1001.0</ele><time>2026-04-18T13:52:05.013Z</time></trkpt><trkpt lat="43.79421" lon="11.6026383"><ele>1004.5000000000001</ele><time>2026-04-18T13:52:06.014Z</time></trkpt><trkpt lat="43.7941433" lon="11.6025783"><ele>1008.0</ele><time>2026-04-18T13:52:07.011Z</time></trkpt><trkpt lat="43.794075" lon="11.6025267"><ele>1011.5</ele><time>2026-04-18T13:52:08.015Z</time></trkpt><trkpt lat="43.794005" lon="11.6024717"><ele>1015.0</ele><time>2026-04-18T13:52:09.012Z</time></trkpt><trkpt lat="43.7939433" lon="11.602415"><ele>1018.5000000000001</ele><time>2026-04-18T13:52:10.011Z</time></trkpt><trkpt lat="43.7938767" lon="11.6023633"><ele>1022.0</ele><time>2026-04-18T13:52:11.011Z</time></trkpt><trkpt lat="43.793815" lon="11.6023083"><ele>1022.0</ele><time>2026-04-18T13:52:12.011Z</time></trkpt><trkpt lat="43.79376" lon="11.6022633"><ele>1022.0</ele><time>2026-04-18T13:52:13.011Z</time></trkpt><trkpt lat="43.7936617" lon="11.6022083"><ele>1022.0</ele><time>2026-04-18T13:52:15.011Z</time></trkpt><trkpt lat="43.7935583" lon="11.6022183"><ele>1022.0</ele><time>2026-04-18T13:52:17.014Z</time></trkpt><trkpt lat="43.7934672" lon="11.6022347"><ele>1022.0</ele><time>2026-04-18T13:52:19.013Z</time></trkpt><trkpt lat="43.7933752" lon="11.6022293"><ele>1027.6</ele><time>2026-04-18T13:52:21.011Z</time></trkpt><trkpt lat="43.7933105" lon="11.6022267"><ele>1033.2</ele><time>2026-04-18T13:52:24.079Z</time></trkpt><trkpt lat="43.7932103" lon="11.602281"><ele>1038.8</ele><time>2026-04-18T13:52:26.081Z</time></trkpt><trkpt lat="43.79306" lon="11.6022633"><ele>1044.4</ele><time>2026-04-18T13:52:28.014Z</time></trkpt><trkpt lat="43.79296" lon="11.6022583"><ele>1050.0</ele><time>2026-04-18T13:52:30.012Z</time></trkpt><trkpt lat="43.7928583" lon="11.6022983"><ele>1050.0</ele><time>2026-04-18T13:52:58.013Z</time></trkpt><trkpt lat="43.7927667" lon="11.6022867"><ele>1050.0</ele><time>2026-04-18T13:53:00.012Z</time></trkpt><trkpt lat="43.7926567" lon="11.6022567"><ele>1050.0</ele><time>2026-04-18T13:53:02.014Z</time></trkpt><trkpt lat="43.7925917" lon="11.6022167"><ele>1050.0</ele><time>2026-04-18T13:53:03.013Z</time></trkpt><trkpt lat="43.7925" lon="11.6022583"><ele>1050.0</ele><time>2026-04-18T13:53:05.013Z</time></trkpt><trkpt lat="43.7924283" lon="11.6022783"><ele>1050.0</ele><time>2026-04-18T13:53:32.091Z</time></trkpt><trkpt lat="43.7923083" lon="11.60225"><ele>1052.8</ele><time>2026-04-18T13:53:34.013Z</time></trkpt><trkpt lat="43.7922117" lon="11.60224"><ele>1055.6</ele><time>2026-04-18T13:53:35.013Z</time></trkpt><trkpt lat="43.7921017" lon="11.6022217"><ele>1058.4</ele><time>2026-04-18T13:53:36.013Z</time></trkpt><trkpt lat="43.791995" lon="11.602205"><ele>1061.2</ele><time>2026-04-18T13:53:37.014Z</time></trkpt><trkpt lat="43.7918817" lon="11.6021817"><ele>1064.0</ele><time>2026-04-18T13:53:38.015Z</time></trkpt><trkpt lat="43.7917833" lon="11.6021617"><ele>1065.8</ele><time>2026-04-18T13:53:39.012Z</time></trkpt><trkpt lat="43.791685" lon="11.602145"><ele>1067.6000000000001</ele><time>2026-04-18T13:53:40.013Z</time></trkpt><trkpt lat="43.7915817" lon="11.6021217"><ele>1069.4</ele><time>2026-04-18T13:53:41.013Z</time></trkpt><trkpt lat="43.7914783" lon="11.6021067"><ele>1071.2</ele><time>2026-04-18T13:53:42.013Z</time></trkpt><trkpt lat="43.7913733" lon="11.6021133"><ele>1073.0</ele><time>2026-04-18T13:53:43.012Z</time></trkpt><trkpt lat="43.7912817" lon="11.602125"><ele>1073.0</ele><time>2026-04-18T13:53:44.015Z</time></trkpt><trkpt lat="43.791205" lon="11.6021383"><ele>1073.0</ele><time>2026-04-18T13:53:45.015Z</time></trkpt><trkpt lat="43.7910967" lon="11.602165"><ele>1073.0</ele><time>2026-04-18T13:53:47.013Z</time></trkpt><trkpt lat="43.791025" lon="11.6022083"><ele>1073.0</ele><time>2026-04-18T13:53:49.015Z</time></trkpt><trkpt lat="43.79093" lon="11.6022567"><ele>1073.0</ele><time>2026-04-18T13:53:52.014Z</time></trkpt><trkpt lat="43.7908217" lon="11.6023017"><ele>1074.3333333333335</ele><time>2026-04-18T13:53:54.012Z</time></trkpt><trkpt lat="43.7907583" lon="11.602355"><ele>1075.6666666666667</ele><time>2026-04-18T13:53:56.015Z</time></trkpt><trkpt lat="43.7908283" lon="11.602345"><ele>1077.0</ele><time>2026-04-18T14:00:04.013Z</time></trkpt><trkpt lat="43.7908983" lon="11.6023067"><ele>1078.3333333333333</ele><time>2026-04-18T14:00:09.011Z</time></trkpt><trkpt lat="43.7909517" lon="11.6022317"><ele>1079.6666666666665</ele><time>2026-04-18T14:00:18.014Z</time></trkpt><trkpt lat="43.7908617" lon="11.6022917"><ele>1081.0</ele><time>2026-04-18T14:00:32.014Z</time></trkpt><trkpt lat="43.7907717" lon="11.6023567"><ele>1081.0</ele><time>2026-04-18T14:00:33.011Z</time></trkpt><trkpt lat="43.7906733" lon="11.6024483"><ele>1081.0</ele><time>2026-04-18T14:00:34.012Z</time></trkpt><trkpt lat="43.790595" lon="11.6025167"><ele>1081.0</ele><time>2026-04-18T14:00:35.013Z</time></trkpt><trkpt lat="43.7905217" lon="11.6025583"><ele>1081.0</ele><time>2026-04-18T14:00:36.014Z</time></trkpt><trkpt lat="43.79044" lon="11.602625"><ele>1081.0</ele><time>2026-04-18T14:00:38.005Z</time></trkpt><trkpt lat="43.790365" lon="11.6026967"><ele>1081.0</ele><time>2026-04-18T14:00:40.013Z</time></trkpt><trkpt lat="43.7902883" lon="11.6028267"><ele>1081.0</ele><time>2026-04-18T14:00:42.013Z</time></trkpt><trkpt lat="43.7902367" lon="11.602905"><ele>1081.0</ele><time>2026-04-18T14:00:43.014Z</time></trkpt><trkpt lat="43.7901817" lon="11.6029917"><ele>1081.0</ele><time>2026-04-18T14:00:44.015Z</time></trkpt><trkpt lat="43.79011" lon="11.603085"><ele>1081.0</ele><time>2026-04-18T14:00:45.012Z</time></trkpt><trkpt lat="43.790015" lon="11.60317"><ele>1082.0</ele><time>2026-04-18T14:00:46.012Z</time></trkpt><trkpt lat="43.78992" lon="11.60325"><ele>1083.0</ele><time>2026-04-18T14:00:47.012Z</time></trkpt><trkpt lat="43.7898283" lon="11.6033167"><ele>1084.0</ele><time>2026-04-18T14:00:48.013Z</time></trkpt><trkpt lat="43.7897283" lon="11.6033833"><ele>1085.0</ele><time>2026-04-18T14:00:49.014Z</time></trkpt><trkpt lat="43.7896133" lon="11.6034517"><ele>1085.0</ele><time>2026-04-18T14:00:50.01Z</time></trkpt><trkpt lat="43.7895167" lon="11.6034833"><ele>1085.0</ele><time>2026-04-18T14:00:51.011Z</time></trkpt><trkpt lat="43.7894183" lon="11.6035517"><ele>1085.0</ele><time>2026-04-18T14:00:52.012Z</time></trkpt><trkpt lat="43.7893133" lon="11.6036167"><ele>1085.0</ele><time>2026-04-18T14:00:53.013Z</time></trkpt><trkpt lat="43.789225" lon="11.6036767"><ele>1085.0</ele><time>2026-04-18T14:00:54.012Z</time></trkpt><trkpt lat="43.7891417" lon="11.6037433"><ele>1084.0</ele><time>2026-04-18T14:00:55.013Z</time></trkpt><trkpt lat="43.7890617" lon="11.6038067"><ele>1083.0</ele><time>2026-04-18T14:00:56.015Z</time></trkpt><trkpt lat="43.788995" lon="11.603865"><ele>1082.0</ele><time>2026-04-18T14:00:57.002Z</time></trkpt><trkpt lat="43.788895" lon="11.6039083"><ele>1081.0</ele><time>2026-04-18T14:00:59.013Z</time></trkpt><trkpt lat="43.7888233" lon="11.6038933"><ele>1080.0</ele><time>2026-04-18T14:01:00.013Z</time></trkpt><trkpt lat="43.78872" lon="11.6038633"><ele>1080.0</ele><time>2026-04-18T14:01:01.014Z</time></trkpt><trkpt lat="43.7885933" lon="11.603835"><ele>1080.0</ele><time>2026-04-18T14:01:02.018Z</time></trkpt><trkpt lat="43.7884733" lon="11.60381"><ele>1080.0</ele><time>2026-04-18T14:01:03.002Z</time></trkpt><trkpt lat="43.78835" lon="11.603785"><ele>1080.0</ele><time>2026-04-18T14:01:04.012Z</time></trkpt><trkpt lat="43.7882233" lon="11.6037467"><ele>1079.75</ele><time>2026-04-18T14:01:05.014Z</time></trkpt><trkpt lat="43.78809" lon="11.603715"><ele>1079.5</ele><time>2026-04-18T14:01:06.013Z</time></trkpt><trkpt lat="43.787965" lon="11.6036683"><ele>1079.25</ele><time>2026-04-18T14:01:07.014Z</time></trkpt><trkpt lat="43.7878467" lon="11.60362"><ele>1079.0</ele><time>2026-04-18T14:01:08.015Z</time></trkpt><trkpt lat="43.7877367" lon="11.60358"><ele>1080.5</ele><time>2026-04-18T14:01:09.013Z</time></trkpt><trkpt lat="43.7876233" lon="11.6035517"><ele>1082.0</ele><time>2026-04-18T14:01:10.012Z</time></trkpt><trkpt lat="43.78751" lon="11.60353"><ele>1083.5</ele><time>2026-04-18T14:01:11.013Z</time></trkpt><trkpt lat="43.787395" lon="11.6035017"><ele>1085.0</ele><time>2026-04-18T14:01:12.014Z</time></trkpt><trkpt lat="43.7872783" lon="11.6034783"><ele>1085.0</ele><time>2026-04-18T14:01:13.013Z</time></trkpt><trkpt lat="43.787165" lon="11.60346"><ele>1085.0</ele><time>2026-04-18T14:01:14.015Z</time></trkpt><trkpt lat="43.7870567" lon="11.6034433"><ele>1085.0</ele><time>2026-04-18T14:01:15.013Z</time></trkpt><trkpt lat="43.7869483" lon="11.6034267"><ele>1085.0</ele><time>2026-04-18T14:01:16.013Z</time></trkpt><trkpt lat="43.7868483" lon="11.6034167"><ele>1085.0</ele><time>2026-04-18T14:01:17.013Z</time></trkpt><trkpt lat="43.7867483" lon="11.6034"><ele>1083.2</ele><time>2026-04-18T14:01:18.012Z</time></trkpt><trkpt lat="43.78665" lon="11.6033767"><ele>1081.4</ele><time>2026-04-18T14:01:19.014Z</time></trkpt><trkpt lat="43.7865533" lon="11.603355"><ele>1079.6</ele><time>2026-04-18T14:01:20.015Z</time></trkpt><trkpt lat="43.786455" lon="11.60333"><ele>1077.8</ele><time>2026-04-18T14:01:21.012Z</time></trkpt><trkpt lat="43.7863567" lon="11.6033133"><ele>1076.0</ele><time>2026-04-18T14:01:22.015Z</time></trkpt><trkpt lat="43.7862567" lon="11.6032867"><ele>1076.0</ele><time>2026-04-18T14:01:23.014Z</time></trkpt><trkpt lat="43.7861617" lon="11.603265"><ele>1076.0</ele><time>2026-04-18T14:01:24.014Z</time></trkpt><trkpt lat="43.78608" lon="11.6032533"><ele>1076.0</ele><time>2026-04-18T14:01:25.011Z</time></trkpt><trkpt lat="43.7860033" lon="11.603235"><ele>1076.0</ele><time>2026-04-18T14:01:26.015Z</time></trkpt><trkpt lat="43.7859267" lon="11.6031983"><ele>1076.0</ele><time>2026-04-18T14:01:27.012Z</time></trkpt><trkpt lat="43.7858433" lon="11.60315"><ele>1076.0</ele><time>2026-04-18T14:01:28.012Z</time></trkpt><trkpt lat="43.785745" lon="11.6030983"><ele>1075.0</ele><time>2026-04-18T14:01:29.015Z</time></trkpt><trkpt lat="43.7856383" lon="11.6030433"><ele>1074.0</ele><time>2026-04-18T14:01:30.011Z</time></trkpt><trkpt lat="43.7855267" lon="11.6029983"><ele>1073.0</ele><time>2026-04-18T14:01:31.012Z</time></trkpt><trkpt lat="43.7854117" lon="11.60295"><ele>1072.0</ele><time>2026-04-18T14:01:32.014Z</time></trkpt><trkpt lat="43.785295" lon="11.6028967"><ele>1072.0</ele><time>2026-04-18T14:01:33.013Z</time></trkpt><trkpt lat="43.7851883" lon="11.6028517"><ele>1072.0</ele><time>2026-04-18T14:01:34.012Z</time></trkpt><trkpt lat="43.7850933" lon="11.602815"><ele>1072.0</ele><time>2026-04-18T14:01:35.011Z</time></trkpt><trkpt lat="43.7849967" lon="11.6027883"><ele>1072.0</ele><time>2026-04-18T14:01:36.01Z</time></trkpt><trkpt lat="43.78491" lon="11.6027467"><ele>1072.0</ele><time>2026-04-18T14:01:37.013Z</time></trkpt><trkpt lat="43.7848367" lon="11.6026883"><ele>1072.5</ele><time>2026-04-18T14:01:38.014Z</time></trkpt><trkpt lat="43.78478" lon="11.6026033"><ele>1073.0</ele><time>2026-04-18T14:01:39.01Z</time></trkpt><trkpt lat="43.7847367" lon="11.6025117"><ele>1073.5</ele><time>2026-04-18T14:01:40.012Z</time></trkpt><trkpt lat="43.7846967" lon="11.602405"><ele>1074.0</ele><time>2026-04-18T14:01:41.011Z</time></trkpt><trkpt lat="43.7846533" lon="11.60231"><ele>1074.5</ele><time>2026-04-18T14:01:42.011Z</time></trkpt><trkpt lat="43.7846117" lon="11.6022117"><ele>1075.0</ele><time>2026-04-18T14:01:43.012Z</time></trkpt><trkpt lat="43.7845633" lon="11.6021033"><ele>1074.6666666666665</ele><time>2026-04-18T14:01:44.014Z</time></trkpt><trkpt lat="43.7845133" lon="11.6019883"><ele>1074.3333333333333</ele><time>2026-04-18T14:01:45.011Z</time></trkpt><trkpt lat="43.7844683" lon="11.601905"><ele>1074.0</ele><time>2026-04-18T14:01:46.011Z</time></trkpt><trkpt lat="43.78441" lon="11.6018"><ele>1073.6666666666667</ele><time>2026-04-18T14:01:48.011Z</time></trkpt><trkpt lat="43.7843533" lon="11.6017033"><ele>1073.3333333333335</ele><time>2026-04-18T14:01:51.012Z</time></trkpt><trkpt lat="43.7842967" lon="11.6016133"><ele>1073.0</ele><time>2026-04-18T14:01:54.012Z</time></trkpt><trkpt lat="43.7842317" lon="11.6015583"><ele>1073.8333333333335</ele><time>2026-04-18T14:01:57.002Z</time></trkpt><trkpt lat="43.7841683" lon="11.6014967"><ele>1074.6666666666667</ele><time>2026-04-18T14:02:00.012Z</time></trkpt><trkpt lat="43.784105" lon="11.6014233"><ele>1075.5</ele><time>2026-04-18T14:02:03.012Z</time></trkpt><trkpt lat="43.7840333" lon="11.6013833"><ele>1076.3333333333333</ele><time>2026-04-18T14:02:06.012Z</time></trkpt><trkpt lat="43.7839583" lon="11.60134"><ele>1077.1666666666665</ele><time>2026-04-18T14:02:09.015Z</time></trkpt><trkpt lat="43.78389" lon="11.6012667"><ele>1078.0</ele><time>2026-04-18T14:02:12.012Z</time></trkpt><trkpt lat="43.7838267" lon="11.6012117"><ele>1076.6</ele><time>2026-04-18T14:02:15.012Z</time></trkpt><trkpt lat="43.7837583" lon="11.601145"><ele>1075.1999999999998</ele><time>2026-04-18T14:02:27.014Z</time></trkpt><trkpt lat="43.7836533" lon="11.6011017"><ele>1073.8</ele><time>2026-04-18T14:02:29.013Z</time></trkpt><trkpt lat="43.78354" lon="11.601085"><ele>1072.3999999999999</ele><time>2026-04-18T14:02:31.013Z</time></trkpt><trkpt lat="43.7834733" lon="11.601035"><ele>1071.0</ele><time>2026-04-18T14:02:33.012Z</time></trkpt><trkpt lat="43.783415" lon="11.6009367"><ele>1070.0</ele><time>2026-04-18T14:02:35.014Z</time></trkpt><trkpt lat="43.78334" lon="11.6008933"><ele>1069.0</ele><time>2026-04-18T14:02:37.014Z</time></trkpt><trkpt lat="43.7832233" lon="11.60091"><ele>1068.0</ele><time>2026-04-18T14:02:39.013Z</time></trkpt><trkpt lat="43.7831217" lon="11.6009533"><ele>1067.0</ele><time>2026-04-18T14:02:41.016Z</time></trkpt><trkpt lat="43.7830533" lon="11.6010133"><ele>1066.0</ele><time>2026-04-18T14:02:43.003Z</time></trkpt><trkpt lat="43.7828767" lon="11.6010267"><ele>1066.0</ele><time>2026-04-18T14:02:57.012Z</time></trkpt><trkpt lat="43.7828067" lon="11.601055"><ele>1066.0</ele><time>2026-04-18T14:03:00.017Z</time></trkpt><trkpt lat="43.7828033" lon="11.6011567"><ele>1066.0</ele><time>2026-04-18T14:03:06.013Z</time></trkpt><trkpt lat="43.7827933" lon="11.6012717"><ele>1066.0</ele><time>2026-04-18T14:03:10.01Z</time></trkpt><trkpt lat="43.7827783" lon="11.6013783"><ele>1066.0</ele><time>2026-04-18T14:03:14.015Z</time></trkpt><trkpt lat="43.7827417" lon="11.6012933"><ele>1066.0</ele><time>2026-04-18T14:03:24.013Z</time></trkpt><trkpt lat="43.7827217" lon="11.6011933"><ele>1066.0</ele><time>2026-04-18T14:03:28.014Z</time></trkpt><trkpt lat="43.7827667" lon="11.6011183"><ele>1066.0</ele><time>2026-04-18T14:03:31.014Z</time></trkpt><trkpt lat="43.7827267" lon="11.6010367"><ele>1066.0</ele><time>2026-04-18T14:03:35.004Z</time></trkpt><trkpt lat="43.7828167" lon="11.6009583"><ele>1066.0</ele><time>2026-04-18T14:30:48.001Z</time></trkpt><trkpt lat="43.7828333" lon="11.60087"><ele>1066.0</ele><time>2026-04-18T14:30:51.011Z</time></trkpt><trkpt lat="43.7828417" lon="11.60076"><ele>1066.0</ele><time>2026-04-18T14:30:54.011Z</time></trkpt><trkpt lat="43.7828583" lon="11.600635"><ele>1066.0</ele><time>2026-04-18T14:30:57.011Z</time></trkpt><trkpt lat="43.78287" lon="11.6005417"><ele>1066.0</ele><time>2026-04-18T14:30:59.013Z</time></trkpt><trkpt lat="43.7828883" lon="11.6004483"><ele>1066.0</ele><time>2026-04-18T14:31:01.013Z</time></trkpt><trkpt lat="43.7829067" lon="11.600345"><ele>1066.0</ele><time>2026-04-18T14:31:05.014Z</time></trkpt><trkpt lat="43.78295" lon="11.6002167"><ele>1066.0</ele><time>2026-04-18T14:31:08.015Z</time></trkpt><trkpt lat="43.7829567" lon="11.60007"><ele>1066.0</ele><time>2026-04-18T14:31:10.012Z</time></trkpt><trkpt lat="43.782955" lon="11.599935"><ele>1064.3333333333333</ele><time>2026-04-18T14:31:12.011Z</time></trkpt><trkpt lat="43.7829533" lon="11.599795"><ele>1062.6666666666665</ele><time>2026-04-18T14:31:14.012Z</time></trkpt><trkpt lat="43.7829433" lon="11.5996333"><ele>1061.0</ele><time>2026-04-18T14:31:16.012Z</time></trkpt><trkpt lat="43.7829383" lon="11.599545"><ele>1059.3333333333333</ele><time>2026-04-18T14:31:17.012Z</time></trkpt><trkpt lat="43.7829333" lon="11.59945"><ele>1057.6666666666667</ele><time>2026-04-18T14:31:18.012Z</time></trkpt><trkpt lat="43.7829267" lon="11.5993517"><ele>1056.0</ele><time>2026-04-18T14:31:19.014Z</time></trkpt><trkpt lat="43.7829217" lon="11.5992517"><ele>1056.2857142857142</ele><time>2026-04-18T14:31:20.013Z</time></trkpt><trkpt lat="43.7829167" lon="11.5991483"><ele>1056.5714285714287</ele><time>2026-04-18T14:31:21.012Z</time></trkpt><trkpt lat="43.7829067" lon="11.59905"><ele>1056.857142857143</ele><time>2026-04-18T14:31:22.013Z</time></trkpt><trkpt lat="43.7828883" lon="11.5989533"><ele>1057.142857142857</ele><time>2026-04-18T14:31:23.014Z</time></trkpt><trkpt lat="43.782865" lon="11.5988567"><ele>1057.4285714285713</ele><time>2026-04-18T14:31:24.013Z</time></trkpt><trkpt lat="43.782835" lon="11.5987617"><ele>1057.7142857142858</ele><time>2026-04-18T14:31:25.011Z</time></trkpt><trkpt lat="43.7828017" lon="11.59866"><ele>1058.0</ele><time>2026-04-18T14:31:26.013Z</time></trkpt><trkpt lat="43.782765" lon="11.5985583"><ele>1058.0</ele><time>2026-04-18T14:31:27.012Z</time></trkpt><trkpt lat="43.7827267" lon="11.598455"><ele>1058.0</ele><time>2026-04-18T14:31:28.012Z</time></trkpt><trkpt lat="43.7826833" lon="11.5983567"><ele>1058.0</ele><time>2026-04-18T14:31:29.013Z</time></trkpt><trkpt lat="43.7826367" lon="11.5982633"><ele>1058.0</ele><time>2026-04-18T14:31:30.01Z</time></trkpt><trkpt lat="43.7825817" lon="11.5981767"><ele>1058.0</ele><time>2026-04-18T14:31:31.012Z</time></trkpt><trkpt lat="43.7825267" lon="11.598095"><ele>1058.0</ele><time>2026-04-18T14:31:32.013Z</time></trkpt><trkpt lat="43.7824633" lon="11.598025"><ele>1055.0</ele><time>2026-04-18T14:31:33.011Z</time></trkpt><trkpt lat="43.7823933" lon="11.597965"><ele>1052.0</ele><time>2026-04-18T14:31:34.011Z</time></trkpt><trkpt lat="43.7823167" lon="11.5979067"><ele>1049.0</ele><time>2026-04-18T14:31:35.012Z</time></trkpt><trkpt lat="43.7822383" lon="11.5978483"><ele>1046.0</ele><time>2026-04-18T14:31:36.011Z</time></trkpt><trkpt lat="43.78216" lon="11.5977967"><ele>1043.0</ele><time>2026-04-18T14:31:37.013Z</time></trkpt><trkpt lat="43.7820933" lon="11.5977583"><ele>1040.0</ele><time>2026-04-18T14:31:38.013Z</time></trkpt><trkpt lat="43.782015" lon="11.5977017"><ele>1040.0</ele><time>2026-04-18T14:31:40.013Z</time></trkpt><trkpt lat="43.78193" lon="11.597625"><ele>1040.0</ele><time>2026-04-18T14:36:45.01Z</time></trkpt><trkpt lat="43.78187" lon="11.5975967"><ele>1040.0</ele><time>2026-04-18T14:36:48.013Z</time></trkpt><trkpt lat="43.7818033" lon="11.59756"><ele>1040.0</ele><time>2026-04-18T14:36:51.012Z</time></trkpt><trkpt lat="43.7817383" lon="11.59749"><ele>1040.0</ele><time>2026-04-18T14:36:53.012Z</time></trkpt><trkpt lat="43.781625" lon="11.5974117"><ele>1040.0</ele><time>2026-04-18T14:36:55.012Z</time></trkpt><trkpt lat="43.781565" lon="11.59736"><ele>1037.0</ele><time>2026-04-18T14:36:56.015Z</time></trkpt><trkpt lat="43.781495" lon="11.597315"><ele>1034.0</ele><time>2026-04-18T14:36:57.012Z</time></trkpt><trkpt lat="43.7814233" lon="11.5972383"><ele>1031.0</ele><time>2026-04-18T14:36:58.012Z</time></trkpt><trkpt lat="43.7813483" lon="11.597145"><ele>1028.0</ele><time>2026-04-18T14:36:59.014Z</time></trkpt><trkpt lat="43.7812833" lon="11.5970383"><ele>1025.0</ele><time>2026-04-18T14:37:00.015Z</time></trkpt><trkpt lat="43.78123" lon="11.5969317"><ele>1024.5</ele><time>2026-04-18T14:37:01.013Z</time></trkpt><trkpt lat="43.7811817" lon="11.5968267"><ele>1024.0</ele><time>2026-04-18T14:37:02.013Z</time></trkpt><trkpt lat="43.7811383" lon="11.5967267"><ele>1023.5</ele><time>2026-04-18T14:37:03.012Z</time></trkpt><trkpt lat="43.7810967" lon="11.5966233"><ele>1023.0</ele><time>2026-04-18T14:37:04.013Z</time></trkpt><trkpt lat="43.7810333" lon="11.596545"><ele>1022.5000000000001</ele><time>2026-04-18T14:37:05.012Z</time></trkpt><trkpt lat="43.780955" lon="11.5965783"><ele>1022.0</ele><time>2026-04-18T14:37:06.012Z</time></trkpt><trkpt lat="43.7808917" lon="11.5965417"><ele>1022.0000000000001</ele><time>2026-04-18T14:37:07.012Z</time></trkpt><trkpt lat="43.78083" lon="11.5964683"><ele>1022.0</ele><time>2026-04-18T14:37:08.015Z</time></trkpt><trkpt lat="43.7807617" lon="11.5963883"><ele>1022.0</ele><time>2026-04-18T14:37:09.012Z</time></trkpt><trkpt lat="43.7806983" lon="11.5963033"><ele>1022.0</ele><time>2026-04-18T14:37:10.013Z</time></trkpt><trkpt lat="43.7806333" lon="11.5962167"><ele>1022.0000000000001</ele><time>2026-04-18T14:37:11.014Z</time></trkpt><trkpt lat="43.7805717" lon="11.59613"><ele>1022.0</ele><time>2026-04-18T14:37:12.013Z</time></trkpt><trkpt lat="43.780515" lon="11.596045"><ele>1022.5000000000001</ele><time>2026-04-18T14:37:13.013Z</time></trkpt><trkpt lat="43.780455" lon="11.5959633"><ele>1023.0</ele><time>2026-04-18T14:37:14.013Z</time></trkpt><trkpt lat="43.78039" lon="11.59588"><ele>1023.5</ele><time>2026-04-18T14:37:15.012Z</time></trkpt><trkpt lat="43.7803267" lon="11.5957967"><ele>1024.0</ele><time>2026-04-18T14:37:16.012Z</time></trkpt><trkpt lat="43.78026" lon="11.595715"><ele>1024.5</ele><time>2026-04-18T14:37:17.012Z</time></trkpt><trkpt lat="43.7801967" lon="11.5956383"><ele>1025.0</ele><time>2026-04-18T14:37:18.012Z</time></trkpt><trkpt lat="43.780125" lon="11.5955767"><ele>1025.0</ele><time>2026-04-18T14:37:19.013Z</time></trkpt><trkpt lat="43.78006" lon="11.5955067"><ele>1025.0</ele><time>2026-04-18T14:37:20.015Z</time></trkpt><trkpt lat="43.7799967" lon="11.595435"><ele>1025.0</ele><time>2026-04-18T14:37:21.012Z</time></trkpt><trkpt lat="43.779935" lon="11.5953533"><ele>1025.0</ele><time>2026-04-18T14:37:22.013Z</time></trkpt><trkpt lat="43.7798767" lon="11.59527"><ele>1025.0</ele><time>2026-04-18T14:37:23.014Z</time></trkpt><trkpt lat="43.7798267" lon="11.5951717"><ele>1025.0</ele><time>2026-04-18T14:37:24.015Z</time></trkpt><trkpt lat="43.7797817" lon="11.5950633"><ele>1023.6</ele><time>2026-04-18T14:37:25.015Z</time></trkpt><trkpt lat="43.7797483" lon="11.5949333"><ele>1022.2</ele><time>2026-04-18T14:37:26.013Z</time></trkpt><trkpt lat="43.7797117" lon="11.5947983"><ele>1020.8</ele><time>2026-04-18T14:37:27.013Z</time></trkpt><trkpt lat="43.779685" lon="11.594645"><ele>1019.4</ele><time>2026-04-18T14:37:28.013Z</time></trkpt><trkpt lat="43.7796717" lon="11.5944883"><ele>1018.0</ele><time>2026-04-18T14:37:29.012Z</time></trkpt><trkpt lat="43.7796633" lon="11.5943167"><ele>1018.25</ele><time>2026-04-18T14:37:30.012Z</time></trkpt><trkpt lat="43.7796467" lon="11.5941383"><ele>1018.5</ele><time>2026-04-18T14:37:31.013Z</time></trkpt><trkpt lat="43.779635" lon="11.593965"><ele>1018.75</ele><time>2026-04-18T14:37:32.014Z</time></trkpt><trkpt lat="43.7796317" lon="11.5938067"><ele>1019.0</ele><time>2026-04-18T14:37:33.011Z</time></trkpt><trkpt lat="43.7796367" lon="11.593655"><ele>1019.0000000000001</ele><time>2026-04-18T14:37:34.012Z</time></trkpt><trkpt lat="43.7796433" lon="11.5935483"><ele>1019.0</ele><time>2026-04-18T14:37:35.012Z</time></trkpt><trkpt lat="43.7797083" lon="11.593405"><ele>1019.0</ele><time>2026-04-18T14:37:37.012Z</time></trkpt><trkpt lat="43.7797517" lon="11.5933217"><ele>1019.0</ele><time>2026-04-18T14:37:38.013Z</time></trkpt><trkpt lat="43.779785" lon="11.593215"><ele>1019.0000000000001</ele><time>2026-04-18T14:37:39.012Z</time></trkpt><trkpt lat="43.7798117" lon="11.5931083"><ele>1019.0</ele><time>2026-04-18T14:37:40.012Z</time></trkpt><trkpt lat="43.7798283" lon="11.5930033"><ele>1019.0000000000001</ele><time>2026-04-18T14:37:41.012Z</time></trkpt><trkpt lat="43.7798333" lon="11.5928867"><ele>1019.0</ele><time>2026-04-18T14:37:42.012Z</time></trkpt><trkpt lat="43.7798267" lon="11.5927717"><ele>1019.0</ele><time>2026-04-18T14:37:43.013Z</time></trkpt><trkpt lat="43.7798133" lon="11.5926483"><ele>1019.0</ele><time>2026-04-18T14:37:44.015Z</time></trkpt><trkpt lat="43.7797833" lon="11.5925283"><ele>1019.0000000000001</ele><time>2026-04-18T14:37:45.013Z</time></trkpt><trkpt lat="43.7797417" lon="11.5924167"><ele>1019.0</ele><time>2026-04-18T14:37:46.016Z</time></trkpt><trkpt lat="43.779685" lon="11.5923"><ele>1018.8000000000001</ele><time>2026-04-18T14:37:47.013Z</time></trkpt><trkpt lat="43.779635" lon="11.5922"><ele>1018.6000000000001</ele><time>2026-04-18T14:37:48.013Z</time></trkpt><trkpt lat="43.7795833" lon="11.592085"><ele>1018.4</ele><time>2026-04-18T14:37:49.013Z</time></trkpt><trkpt lat="43.7795583" lon="11.5919617"><ele>1018.2</ele><time>2026-04-18T14:37:50.015Z</time></trkpt><trkpt lat="43.77954" lon="11.591845"><ele>1018.0</ele><time>2026-04-18T14:37:51.012Z</time></trkpt><trkpt lat="43.779515" lon="11.5917283"><ele>1017.1666666666666</ele><time>2026-04-18T14:37:52.013Z</time></trkpt><trkpt lat="43.7794817" lon="11.59163"><ele>1016.3333333333333</ele><time>2026-04-18T14:37:53.013Z</time></trkpt><trkpt lat="43.7794317" lon="11.5915717"><ele>1015.5</ele><time>2026-04-18T14:37:54.012Z</time></trkpt><trkpt lat="43.7793383" lon="11.591505"><ele>1014.6666666666667</ele><time>2026-04-18T14:37:56.015Z</time></trkpt><trkpt lat="43.7792617" lon="11.5916017"><ele>1013.8333333333334</ele><time>2026-04-18T14:37:57.011Z</time></trkpt><trkpt lat="43.7791933" lon="11.5916667"><ele>1013.0</ele><time>2026-04-18T14:37:58.011Z</time></trkpt><trkpt lat="43.779125" lon="11.591745"><ele>1012.3333333333334</ele><time>2026-04-18T14:37:59.012Z</time></trkpt><trkpt lat="43.7790567" lon="11.5918183"><ele>1011.6666666666667</ele><time>2026-04-18T14:38:00.002Z</time></trkpt><trkpt lat="43.7789967" lon="11.5918733"><ele>1011.0</ele><time>2026-04-18T14:38:01.002Z</time></trkpt><trkpt lat="43.7789417" lon="11.5919267"><ele>1010.3333333333333</ele><time>2026-04-18T14:38:02.014Z</time></trkpt><trkpt lat="43.778875" lon="11.5919867"><ele>1009.6666666666666</ele><time>2026-04-18T14:38:03.011Z</time></trkpt><trkpt lat="43.778795" lon="11.591965"><ele>1009.0</ele><time>2026-04-18T14:38:05.012Z</time></trkpt><trkpt lat="43.7788183" lon="11.5917783"><ele>1009.0</ele><time>2026-04-18T14:38:07.011Z</time></trkpt><trkpt lat="43.7788783" lon="11.5916267"><ele>1009.0</ele><time>2026-04-18T14:38:08.014Z</time></trkpt><trkpt lat="43.7789517" lon="11.5914433"><ele>1009.0</ele><time>2026-04-18T14:38:09.01Z</time></trkpt><trkpt lat="43.779015" lon="11.5913017"><ele>1009.0</ele><time>2026-04-18T14:38:10.013Z</time></trkpt><trkpt lat="43.779085" lon="11.5911767"><ele>1007.6</ele><time>2026-04-18T14:38:11.012Z</time></trkpt><trkpt lat="43.7791567" lon="11.5910717"><ele>1006.2</ele><time>2026-04-18T14:38:12.011Z</time></trkpt><trkpt lat="43.77921" lon="11.590975"><ele>1004.8000000000001</ele><time>2026-04-18T14:38:13.012Z</time></trkpt><trkpt lat="43.7792467" lon="11.5908617"><ele>1003.4000000000001</ele><time>2026-04-18T14:38:14.014Z</time></trkpt><trkpt lat="43.7792767" lon="11.5907433"><ele>1002.0</ele><time>2026-04-18T14:38:15.012Z</time></trkpt><trkpt lat="43.7792917" lon="11.59062"><ele>1002.0</ele><time>2026-04-18T14:38:16.012Z</time></trkpt><trkpt lat="43.7792833" lon="11.59051"><ele>1002.0</ele><time>2026-04-18T14:38:17.011Z</time></trkpt><trkpt lat="43.7792767" lon="11.59041"><ele>1002.0</ele><time>2026-04-18T14:38:18.011Z</time></trkpt><trkpt lat="43.7792767" lon="11.590315"><ele>1002.0</ele><time>2026-04-18T14:38:19.011Z</time></trkpt><trkpt lat="43.7793383" lon="11.5901933"><ele>1002.0</ele><time>2026-04-18T14:38:21.013Z</time></trkpt><trkpt lat="43.7794317" lon="11.590145"><ele>1002.0</ele><time>2026-04-18T14:38:22.011Z</time></trkpt><trkpt lat="43.7795317" lon="11.59008"><ele>998.6</ele><time>2026-04-18T14:38:23.012Z</time></trkpt><trkpt lat="43.77962" lon="11.5899917"><ele>995.2</ele><time>2026-04-18T14:38:24.011Z</time></trkpt><trkpt lat="43.7796883" lon="11.5898933"><ele>991.8</ele><time>2026-04-18T14:38:25.013Z</time></trkpt><trkpt lat="43.77972" lon="11.58978"><ele>988.4</ele><time>2026-04-18T14:38:26.017Z</time></trkpt><trkpt lat="43.77972" lon="11.5896567"><ele>985.0</ele><time>2026-04-18T14:38:27.011Z</time></trkpt><trkpt lat="43.7797167" lon="11.5895417"><ele>983.9999999999999</ele><time>2026-04-18T14:38:28.011Z</time></trkpt><trkpt lat="43.7797133" lon="11.58943"><ele>983.0</ele><time>2026-04-18T14:38:29.011Z</time></trkpt><trkpt lat="43.7797283" lon="11.58934"><ele>982.0</ele><time>2026-04-18T14:38:30.011Z</time></trkpt><trkpt lat="43.7797783" lon="11.5892583"><ele>981.0</ele><time>2026-04-18T14:38:31.012Z</time></trkpt><trkpt lat="43.77983" lon="11.5891817"><ele>979.9999999999999</ele><time>2026-04-18T14:38:32.013Z</time></trkpt><trkpt lat="43.7798867" lon="11.589025"><ele>979.0</ele><time>2026-04-18T14:38:34.012Z</time></trkpt><trkpt lat="43.7799067" lon="11.5889183"><ele>979.0</ele><time>2026-04-18T14:38:35.013Z</time></trkpt><trkpt lat="43.779905" lon="11.5888167"><ele>979.0000000000001</ele><time>2026-04-18T14:38:36.012Z</time></trkpt><trkpt lat="43.77986" lon="11.5887"><ele>979.0000000000001</ele><time>2026-04-18T14:38:37.013Z</time></trkpt><trkpt lat="43.7798883" lon="11.588525"><ele>979.0</ele><time>2026-04-18T14:38:39.011Z</time></trkpt><trkpt lat="43.7799433" lon="11.5884"><ele>979.0</ele><time>2026-04-18T14:38:41.013Z</time></trkpt><trkpt lat="43.78" lon="11.588345"><ele>980.2</ele><time>2026-04-18T14:38:42.012Z</time></trkpt><trkpt lat="43.7800583" lon="11.5883083"><ele>981.4000000000001</ele><time>2026-04-18T14:38:43.013Z</time></trkpt><trkpt lat="43.78013" lon="11.588295"><ele>982.6</ele><time>2026-04-18T14:38:44.016Z</time></trkpt><trkpt lat="43.7802267" lon="11.5882867"><ele>983.8</ele><time>2026-04-18T14:38:45.012Z</time></trkpt><trkpt lat="43.7803767" lon="11.5883167"><ele>985.0</ele><time>2026-04-18T14:38:46.012Z</time></trkpt><trkpt lat="43.780505" lon="11.5883583"><ele>985.0</ele><time>2026-04-18T14:38:47.011Z</time></trkpt><trkpt lat="43.7806283" lon="11.58842"><ele>985.0</ele><time>2026-04-18T14:38:48.011Z</time></trkpt><trkpt lat="43.780735" lon="11.588465"><ele>985.0</ele><time>2026-04-18T14:38:49.002Z</time></trkpt><trkpt lat="43.780835" lon="11.5884933"><ele>985.0</ele><time>2026-04-18T14:38:50.014Z</time></trkpt><trkpt lat="43.780925" lon="11.588515"><ele>985.0</ele><time>2026-04-18T14:38:51.012Z</time></trkpt><trkpt lat="43.7810183" lon="11.5885233"><ele>985.0</ele><time>2026-04-18T14:38:52.013Z</time></trkpt><trkpt lat="43.7811117" lon="11.58843"><ele>985.0</ele><time>2026-04-18T14:38:53.012Z</time></trkpt><trkpt lat="43.7811617" lon="11.5883583"><ele>985.0</ele><time>2026-04-18T14:38:54.007Z</time></trkpt><trkpt lat="43.78122" lon="11.5883217"><ele>985.0</ele><time>2026-04-18T14:38:55.011Z</time></trkpt><trkpt lat="43.7813067" lon="11.5883367"><ele>985.0</ele><time>2026-04-18T14:38:56.014Z</time></trkpt><trkpt lat="43.781425" lon="11.5883783"><ele>985.0</ele><time>2026-04-18T14:38:57.012Z</time></trkpt><trkpt lat="43.7815683" lon="11.5884117"><ele>985.0</ele><time>2026-04-18T14:38:58.011Z</time></trkpt><trkpt lat="43.7817133" lon="11.5884417"><ele>985.0</ele><time>2026-04-18T14:38:59.013Z</time></trkpt><trkpt lat="43.7818467" lon="11.5884733"><ele>985.0</ele><time>2026-04-18T14:39:00.012Z</time></trkpt><trkpt lat="43.781965" lon="11.58848"><ele>983.4</ele><time>2026-04-18T14:39:01.013Z</time></trkpt><trkpt lat="43.78207" lon="11.5884583"><ele>981.8</ele><time>2026-04-18T14:39:02.013Z</time></trkpt><trkpt lat="43.7821667" lon="11.5883967"><ele>980.2</ele><time>2026-04-18T14:39:03.013Z</time></trkpt><trkpt lat="43.78225" lon="11.58831"><ele>978.6</ele><time>2026-04-18T14:39:04.013Z</time></trkpt><trkpt lat="43.78232" lon="11.5881567"><ele>977.0</ele><time>2026-04-18T14:39:05.011Z</time></trkpt><trkpt lat="43.7823817" lon="11.5879633"><ele>978.2</ele><time>2026-04-18T14:39:06.012Z</time></trkpt><trkpt lat="43.7824433" lon="11.587825"><ele>979.4000000000001</ele><time>2026-04-18T14:39:07.012Z</time></trkpt><trkpt lat="43.782505" lon="11.587735"><ele>980.5999999999999</ele><time>2026-04-18T14:39:08.014Z</time></trkpt><trkpt lat="43.7825733" lon="11.5876717"><ele>981.8</ele><time>2026-04-18T14:39:09.012Z</time></trkpt><trkpt lat="43.78266" lon="11.5876533"><ele>983.0</ele><time>2026-04-18T14:39:10.012Z</time></trkpt><trkpt lat="43.7827567" lon="11.5876967"><ele>980.6666666666667</ele><time>2026-04-18T14:39:11.015Z</time></trkpt><trkpt lat="43.7828383" lon="11.5877"><ele>978.3333333333334</ele><time>2026-04-18T14:39:12.013Z</time></trkpt><trkpt lat="43.782895" lon="11.587655"><ele>976.0</ele><time>2026-04-18T14:39:13.012Z</time></trkpt><trkpt lat="43.7829317" lon="11.5875683"><ele>973.6666666666667</ele><time>2026-04-18T14:39:14.013Z</time></trkpt><trkpt lat="43.7829717" lon="11.58747"><ele>971.3333333333334</ele><time>2026-04-18T14:39:15.013Z</time></trkpt><trkpt lat="43.7829967" lon="11.5873367"><ele>969.0</ele><time>2026-04-18T14:39:16.012Z</time></trkpt><trkpt lat="43.7830017" lon="11.58714"><ele>969.75</ele><time>2026-04-18T14:39:17.013Z</time></trkpt><trkpt lat="43.78303" lon="11.58695"><ele>970.5</ele><time>2026-04-18T14:39:18.013Z</time></trkpt><trkpt lat="43.7830833" lon="11.5867683"><ele>971.25</ele><time>2026-04-18T14:39:19.013Z</time></trkpt><trkpt lat="43.783145" lon="11.5865633"><ele>972.0</ele><time>2026-04-18T14:39:20.015Z</time></trkpt><trkpt lat="43.7832117" lon="11.58637"><ele>972.0</ele><time>2026-04-18T14:39:21.013Z</time></trkpt><trkpt lat="43.7832867" lon="11.5861783"><ele>972.0</ele><time>2026-04-18T14:39:22.013Z</time></trkpt><trkpt lat="43.7833633" lon="11.585985"><ele>972.0</ele><time>2026-04-18T14:39:23.012Z</time></trkpt><trkpt lat="43.7834383" lon="11.5857917"><ele>969.3333333333333</ele><time>2026-04-18T14:39:24.013Z</time></trkpt><trkpt lat="43.7835167" lon="11.5856133"><ele>966.6666666666666</ele><time>2026-04-18T14:39:25.013Z</time></trkpt><trkpt lat="43.7836033" lon="11.5854383"><ele>964.0</ele><time>2026-04-18T14:39:26.01Z</time></trkpt><trkpt lat="43.7837033" lon="11.585275"><ele>964.0</ele><time>2026-04-18T14:39:27.011Z</time></trkpt><trkpt lat="43.7837917" lon="11.5851117"><ele>964.0</ele><time>2026-04-18T14:39:28.012Z</time></trkpt><trkpt lat="43.7838833" lon="11.58498"><ele>964.0</ele><time>2026-04-18T14:39:29.013Z</time></trkpt><trkpt lat="43.7839833" lon="11.5848767"><ele>964.0</ele><time>2026-04-18T14:39:30.012Z</time></trkpt><trkpt lat="43.7840883" lon="11.5847883"><ele>964.0</ele><time>2026-04-18T14:39:31.012Z</time></trkpt><trkpt lat="43.7841867" lon="11.5847217"><ele>964.0000000000001</ele><time>2026-04-18T14:39:32.017Z</time></trkpt><trkpt lat="43.7842767" lon="11.5846667"><ele>964.0000000000001</ele><time>2026-04-18T14:39:33.011Z</time></trkpt><trkpt lat="43.7843683" lon="11.584645"><ele>964.0</ele><time>2026-04-18T14:39:34.012Z</time></trkpt><trkpt lat="43.7844683" lon="11.58464"><ele>964.0</ele><time>2026-04-18T14:39:35.013Z</time></trkpt><trkpt lat="43.7845733" lon="11.5846783"><ele>962.9999999999999</ele><time>2026-04-18T14:39:36.012Z</time></trkpt><trkpt lat="43.78466" lon="11.584725"><ele>962.0</ele><time>2026-04-18T14:39:37.015Z</time></trkpt><trkpt lat="43.7847517" lon="11.5847733"><ele>961.0</ele><time>2026-04-18T14:39:38.014Z</time></trkpt><trkpt lat="43.784875" lon="11.58478"><ele>960.0</ele><time>2026-04-18T14:39:40.014Z</time></trkpt><trkpt lat="43.7849417" lon="11.584775"><ele>958.9999999999999</ele><time>2026-04-18T14:39:41.014Z</time></trkpt><trkpt lat="43.785" lon="11.5847317"><ele>958.0</ele><time>2026-04-18T14:39:42.014Z</time></trkpt><trkpt lat="43.78505" lon="11.58461"><ele>957.8571428571429</ele><time>2026-04-18T14:39:44.015Z</time></trkpt><trkpt lat="43.7850483" lon="11.5845083"><ele>957.7142857142858</ele><time>2026-04-18T14:39:45.012Z</time></trkpt><trkpt lat="43.785045" lon="11.584415"><ele>957.5714285714287</ele><time>2026-04-18T14:39:46.012Z</time></trkpt><trkpt lat="43.7850317" lon="11.584325"><ele>957.4285714285714</ele><time>2026-04-18T14:39:47.013Z</time></trkpt><trkpt lat="43.785" lon="11.5842217"><ele>957.2857142857144</ele><time>2026-04-18T14:39:48.003Z</time></trkpt><trkpt lat="43.7849567" lon="11.5841317"><ele>957.1428571428572</ele><time>2026-04-18T14:39:49.013Z</time></trkpt><trkpt lat="43.7849067" lon="11.584055"><ele>957.0</ele><time>2026-04-18T14:39:50.01Z</time></trkpt><trkpt lat="43.7848383" lon="11.584005"><ele>957.0</ele><time>2026-04-18T14:39:51.012Z</time></trkpt><trkpt lat="43.7847767" lon="11.5839233"><ele>957.0</ele><time>2026-04-18T14:39:53.013Z</time></trkpt><trkpt lat="43.7848367" lon="11.5838533"><ele>957.0</ele><time>2026-04-18T14:39:57.014Z</time></trkpt><trkpt lat="43.78495" lon="11.583925"><ele>957.0</ele><time>2026-04-18T14:39:59.014Z</time></trkpt><trkpt lat="43.78501" lon="11.58397"><ele>957.0</ele><time>2026-04-18T14:40:00.014Z</time></trkpt><trkpt lat="43.785065" lon="11.5840317"><ele>957.0</ele><time>2026-04-18T14:40:01.013Z</time></trkpt><trkpt lat="43.7851517" lon="11.5841583"><ele>952.6666666666666</ele><time>2026-04-18T14:40:03.013Z</time></trkpt><trkpt lat="43.7852067" lon="11.584315"><ele>948.3333333333333</ele><time>2026-04-18T14:40:05.012Z</time></trkpt><trkpt lat="43.7852283" lon="11.58442"><ele>944.0</ele><time>2026-04-18T14:40:06.012Z</time></trkpt><trkpt lat="43.7852433" lon="11.5845233"><ele>939.6666666666666</ele><time>2026-04-18T14:40:07.011Z</time></trkpt><trkpt lat="43.7852533" lon="11.5846283"><ele>935.3333333333333</ele><time>2026-04-18T14:40:08.002Z</time></trkpt><trkpt lat="43.7852583" lon="11.58473"><ele>931.0</ele><time>2026-04-18T14:40:09.012Z</time></trkpt><trkpt lat="43.7852633" lon="11.584835"><ele>930.6666666666666</ele><time>2026-04-18T14:40:10.012Z</time></trkpt><trkpt lat="43.7852667" lon="11.5849433"><ele>930.3333333333333</ele><time>2026-04-18T14:40:11.013Z</time></trkpt><trkpt lat="43.785255" lon="11.58506"><ele>930.0</ele><time>2026-04-18T14:40:12.012Z</time></trkpt><trkpt lat="43.7852217" lon="11.5851667"><ele>929.6666666666667</ele><time>2026-04-18T14:40:13.012Z</time></trkpt><trkpt lat="43.7851817" lon="11.585265"><ele>929.3333333333334</ele><time>2026-04-18T14:40:14.01Z</time></trkpt><trkpt lat="43.785135" lon="11.58535"><ele>929.0</ele><time>2026-04-18T14:40:15.012Z</time></trkpt><trkpt lat="43.785085" lon="11.58543"><ele>932.6666666666667</ele><time>2026-04-18T14:40:16.012Z</time></trkpt><trkpt lat="43.78503" lon="11.5855033"><ele>936.3333333333334</ele><time>2026-04-18T14:40:17.012Z</time></trkpt><trkpt lat="43.7849717" lon="11.5855733"><ele>940.0</ele><time>2026-04-18T14:40:18.011Z</time></trkpt><trkpt lat="43.78491" lon="11.5856383"><ele>943.6666666666667</ele><time>2026-04-18T14:40:19.012Z</time></trkpt><trkpt lat="43.78485" lon="11.5857167"><ele>947.3333333333334</ele><time>2026-04-18T14:40:20.013Z</time></trkpt><trkpt lat="43.78479" lon="11.5857917"><ele>951.0</ele><time>2026-04-18T14:40:21.011Z</time></trkpt><trkpt lat="43.7847367" lon="11.5858717"><ele>951.0</ele><time>2026-04-18T14:40:22.011Z</time></trkpt><trkpt lat="43.784695" lon="11.5859617"><ele>951.0</ele><time>2026-04-18T14:40:23.012Z</time></trkpt><trkpt lat="43.7846567" lon="11.5860567"><ele>951.0</ele><time>2026-04-18T14:40:24.012Z</time></trkpt><trkpt lat="43.7846233" lon="11.5861517"><ele>951.0</ele><time>2026-04-18T14:40:25.013Z</time></trkpt><trkpt lat="43.7845933" lon="11.58624"><ele>951.0</ele><time>2026-04-18T14:40:26.013Z</time></trkpt><trkpt lat="43.7845733" lon="11.586325"><ele>951.0</ele><time>2026-04-18T14:40:27.011Z</time></trkpt><trkpt lat="43.7845567" lon="11.586415"><ele>951.0</ele><time>2026-04-18T14:40:28.012Z</time></trkpt><trkpt lat="43.78454" lon="11.5865"><ele>949.5</ele><time>2026-04-18T14:40:29.013Z</time></trkpt><trkpt lat="43.7845467" lon="11.58667"><ele>948.0</ele><time>2026-04-18T14:40:31.013Z</time></trkpt><trkpt lat="43.7845667" lon="11.586755"><ele>946.5</ele><time>2026-04-18T14:40:32.014Z</time></trkpt><trkpt lat="43.7845917" lon="11.58685"><ele>945.0</ele><time>2026-04-18T14:40:33.011Z</time></trkpt><trkpt lat="43.7846367" lon="11.586935"><ele>943.5</ele><time>2026-04-18T14:40:34.012Z</time></trkpt><trkpt lat="43.7846617" lon="11.58703"><ele>942.0</ele><time>2026-04-18T14:40:35.011Z</time></trkpt><trkpt lat="43.784665" lon="11.5871217"><ele>941.3333333333334</ele><time>2026-04-18T14:40:36.011Z</time></trkpt><trkpt lat="43.784625" lon="11.587245"><ele>940.6666666666667</ele><time>2026-04-18T14:40:38.013Z</time></trkpt><trkpt lat="43.7845683" lon="11.5873283"><ele>940.0</ele><time>2026-04-18T14:40:40.019Z</time></trkpt><trkpt lat="43.7845183" lon="11.58741"><ele>939.3333333333334</ele><time>2026-04-18T14:40:42.014Z</time></trkpt><trkpt lat="43.7845033" lon="11.587525"><ele>938.6666666666667</ele><time>2026-04-18T14:40:44.012Z</time></trkpt><trkpt lat="43.7845167" lon="11.5876283"><ele>938.0</ele><time>2026-04-18T14:40:46.002Z</time></trkpt><trkpt lat="43.7845983" lon="11.5877317"><ele>937.3333333333334</ele><time>2026-04-18T14:40:49.012Z</time></trkpt><trkpt lat="43.7846967" lon="11.5878633"><ele>936.6666666666667</ele><time>2026-04-18T14:40:51.011Z</time></trkpt><trkpt lat="43.7847517" lon="11.5879367"><ele>936.0</ele><time>2026-04-18T14:40:52.012Z</time></trkpt><trkpt lat="43.784805" lon="11.587995"><ele>935.3333333333333</ele><time>2026-04-18T14:40:53.013Z</time></trkpt><trkpt lat="43.78487" lon="11.588025"><ele>934.6666666666666</ele><time>2026-04-18T14:40:54.013Z</time></trkpt><trkpt lat="43.7849433" lon="11.588045"><ele>934.0</ele><time>2026-04-18T14:40:55.013Z</time></trkpt><trkpt lat="43.7850317" lon="11.5880433"><ele>933.9999999999999</ele><time>2026-04-18T14:40:56.014Z</time></trkpt><trkpt lat="43.7851167" lon="11.5880467"><ele>934.0</ele><time>2026-04-18T14:40:57.011Z</time></trkpt><trkpt lat="43.7852067" lon="11.5880417"><ele>934.0</ele><time>2026-04-18T14:40:58.013Z</time></trkpt><trkpt lat="43.7852883" lon="11.588035"><ele>934.0</ele><time>2026-04-18T14:40:59.013Z</time></trkpt><trkpt lat="43.785365" lon="11.588005"><ele>933.9999999999999</ele><time>2026-04-18T14:41:00.013Z</time></trkpt><trkpt lat="43.785435" lon="11.5879617"><ele>934.0</ele><time>2026-04-18T14:41:01.013Z</time></trkpt><trkpt lat="43.7855083" lon="11.587895"><ele>931.3333333333333</ele><time>2026-04-18T14:41:02.015Z</time></trkpt><trkpt lat="43.7855917" lon="11.5878183"><ele>928.6666666666666</ele><time>2026-04-18T14:41:03.011Z</time></trkpt><trkpt lat="43.7856633" lon="11.58775"><ele>926.0</ele><time>2026-04-18T14:41:04.012Z</time></trkpt><trkpt lat="43.7857333" lon="11.5876917"><ele>923.3333333333333</ele><time>2026-04-18T14:41:05.013Z</time></trkpt><trkpt lat="43.7858067" lon="11.587635"><ele>920.6666666666666</ele><time>2026-04-18T14:41:06.012Z</time></trkpt><trkpt lat="43.7858783" lon="11.587575"><ele>918.0</ele><time>2026-04-18T14:41:07.012Z</time></trkpt><trkpt lat="43.785955" lon="11.587505"><ele>914.4</ele><time>2026-04-18T14:41:08.013Z</time></trkpt><trkpt lat="43.78603" lon="11.5874367"><ele>910.8</ele><time>2026-04-18T14:41:09.01Z</time></trkpt><trkpt lat="43.7861117" lon="11.587355"><ele>907.2</ele><time>2026-04-18T14:41:10.012Z</time></trkpt><trkpt lat="43.78618" lon="11.587265"><ele>903.6</ele><time>2026-04-18T14:41:11.014Z</time></trkpt><trkpt lat="43.78624" lon="11.5871767"><ele>900.0</ele><time>2026-04-18T14:41:12.013Z</time></trkpt><trkpt lat="43.786305" lon="11.5870917"><ele>900.0</ele><time>2026-04-18T14:41:13.014Z</time></trkpt><trkpt lat="43.7863617" lon="11.587025"><ele>900.0</ele><time>2026-04-18T14:41:14.014Z</time></trkpt><trkpt lat="43.786405" lon="11.58694"><ele>900.0</ele><time>2026-04-18T14:41:15.013Z</time></trkpt><trkpt lat="43.7864267" lon="11.5867383"><ele>900.0</ele><time>2026-04-18T14:41:17.014Z</time></trkpt><trkpt lat="43.7864383" lon="11.5866217"><ele>900.0</ele><time>2026-04-18T14:41:18.012Z</time></trkpt><trkpt lat="43.786455" lon="11.5865133"><ele>899.6666666666666</ele><time>2026-04-18T14:41:19.014Z</time></trkpt><trkpt lat="43.78648" lon="11.5864133"><ele>899.3333333333333</ele><time>2026-04-18T14:41:20.014Z</time></trkpt><trkpt lat="43.7865067" lon="11.5863167"><ele>899.0</ele><time>2026-04-18T14:41:21.011Z</time></trkpt><trkpt lat="43.7865333" lon="11.5862283"><ele>898.6666666666666</ele><time>2026-04-18T14:41:22.013Z</time></trkpt><trkpt lat="43.7865733" lon="11.5860733"><ele>898.3333333333333</ele><time>2026-04-18T14:41:24.013Z</time></trkpt><trkpt lat="43.7865817" lon="11.5859717"><ele>898.0</ele><time>2026-04-18T14:41:25.013Z</time></trkpt><trkpt lat="43.7865483" lon="11.5858167"><ele>897.9999999999999</ele><time>2026-04-18T14:41:27.012Z</time></trkpt><trkpt lat="43.786545" lon="11.5857267"><ele>898.0</ele><time>2026-04-18T14:41:28.016Z</time></trkpt><trkpt lat="43.78656" lon="11.5856267"><ele>898.0</ele><time>2026-04-18T14:41:30.012Z</time></trkpt><trkpt lat="43.7865717" lon="11.5854783"><ele>898.0</ele><time>2026-04-18T14:41:32.015Z</time></trkpt><trkpt lat="43.786575" lon="11.5853483"><ele>897.9999999999999</ele><time>2026-04-18T14:41:33.013Z</time></trkpt><trkpt lat="43.7865867" lon="11.5852033"><ele>898.0</ele><time>2026-04-18T14:41:34.014Z</time></trkpt><trkpt lat="43.7866117" lon="11.5850633"><ele>899.4</ele><time>2026-04-18T14:41:36.013Z</time></trkpt><trkpt lat="43.7866767" lon="11.5849767"><ele>900.8</ele><time>2026-04-18T14:41:38.015Z</time></trkpt><trkpt lat="43.7867767" lon="11.5850333"><ele>902.2</ele><time>2026-04-18T14:41:40.013Z</time></trkpt><trkpt lat="43.7868583" lon="11.585135"><ele>903.6</ele><time>2026-04-18T14:41:42.012Z</time></trkpt><trkpt lat="43.7869" lon="11.5852117"><ele>905.0</ele><time>2026-04-18T14:41:43.013Z</time></trkpt><trkpt lat="43.7869483" lon="11.5853117"><ele>902.8333333333334</ele><time>2026-04-18T14:41:44.013Z</time></trkpt><trkpt lat="43.7870017" lon="11.585375"><ele>900.6666666666667</ele><time>2026-04-18T14:41:45.011Z</time></trkpt><trkpt lat="43.787075" lon="11.58545"><ele>898.5</ele><time>2026-04-18T14:41:46.012Z</time></trkpt><trkpt lat="43.7871633" lon="11.585515"><ele>896.3333333333333</ele><time>2026-04-18T14:41:47.014Z</time></trkpt><trkpt lat="43.787235" lon="11.5855783"><ele>894.1666666666666</ele><time>2026-04-18T14:41:48.011Z</time></trkpt><trkpt lat="43.7873167" lon="11.58562"><ele>892.0</ele><time>2026-04-18T14:41:49.013Z</time></trkpt><trkpt lat="43.7873933" lon="11.58566"><ele>891.9999999999999</ele><time>2026-04-18T14:41:50.015Z</time></trkpt><trkpt lat="43.7874633" lon="11.5856967"><ele>892.0</ele><time>2026-04-18T14:41:51.012Z</time></trkpt><trkpt lat="43.7875367" lon="11.5857333"><ele>892.0</ele><time>2026-04-18T14:41:52.014Z</time></trkpt><trkpt lat="43.7875933" lon="11.5857717"><ele>892.0</ele><time>2026-04-18T14:41:53.003Z</time></trkpt><trkpt lat="43.787655" lon="11.5858133"><ele>891.9999999999999</ele><time>2026-04-18T14:41:54.013Z</time></trkpt><trkpt lat="43.7877117" lon="11.5858533"><ele>892.0</ele><time>2026-04-18T14:41:55.013Z</time></trkpt><trkpt lat="43.7878" lon="11.5859467"><ele>890.6666666666666</ele><time>2026-04-18T14:41:57.012Z</time></trkpt><trkpt lat="43.78785" lon="11.5860083"><ele>889.3333333333333</ele><time>2026-04-18T14:41:58.012Z</time></trkpt><trkpt lat="43.7879117" lon="11.5860683"><ele>888.0</ele><time>2026-04-18T14:41:59.012Z</time></trkpt><trkpt lat="43.787975" lon="11.5861183"><ele>886.6666666666667</ele><time>2026-04-18T14:42:00.014Z</time></trkpt><trkpt lat="43.788055" lon="11.586165"><ele>885.3333333333334</ele><time>2026-04-18T14:42:01.015Z</time></trkpt><trkpt lat="43.7881517" lon="11.5862283"><ele>884.0</ele><time>2026-04-18T14:42:02.013Z</time></trkpt><trkpt lat="43.7882467" lon="11.5863017"><ele>884.0</ele><time>2026-04-18T14:42:03.012Z</time></trkpt><trkpt lat="43.7883317" lon="11.5863517"><ele>884.0000000000001</ele><time>2026-04-18T14:42:04.012Z</time></trkpt><trkpt lat="43.788415" lon="11.5863867"><ele>884.0000000000001</ele><time>2026-04-18T14:42:05.012Z</time></trkpt><trkpt lat="43.7885033" lon="11.58641"><ele>884.0</ele><time>2026-04-18T14:42:06.012Z</time></trkpt><trkpt lat="43.7886" lon="11.58642"><ele>884.0</ele><time>2026-04-18T14:42:07.012Z</time></trkpt><trkpt lat="43.7887017" lon="11.5863833"><ele>881.2</ele><time>2026-04-18T14:42:08.014Z</time></trkpt><trkpt lat="43.7887967" lon="11.5863317"><ele>878.4000000000001</ele><time>2026-04-18T14:42:09.011Z</time></trkpt><trkpt lat="43.7888883" lon="11.5862817"><ele>875.6</ele><time>2026-04-18T14:42:10.012Z</time></trkpt><trkpt lat="43.78897" lon="11.5862417"><ele>872.8</ele><time>2026-04-18T14:42:11.012Z</time></trkpt><trkpt lat="43.78905" lon="11.5862233"><ele>870.0</ele><time>2026-04-18T14:42:12.012Z</time></trkpt><trkpt lat="43.78914" lon="11.586205"><ele>870.0</ele><time>2026-04-18T14:42:13.012Z</time></trkpt><trkpt lat="43.7892167" lon="11.5861783"><ele>870.0</ele><time>2026-04-18T14:42:14.013Z</time></trkpt><trkpt lat="43.7893317" lon="11.5861383"><ele>870.0</ele><time>2026-04-18T14:42:16.012Z</time></trkpt><trkpt lat="43.78943" lon="11.5860967"><ele>870.0</ele><time>2026-04-18T14:42:18.012Z</time></trkpt><trkpt lat="43.7895533" lon="11.58603"><ele>870.0</ele><time>2026-04-18T14:42:20.013Z</time></trkpt><trkpt lat="43.7896917" lon="11.5860183"><ele>874.1666666666666</ele><time>2026-04-18T14:42:22.012Z</time></trkpt><trkpt lat="43.7897817" lon="11.586005"><ele>878.3333333333333</ele><time>2026-04-18T14:42:23.012Z</time></trkpt><trkpt lat="43.7898783" lon="11.58599"><ele>882.5</ele><time>2026-04-18T14:42:24.013Z</time></trkpt><trkpt lat="43.7899583" lon="11.5859717"><ele>886.6666666666666</ele><time>2026-04-18T14:42:25.013Z</time></trkpt><trkpt lat="43.7900383" lon="11.5859617"><ele>890.8333333333333</ele><time>2026-04-18T14:42:26.013Z</time></trkpt><trkpt lat="43.7901117" lon="11.58597"><ele>895.0</ele><time>2026-04-18T14:42:27.012Z</time></trkpt><trkpt lat="43.790175" lon="11.5860283"><ele>896.6</ele><time>2026-04-18T14:42:28.012Z</time></trkpt><trkpt lat="43.7902417" lon="11.5861133"><ele>898.2</ele><time>2026-04-18T14:42:29.012Z</time></trkpt><trkpt lat="43.79032" lon="11.5862033"><ele>899.8</ele><time>2026-04-18T14:42:30.012Z</time></trkpt><trkpt lat="43.7904" lon="11.5862817"><ele>901.4</ele><time>2026-04-18T14:42:31.012Z</time></trkpt><trkpt lat="43.7904883" lon="11.586335"><ele>903.0</ele><time>2026-04-18T14:42:32.013Z</time></trkpt><trkpt lat="43.7905883" lon="11.5863683"><ele>897.4</ele><time>2026-04-18T14:42:33.012Z</time></trkpt><trkpt lat="43.7907067" lon="11.58639"><ele>891.8</ele><time>2026-04-18T14:42:34.011Z</time></trkpt><trkpt lat="43.79082" lon="11.58642"><ele>886.2</ele><time>2026-04-18T14:42:35.012Z</time></trkpt><trkpt lat="43.7909317" lon="11.5864483"><ele>880.6</ele><time>2026-04-18T14:42:36.012Z</time></trkpt><trkpt lat="43.79103" lon="11.5864633"><ele>875.0</ele><time>2026-04-18T14:42:37.012Z</time></trkpt><trkpt lat="43.7911033" lon="11.58647"><ele>875.0</ele><time>2026-04-18T14:42:38.014Z</time></trkpt><trkpt lat="43.7911683" lon="11.5864433"><ele>875.0</ele><time>2026-04-18T14:42:39.012Z</time></trkpt><trkpt lat="43.79123" lon="11.58637"><ele>875.0</ele><time>2026-04-18T14:42:40.012Z</time></trkpt><trkpt lat="43.7912883" lon="11.586295"><ele>875.0</ele><time>2026-04-18T14:42:41.012Z</time></trkpt><trkpt lat="43.7913333" lon="11.5862"><ele>875.0</ele><time>2026-04-18T14:42:42.012Z</time></trkpt><trkpt lat="43.7913733" lon="11.5861283"><ele>875.0</ele><time>2026-04-18T14:42:43.013Z</time></trkpt><trkpt lat="43.7914183" lon="11.586065"><ele>875.0</ele><time>2026-04-18T14:42:45.011Z</time></trkpt><trkpt lat="43.7914767" lon="11.5861167"><ele>875.0</ele><time>2026-04-18T14:43:04.011Z</time></trkpt><trkpt lat="43.79154" lon="11.5862067"><ele>875.0</ele><time>2026-04-18T14:43:06.011Z</time></trkpt><trkpt lat="43.7916067" lon="11.5862683"><ele>875.0</ele><time>2026-04-18T14:43:08.013Z</time></trkpt><trkpt lat="43.7917117" lon="11.5863883"><ele>875.0</ele><time>2026-04-18T14:43:10.011Z</time></trkpt><trkpt lat="43.791785" lon="11.58644"><ele>875.0</ele><time>2026-04-18T14:43:11.011Z</time></trkpt><trkpt lat="43.79187" lon="11.58647"><ele>874.5000000000001</ele><time>2026-04-18T14:43:12.001Z</time></trkpt><trkpt lat="43.7919517" lon="11.586485"><ele>874.0</ele><time>2026-04-18T14:43:13.011Z</time></trkpt><trkpt lat="43.79204" lon="11.5864783"><ele>873.5</ele><time>2026-04-18T14:43:14.013Z</time></trkpt><trkpt lat="43.79213" lon="11.5864617"><ele>873.0</ele><time>2026-04-18T14:43:15.012Z</time></trkpt><trkpt lat="43.79222" lon="11.586445"><ele>872.5000000000001</ele><time>2026-04-18T14:43:16.012Z</time></trkpt><trkpt lat="43.79231" lon="11.5864283"><ele>872.0</ele><time>2026-04-18T14:43:17.012Z</time></trkpt><trkpt lat="43.7923983" lon="11.586415"><ele>872.0000000000001</ele><time>2026-04-18T14:43:18.011Z</time></trkpt><trkpt lat="43.7925117" lon="11.5864383"><ele>872.0</ele><time>2026-04-18T14:43:20.012Z</time></trkpt><trkpt lat="43.7925667" lon="11.5864817"><ele>872.0</ele><time>2026-04-18T14:43:21.013Z</time></trkpt><trkpt lat="43.7926217" lon="11.5865317"><ele>872.0</ele><time>2026-04-18T14:43:22.018Z</time></trkpt><trkpt lat="43.7926867" lon="11.5865817"><ele>872.0000000000001</ele><time>2026-04-18T14:43:23.013Z</time></trkpt><trkpt lat="43.7927567" lon="11.5866217"><ele>872.0</ele><time>2026-04-18T14:43:24.012Z</time></trkpt><trkpt lat="43.79282" lon="11.58664"><ele>869.4000000000001</ele><time>2026-04-18T14:43:25.011Z</time></trkpt><trkpt lat="43.79289" lon="11.5866367"><ele>866.8000000000001</ele><time>2026-04-18T14:43:26.013Z</time></trkpt><trkpt lat="43.7929633" lon="11.5866167"><ele>864.2</ele><time>2026-04-18T14:43:27.011Z</time></trkpt><trkpt lat="43.7930483" lon="11.586575"><ele>861.6</ele><time>2026-04-18T14:43:28.012Z</time></trkpt><trkpt lat="43.793145" lon="11.586505"><ele>859.0</ele><time>2026-04-18T14:43:29.013Z</time></trkpt><trkpt lat="43.79324" lon="11.586435"><ele>859.0</ele><time>2026-04-18T14:43:30.013Z</time></trkpt><trkpt lat="43.793335" lon="11.5863683"><ele>859.0000000000001</ele><time>2026-04-18T14:43:31.011Z</time></trkpt><trkpt lat="43.7934133" lon="11.5863033"><ele>859.0000000000001</ele><time>2026-04-18T14:43:32.014Z</time></trkpt><trkpt lat="43.7934867" lon="11.5862183"><ele>859.0</ele><time>2026-04-18T14:43:33.012Z</time></trkpt><trkpt lat="43.79356" lon="11.58612"><ele>859.0</ele><time>2026-04-18T14:43:34.014Z</time></trkpt><trkpt lat="43.79364" lon="11.5859917"><ele>857.6666666666666</ele><time>2026-04-18T14:43:35.014Z</time></trkpt><trkpt lat="43.7937017" lon="11.5858733"><ele>856.3333333333333</ele><time>2026-04-18T14:43:36.011Z</time></trkpt><trkpt lat="43.7937783" lon="11.585775"><ele>855.0</ele><time>2026-04-18T14:43:37.011Z</time></trkpt><trkpt lat="43.793845" lon="11.58571"><ele>853.6666666666667</ele><time>2026-04-18T14:43:38.013Z</time></trkpt><trkpt lat="43.7939033" lon="11.5856667"><ele>852.3333333333334</ele><time>2026-04-18T14:43:39.01Z</time></trkpt><trkpt lat="43.7939633" lon="11.5856383"><ele>851.0</ele><time>2026-04-18T14:43:40.012Z</time></trkpt><trkpt lat="43.7940833" lon="11.58557"><ele>851.0000000000001</ele><time>2026-04-18T14:43:42.011Z</time></trkpt><trkpt lat="43.79413" lon="11.5854983"><ele>851.0</ele><time>2026-04-18T14:43:43.014Z</time></trkpt><trkpt lat="43.7941867" lon="11.5854183"><ele>851.0</ele><time>2026-04-18T14:43:44.013Z</time></trkpt><trkpt lat="43.7942517" lon="11.5853317"><ele>851.0</ele><time>2026-04-18T14:43:45.01Z</time></trkpt><trkpt lat="43.794335" lon="11.58525"><ele>851.0000000000001</ele><time>2026-04-18T14:43:46.011Z</time></trkpt><trkpt lat="43.7944267" lon="11.585175"><ele>851.0</ele><time>2026-04-18T14:43:47.011Z</time></trkpt><trkpt lat="43.79452" lon="11.585105"><ele>852.3333333333334</ele><time>2026-04-18T14:43:48.01Z</time></trkpt><trkpt lat="43.79461" lon="11.58504"><ele>853.6666666666667</ele><time>2026-04-18T14:43:49.012Z</time></trkpt><trkpt lat="43.7946867" lon="11.5849917"><ele>855.0</ele><time>2026-04-18T14:43:50.005Z</time></trkpt><trkpt lat="43.7947483" lon="11.5849517"><ele>856.3333333333333</ele><time>2026-04-18T14:43:51.011Z</time></trkpt><trkpt lat="43.79482" lon="11.5849183"><ele>857.6666666666666</ele><time>2026-04-18T14:43:53.013Z</time></trkpt><trkpt lat="43.7948883" lon="11.5848867"><ele>859.0</ele><time>2026-04-18T14:43:55.012Z</time></trkpt><trkpt lat="43.7949983" lon="11.5848333"><ele>858.9999999999999</ele><time>2026-04-18T14:43:57.01Z</time></trkpt><trkpt lat="43.7950717" lon="11.584785"><ele>859.0</ele><time>2026-04-18T14:43:58.013Z</time></trkpt><trkpt lat="43.7951417" lon="11.5847417"><ele>859.0</ele><time>2026-04-18T14:43:59.014Z</time></trkpt><trkpt lat="43.795205" lon="11.5846883"><ele>859.0</ele><time>2026-04-18T14:44:00.011Z</time></trkpt><trkpt lat="43.7952517" lon="11.5846183"><ele>858.9999999999999</ele><time>2026-04-18T14:44:01.015Z</time></trkpt><trkpt lat="43.7953017" lon="11.5844833"><ele>859.0</ele><time>2026-04-18T14:44:03.011Z</time></trkpt><trkpt lat="43.7953467" lon="11.5843517"><ele>856.4999999999999</ele><time>2026-04-18T14:44:05.013Z</time></trkpt><trkpt lat="43.795385" lon="11.584275"><ele>854.0</ele><time>2026-04-18T14:44:06.013Z</time></trkpt><trkpt lat="43.7954417" lon="11.5842067"><ele>851.5</ele><time>2026-04-18T14:44:07.013Z</time></trkpt><trkpt lat="43.7955083" lon="11.58415"><ele>849.0</ele><time>2026-04-18T14:44:08.015Z</time></trkpt><trkpt lat="43.7955717" lon="11.58409"><ele>846.4999999999999</ele><time>2026-04-18T14:44:09.013Z</time></trkpt><trkpt lat="43.79562" lon="11.5840067"><ele>844.0</ele><time>2026-04-18T14:44:10.012Z</time></trkpt><trkpt lat="43.7956483" lon="11.5839"><ele>844.0</ele><time>2026-04-18T14:44:11.014Z</time></trkpt><trkpt lat="43.7956883" lon="11.58378"><ele>844.0</ele><time>2026-04-18T14:44:12.011Z</time></trkpt><trkpt lat="43.7957517" lon="11.5836533"><ele>844.0</ele><time>2026-04-18T14:44:13.013Z</time></trkpt><trkpt lat="43.795815" lon="11.5835283"><ele>844.0</ele><time>2026-04-18T14:44:14.013Z</time></trkpt><trkpt lat="43.7958783" lon="11.5834033"><ele>844.0</ele><time>2026-04-18T14:44:15.011Z</time></trkpt><trkpt lat="43.7959517" lon="11.5832967"><ele>842.0</ele><time>2026-04-18T14:44:16.013Z</time></trkpt><trkpt lat="43.796045" lon="11.5832017"><ele>840.0</ele><time>2026-04-18T14:44:17.013Z</time></trkpt><trkpt lat="43.7961517" lon="11.5831217"><ele>838.0</ele><time>2026-04-18T14:44:18.014Z</time></trkpt><trkpt lat="43.7962667" lon="11.5830683"><ele>836.0</ele><time>2026-04-18T14:44:19.013Z</time></trkpt><trkpt lat="43.79637" lon="11.58303"><ele>836.0000000000001</ele><time>2026-04-18T14:44:20.013Z</time></trkpt><trkpt lat="43.79645" lon="11.5829817"><ele>836.0</ele><time>2026-04-18T14:44:21.013Z</time></trkpt><trkpt lat="43.7965133" lon="11.58293"><ele>836.0</ele><time>2026-04-18T14:44:22.011Z</time></trkpt><trkpt lat="43.7965283" lon="11.5827833"><ele>836.0</ele><time>2026-04-18T14:44:24.012Z</time></trkpt><trkpt lat="43.79651" lon="11.5826983"><ele>836.0000000000001</ele><time>2026-04-18T14:44:25.012Z</time></trkpt><trkpt lat="43.796505" lon="11.582605"><ele>836.0</ele><time>2026-04-18T14:44:26.013Z</time></trkpt><trkpt lat="43.7965133" lon="11.5825183"><ele>838.0</ele><time>2026-04-18T14:44:27.01Z</time></trkpt><trkpt lat="43.796535" lon="11.5824267"><ele>840.0</ele><time>2026-04-18T14:44:28.012Z</time></trkpt><trkpt lat="43.7965717" lon="11.582345"><ele>842.0</ele><time>2026-04-18T14:44:29.014Z</time></trkpt><trkpt lat="43.7966267" lon="11.58229"><ele>844.0</ele><time>2026-04-18T14:44:30.012Z</time></trkpt><trkpt lat="43.7967417" lon="11.5822517"><ele>846.0</ele><time>2026-04-18T14:44:31.015Z</time></trkpt><trkpt lat="43.7968933" lon="11.5822233"><ele>846.0</ele><time>2026-04-18T14:44:32.015Z</time></trkpt><trkpt lat="43.797" lon="11.5822017"><ele>846.0</ele><time>2026-04-18T14:44:33.012Z</time></trkpt><trkpt lat="43.7971083" lon="11.58221"><ele>846.0</ele><time>2026-04-18T14:44:34.013Z</time></trkpt><trkpt lat="43.7972033" lon="11.5822017"><ele>846.0</ele><time>2026-04-18T14:44:35.012Z</time></trkpt><trkpt lat="43.79728" lon="11.58218"><ele>846.0</ele><time>2026-04-18T14:44:36.012Z</time></trkpt><trkpt lat="43.797355" lon="11.5820667"><ele>849.0</ele><time>2026-04-18T14:44:38.016Z</time></trkpt><trkpt lat="43.7973533" lon="11.5819467"><ele>852.0</ele><time>2026-04-18T14:44:39.012Z</time></trkpt><trkpt lat="43.7973417" lon="11.58178"><ele>855.0</ele><time>2026-04-18T14:44:40.012Z</time></trkpt><trkpt lat="43.7973517" lon="11.5816083"><ele>858.0</ele><time>2026-04-18T14:44:41.013Z</time></trkpt><trkpt lat="43.79736" lon="11.5814383"><ele>858.0</ele><time>2026-04-18T14:44:42.013Z</time></trkpt><trkpt lat="43.7973567" lon="11.58127"><ele>858.0</ele><time>2026-04-18T14:44:43.014Z</time></trkpt><trkpt lat="43.7973717" lon="11.58111"><ele>858.0</ele><time>2026-04-18T14:44:44.015Z</time></trkpt><trkpt lat="43.7974017" lon="11.5809567"><ele>858.0</ele><time>2026-04-18T14:44:45.011Z</time></trkpt><trkpt lat="43.7974233" lon="11.5808217"><ele>858.5</ele><time>2026-04-18T14:44:46.014Z</time></trkpt><trkpt lat="43.797415" lon="11.5807117"><ele>859.0</ele><time>2026-04-18T14:44:47.012Z</time></trkpt><trkpt lat="43.7973917" lon="11.58061"><ele>859.5</ele><time>2026-04-18T14:44:48.012Z</time></trkpt><trkpt lat="43.7973633" lon="11.5805017"><ele>860.0</ele><time>2026-04-18T14:44:49.012Z</time></trkpt><trkpt lat="43.7973483" lon="11.5804"><ele>860.5</ele><time>2026-04-18T14:44:50.013Z</time></trkpt><trkpt lat="43.7973783" lon="11.58032"><ele>861.0</ele><time>2026-04-18T14:44:51.011Z</time></trkpt><trkpt lat="43.79744" lon="11.58024"><ele>859.75</ele><time>2026-04-18T14:44:52.013Z</time></trkpt><trkpt lat="43.797525" lon="11.5801533"><ele>858.5</ele><time>2026-04-18T14:44:53.014Z</time></trkpt><trkpt lat="43.7976283" lon="11.580055"><ele>857.25</ele><time>2026-04-18T14:44:54.012Z</time></trkpt><trkpt lat="43.7977233" lon="11.5799633"><ele>856.0</ele><time>2026-04-18T14:44:55.012Z</time></trkpt><trkpt lat="43.7978183" lon="11.579855"><ele>856.0</ele><time>2026-04-18T14:44:56.014Z</time></trkpt><trkpt lat="43.7979017" lon="11.579725"><ele>856.0</ele><time>2026-04-18T14:44:57.013Z</time></trkpt><trkpt lat="43.797985" lon="11.579585"><ele>856.0</ele><time>2026-04-18T14:44:58.013Z</time></trkpt><trkpt lat="43.7980667" lon="11.5794517"><ele>856.0</ele><time>2026-04-18T14:44:59.013Z</time></trkpt><trkpt lat="43.7981467" lon="11.57934"><ele>858.1999999999999</ele><time>2026-04-18T14:45:00.012Z</time></trkpt><trkpt lat="43.7982267" lon="11.57923"><ele>860.3999999999999</ele><time>2026-04-18T14:45:01.013Z</time></trkpt><trkpt lat="43.7983" lon="11.57912"><ele>862.6</ele><time>2026-04-18T14:45:02.013Z</time></trkpt><trkpt lat="43.79836" lon="11.5790217"><ele>864.8</ele><time>2026-04-18T14:45:03.011Z</time></trkpt><trkpt lat="43.7984033" lon="11.5789317"><ele>867.0</ele><time>2026-04-18T14:45:04.013Z</time></trkpt><trkpt lat="43.7984267" lon="11.5787933"><ele>867.0</ele><time>2026-04-18T14:45:06.013Z</time></trkpt><trkpt lat="43.7983883" lon="11.57872"><ele>867.0</ele><time>2026-04-18T14:45:07.013Z</time></trkpt><trkpt lat="43.798355" lon="11.5786217"><ele>867.0</ele><time>2026-04-18T14:45:08.013Z</time></trkpt><trkpt lat="43.7983133" lon="11.57852"><ele>867.0</ele><time>2026-04-18T14:45:09.01Z</time></trkpt><trkpt lat="43.7982667" lon="11.5784083"><ele>867.0</ele><time>2026-04-18T14:45:10.016Z</time></trkpt><trkpt lat="43.79823" lon="11.5782683"><ele>867.0</ele><time>2026-04-18T14:45:11.012Z</time></trkpt><trkpt lat="43.7981933" lon="11.5781317"><ele>868.8</ele><time>2026-04-18T14:45:12.012Z</time></trkpt><trkpt lat="43.7981667" lon="11.5780117"><ele>870.6</ele><time>2026-04-18T14:45:13.012Z</time></trkpt><trkpt lat="43.79816" lon="11.5778833"><ele>872.3999999999999</ele><time>2026-04-18T14:45:14.014Z</time></trkpt><trkpt lat="43.7981733" lon="11.5777667"><ele>874.1999999999999</ele><time>2026-04-18T14:45:15.012Z</time></trkpt><trkpt lat="43.7982317" lon="11.5776667"><ele>876.0</ele><time>2026-04-18T14:45:16.012Z</time></trkpt><trkpt lat="43.7983067" lon="11.5775517"><ele>876.0</ele><time>2026-04-18T14:45:17.016Z</time></trkpt><trkpt lat="43.7983733" lon="11.577435"><ele>876.0</ele><time>2026-04-18T14:45:18.013Z</time></trkpt><trkpt lat="43.7984367" lon="11.5772883"><ele>876.0</ele><time>2026-04-18T14:45:19.014Z</time></trkpt><trkpt lat="43.7984967" lon="11.57714"><ele>876.0</ele><time>2026-04-18T14:45:20.014Z</time></trkpt><trkpt lat="43.7985633" lon="11.57703"><ele>878.0</ele><time>2026-04-18T14:45:21.012Z</time></trkpt><trkpt lat="43.7986117" lon="11.5769417"><ele>880.0</ele><time>2026-04-18T14:45:22.012Z</time></trkpt><trkpt lat="43.79866" lon="11.5768667"><ele>882.0</ele><time>2026-04-18T14:45:23.014Z</time></trkpt><trkpt lat="43.798715" lon="11.5768033"><ele>884.0</ele><time>2026-04-18T14:45:24.013Z</time></trkpt><trkpt lat="43.798785" lon="11.5767433"><ele>886.0</ele><time>2026-04-18T14:45:25.015Z</time></trkpt><trkpt lat="43.7988833" lon="11.5766833"><ele>888.0</ele><time>2026-04-18T14:45:26.015Z</time></trkpt><trkpt lat="43.7989817" lon="11.5765983"><ele>888.0</ele><time>2026-04-18T14:45:27.012Z</time></trkpt><trkpt lat="43.7990733" lon="11.5764833"><ele>888.0</ele><time>2026-04-18T14:45:28.012Z</time></trkpt><trkpt lat="43.7991467" lon="11.576375"><ele>888.0</ele><time>2026-04-18T14:45:29.016Z</time></trkpt><trkpt lat="43.7991933" lon="11.5762917"><ele>888.0</ele><time>2026-04-18T14:45:30.012Z</time></trkpt><trkpt lat="43.7992217" lon="11.57621"><ele>888.0</ele><time>2026-04-18T14:45:31.013Z</time></trkpt><trkpt lat="43.7992417" lon="11.5760617"><ele>888.0</ele><time>2026-04-18T14:45:33.012Z</time></trkpt><trkpt lat="43.79922" lon="11.5759733"><ele>888.0</ele><time>2026-04-18T14:45:35.015Z</time></trkpt><trkpt lat="43.7991383" lon="11.575995"><ele>888.0</ele><time>2026-04-18T14:45:37.013Z</time></trkpt><trkpt lat="43.79907" lon="11.57602"><ele>888.0</ele><time>2026-04-18T14:45:39.011Z</time></trkpt><trkpt lat="43.7990067" lon="11.576035"><ele>888.0</ele><time>2026-04-18T14:45:49.003Z</time></trkpt><trkpt lat="43.7991083" lon="11.5760417"><ele>888.0</ele><time>2026-04-18T14:45:57.011Z</time></trkpt><trkpt lat="43.7992417" lon="11.57605"><ele>888.4</ele><time>2026-04-18T14:45:59.011Z</time></trkpt><trkpt lat="43.7993933" lon="11.5761117"><ele>888.8</ele><time>2026-04-18T14:46:01.011Z</time></trkpt><trkpt lat="43.799485" lon="11.576155"><ele>889.2</ele><time>2026-04-18T14:46:02.014Z</time></trkpt><trkpt lat="43.7995767" lon="11.5762133"><ele>889.6</ele><time>2026-04-18T14:46:03.01Z</time></trkpt><trkpt lat="43.7996583" lon="11.5762683"><ele>890.0</ele><time>2026-04-18T14:46:04.011Z</time></trkpt><trkpt lat="43.7997333" lon="11.5763117"><ele>890.0</ele><time>2026-04-18T14:46:05.012Z</time></trkpt><trkpt lat="43.7998467" lon="11.576405"><ele>890.0</ele><time>2026-04-18T14:46:06.012Z</time></trkpt><trkpt lat="43.799995" lon="11.576515"><ele>890.0</ele><time>2026-04-18T14:46:07.013Z</time></trkpt><trkpt lat="43.8000933" lon="11.5765683"><ele>890.0</ele><time>2026-04-18T14:46:08.013Z</time></trkpt><trkpt lat="43.8001983" lon="11.5766217"><ele>888.4</ele><time>2026-04-18T14:46:09.01Z</time></trkpt><trkpt lat="43.8002933" lon="11.5766733"><ele>886.8</ele><time>2026-04-18T14:46:10.012Z</time></trkpt><trkpt lat="43.800385" lon="11.5767283"><ele>885.2</ele><time>2026-04-18T14:46:11.013Z</time></trkpt><trkpt lat="43.8004683" lon="11.57677"><ele>883.6</ele><time>2026-04-18T14:46:12.011Z</time></trkpt><trkpt lat="43.8005517" lon="11.57681"><ele>882.0</ele><time>2026-04-18T14:46:13.012Z</time></trkpt><trkpt lat="43.8006467" lon="11.57681"><ele>882.0</ele><time>2026-04-18T14:46:14.013Z</time></trkpt><trkpt lat="43.8007433" lon="11.5767883"><ele>882.0</ele><time>2026-04-18T14:46:15.002Z</time></trkpt><trkpt lat="43.8008283" lon="11.5767667"><ele>882.0</ele><time>2026-04-18T14:46:16.012Z</time></trkpt><trkpt lat="43.8009067" lon="11.57674"><ele>882.0</ele><time>2026-04-18T14:46:17.012Z</time></trkpt><trkpt lat="43.801" lon="11.57671"><ele>882.0</ele><time>2026-04-18T14:46:19.012Z</time></trkpt><trkpt lat="43.8011017" lon="11.5767383"><ele>880.8333333333334</ele><time>2026-04-18T14:46:21.012Z</time></trkpt><trkpt lat="43.801175" lon="11.5767667"><ele>879.6666666666667</ele><time>2026-04-18T14:46:22.012Z</time></trkpt><trkpt lat="43.801255" lon="11.576795"><ele>878.5</ele><time>2026-04-18T14:46:23.014Z</time></trkpt><trkpt lat="43.801345" lon="11.5768233"><ele>877.3333333333334</ele><time>2026-04-18T14:46:24.012Z</time></trkpt><trkpt lat="43.8014317" lon="11.5768433"><ele>876.1666666666667</ele><time>2026-04-18T14:46:25.013Z</time></trkpt><trkpt lat="43.8015133" lon="11.57686"><ele>875.0</ele><time>2026-04-18T14:46:26.019Z</time></trkpt><trkpt lat="43.8015783" lon="11.57689"><ele>875.0</ele><time>2026-04-18T14:46:27.012Z</time></trkpt><trkpt lat="43.801655" lon="11.5768817"><ele>875.0</ele><time>2026-04-18T14:46:28.012Z</time></trkpt><trkpt lat="43.8017333" lon="11.5768617"><ele>875.0</ele><time>2026-04-18T14:46:29.011Z</time></trkpt><trkpt lat="43.8018267" lon="11.57684"><ele>875.0</ele><time>2026-04-18T14:46:30.014Z</time></trkpt><trkpt lat="43.8019317" lon="11.5768233"><ele>875.0</ele><time>2026-04-18T14:46:31.012Z</time></trkpt><trkpt lat="43.802035" lon="11.5768133"><ele>871.8333333333334</ele><time>2026-04-18T14:46:32.013Z</time></trkpt><trkpt lat="43.8021417" lon="11.576815"><ele>868.6666666666667</ele><time>2026-04-18T14:46:33.012Z</time></trkpt><trkpt lat="43.8022383" lon="11.5768333"><ele>865.5</ele><time>2026-04-18T14:46:34.01Z</time></trkpt><trkpt lat="43.8023133" lon="11.576875"><ele>862.3333333333333</ele><time>2026-04-18T14:46:35.011Z</time></trkpt><trkpt lat="43.8023817" lon="11.5769333"><ele>859.1666666666666</ele><time>2026-04-18T14:46:36.011Z</time></trkpt><trkpt lat="43.802445" lon="11.577005"><ele>856.0</ele><time>2026-04-18T14:46:37.012Z</time></trkpt><trkpt lat="43.8025067" lon="11.5770783"><ele>854.6666666666666</ele><time>2026-04-18T14:46:38.014Z</time></trkpt><trkpt lat="43.8025717" lon="11.57712"><ele>853.3333333333333</ele><time>2026-04-18T14:46:39.011Z</time></trkpt><trkpt lat="43.802645" lon="11.5771367"><ele>852.0</ele><time>2026-04-18T14:46:40.012Z</time></trkpt><trkpt lat="43.8027183" lon="11.5771317"><ele>850.6666666666667</ele><time>2026-04-18T14:46:41.011Z</time></trkpt><trkpt lat="43.8027917" lon="11.577085"><ele>849.3333333333334</ele><time>2026-04-18T14:46:42.011Z</time></trkpt><trkpt lat="43.8028683" lon="11.577"><ele>848.0</ele><time>2026-04-18T14:46:43.011Z</time></trkpt><trkpt lat="43.8029333" lon="11.5768983"><ele>848.0</ele><time>2026-04-18T14:46:44.014Z</time></trkpt><trkpt lat="43.8029933" lon="11.5767967"><ele>848.0</ele><time>2026-04-18T14:46:45.012Z</time></trkpt><trkpt lat="43.8030483" lon="11.5766983"><ele>848.0</ele><time>2026-04-18T14:46:46.012Z</time></trkpt><trkpt lat="43.803115" lon="11.5766067"><ele>848.0</ele><time>2026-04-18T14:46:47.013Z</time></trkpt><trkpt lat="43.803185" lon="11.5765333"><ele>848.0</ele><time>2026-04-18T14:46:48.011Z</time></trkpt><trkpt lat="43.80326" lon="11.5764733"><ele>848.0000000000001</ele><time>2026-04-18T14:46:49.012Z</time></trkpt><trkpt lat="43.80334" lon="11.576425"><ele>848.0</ele><time>2026-04-18T14:46:50.014Z</time></trkpt><trkpt lat="43.8034167" lon="11.5763667"><ele>848.0</ele><time>2026-04-18T14:46:51.011Z</time></trkpt><trkpt lat="43.8034883" lon="11.5762917"><ele>848.0</ele><time>2026-04-18T14:46:52.013Z</time></trkpt><trkpt lat="43.80355" lon="11.576235"><ele>848.0000000000001</ele><time>2026-04-18T14:46:53.012Z</time></trkpt><trkpt lat="43.803645" lon="11.5762017"><ele>848.0</ele><time>2026-04-18T14:46:55.011Z</time></trkpt><trkpt lat="43.8037433" lon="11.57631"><ele>845.1666666666667</ele><time>2026-04-18T14:46:57.012Z</time></trkpt><trkpt lat="43.8037933" lon="11.5764033"><ele>842.3333333333334</ele><time>2026-04-18T14:46:58.013Z</time></trkpt><trkpt lat="43.8038433" lon="11.57651"><ele>839.5</ele><time>2026-04-18T14:46:59.012Z</time></trkpt><trkpt lat="43.8038917" lon="11.5766117"><ele>836.6666666666667</ele><time>2026-04-18T14:47:00.012Z</time></trkpt><trkpt lat="43.803945" lon="11.576695"><ele>833.8333333333334</ele><time>2026-04-18T14:47:01.013Z</time></trkpt><trkpt lat="43.8039883" lon="11.57676"><ele>831.0</ele><time>2026-04-18T14:47:02.014Z</time></trkpt><trkpt lat="43.8040433" lon="11.576875"><ele>831.0</ele><time>2026-04-18T14:47:04.011Z</time></trkpt><trkpt lat="43.8040917" lon="11.5769733"><ele>831.0</ele><time>2026-04-18T14:47:06.01Z</time></trkpt><trkpt lat="43.8041667" lon="11.5769317"><ele>831.0</ele><time>2026-04-18T14:48:17.014Z</time></trkpt><trkpt lat="43.8042733" lon="11.5769117"><ele>831.0</ele><time>2026-04-18T14:48:19.015Z</time></trkpt><trkpt lat="43.80437" lon="11.5768367"><ele>831.0</ele><time>2026-04-18T14:48:21.011Z</time></trkpt><trkpt lat="43.8044483" lon="11.5767183"><ele>836.1999999999999</ele><time>2026-04-18T14:48:23.014Z</time></trkpt><trkpt lat="43.8045217" lon="11.576585"><ele>841.4</ele><time>2026-04-18T14:48:25.013Z</time></trkpt><trkpt lat="43.8045667" lon="11.5764933"><ele>846.6</ele><time>2026-04-18T14:48:26.013Z</time></trkpt><trkpt lat="43.8046433" lon="11.5764083"><ele>851.8</ele><time>2026-04-18T14:48:27.011Z</time></trkpt><trkpt lat="43.804695" lon="11.5762933"><ele>857.0</ele><time>2026-04-18T14:48:28.012Z</time></trkpt><trkpt lat="43.8047667" lon="11.57623"><ele>854.6</ele><time>2026-04-18T14:48:29.014Z</time></trkpt><trkpt lat="43.8048233" lon="11.57613"><ele>852.2</ele><time>2026-04-18T14:48:30.012Z</time></trkpt><trkpt lat="43.8048883" lon="11.57602"><ele>849.8</ele><time>2026-04-18T14:48:31.012Z</time></trkpt><trkpt lat="43.804955" lon="11.5759133"><ele>847.4</ele><time>2026-04-18T14:48:32.012Z</time></trkpt><trkpt lat="43.8050267" lon="11.5758617"><ele>845.0</ele><time>2026-04-18T14:48:33.01Z</time></trkpt><trkpt lat="43.80509" lon="11.5757433"><ele>845.0000000000001</ele><time>2026-04-18T14:48:35.011Z</time></trkpt><trkpt lat="43.8051367" lon="11.5755933"><ele>845.0</ele><time>2026-04-18T14:48:37.011Z</time></trkpt><trkpt lat="43.8051617" lon="11.5755017"><ele>845.0</ele><time>2026-04-18T14:48:38.012Z</time></trkpt><trkpt lat="43.8052033" lon="11.5754033"><ele>845.0</ele><time>2026-04-18T14:48:39.012Z</time></trkpt><trkpt lat="43.8052433" lon="11.57531"><ele>845.0000000000001</ele><time>2026-04-18T14:48:40.01Z</time></trkpt><trkpt lat="43.80528" lon="11.57521"><ele>845.0</ele><time>2026-04-18T14:48:41.012Z</time></trkpt><trkpt lat="43.8053067" lon="11.5751033"><ele>849.0000000000001</ele><time>2026-04-18T14:48:42.011Z</time></trkpt><trkpt lat="43.8053233" lon="11.57498"><ele>853.0</ele><time>2026-04-18T14:48:43.012Z</time></trkpt><trkpt lat="43.8053433" lon="11.5748717"><ele>857.0</ele><time>2026-04-18T14:48:44.013Z</time></trkpt><trkpt lat="43.8053733" lon="11.57479"><ele>861.0</ele><time>2026-04-18T14:48:45.012Z</time></trkpt><trkpt lat="43.80542" lon="11.5747233"><ele>865.0000000000001</ele><time>2026-04-18T14:48:46.012Z</time></trkpt><trkpt lat="43.8054783" lon="11.5746533"><ele>869.0</ele><time>2026-04-18T14:48:47.011Z</time></trkpt><trkpt lat="43.80554" lon="11.5745683"><ele>868.3333333333334</ele><time>2026-04-18T14:48:48.01Z</time></trkpt><trkpt lat="43.8055983" lon="11.5744917"><ele>867.6666666666667</ele><time>2026-04-18T14:48:49.012Z</time></trkpt><trkpt lat="43.8056683" lon="11.5744167"><ele>867.0</ele><time>2026-04-18T14:48:50.014Z</time></trkpt><trkpt lat="43.805745" lon="11.574335"><ele>866.3333333333333</ele><time>2026-04-18T14:48:51.012Z</time></trkpt><trkpt lat="43.8058283" lon="11.57426"><ele>865.6666666666666</ele><time>2026-04-18T14:48:52.011Z</time></trkpt><trkpt lat="43.8059017" lon="11.57421"><ele>865.0</ele><time>2026-04-18T14:48:53.012Z</time></trkpt><trkpt lat="43.80597" lon="11.5741683"><ele>864.8</ele><time>2026-04-18T14:48:54.011Z</time></trkpt><trkpt lat="43.806025" lon="11.574115"><ele>864.6</ele><time>2026-04-18T14:48:55.013Z</time></trkpt><trkpt lat="43.8060683" lon="11.574025"><ele>864.4000000000001</ele><time>2026-04-18T14:48:56.013Z</time></trkpt><trkpt lat="43.806115" lon="11.5739083"><ele>864.2</ele><time>2026-04-18T14:48:57.01Z</time></trkpt><trkpt lat="43.8061733" lon="11.573775"><ele>864.0</ele><time>2026-04-18T14:48:58.012Z</time></trkpt><trkpt lat="43.80623" lon="11.5736333"><ele>866.2</ele><time>2026-04-18T14:48:59.012Z</time></trkpt><trkpt lat="43.8062867" lon="11.5735017"><ele>868.4000000000001</ele><time>2026-04-18T14:49:00.011Z</time></trkpt><trkpt lat="43.80635" lon="11.5733867"><ele>870.6</ele><time>2026-04-18T14:49:01.013Z</time></trkpt><trkpt lat="43.8064133" lon="11.5733083"><ele>872.8</ele><time>2026-04-18T14:49:02.015Z</time></trkpt><trkpt lat="43.8064883" lon="11.5732433"><ele>875.0</ele><time>2026-04-18T14:49:03.01Z</time></trkpt><trkpt lat="43.8065767" lon="11.5731883"><ele>875.0</ele><time>2026-04-18T14:49:04.013Z</time></trkpt><trkpt lat="43.80666" lon="11.57315"><ele>875.0</ele><time>2026-04-18T14:49:05.011Z</time></trkpt><trkpt lat="43.80675" lon="11.5731133"><ele>875.0</ele><time>2026-04-18T14:49:06.011Z</time></trkpt><trkpt lat="43.8068433" lon="11.5730833"><ele>875.0</ele><time>2026-04-18T14:49:07.012Z</time></trkpt><trkpt lat="43.806935" lon="11.5730517"><ele>875.0</ele><time>2026-04-18T14:49:08.014Z</time></trkpt><trkpt lat="43.807015" lon="11.5730183"><ele>876.0</ele><time>2026-04-18T14:49:09.01Z</time></trkpt><trkpt lat="43.8071" lon="11.5729717"><ele>877.0</ele><time>2026-04-18T14:49:10.012Z</time></trkpt><trkpt lat="43.8071867" lon="11.572905"><ele>878.0</ele><time>2026-04-18T14:49:11.012Z</time></trkpt><trkpt lat="43.8072667" lon="11.572825"><ele>879.0</ele><time>2026-04-18T14:49:12.011Z</time></trkpt><trkpt lat="43.8073367" lon="11.5727433"><ele>880.0</ele><time>2026-04-18T14:49:13.013Z</time></trkpt><trkpt lat="43.807395" lon="11.5726567"><ele>879.9999999999999</ele><time>2026-04-18T14:49:14.013Z</time></trkpt><trkpt lat="43.8074317" lon="11.5725567"><ele>880.0</ele><time>2026-04-18T14:49:15.012Z</time></trkpt><trkpt lat="43.807455" lon="11.572425"><ele>880.0</ele><time>2026-04-18T14:49:16.012Z</time></trkpt><trkpt lat="43.807485" lon="11.5723083"><ele>880.0</ele><time>2026-04-18T14:49:17.012Z</time></trkpt><trkpt lat="43.8075183" lon="11.5721983"><ele>879.9999999999999</ele><time>2026-04-18T14:49:18.012Z</time></trkpt><trkpt lat="43.80755" lon="11.5720783"><ele>880.0</ele><time>2026-04-18T14:49:19.012Z</time></trkpt><trkpt lat="43.8075817" lon="11.5719667"><ele>879.7142857142857</ele><time>2026-04-18T14:49:20.013Z</time></trkpt><trkpt lat="43.807615" lon="11.5718583"><ele>879.4285714285714</ele><time>2026-04-18T14:49:21.012Z</time></trkpt><trkpt lat="43.807645" lon="11.5717683"><ele>879.1428571428571</ele><time>2026-04-18T14:49:22.009Z</time></trkpt><trkpt lat="43.8076833" lon="11.5716717"><ele>878.8571428571429</ele><time>2026-04-18T14:49:23.013Z</time></trkpt><trkpt lat="43.80774" lon="11.571625"><ele>878.5714285714286</ele><time>2026-04-18T14:49:24.012Z</time></trkpt><trkpt lat="43.807805" lon="11.5715867"><ele>878.2857142857142</ele><time>2026-04-18T14:49:25.011Z</time></trkpt><trkpt lat="43.807875" lon="11.5715583"><ele>878.0</ele><time>2026-04-18T14:49:26.012Z</time></trkpt><trkpt lat="43.8079583" lon="11.57153"><ele>876.1666666666667</ele><time>2026-04-18T14:49:27.012Z</time></trkpt><trkpt lat="43.808045" lon="11.5715"><ele>874.3333333333334</ele><time>2026-04-18T14:49:28.019Z</time></trkpt><trkpt lat="43.8081217" lon="11.5714583"><ele>872.5</ele><time>2026-04-18T14:49:29.011Z</time></trkpt><trkpt lat="43.808205" lon="11.571425"><ele>870.6666666666667</ele><time>2026-04-18T14:49:30.01Z</time></trkpt><trkpt lat="43.8082917" lon="11.5714017"><ele>868.8333333333334</ele><time>2026-04-18T14:49:31.013Z</time></trkpt><trkpt lat="43.80839" lon="11.5713783"><ele>867.0</ele><time>2026-04-18T14:49:32.015Z</time></trkpt><trkpt lat="43.8084867" lon="11.5713283"><ele>864.4000000000001</ele><time>2026-04-18T14:49:33.011Z</time></trkpt><trkpt lat="43.8085783" lon="11.57126"><ele>861.8000000000001</ele><time>2026-04-18T14:49:34.012Z</time></trkpt><trkpt lat="43.8086567" lon="11.571205"><ele>859.2</ele><time>2026-04-18T14:49:35.014Z</time></trkpt><trkpt lat="43.8087483" lon="11.5711383"><ele>856.6</ele><time>2026-04-18T14:49:36.013Z</time></trkpt><trkpt lat="43.8088633" lon="11.5710533"><ele>854.0</ele><time>2026-04-18T14:49:37.012Z</time></trkpt><trkpt lat="43.8089633" lon="11.5709633"><ele>854.0</ele><time>2026-04-18T14:49:38.013Z</time></trkpt><trkpt lat="43.8090517" lon="11.5708633"><ele>854.0</ele><time>2026-04-18T14:49:39.011Z</time></trkpt><trkpt lat="43.80913" lon="11.57076"><ele>854.0</ele><time>2026-04-18T14:49:40.012Z</time></trkpt><trkpt lat="43.8092167" lon="11.57065"><ele>854.0</ele><time>2026-04-18T14:49:41.012Z</time></trkpt><trkpt lat="43.8093067" lon="11.5705417"><ele>853.6</ele><time>2026-04-18T14:49:42.011Z</time></trkpt><trkpt lat="43.8094033" lon="11.57044"><ele>853.2</ele><time>2026-04-18T14:49:43.014Z</time></trkpt><trkpt lat="43.8094967" lon="11.5703667"><ele>852.8000000000001</ele><time>2026-04-18T14:49:44.014Z</time></trkpt><trkpt lat="43.8095883" lon="11.5703017"><ele>852.4000000000001</ele><time>2026-04-18T14:49:45.012Z</time></trkpt><trkpt lat="43.80969" lon="11.5702533"><ele>852.0</ele><time>2026-04-18T14:49:46.014Z</time></trkpt><trkpt lat="43.8098067" lon="11.5702183"><ele>852.0</ele><time>2026-04-18T14:49:47.014Z</time></trkpt><trkpt lat="43.80993" lon="11.5702017"><ele>852.0</ele><time>2026-04-18T14:49:48.012Z</time></trkpt><trkpt lat="43.8100467" lon="11.5701867"><ele>852.0</ele><time>2026-04-18T14:49:49.013Z</time></trkpt><trkpt lat="43.8101483" lon="11.570185"><ele>852.0</ele><time>2026-04-18T14:49:50.013Z</time></trkpt><trkpt lat="43.8102433" lon="11.5701883"><ele>852.0</ele><time>2026-04-18T14:49:51.012Z</time></trkpt><trkpt lat="43.8103417" lon="11.570175"><ele>852.0</ele><time>2026-04-18T14:49:52.011Z</time></trkpt><trkpt lat="43.8104483" lon="11.5701467"><ele>852.0</ele><time>2026-04-18T14:49:53.011Z</time></trkpt><trkpt lat="43.8105567" lon="11.570115"><ele>852.0</ele><time>2026-04-18T14:49:54.012Z</time></trkpt><trkpt lat="43.8106583" lon="11.57008"><ele>852.0</ele><time>2026-04-18T14:49:55.012Z</time></trkpt><trkpt lat="43.8107617" lon="11.5700217"><ele>852.0</ele><time>2026-04-18T14:49:56.015Z</time></trkpt><trkpt lat="43.8108483" lon="11.569955"><ele>852.0</ele><time>2026-04-18T14:49:57.011Z</time></trkpt><trkpt lat="43.8109167" lon="11.569865"><ele>852.0</ele><time>2026-04-18T14:49:58.011Z</time></trkpt><trkpt lat="43.81098" lon="11.56976"><ele>852.0</ele><time>2026-04-18T14:49:59.012Z</time></trkpt><trkpt lat="43.8110433" lon="11.5696517"><ele>852.0</ele><time>2026-04-18T14:50:00.011Z</time></trkpt><trkpt lat="43.8111083" lon="11.5695667"><ele>852.0</ele><time>2026-04-18T14:50:01.012Z</time></trkpt><trkpt lat="43.81118" lon="11.5694983"><ele>848.5</ele><time>2026-04-18T14:50:02.015Z</time></trkpt><trkpt lat="43.8112617" lon="11.5694433"><ele>845.0</ele><time>2026-04-18T14:50:03.013Z</time></trkpt><trkpt lat="43.81135" lon="11.5694183"><ele>841.5</ele><time>2026-04-18T14:50:04.013Z</time></trkpt><trkpt lat="43.8114333" lon="11.5693967"><ele>838.0</ele><time>2026-04-18T14:50:05.013Z</time></trkpt><trkpt lat="43.81151" lon="11.56937"><ele>834.5</ele><time>2026-04-18T14:50:06.011Z</time></trkpt><trkpt lat="43.8115817" lon="11.5693567"><ele>831.0</ele><time>2026-04-18T14:50:07.012Z</time></trkpt><trkpt lat="43.8116583" lon="11.5693567"><ele>831.0</ele><time>2026-04-18T14:50:08.014Z</time></trkpt><trkpt lat="43.8117417" lon="11.5693717"><ele>831.0</ele><time>2026-04-18T14:50:09.01Z</time></trkpt><trkpt lat="43.81186" lon="11.5694083"><ele>831.0</ele><time>2026-04-18T14:50:10.012Z</time></trkpt><trkpt lat="43.8119767" lon="11.5694467"><ele>831.0</ele><time>2026-04-18T14:50:11.011Z</time></trkpt><trkpt lat="43.8120883" lon="11.569475"><ele>831.0</ele><time>2026-04-18T14:50:12.01Z</time></trkpt><trkpt lat="43.812185" lon="11.5694833"><ele>830.8</ele><time>2026-04-18T14:50:13.012Z</time></trkpt><trkpt lat="43.8122817" lon="11.56946"><ele>830.5999999999999</ele><time>2026-04-18T14:50:14.013Z</time></trkpt><trkpt lat="43.81238" lon="11.5694067"><ele>830.4</ele><time>2026-04-18T14:50:15.012Z</time></trkpt><trkpt lat="43.8124717" lon="11.5693617"><ele>830.2</ele><time>2026-04-18T14:50:16.012Z</time></trkpt><trkpt lat="43.8125617" lon="11.569335"><ele>830.0</ele><time>2026-04-18T14:50:17.014Z</time></trkpt><trkpt lat="43.8126567" lon="11.56931"><ele>832.0</ele><time>2026-04-18T14:50:18.013Z</time></trkpt><trkpt lat="43.81274" lon="11.5692633"><ele>834.0</ele><time>2026-04-18T14:50:19.014Z</time></trkpt><trkpt lat="43.8128217" lon="11.5691933"><ele>836.0</ele><time>2026-04-18T14:50:20.013Z</time></trkpt><trkpt lat="43.8129083" lon="11.569125"><ele>838.0</ele><time>2026-04-18T14:50:21.015Z</time></trkpt><trkpt lat="43.8129917" lon="11.56907"><ele>840.0</ele><time>2026-04-18T14:50:22.012Z</time></trkpt><trkpt lat="43.8130683" lon="11.5690217"><ele>840.0</ele><time>2026-04-18T14:50:23.012Z</time></trkpt><trkpt lat="43.8131467" lon="11.56898"><ele>840.0</ele><time>2026-04-18T14:50:24.012Z</time></trkpt><trkpt lat="43.8132283" lon="11.5689517"><ele>840.0</ele><time>2026-04-18T14:50:25.013Z</time></trkpt><trkpt lat="43.813315" lon="11.5689183"><ele>840.0</ele><time>2026-04-18T14:50:26.014Z</time></trkpt><trkpt lat="43.8133967" lon="11.5688533"><ele>840.0</ele><time>2026-04-18T14:50:27.013Z</time></trkpt><trkpt lat="43.8134883" lon="11.5687567"><ele>839.5</ele><time>2026-04-18T14:50:28.012Z</time></trkpt><trkpt lat="43.81359" lon="11.5686567"><ele>839.0</ele><time>2026-04-18T14:50:29.012Z</time></trkpt><trkpt lat="43.8136883" lon="11.56857"><ele>838.5</ele><time>2026-04-18T14:50:30.011Z</time></trkpt><trkpt lat="43.8137867" lon="11.5684967"><ele>838.0</ele><time>2026-04-18T14:50:31.012Z</time></trkpt><trkpt lat="43.8138883" lon="11.5684383"><ele>838.0</ele><time>2026-04-18T14:50:32.013Z</time></trkpt><trkpt lat="43.813995" lon="11.5683917"><ele>838.0</ele><time>2026-04-18T14:50:33.012Z</time></trkpt><trkpt lat="43.8141083" lon="11.5683517"><ele>838.0</ele><time>2026-04-18T14:50:34.012Z</time></trkpt><trkpt lat="43.8142233" lon="11.5683117"><ele>838.0</ele><time>2026-04-18T14:50:35.012Z</time></trkpt><trkpt lat="43.8143317" lon="11.5682583"><ele>837.0</ele><time>2026-04-18T14:50:36.011Z</time></trkpt><trkpt lat="43.8144233" lon="11.5681933"><ele>836.0</ele><time>2026-04-18T14:50:37.013Z</time></trkpt><trkpt lat="43.8145083" lon="11.568145"><ele>835.0</ele><time>2026-04-18T14:50:38.015Z</time></trkpt><trkpt lat="43.8146033" lon="11.56811"><ele>834.0</ele><time>2026-04-18T14:50:39.011Z</time></trkpt><trkpt lat="43.8147017" lon="11.5680667"><ele>833.0</ele><time>2026-04-18T14:50:40.012Z</time></trkpt><trkpt lat="43.8147817" lon="11.5680133"><ele>833.0</ele><time>2026-04-18T14:50:41.014Z</time></trkpt><trkpt lat="43.8148567" lon="11.5679417"><ele>833.0</ele><time>2026-04-18T14:50:42.013Z</time></trkpt><trkpt lat="43.814935" lon="11.5678667"><ele>833.0</ele><time>2026-04-18T14:50:43.012Z</time></trkpt><trkpt lat="43.81501" lon="11.567785"><ele>833.0</ele><time>2026-04-18T14:50:44.013Z</time></trkpt><trkpt lat="43.8150833" lon="11.5676883"><ele>833.0</ele><time>2026-04-18T14:50:45.012Z</time></trkpt><trkpt lat="43.8151517" lon="11.5675967"><ele>832.2</ele><time>2026-04-18T14:50:46.012Z</time></trkpt><trkpt lat="43.815215" lon="11.5675033"><ele>831.4</ele><time>2026-04-18T14:50:47.013Z</time></trkpt><trkpt lat="43.81527" lon="11.567405"><ele>830.6</ele><time>2026-04-18T14:50:48.013Z</time></trkpt><trkpt lat="43.8153217" lon="11.567285"><ele>829.8000000000001</ele><time>2026-04-18T14:50:49.012Z</time></trkpt><trkpt lat="43.815375" lon="11.5671583"><ele>829.0</ele><time>2026-04-18T14:50:50.014Z</time></trkpt><trkpt lat="43.8154217" lon="11.5670367"><ele>832.1666666666666</ele><time>2026-04-18T14:50:51.012Z</time></trkpt><trkpt lat="43.8154483" lon="11.5669167"><ele>835.3333333333333</ele><time>2026-04-18T14:50:52.012Z</time></trkpt><trkpt lat="43.8154533" lon="11.566805"><ele>838.5</ele><time>2026-04-18T14:50:53.012Z</time></trkpt><trkpt lat="43.8154317" lon="11.5666933"><ele>841.6666666666667</ele><time>2026-04-18T14:50:54.011Z</time></trkpt><trkpt lat="43.815405" lon="11.56657"><ele>844.8333333333334</ele><time>2026-04-18T14:50:55.012Z</time></trkpt><trkpt lat="43.815395" lon="11.566445"><ele>848.0</ele><time>2026-04-18T14:50:56.014Z</time></trkpt><trkpt lat="43.8154067" lon="11.5663367"><ele>848.0000000000001</ele><time>2026-04-18T14:50:57.011Z</time></trkpt><trkpt lat="43.8154417" lon="11.56626"><ele>848.0</ele><time>2026-04-18T14:50:58.012Z</time></trkpt><trkpt lat="43.815495" lon="11.566205"><ele>848.0</ele><time>2026-04-18T14:50:59.012Z</time></trkpt><trkpt lat="43.8155783" lon="11.56615"><ele>848.0</ele><time>2026-04-18T14:51:00.014Z</time></trkpt><trkpt lat="43.815685" lon="11.5660933"><ele>848.0000000000001</ele><time>2026-04-18T14:51:01.013Z</time></trkpt><trkpt lat="43.8157733" lon="11.5660483"><ele>848.0</ele><time>2026-04-18T14:51:02.014Z</time></trkpt><trkpt lat="43.81586" lon="11.5660233"><ele>846.4</ele><time>2026-04-18T14:51:03.013Z</time></trkpt><trkpt lat="43.8159583" lon="11.5660267"><ele>844.8</ele><time>2026-04-18T14:51:04.012Z</time></trkpt><trkpt lat="43.816065" lon="11.566055"><ele>843.2</ele><time>2026-04-18T14:51:05.012Z</time></trkpt><trkpt lat="43.8161733" lon="11.5660833"><ele>841.6</ele><time>2026-04-18T14:51:06.012Z</time></trkpt><trkpt lat="43.8162733" lon="11.5660967"><ele>840.0</ele><time>2026-04-18T14:51:07.012Z</time></trkpt><trkpt lat="43.81637" lon="11.566105"><ele>839.3333333333334</ele><time>2026-04-18T14:51:08.014Z</time></trkpt><trkpt lat="43.8164667" lon="11.5660933"><ele>838.6666666666667</ele><time>2026-04-18T14:51:09.013Z</time></trkpt><trkpt lat="43.816565" lon="11.5660483"><ele>838.0</ele><time>2026-04-18T14:51:10.013Z</time></trkpt><trkpt lat="43.8166483" lon="11.5659983"><ele>837.3333333333334</ele><time>2026-04-18T14:51:11.012Z</time></trkpt><trkpt lat="43.816725" lon="11.56596"><ele>836.6666666666667</ele><time>2026-04-18T14:51:12.012Z</time></trkpt><trkpt lat="43.816795" lon="11.565945"><ele>836.0</ele><time>2026-04-18T14:51:13.013Z</time></trkpt><trkpt lat="43.8168733" lon="11.5659533"><ele>835.0</ele><time>2026-04-18T14:51:14.014Z</time></trkpt><trkpt lat="43.81698" lon="11.5659683"><ele>834.0</ele><time>2026-04-18T14:51:15.013Z</time></trkpt><trkpt lat="43.817075" lon="11.5659517"><ele>833.0</ele><time>2026-04-18T14:51:16.012Z</time></trkpt><trkpt lat="43.8171633" lon="11.5658983"><ele>832.0</ele><time>2026-04-18T14:51:17.012Z</time></trkpt><trkpt lat="43.8172583" lon="11.5658167"><ele>831.0</ele><time>2026-04-18T14:51:18.011Z</time></trkpt><trkpt lat="43.81736" lon="11.5657183"><ele>831.0</ele><time>2026-04-18T14:51:19.015Z</time></trkpt><trkpt lat="43.8174683" lon="11.5656167"><ele>831.0</ele><time>2026-04-18T14:51:20.014Z</time></trkpt><trkpt lat="43.8175833" lon="11.5655217"><ele>831.0</ele><time>2026-04-18T14:51:21.013Z</time></trkpt><trkpt lat="43.81769" lon="11.5654383"><ele>831.0</ele><time>2026-04-18T14:51:22.013Z</time></trkpt><trkpt lat="43.8177867" lon="11.56535"><ele>830.5</ele><time>2026-04-18T14:51:23.013Z</time></trkpt><trkpt lat="43.8178667" lon="11.5652367"><ele>830.0</ele><time>2026-04-18T14:51:24.014Z</time></trkpt><trkpt lat="43.817945" lon="11.5651"><ele>829.5</ele><time>2026-04-18T14:51:25.014Z</time></trkpt><trkpt lat="43.8180217" lon="11.5649633"><ele>829.0</ele><time>2026-04-18T14:51:26.013Z</time></trkpt><trkpt lat="43.8180917" lon="11.56483"><ele>829.0</ele><time>2026-04-18T14:51:27.011Z</time></trkpt><trkpt lat="43.8181533" lon="11.56471"><ele>829.0</ele><time>2026-04-18T14:51:28.012Z</time></trkpt><trkpt lat="43.818215" lon="11.564605"><ele>829.0</ele><time>2026-04-18T14:51:29.009Z</time></trkpt><trkpt lat="43.818285" lon="11.564525"><ele>829.0</ele><time>2026-04-18T14:51:30.011Z</time></trkpt><trkpt lat="43.818365" lon="11.564465"><ele>829.0</ele><time>2026-04-18T14:51:31.012Z</time></trkpt><trkpt lat="43.8184533" lon="11.56438"><ele>830.4000000000001</ele><time>2026-04-18T14:51:32.013Z</time></trkpt><trkpt lat="43.8185433" lon="11.5642833"><ele>831.8</ele><time>2026-04-18T14:51:33.012Z</time></trkpt><trkpt lat="43.8186333" lon="11.56418"><ele>833.2</ele><time>2026-04-18T14:51:34.013Z</time></trkpt><trkpt lat="43.818715" lon="11.564085"><ele>834.5999999999999</ele><time>2026-04-18T14:51:35.011Z</time></trkpt><trkpt lat="43.8187867" lon="11.563995"><ele>836.0</ele><time>2026-04-18T14:51:36.01Z</time></trkpt><trkpt lat="43.818855" lon="11.56391"><ele>836.0000000000001</ele><time>2026-04-18T14:51:37.011Z</time></trkpt><trkpt lat="43.818915" lon="11.56383"><ele>836.0</ele><time>2026-04-18T14:51:38.014Z</time></trkpt><trkpt lat="43.81896" lon="11.56375"><ele>836.0</ele><time>2026-04-18T14:51:39.01Z</time></trkpt><trkpt lat="43.819005" lon="11.5636533"><ele>836.0</ele><time>2026-04-18T14:51:40.011Z</time></trkpt><trkpt lat="43.8190667" lon="11.5635567"><ele>836.0000000000001</ele><time>2026-04-18T14:51:41.012Z</time></trkpt><trkpt lat="43.8191283" lon="11.5634533"><ele>836.0</ele><time>2026-04-18T14:51:42.011Z</time></trkpt><trkpt lat="43.8191767" lon="11.56336"><ele>836.8333333333334</ele><time>2026-04-18T14:51:43.013Z</time></trkpt><trkpt lat="43.819215" lon="11.5632633"><ele>837.6666666666667</ele><time>2026-04-18T14:51:44.015Z</time></trkpt><trkpt lat="43.8192633" lon="11.5631883"><ele>838.5</ele><time>2026-04-18T14:51:45.011Z</time></trkpt><trkpt lat="43.8193217" lon="11.5631483"><ele>839.3333333333333</ele><time>2026-04-18T14:51:46.012Z</time></trkpt><trkpt lat="43.8193867" lon="11.5631167"><ele>840.1666666666666</ele><time>2026-04-18T14:51:47.015Z</time></trkpt><trkpt lat="43.8194517" lon="11.5630733"><ele>841.0</ele><time>2026-04-18T14:51:48.01Z</time></trkpt><trkpt lat="43.819555" lon="11.56298"><ele>842.1666666666666</ele><time>2026-04-18T14:51:50.013Z</time></trkpt><trkpt lat="43.8196133" lon="11.5629283"><ele>843.3333333333333</ele><time>2026-04-18T14:51:51.01Z</time></trkpt><trkpt lat="43.8196733" lon="11.5628733"><ele>844.5</ele><time>2026-04-18T14:51:52.011Z</time></trkpt><trkpt lat="43.8197817" lon="11.5628033"><ele>845.6666666666667</ele><time>2026-04-18T14:51:54.011Z</time></trkpt><trkpt lat="43.8198417" lon="11.5627633"><ele>846.8333333333334</ele><time>2026-04-18T14:51:55.013Z</time></trkpt><trkpt lat="43.8199183" lon="11.5627033"><ele>848.0</ele><time>2026-04-18T14:51:56.015Z</time></trkpt><trkpt lat="43.8200067" lon="11.5626483"><ele>848.0000000000001</ele><time>2026-04-18T14:51:57.011Z</time></trkpt><trkpt lat="43.8200983" lon="11.56258"><ele>848.0</ele><time>2026-04-18T14:51:58.012Z</time></trkpt><trkpt lat="43.82019" lon="11.5624983"><ele>848.0</ele><time>2026-04-18T14:51:59.012Z</time></trkpt><trkpt lat="43.820255" lon="11.5624317"><ele>848.0</ele><time>2026-04-18T14:52:00.01Z</time></trkpt><trkpt lat="43.8203" lon="11.5623617"><ele>848.0000000000001</ele><time>2026-04-18T14:52:01.012Z</time></trkpt><trkpt lat="43.8203533" lon="11.56229"><ele>848.0</ele><time>2026-04-18T14:52:02.013Z</time></trkpt><trkpt lat="43.820425" lon="11.56223"><ele>848.4</ele><time>2026-04-18T14:52:03.014Z</time></trkpt><trkpt lat="43.8205117" lon="11.56219"><ele>848.8</ele><time>2026-04-18T14:52:04.013Z</time></trkpt><trkpt lat="43.8206033" lon="11.5621467"><ele>849.2</ele><time>2026-04-18T14:52:05.013Z</time></trkpt><trkpt lat="43.8206933" lon="11.56209"><ele>849.6</ele><time>2026-04-18T14:52:06.011Z</time></trkpt><trkpt lat="43.820785" lon="11.562015"><ele>850.0</ele><time>2026-04-18T14:52:07.013Z</time></trkpt><trkpt lat="43.8208733" lon="11.5619317"><ele>850.5</ele><time>2026-04-18T14:52:08.015Z</time></trkpt><trkpt lat="43.820955" lon="11.56184"><ele>851.0</ele><time>2026-04-18T14:52:09.012Z</time></trkpt><trkpt lat="43.8210367" lon="11.5617383"><ele>851.5</ele><time>2026-04-18T14:52:10.014Z</time></trkpt><trkpt lat="43.8211233" lon="11.56162"><ele>852.0</ele><time>2026-04-18T14:52:11.011Z</time></trkpt><trkpt lat="43.8212167" lon="11.5614733"><ele>852.0</ele><time>2026-04-18T14:52:12.011Z</time></trkpt><trkpt lat="43.821295" lon="11.5613317"><ele>852.0</ele><time>2026-04-18T14:52:13.012Z</time></trkpt><trkpt lat="43.8213567" lon="11.5611983"><ele>852.0</ele><time>2026-04-18T14:52:14.013Z</time></trkpt><trkpt lat="43.8214167" lon="11.5610633"><ele>852.0</ele><time>2026-04-18T14:52:15.011Z</time></trkpt><trkpt lat="43.82149" lon="11.5609383"><ele>849.75</ele><time>2026-04-18T14:52:16.012Z</time></trkpt><trkpt lat="43.82157" lon="11.5608333"><ele>847.5</ele><time>2026-04-18T14:52:17.012Z</time></trkpt><trkpt lat="43.8216517" lon="11.560725"><ele>845.25</ele><time>2026-04-18T14:52:18.013Z</time></trkpt><trkpt lat="43.8217317" lon="11.5606033"><ele>843.0</ele><time>2026-04-18T14:52:19.013Z</time></trkpt><trkpt lat="43.82181" lon="11.56048"><ele>841.4</ele><time>2026-04-18T14:52:20.015Z</time></trkpt><trkpt lat="43.82188" lon="11.560375"><ele>839.8</ele><time>2026-04-18T14:52:21.011Z</time></trkpt><trkpt lat="43.8219583" lon="11.5602683"><ele>838.2</ele><time>2026-04-18T14:52:22.012Z</time></trkpt><trkpt lat="43.82204" lon="11.5601583"><ele>836.6</ele><time>2026-04-18T14:52:23.013Z</time></trkpt><trkpt lat="43.822125" lon="11.5600433"><ele>835.0</ele><time>2026-04-18T14:52:24.012Z</time></trkpt><trkpt lat="43.822205" lon="11.5599333"><ele>835.0</ele><time>2026-04-18T14:52:25.013Z</time></trkpt><trkpt lat="43.8222883" lon="11.5598267"><ele>835.0</ele><time>2026-04-18T14:52:26.013Z</time></trkpt><trkpt lat="43.822375" lon="11.5597117"><ele>835.0</ele><time>2026-04-18T14:52:27.011Z</time></trkpt><trkpt lat="43.8224633" lon="11.559595"><ele>835.0</ele><time>2026-04-18T14:52:28.013Z</time></trkpt><trkpt lat="43.822545" lon="11.5594833"><ele>835.0</ele><time>2026-04-18T14:52:29.013Z</time></trkpt><trkpt lat="43.82262" lon="11.559385"><ele>835.0</ele><time>2026-04-18T14:52:30.013Z</time></trkpt><trkpt lat="43.8226967" lon="11.5592933"><ele>835.0</ele><time>2026-04-18T14:52:31.012Z</time></trkpt><trkpt lat="43.8227917" lon="11.5592117"><ele>835.0</ele><time>2026-04-18T14:52:32.013Z</time></trkpt><trkpt lat="43.8229117" lon="11.559125"><ele>835.25</ele><time>2026-04-18T14:52:33.013Z</time></trkpt><trkpt lat="43.8230383" lon="11.5590483"><ele>835.5</ele><time>2026-04-18T14:52:34.013Z</time></trkpt><trkpt lat="43.8231633" lon="11.5589883"><ele>835.75</ele><time>2026-04-18T14:52:35.012Z</time></trkpt><trkpt lat="43.8232883" lon="11.5589417"><ele>836.0</ele><time>2026-04-18T14:52:36.012Z</time></trkpt><trkpt lat="43.8234083" lon="11.5588933"><ele>837.0</ele><time>2026-04-18T14:52:37.011Z</time></trkpt><trkpt lat="43.823515" lon="11.558835"><ele>838.0</ele><time>2026-04-18T14:52:38.014Z</time></trkpt><trkpt lat="43.8236067" lon="11.5587533"><ele>839.0</ele><time>2026-04-18T14:52:39.01Z</time></trkpt><trkpt lat="43.8236967" lon="11.5586733"><ele>840.0</ele><time>2026-04-18T14:52:40.01Z</time></trkpt><trkpt lat="43.8237933" lon="11.5586133"><ele>841.0</ele><time>2026-04-18T14:52:41.012Z</time></trkpt><trkpt lat="43.8238933" lon="11.5585717"><ele>841.1999999999999</ele><time>2026-04-18T14:52:42.011Z</time></trkpt><trkpt lat="43.823995" lon="11.55853"><ele>841.4</ele><time>2026-04-18T14:52:43.012Z</time></trkpt><trkpt lat="43.8240917" lon="11.55847"><ele>841.6</ele><time>2026-04-18T14:52:44.014Z</time></trkpt><trkpt lat="43.8241733" lon="11.5584017"><ele>841.8</ele><time>2026-04-18T14:52:45.011Z</time></trkpt><trkpt lat="43.8242433" lon="11.5583517"><ele>842.0</ele><time>2026-04-18T14:52:46.012Z</time></trkpt><trkpt lat="43.82432" lon="11.5583267"><ele>843.4000000000001</ele><time>2026-04-18T14:52:47.013Z</time></trkpt><trkpt lat="43.8243983" lon="11.5583267"><ele>844.8000000000001</ele><time>2026-04-18T14:52:48.012Z</time></trkpt><trkpt lat="43.8244833" lon="11.5583367"><ele>846.2</ele><time>2026-04-18T14:52:49.014Z</time></trkpt><trkpt lat="43.8245833" lon="11.5583583"><ele>847.6</ele><time>2026-04-18T14:52:50.015Z</time></trkpt><trkpt lat="43.82471" lon="11.5583633"><ele>849.0</ele><time>2026-04-18T14:52:51.011Z</time></trkpt><trkpt lat="43.824845" lon="11.5583233"><ele>849.0</ele><time>2026-04-18T14:52:52.012Z</time></trkpt><trkpt lat="43.8249883" lon="11.5582617"><ele>849.0</ele><time>2026-04-18T14:52:53.013Z</time></trkpt><trkpt lat="43.825105" lon="11.55817"><ele>849.0</ele><time>2026-04-18T14:52:54.011Z</time></trkpt><trkpt lat="43.8252033" lon="11.5580567"><ele>849.0</ele><time>2026-04-18T14:52:55.012Z</time></trkpt><trkpt lat="43.8252917" lon="11.5579283"><ele>850.6</ele><time>2026-04-18T14:52:56.015Z</time></trkpt><trkpt lat="43.825375" lon="11.5578183"><ele>852.2</ele><time>2026-04-18T14:52:57.011Z</time></trkpt><trkpt lat="43.8254583" lon="11.5577567"><ele>853.8000000000001</ele><time>2026-04-18T14:52:58.012Z</time></trkpt><trkpt lat="43.82555" lon="11.5577517"><ele>855.4000000000001</ele><time>2026-04-18T14:52:59.012Z</time></trkpt><trkpt lat="43.8256383" lon="11.5577567"><ele>857.0</ele><time>2026-04-18T14:53:00.012Z</time></trkpt><trkpt lat="43.825725" lon="11.5578017"><ele>857.0</ele><time>2026-04-18T14:53:01.012Z</time></trkpt><trkpt lat="43.8258267" lon="11.55784"><ele>857.0</ele><time>2026-04-18T14:53:02.013Z</time></trkpt><trkpt lat="43.8259317" lon="11.5578567"><ele>857.0</ele><time>2026-04-18T14:53:03.013Z</time></trkpt><trkpt lat="43.82605" lon="11.5578433"><ele>857.0</ele><time>2026-04-18T14:53:04.013Z</time></trkpt><trkpt lat="43.8261633" lon="11.5578"><ele>857.0</ele><time>2026-04-18T14:53:05.014Z</time></trkpt><trkpt lat="43.8262667" lon="11.5577333"><ele>860.25</ele><time>2026-04-18T14:53:06.013Z</time></trkpt><trkpt lat="43.826375" lon="11.55763"><ele>863.5</ele><time>2026-04-18T14:53:07.013Z</time></trkpt><trkpt lat="43.8264733" lon="11.5575233"><ele>866.75</ele><time>2026-04-18T14:53:08.014Z</time></trkpt><trkpt lat="43.826565" lon="11.55741"><ele>870.0</ele><time>2026-04-18T14:53:09.011Z</time></trkpt><trkpt lat="43.8266667" lon="11.5573033"><ele>870.0</ele><time>2026-04-18T14:53:10.013Z</time></trkpt><trkpt lat="43.8267683" lon="11.5572017"><ele>870.0</ele><time>2026-04-18T14:53:11.012Z</time></trkpt><trkpt lat="43.8268683" lon="11.5571067"><ele>870.0</ele><time>2026-04-18T14:53:12.012Z</time></trkpt><trkpt lat="43.82696" lon="11.5570133"><ele>870.0</ele><time>2026-04-18T14:53:13.014Z</time></trkpt><trkpt lat="43.8270417" lon="11.5569367"><ele>869.6666666666666</ele><time>2026-04-18T14:53:14.014Z</time></trkpt><trkpt lat="43.82711" lon="11.5568717"><ele>869.3333333333333</ele><time>2026-04-18T14:53:15.012Z</time></trkpt><trkpt lat="43.82718" lon="11.556815"><ele>869.0</ele><time>2026-04-18T14:53:16.013Z</time></trkpt><trkpt lat="43.8272533" lon="11.5567483"><ele>868.6666666666666</ele><time>2026-04-18T14:53:17.013Z</time></trkpt><trkpt lat="43.8273317" lon="11.5566767"><ele>868.3333333333333</ele><time>2026-04-18T14:53:18.012Z</time></trkpt><trkpt lat="43.8274167" lon="11.55661"><ele>868.0</ele><time>2026-04-18T14:53:19.014Z</time></trkpt><trkpt lat="43.8275033" lon="11.55654"><ele>868.0</ele><time>2026-04-18T14:53:20.015Z</time></trkpt><trkpt lat="43.8275783" lon="11.556455"><ele>868.0</ele><time>2026-04-18T14:53:21.012Z</time></trkpt><trkpt lat="43.8276467" lon="11.556355"><ele>868.0</ele><time>2026-04-18T14:53:22.013Z</time></trkpt><trkpt lat="43.82771" lon="11.5562417"><ele>868.0</ele><time>2026-04-18T14:53:23.016Z</time></trkpt><trkpt lat="43.8277767" lon="11.55612"><ele>868.0</ele><time>2026-04-18T14:53:24.013Z</time></trkpt><trkpt lat="43.8278567" lon="11.5559917"><ele>869.75</ele><time>2026-04-18T14:53:25.012Z</time></trkpt><trkpt lat="43.827945" lon="11.5558717"><ele>871.5</ele><time>2026-04-18T14:53:26.013Z</time></trkpt><trkpt lat="43.828035" lon="11.5557633"><ele>873.25</ele><time>2026-04-18T14:53:27.012Z</time></trkpt><trkpt lat="43.8281233" lon="11.55567"><ele>875.0</ele><time>2026-04-18T14:53:28.011Z</time></trkpt><trkpt lat="43.8282167" lon="11.5555883"><ele>875.0</ele><time>2026-04-18T14:53:29.012Z</time></trkpt><trkpt lat="43.8283067" lon="11.5555017"><ele>875.0</ele><time>2026-04-18T14:53:30.011Z</time></trkpt><trkpt lat="43.8284017" lon="11.5553917"><ele>875.0</ele><time>2026-04-18T14:53:31.012Z</time></trkpt><trkpt lat="43.82849" lon="11.5552667"><ele>875.0</ele><time>2026-04-18T14:53:32.015Z</time></trkpt><trkpt lat="43.82859" lon="11.5551267"><ele>875.4</ele><time>2026-04-18T14:53:33.012Z</time></trkpt><trkpt lat="43.8286833" lon="11.5550033"><ele>875.8</ele><time>2026-04-18T14:53:34.013Z</time></trkpt><trkpt lat="43.8287683" lon="11.55491"><ele>876.2</ele><time>2026-04-18T14:53:35.013Z</time></trkpt><trkpt lat="43.828825" lon="11.5548283"><ele>876.6</ele><time>2026-04-18T14:53:36.012Z</time></trkpt><trkpt lat="43.8288783" lon="11.554755"><ele>877.0</ele><time>2026-04-18T14:53:37.013Z</time></trkpt><trkpt lat="43.828945" lon="11.5546733"><ele>877.0</ele><time>2026-04-18T14:53:38.014Z</time></trkpt><trkpt lat="43.829015" lon="11.554595"><ele>877.0</ele><time>2026-04-18T14:53:39.013Z</time></trkpt><trkpt lat="43.8291067" lon="11.5545367"><ele>877.0</ele><time>2026-04-18T14:53:40.012Z</time></trkpt><trkpt lat="43.8291983" lon="11.554485"><ele>877.0</ele><time>2026-04-18T14:53:41.012Z</time></trkpt><trkpt lat="43.8292933" lon="11.5544267"><ele>877.0</ele><time>2026-04-18T14:53:42.011Z</time></trkpt><trkpt lat="43.8293933" lon="11.5543617"><ele>876.75</ele><time>2026-04-18T14:53:43.013Z</time></trkpt><trkpt lat="43.8295033" lon="11.554305"><ele>876.5</ele><time>2026-04-18T14:53:44.013Z</time></trkpt><trkpt lat="43.829615" lon="11.5542467"><ele>876.25</ele><time>2026-04-18T14:53:45.012Z</time></trkpt><trkpt lat="43.8297267" lon="11.5541833"><ele>876.0</ele><time>2026-04-18T14:53:46.012Z</time></trkpt><trkpt lat="43.8298383" lon="11.5540983"><ele>876.0</ele><time>2026-04-18T14:53:47.014Z</time></trkpt><trkpt lat="43.82995" lon="11.5539983"><ele>876.0</ele><time>2026-04-18T14:53:48.013Z</time></trkpt><trkpt lat="43.8300683" lon="11.55389"><ele>876.0</ele><time>2026-04-18T14:53:49.014Z</time></trkpt><trkpt lat="43.8301867" lon="11.5537883"><ele>876.0</ele><time>2026-04-18T14:53:50.015Z</time></trkpt><trkpt lat="43.8303" lon="11.5536967"><ele>875.1999999999999</ele><time>2026-04-18T14:53:51.012Z</time></trkpt><trkpt lat="43.8304033" lon="11.5536133"><ele>874.3999999999999</ele><time>2026-04-18T14:53:52.012Z</time></trkpt><trkpt lat="43.8304883" lon="11.5535467"><ele>873.6</ele><time>2026-04-18T14:53:53.013Z</time></trkpt><trkpt lat="43.8305617" lon="11.5534967"><ele>872.8</ele><time>2026-04-18T14:53:54.015Z</time></trkpt><trkpt lat="43.8306367" lon="11.5534717"><ele>872.0</ele><time>2026-04-18T14:53:55.012Z</time></trkpt><trkpt lat="43.8307133" lon="11.5534483"><ele>872.0</ele><time>2026-04-18T14:53:56.013Z</time></trkpt><trkpt lat="43.830795" lon="11.5534133"><ele>872.0</ele><time>2026-04-18T14:53:57.011Z</time></trkpt><trkpt lat="43.830885" lon="11.55335"><ele>872.0</ele><time>2026-04-18T14:53:58.014Z</time></trkpt><trkpt lat="43.8309733" lon="11.55328"><ele>872.0</ele><time>2026-04-18T14:53:59.012Z</time></trkpt><trkpt lat="43.8310633" lon="11.55322"><ele>872.0</ele><time>2026-04-18T14:54:00.012Z</time></trkpt><trkpt lat="43.8311517" lon="11.553175"><ele>871.8333333333334</ele><time>2026-04-18T14:54:01.014Z</time></trkpt><trkpt lat="43.8312233" lon="11.55312"><ele>871.6666666666667</ele><time>2026-04-18T14:54:02.015Z</time></trkpt><trkpt lat="43.8312767" lon="11.5530317"><ele>871.5</ele><time>2026-04-18T14:54:03.012Z</time></trkpt><trkpt lat="43.8313233" lon="11.5529517"><ele>871.3333333333333</ele><time>2026-04-18T14:54:04.013Z</time></trkpt><trkpt lat="43.8313633" lon="11.5528767"><ele>871.1666666666666</ele><time>2026-04-18T14:54:05.013Z</time></trkpt><trkpt lat="43.8314217" lon="11.5527833"><ele>871.0</ele><time>2026-04-18T14:54:07.014Z</time></trkpt><trkpt lat="43.8314933" lon="11.5528383"><ele>869.9999999999999</ele><time>2026-04-18T14:54:45.001Z</time></trkpt><trkpt lat="43.8314933" lon="11.5529417"><ele>869.0</ele><time>2026-04-18T14:54:47.011Z</time></trkpt><trkpt lat="43.8315833" lon="11.5530383"><ele>868.0</ele><time>2026-04-18T14:54:49.013Z</time></trkpt><trkpt lat="43.8316517" lon="11.5531067"><ele>867.0</ele><time>2026-04-18T14:54:50.014Z</time></trkpt><trkpt lat="43.8317" lon="11.553195"><ele>865.9999999999999</ele><time>2026-04-18T14:54:51.011Z</time></trkpt><trkpt lat="43.8317717" lon="11.5532683"><ele>865.0</ele><time>2026-04-18T14:54:53.013Z</time></trkpt><trkpt lat="43.8318183" lon="11.55333"><ele>860.8333333333333</ele><time>2026-04-18T14:54:56.013Z</time></trkpt><trkpt lat="43.8319067" lon="11.5533867"><ele>856.6666666666666</ele><time>2026-04-18T14:55:00.011Z</time></trkpt><trkpt lat="43.831975" lon="11.553395"><ele>852.5</ele><time>2026-04-18T14:55:02.013Z</time></trkpt><trkpt lat="43.83204" lon="11.5533533"><ele>848.3333333333333</ele><time>2026-04-18T14:55:04.012Z</time></trkpt><trkpt lat="43.832095" lon="11.5533033"><ele>844.1666666666666</ele><time>2026-04-18T14:55:06.013Z</time></trkpt><trkpt lat="43.8321783" lon="11.5532367"><ele>840.0</ele><time>2026-04-18T14:55:09.013Z</time></trkpt><trkpt lat="43.832245" lon="11.5531667"><ele>840.0</ele><time>2026-04-18T14:55:11.013Z</time></trkpt><trkpt lat="43.8323117" lon="11.5531033"><ele>840.0</ele><time>2026-04-18T14:55:13.013Z</time></trkpt><trkpt lat="43.83237" lon="11.55305"><ele>840.0</ele><time>2026-04-18T14:55:15.012Z</time></trkpt><trkpt lat="43.8324267" lon="11.5530067"><ele>840.0</ele><time>2026-04-18T14:55:17.013Z</time></trkpt><trkpt lat="43.8324917" lon="11.5529783"><ele>840.0</ele><time>2026-04-18T14:55:19.013Z</time></trkpt><trkpt lat="43.832555" lon="11.5529667"><ele>840.0</ele><time>2026-04-18T14:55:21.012Z</time></trkpt><trkpt lat="43.832715" lon="11.5529733"><ele>835.6666666666666</ele><time>2026-04-18T14:55:56.011Z</time></trkpt><trkpt lat="43.8328067" lon="11.5529367"><ele>831.3333333333333</ele><time>2026-04-18T15:04:25.015Z</time></trkpt><trkpt lat="43.83288" lon="11.5528833"><ele>827.0</ele><time>2026-04-18T15:06:58.014Z</time></trkpt><trkpt lat="43.8329533" lon="11.5528467"><ele>822.6666666666666</ele><time>2026-04-18T15:07:00.011Z</time></trkpt><trkpt lat="43.8330383" lon="11.552805"><ele>818.3333333333333</ele><time>2026-04-18T15:07:02.014Z</time></trkpt><trkpt lat="43.8331083" lon="11.5527633"><ele>814.0</ele><time>2026-04-18T15:07:04.012Z</time></trkpt><trkpt lat="43.833195" lon="11.5527583"><ele>813.9999999999999</ele><time>2026-04-18T15:07:06.014Z</time></trkpt><trkpt lat="43.8332717" lon="11.5527283"><ele>814.0</ele><time>2026-04-18T15:07:09.012Z</time></trkpt><trkpt lat="43.8333517" lon="11.5526867"><ele>814.0</ele><time>2026-04-18T15:07:12.013Z</time></trkpt><trkpt lat="43.83342" lon="11.5526817"><ele>814.0</ele><time>2026-04-18T15:07:14.013Z</time></trkpt><trkpt lat="43.8335033" lon="11.5526517"><ele>813.9999999999999</ele><time>2026-04-18T15:07:17.012Z</time></trkpt><trkpt lat="43.8336" lon="11.5526583"><ele>814.0</ele><time>2026-04-18T15:07:20.015Z</time></trkpt><trkpt lat="43.8336933" lon="11.5526517"><ele>808.8333333333333</ele><time>2026-04-18T15:07:22.012Z</time></trkpt><trkpt lat="43.8337817" lon="11.5526283"><ele>803.6666666666666</ele><time>2026-04-18T15:07:24.014Z</time></trkpt><trkpt lat="43.833865" lon="11.552615"><ele>798.5</ele><time>2026-04-18T15:07:26.015Z</time></trkpt><trkpt lat="43.833945" lon="11.5525633"><ele>793.3333333333333</ele><time>2026-04-18T15:07:28.002Z</time></trkpt><trkpt lat="43.83401" lon="11.5525067"><ele>788.1666666666666</ele><time>2026-04-18T15:07:30.011Z</time></trkpt><trkpt lat="43.8340617" lon="11.5524417"><ele>783.0</ele><time>2026-04-18T15:07:32.014Z</time></trkpt><trkpt lat="43.8341133" lon="11.55238"><ele>783.0</ele><time>2026-04-18T15:07:34.001Z</time></trkpt><trkpt lat="43.8341433" lon="11.552295"><ele>783.0</ele><time>2026-04-18T15:07:38.009Z</time></trkpt><trkpt lat="43.834195" lon="11.552225"><ele>783.0</ele><time>2026-04-18T15:07:41.012Z</time></trkpt><trkpt lat="43.834265" lon="11.5521767"><ele>783.0</ele><time>2026-04-18T15:07:45.012Z</time></trkpt><trkpt lat="43.8343467" lon="11.55218"><ele>783.0</ele><time>2026-04-18T15:07:48.012Z</time></trkpt><trkpt lat="43.83443" lon="11.5521733"><ele>783.0</ele><time>2026-04-18T15:07:50.014Z</time></trkpt><trkpt lat="43.8345267" lon="11.5521667"><ele>777.8</ele><time>2026-04-18T15:07:52.011Z</time></trkpt><trkpt lat="43.8346067" lon="11.552235"><ele>772.5999999999999</ele><time>2026-04-18T15:07:54.014Z</time></trkpt><trkpt lat="43.8346733" lon="11.5523383"><ele>767.4000000000001</ele><time>2026-04-18T15:07:56.014Z</time></trkpt><trkpt lat="43.8347267" lon="11.55243"><ele>762.2</ele><time>2026-04-18T15:07:58.013Z</time></trkpt><trkpt lat="43.83477" lon="11.5525317"><ele>757.0</ele><time>2026-04-18T15:08:00.013Z</time></trkpt><trkpt lat="43.8348183" lon="11.5526583"><ele>757.0</ele><time>2026-04-18T15:08:02.013Z</time></trkpt><trkpt lat="43.8348967" lon="11.5527433"><ele>757.0</ele><time>2026-04-18T15:08:04.012Z</time></trkpt><trkpt lat="43.8349883" lon="11.552765"><ele>757.0</ele><time>2026-04-18T15:08:06.012Z</time></trkpt><trkpt lat="43.8350583" lon="11.5527267"><ele>757.0</ele><time>2026-04-18T15:08:08.014Z</time></trkpt><trkpt lat="43.8351267" lon="11.5527033"><ele>757.0</ele><time>2026-04-18T15:08:10.012Z</time></trkpt><trkpt lat="43.835205" lon="11.5526717"><ele>757.0</ele><time>2026-04-18T15:08:12.013Z</time></trkpt><trkpt lat="43.8353417" lon="11.5526067"><ele>753.1666666666667</ele><time>2026-04-18T15:08:35.013Z</time></trkpt><trkpt lat="43.835415" lon="11.5525833"><ele>749.3333333333334</ele><time>2026-04-18T15:08:39.011Z</time></trkpt><trkpt lat="43.835485" lon="11.55259"><ele>745.5</ele><time>2026-04-18T15:08:42.012Z</time></trkpt><trkpt lat="43.8355333" lon="11.5525167"><ele>741.6666666666666</ele><time>2026-04-18T15:08:45.012Z</time></trkpt><trkpt lat="43.8356" lon="11.5525433"><ele>737.8333333333333</ele><time>2026-04-18T15:08:48.012Z</time></trkpt><trkpt lat="43.835685" lon="11.5525983"><ele>734.0</ele><time>2026-04-18T15:08:51.011Z</time></trkpt><trkpt lat="43.83578" lon="11.5526217"><ele>734.0</ele><time>2026-04-18T15:08:53.012Z</time></trkpt><trkpt lat="43.8358833" lon="11.5526417"><ele>734.0</ele><time>2026-04-18T15:08:55.013Z</time></trkpt><trkpt lat="43.8359717" lon="11.55268"><ele>734.0</ele><time>2026-04-18T15:08:57.012Z</time></trkpt><trkpt lat="43.8360517" lon="11.552725"><ele>734.0</ele><time>2026-04-18T15:08:59.013Z</time></trkpt><trkpt lat="43.836165" lon="11.5527667"><ele>734.0</ele><time>2026-04-18T15:09:17.012Z</time></trkpt><trkpt lat="43.8362317" lon="11.5527867"><ele>733.5</ele><time>2026-04-18T15:09:18.012Z</time></trkpt><trkpt lat="43.8363133" lon="11.5528033"><ele>733.0</ele><time>2026-04-18T15:09:19.012Z</time></trkpt><trkpt lat="43.8364" lon="11.55281"><ele>732.5</ele><time>2026-04-18T15:09:20.014Z</time></trkpt><trkpt lat="43.83648" lon="11.5527983"><ele>732.0</ele><time>2026-04-18T15:09:21.013Z</time></trkpt><trkpt lat="43.8365433" lon="11.5527633"><ele>731.5</ele><time>2026-04-18T15:09:22.012Z</time></trkpt><trkpt lat="43.8366433" lon="11.5526783"><ele>731.0</ele><time>2026-04-18T15:09:24.013Z</time></trkpt><trkpt lat="43.8367617" lon="11.5526267"><ele>731.8333333333333</ele><time>2026-04-18T15:09:26.014Z</time></trkpt><trkpt lat="43.8368367" lon="11.5526267"><ele>732.6666666666666</ele><time>2026-04-18T15:09:27.012Z</time></trkpt><trkpt lat="43.8369183" lon="11.5526433"><ele>733.5</ele><time>2026-04-18T15:09:28.013Z</time></trkpt><trkpt lat="43.8370117" lon="11.5526617"><ele>734.3333333333334</ele><time>2026-04-18T15:09:29.014Z</time></trkpt><trkpt lat="43.8371133" lon="11.55269"><ele>735.1666666666667</ele><time>2026-04-18T15:09:30.014Z</time></trkpt><trkpt lat="43.8372033" lon="11.5526983"><ele>736.0</ele><time>2026-04-18T15:09:31.012Z</time></trkpt><trkpt lat="43.837285" lon="11.55268"><ele>736.0</ele><time>2026-04-18T15:09:32.016Z</time></trkpt><trkpt lat="43.8373617" lon="11.55262"><ele>736.0</ele><time>2026-04-18T15:09:33.012Z</time></trkpt><trkpt lat="43.8374383" lon="11.5525183"><ele>736.0</ele><time>2026-04-18T15:09:34.012Z</time></trkpt><trkpt lat="43.8375017" lon="11.5524183"><ele>736.0</ele><time>2026-04-18T15:09:35.014Z</time></trkpt><trkpt lat="43.83756" lon="11.55234"><ele>736.0</ele><time>2026-04-18T15:09:36.012Z</time></trkpt><trkpt lat="43.837625" lon="11.5522733"><ele>735.8333333333334</ele><time>2026-04-18T15:09:37.014Z</time></trkpt><trkpt lat="43.8376967" lon="11.5522217"><ele>735.6666666666667</ele><time>2026-04-18T15:09:38.015Z</time></trkpt><trkpt lat="43.8377833" lon="11.5521933"><ele>735.5</ele><time>2026-04-18T15:09:39.013Z</time></trkpt><trkpt lat="43.8378717" lon="11.5521717"><ele>735.3333333333334</ele><time>2026-04-18T15:09:40.013Z</time></trkpt><trkpt lat="43.837955" lon="11.5521483"><ele>735.1666666666666</ele><time>2026-04-18T15:09:41.014Z</time></trkpt><trkpt lat="43.838025" lon="11.55212"><ele>735.0</ele><time>2026-04-18T15:09:42.013Z</time></trkpt><trkpt lat="43.8380833" lon="11.5520683"><ele>732.3333333333334</ele><time>2026-04-18T15:09:43.015Z</time></trkpt><trkpt lat="43.8381383" lon="11.552"><ele>729.6666666666666</ele><time>2026-04-18T15:09:44.015Z</time></trkpt><trkpt lat="43.8381983" lon="11.5519217"><ele>727.0</ele><time>2026-04-18T15:09:45.012Z</time></trkpt><trkpt lat="43.8382667" lon="11.5518267"><ele>724.3333333333333</ele><time>2026-04-18T15:09:46.012Z</time></trkpt><trkpt lat="43.838335" lon="11.5517433"><ele>721.6666666666666</ele><time>2026-04-18T15:09:47.014Z</time></trkpt><trkpt lat="43.8384067" lon="11.5516683"><ele>719.0</ele><time>2026-04-18T15:09:48.013Z</time></trkpt><trkpt lat="43.8384817" lon="11.5515983"><ele>717.6666666666666</ele><time>2026-04-18T15:09:49.014Z</time></trkpt><trkpt lat="43.8385567" lon="11.5515317"><ele>716.3333333333333</ele><time>2026-04-18T15:09:50.015Z</time></trkpt><trkpt lat="43.838635" lon="11.5514767"><ele>715.0</ele><time>2026-04-18T15:09:51.013Z</time></trkpt><trkpt lat="43.8387067" lon="11.551425"><ele>713.6666666666666</ele><time>2026-04-18T15:09:52.014Z</time></trkpt><trkpt lat="43.8387667" lon="11.5513717"><ele>712.3333333333334</ele><time>2026-04-18T15:09:53.014Z</time></trkpt><trkpt lat="43.838825" lon="11.5513267"><ele>711.0</ele><time>2026-04-18T15:09:54.013Z</time></trkpt><trkpt lat="43.8388833" lon="11.5512883"><ele>711.0</ele><time>2026-04-18T15:09:55.013Z</time></trkpt><trkpt lat="43.83898" lon="11.55121"><ele>711.0</ele><time>2026-04-18T15:09:57.013Z</time></trkpt><trkpt lat="43.8390733" lon="11.5511317"><ele>711.0</ele><time>2026-04-18T15:09:59.015Z</time></trkpt><trkpt lat="43.8391467" lon="11.5510317"><ele>711.0</ele><time>2026-04-18T15:10:01.016Z</time></trkpt><trkpt lat="43.8391967" lon="11.55093"><ele>711.0</ele><time>2026-04-18T15:10:03.013Z</time></trkpt><trkpt lat="43.8392583" lon="11.5508033"><ele>707.0</ele><time>2026-04-18T15:10:05.013Z</time></trkpt><trkpt lat="43.8393017" lon="11.5506483"><ele>703.0</ele><time>2026-04-18T15:10:07.011Z</time></trkpt><trkpt lat="43.839355" lon="11.5504983"><ele>699.0</ele><time>2026-04-18T15:10:09.011Z</time></trkpt><trkpt lat="43.839395" lon="11.5504267"><ele>695.0</ele><time>2026-04-18T15:10:10.012Z</time></trkpt><trkpt lat="43.839435" lon="11.5503517"><ele>691.0</ele><time>2026-04-18T15:10:11.011Z</time></trkpt><trkpt lat="43.8394817" lon="11.5502917"><ele>687.0</ele><time>2026-04-18T15:10:12.011Z</time></trkpt><trkpt lat="43.8395867" lon="11.550205"><ele>686.5</ele><time>2026-04-18T15:10:14.014Z</time></trkpt><trkpt lat="43.839695" lon="11.5501017"><ele>686.0</ele><time>2026-04-18T15:10:16.014Z</time></trkpt><trkpt lat="43.8397433" lon="11.550045"><ele>685.5</ele><time>2026-04-18T15:10:17.012Z</time></trkpt><trkpt lat="43.8398017" lon="11.549985"><ele>685.0</ele><time>2026-04-18T15:10:18.011Z</time></trkpt><trkpt lat="43.83986" lon="11.54992"><ele>684.5</ele><time>2026-04-18T15:10:19.013Z</time></trkpt><trkpt lat="43.8399133" lon="11.5498417"><ele>684.0</ele><time>2026-04-18T15:10:20.015Z</time></trkpt><trkpt lat="43.8399633" lon="11.549765"><ele>684.0</ele><time>2026-04-18T15:10:21.012Z</time></trkpt><trkpt lat="43.8400133" lon="11.5496867"><ele>684.0</ele><time>2026-04-18T15:10:22.013Z</time></trkpt><trkpt lat="43.8400683" lon="11.5496183"><ele>684.0</ele><time>2026-04-18T15:10:23.011Z</time></trkpt><trkpt lat="43.8401267" lon="11.549555"><ele>684.0</ele><time>2026-04-18T15:10:24.012Z</time></trkpt><trkpt lat="43.8401817" lon="11.54949"><ele>684.0</ele><time>2026-04-18T15:10:25.011Z</time></trkpt><trkpt lat="43.8402383" lon="11.549415"><ele>684.0</ele><time>2026-04-18T15:10:26.014Z</time></trkpt><trkpt lat="43.8402967" lon="11.5493467"><ele>680.3333333333334</ele><time>2026-04-18T15:10:27.012Z</time></trkpt><trkpt lat="43.84035" lon="11.549285"><ele>676.6666666666666</ele><time>2026-04-18T15:10:28.012Z</time></trkpt><trkpt lat="43.84044" lon="11.5491783"><ele>673.0</ele><time>2026-04-18T15:10:30.011Z</time></trkpt><trkpt lat="43.8405283" lon="11.5490517"><ele>669.3333333333333</ele><time>2026-04-18T15:10:32.014Z</time></trkpt><trkpt lat="43.84057" lon="11.5489783"><ele>665.6666666666666</ele><time>2026-04-18T15:10:33.013Z</time></trkpt><trkpt lat="43.8406067" lon="11.5489067"><ele>662.0</ele><time>2026-04-18T15:10:34.012Z</time></trkpt><trkpt lat="43.8406517" lon="11.5487617"><ele>660.6</ele><time>2026-04-18T15:10:36.012Z</time></trkpt><trkpt lat="43.8406517" lon="11.5486333"><ele>659.2</ele><time>2026-04-18T15:10:38.014Z</time></trkpt><trkpt lat="43.8406233" lon="11.54847"><ele>657.8</ele><time>2026-04-18T15:10:40.011Z</time></trkpt><trkpt lat="43.840605" lon="11.5483133"><ele>656.4</ele><time>2026-04-18T15:10:42.013Z</time></trkpt><trkpt lat="43.840635" lon="11.5481733"><ele>655.0</ele><time>2026-04-18T15:10:44.015Z</time></trkpt><trkpt lat="43.8407183" lon="11.54811"><ele>655.0</ele><time>2026-04-18T15:10:46.013Z</time></trkpt><trkpt lat="43.8408317" lon="11.5480383"><ele>655.0</ele><time>2026-04-18T15:10:48.014Z</time></trkpt><trkpt lat="43.840895" lon="11.5479983"><ele>655.0</ele><time>2026-04-18T15:10:49.017Z</time></trkpt><trkpt lat="43.8409617" lon="11.5479667"><ele>655.0</ele><time>2026-04-18T15:10:50.015Z</time></trkpt><trkpt lat="43.84103" lon="11.5479433"><ele>655.0</ele><time>2026-04-18T15:10:51.012Z</time></trkpt><trkpt lat="43.8411183" lon="11.547915"><ele>655.0</ele><time>2026-04-18T15:10:52.013Z</time></trkpt><trkpt lat="43.8412067" lon="11.54788"><ele>649.8</ele><time>2026-04-18T15:10:53.014Z</time></trkpt><trkpt lat="43.841285" lon="11.5478483"><ele>644.6</ele><time>2026-04-18T15:10:54.014Z</time></trkpt><trkpt lat="43.8413583" lon="11.5478217"><ele>639.4</ele><time>2026-04-18T15:10:55.014Z</time></trkpt><trkpt lat="43.8414233" lon="11.5478033"><ele>634.2</ele><time>2026-04-18T15:10:56.015Z</time></trkpt><trkpt lat="43.84154" lon="11.5477533"><ele>629.0</ele><time>2026-04-18T15:10:58.013Z</time></trkpt><trkpt lat="43.8416467" lon="11.5477183"><ele>629.0</ele><time>2026-04-18T15:11:00.01Z</time></trkpt><trkpt lat="43.8417567" lon="11.547745"><ele>629.0</ele><time>2026-04-18T15:11:02.014Z</time></trkpt><trkpt lat="43.84181" lon="11.547805"><ele>629.0</ele><time>2026-04-18T15:11:03.014Z</time></trkpt><trkpt lat="43.8418583" lon="11.547865"><ele>629.0</ele><time>2026-04-18T15:11:04.013Z</time></trkpt><trkpt lat="43.8419383" lon="11.5479133"><ele>629.0</ele><time>2026-04-18T15:11:06.015Z</time></trkpt><trkpt lat="43.8420167" lon="11.5477867"><ele>627.4</ele><time>2026-04-18T15:11:08.016Z</time></trkpt><trkpt lat="43.8420517" lon="11.5477117"><ele>625.8</ele><time>2026-04-18T15:11:09.012Z</time></trkpt><trkpt lat="43.8420883" lon="11.5476017"><ele>624.2</ele><time>2026-04-18T15:11:10.014Z</time></trkpt><trkpt lat="43.842135" lon="11.547485"><ele>622.6</ele><time>2026-04-18T15:11:11.013Z</time></trkpt><trkpt lat="43.842185" lon="11.5473433"><ele>621.0</ele><time>2026-04-18T15:11:12.012Z</time></trkpt><trkpt lat="43.84223" lon="11.5472217"><ele>621.0</ele><time>2026-04-18T15:11:13.014Z</time></trkpt><trkpt lat="43.842275" lon="11.5471167"><ele>621.0</ele><time>2026-04-18T15:11:14.016Z</time></trkpt><trkpt lat="43.8423217" lon="11.5470283"><ele>621.0</ele><time>2026-04-18T15:11:15.012Z</time></trkpt><trkpt lat="43.8423833" lon="11.5469583"><ele>621.0</ele><time>2026-04-18T15:11:16.013Z</time></trkpt><trkpt lat="43.8424533" lon="11.5469067"><ele>621.0</ele><time>2026-04-18T15:11:17.014Z</time></trkpt><trkpt lat="43.8425217" lon="11.546875"><ele>621.0</ele><time>2026-04-18T15:11:18.013Z</time></trkpt><trkpt lat="43.8426167" lon="11.54679"><ele>618.6666666666666</ele><time>2026-04-18T15:11:20.015Z</time></trkpt><trkpt lat="43.8426583" lon="11.5467033"><ele>616.3333333333334</ele><time>2026-04-18T15:11:22.013Z</time></trkpt><trkpt lat="43.842755" lon="11.5467783"><ele>614.0</ele><time>2026-04-18T15:11:25.013Z</time></trkpt><trkpt lat="43.842795" lon="11.5468667"><ele>611.6666666666667</ele><time>2026-04-18T15:11:26.015Z</time></trkpt><trkpt lat="43.8428317" lon="11.5469567"><ele>609.3333333333334</ele><time>2026-04-18T15:11:27.013Z</time></trkpt><trkpt lat="43.84286" lon="11.5470417"><ele>607.0</ele><time>2026-04-18T15:11:28.014Z</time></trkpt><trkpt lat="43.8428833" lon="11.5471233"><ele>607.0</ele><time>2026-04-18T15:11:29.013Z</time></trkpt><trkpt lat="43.8429183" lon="11.5473"><ele>607.0</ele><time>2026-04-18T15:11:31.014Z</time></trkpt><trkpt lat="43.8429333" lon="11.5473983"><ele>607.0</ele><time>2026-04-18T15:11:32.015Z</time></trkpt><trkpt lat="43.8429517" lon="11.5475033"><ele>607.0</ele><time>2026-04-18T15:11:33.013Z</time></trkpt><trkpt lat="43.8429767" lon="11.5475967"><ele>607.0</ele><time>2026-04-18T15:11:34.012Z</time></trkpt><trkpt lat="43.8430033" lon="11.54768"><ele>607.0</ele><time>2026-04-18T15:11:35.012Z</time></trkpt><trkpt lat="43.8430983" lon="11.5477833"><ele>607.0</ele><time>2026-04-18T15:11:37.013Z</time></trkpt><trkpt lat="43.84322" lon="11.5477917"><ele>607.0</ele><time>2026-04-18T15:11:39.012Z</time></trkpt><trkpt lat="43.843285" lon="11.5476517"><ele>607.0</ele><time>2026-04-18T15:11:41.014Z</time></trkpt><trkpt lat="43.8432767" lon="11.5475317"><ele>607.0</ele><time>2026-04-18T15:11:42.012Z</time></trkpt><trkpt lat="43.84325" lon="11.5474033"><ele>607.0</ele><time>2026-04-18T15:11:43.012Z</time></trkpt><trkpt lat="43.8432083" lon="11.5472667"><ele>607.0</ele><time>2026-04-18T15:11:44.013Z</time></trkpt><trkpt lat="43.8431733" lon="11.5471267"><ele>607.0</ele><time>2026-04-18T15:11:45.013Z</time></trkpt><trkpt lat="43.84315" lon="11.5469867"><ele>607.0</ele><time>2026-04-18T15:11:46.012Z</time></trkpt><trkpt lat="43.8431583" lon="11.5468533"><ele>607.0</ele><time>2026-04-18T15:11:47.012Z</time></trkpt><trkpt lat="43.843185" lon="11.54673"><ele>607.0</ele><time>2026-04-18T15:11:48.012Z</time></trkpt><trkpt lat="43.84322" lon="11.5466067"><ele>606.0</ele><time>2026-04-18T15:11:49.014Z</time></trkpt><trkpt lat="43.8432583" lon="11.5464767"><ele>605.0</ele><time>2026-04-18T15:11:50.013Z</time></trkpt><trkpt lat="43.8432933" lon="11.54635"><ele>604.0</ele><time>2026-04-18T15:11:51.012Z</time></trkpt><trkpt lat="43.8433317" lon="11.546235"><ele>603.0</ele><time>2026-04-18T15:11:52.013Z</time></trkpt><trkpt lat="43.84337" lon="11.5461283"><ele>602.0</ele><time>2026-04-18T15:11:53.014Z</time></trkpt><trkpt lat="43.843425" lon="11.5460533"><ele>598.5</ele><time>2026-04-18T15:11:54.015Z</time></trkpt><trkpt lat="43.8434967" lon="11.54601"><ele>595.0</ele><time>2026-04-18T15:11:55.018Z</time></trkpt><trkpt lat="43.8435667" lon="11.5460017"><ele>591.5</ele><time>2026-04-18T15:11:56.015Z</time></trkpt><trkpt lat="43.8436383" lon="11.54601"><ele>588.0</ele><time>2026-04-18T15:11:57.013Z</time></trkpt><trkpt lat="43.84375" lon="11.5459883"><ele>584.5</ele><time>2026-04-18T15:11:59.014Z</time></trkpt><trkpt lat="43.8437867" lon="11.5459167"><ele>581.0</ele><time>2026-04-18T15:12:00.013Z</time></trkpt><trkpt lat="43.843825" lon="11.5458467"><ele>581.0</ele><time>2026-04-18T15:12:01.013Z</time></trkpt><trkpt lat="43.843855" lon="11.5457583"><ele>581.0</ele><time>2026-04-18T15:12:02.015Z</time></trkpt><trkpt lat="43.84385" lon="11.5456433"><ele>581.0</ele><time>2026-04-18T15:12:03.013Z</time></trkpt><trkpt lat="43.8438333" lon="11.5455333"><ele>581.0</ele><time>2026-04-18T15:12:04.015Z</time></trkpt><trkpt lat="43.8438117" lon="11.545425"><ele>581.0</ele><time>2026-04-18T15:12:05.015Z</time></trkpt><trkpt lat="43.8438317" lon="11.5453317"><ele>581.0</ele><time>2026-04-18T15:12:06.013Z</time></trkpt><trkpt lat="43.843865" lon="11.5452433"><ele>578.6666666666666</ele><time>2026-04-18T15:12:07.016Z</time></trkpt><trkpt lat="43.843905" lon="11.545155"><ele>576.3333333333333</ele><time>2026-04-18T15:12:08.015Z</time></trkpt><trkpt lat="43.843965" lon="11.545095"><ele>574.0</ele><time>2026-04-18T15:12:09.016Z</time></trkpt><trkpt lat="43.8440383" lon="11.5450783"><ele>571.6666666666666</ele><time>2026-04-18T15:12:10.015Z</time></trkpt><trkpt lat="43.8441117" lon="11.54507"><ele>569.3333333333334</ele><time>2026-04-18T15:12:11.017Z</time></trkpt><trkpt lat="43.844225" lon="11.5451183"><ele>567.0</ele><time>2026-04-18T15:12:13.016Z</time></trkpt><trkpt lat="43.8443033" lon="11.5451467"><ele>565.1666666666666</ele><time>2026-04-18T15:12:15.016Z</time></trkpt><trkpt lat="43.844365" lon="11.5450867"><ele>563.3333333333334</ele><time>2026-04-18T15:12:17.016Z</time></trkpt><trkpt lat="43.8443967" lon="11.5449767"><ele>561.5</ele><time>2026-04-18T15:12:19.017Z</time></trkpt><trkpt lat="43.84442" lon="11.5448917"><ele>559.6666666666667</ele><time>2026-04-18T15:12:20.018Z</time></trkpt><trkpt lat="43.844455" lon="11.5447867"><ele>557.8333333333334</ele><time>2026-04-18T15:12:21.016Z</time></trkpt><trkpt lat="43.8444967" lon="11.5446583"><ele>556.0</ele><time>2026-04-18T15:12:22.015Z</time></trkpt><trkpt lat="43.8445333" lon="11.5445183"><ele>554.0</ele><time>2026-04-18T15:12:23.014Z</time></trkpt><trkpt lat="43.8445633" lon="11.5443883"><ele>552.0</ele><time>2026-04-18T15:12:24.013Z</time></trkpt><trkpt lat="43.8445917" lon="11.54427"><ele>550.0</ele><time>2026-04-18T15:12:25.014Z</time></trkpt><trkpt lat="43.8446217" lon="11.5441617"><ele>548.0</ele><time>2026-04-18T15:12:26.015Z</time></trkpt><trkpt lat="43.8446467" lon="11.5440617"><ele>546.0</ele><time>2026-04-18T15:12:27.014Z</time></trkpt><trkpt lat="43.844695" lon="11.5439383"><ele>546.0</ele><time>2026-04-18T15:12:29.013Z</time></trkpt><trkpt lat="43.8447967" lon="11.5438867"><ele>546.0</ele><time>2026-04-18T15:12:31.013Z</time></trkpt><trkpt lat="43.8448683" lon="11.5438567"><ele>546.0</ele><time>2026-04-18T15:12:32.017Z</time></trkpt><trkpt lat="43.84493" lon="11.5438133"><ele>546.0</ele><time>2026-04-18T15:12:33.014Z</time></trkpt><trkpt lat="43.844985" lon="11.5437617"><ele>546.0</ele><time>2026-04-18T15:12:34.015Z</time></trkpt><trkpt lat="43.84503" lon="11.5436983"><ele>546.0</ele><time>2026-04-18T15:12:35.014Z</time></trkpt><trkpt lat="43.8451017" lon="11.5435517"><ele>543.8</ele><time>2026-04-18T15:12:37.014Z</time></trkpt><trkpt lat="43.8451567" lon="11.5434467"><ele>541.6</ele><time>2026-04-18T15:12:39.012Z</time></trkpt><trkpt lat="43.8451367" lon="11.543345"><ele>539.4</ele><time>2026-04-18T15:12:42.002Z</time></trkpt><trkpt lat="43.8450767" lon="11.5432017"><ele>537.2</ele><time>2026-04-18T15:12:44.014Z</time></trkpt><trkpt lat="43.8450417" lon="11.5431"><ele>535.0</ele><time>2026-04-18T15:12:45.011Z</time></trkpt><trkpt lat="43.845005" lon="11.542995"><ele>535.0</ele><time>2026-04-18T15:12:46.013Z</time></trkpt><trkpt lat="43.8449733" lon="11.54289"><ele>535.0</ele><time>2026-04-18T15:12:47.015Z</time></trkpt><trkpt lat="43.84492" lon="11.5427833"><ele>535.0</ele><time>2026-04-18T15:12:48.015Z</time></trkpt><trkpt lat="43.84485" lon="11.5426933"><ele>535.0</ele><time>2026-04-18T15:12:49.011Z</time></trkpt><trkpt lat="43.8447733" lon="11.5426133"><ele>535.0</ele><time>2026-04-18T15:12:50.013Z</time></trkpt><trkpt lat="43.84469" lon="11.5425317"><ele>533.2</ele><time>2026-04-18T15:12:51.012Z</time></trkpt><trkpt lat="43.8446067" lon="11.5424567"><ele>531.4</ele><time>2026-04-18T15:12:52.013Z</time></trkpt><trkpt lat="43.8445217" lon="11.542395"><ele>529.6</ele><time>2026-04-18T15:12:53.012Z</time></trkpt><trkpt lat="43.8444433" lon="11.5423333"><ele>527.8</ele><time>2026-04-18T15:12:54.012Z</time></trkpt><trkpt lat="43.8443667" lon="11.54226"><ele>526.0</ele><time>2026-04-18T15:12:55.015Z</time></trkpt><trkpt lat="43.8442883" lon="11.5421917"><ele>526.0</ele><time>2026-04-18T15:12:56.013Z</time></trkpt><trkpt lat="43.844205" lon="11.5421317"><ele>526.0</ele><time>2026-04-18T15:12:57.011Z</time></trkpt><trkpt lat="43.8441333" lon="11.5420533"><ele>526.0</ele><time>2026-04-18T15:12:58.012Z</time></trkpt><trkpt lat="43.8441" lon="11.5419367"><ele>526.0</ele><time>2026-04-18T15:12:59.013Z</time></trkpt><trkpt lat="43.8440767" lon="11.54184"><ele>526.0</ele><time>2026-04-18T15:13:00.016Z</time></trkpt><trkpt lat="43.8440517" lon="11.541685"><ele>523.8</ele><time>2026-04-18T15:13:02.014Z</time></trkpt><trkpt lat="43.8440633" lon="11.5415933"><ele>521.6</ele><time>2026-04-18T15:13:05.011Z</time></trkpt><trkpt lat="43.8441267" lon="11.5416683"><ele>519.4</ele><time>2026-04-18T15:13:07.015Z</time></trkpt><trkpt lat="43.8441667" lon="11.541745"><ele>517.2</ele><time>2026-04-18T15:13:08.014Z</time></trkpt><trkpt lat="43.84423" lon="11.5418233"><ele>515.0</ele><time>2026-04-18T15:13:09.001Z</time></trkpt><trkpt lat="43.8444133" lon="11.5419217"><ele>514.5</ele><time>2026-04-18T15:13:11.012Z</time></trkpt><trkpt lat="43.8445233" lon="11.54195"><ele>514.0</ele><time>2026-04-18T15:13:12.011Z</time></trkpt><trkpt lat="43.8446383" lon="11.5419733"><ele>513.5</ele><time>2026-04-18T15:13:13.011Z</time></trkpt><trkpt lat="43.84476" lon="11.5419867"><ele>513.0</ele><time>2026-04-18T15:13:14.013Z</time></trkpt><trkpt lat="43.844885" lon="11.5420033"><ele>513.0</ele><time>2026-04-18T15:13:15.012Z</time></trkpt><trkpt lat="43.8450017" lon="11.54203"><ele>513.0</ele><time>2026-04-18T15:13:16.012Z</time></trkpt><trkpt lat="43.8451133" lon="11.5420567"><ele>513.0</ele><time>2026-04-18T15:13:17.013Z</time></trkpt><trkpt lat="43.84523" lon="11.5420783"><ele>513.0</ele><time>2026-04-18T15:13:18.013Z</time></trkpt><trkpt lat="43.8453517" lon="11.5420883"><ele>513.8</ele><time>2026-04-18T15:13:19.013Z</time></trkpt><trkpt lat="43.8454733" lon="11.5420883"><ele>514.5999999999999</ele><time>2026-04-18T15:13:20.015Z</time></trkpt><trkpt lat="43.8455917" lon="11.5420917"><ele>515.4000000000001</ele><time>2026-04-18T15:13:21.015Z</time></trkpt><trkpt lat="43.8456967" lon="11.5421"><ele>516.2</ele><time>2026-04-18T15:13:22.013Z</time></trkpt><trkpt lat="43.8457817" lon="11.5421117"><ele>517.0</ele><time>2026-04-18T15:13:23.016Z</time></trkpt><trkpt lat="43.8458533" lon="11.5421267"><ele>517.0</ele><time>2026-04-18T15:13:24.014Z</time></trkpt><trkpt lat="43.8459183" lon="11.542145"><ele>517.0</ele><time>2026-04-18T15:13:25.012Z</time></trkpt><trkpt lat="43.846035" lon="11.5422233"><ele>517.0</ele><time>2026-04-18T15:13:27.013Z</time></trkpt><trkpt lat="43.84609" lon="11.542295"><ele>517.0</ele><time>2026-04-18T15:13:28.014Z</time></trkpt><trkpt lat="43.84615" lon="11.542375"><ele>517.0</ele><time>2026-04-18T15:13:29.012Z</time></trkpt><trkpt lat="43.8462183" lon="11.5424317"><ele>517.0</ele><time>2026-04-18T15:13:30.013Z</time></trkpt><trkpt lat="43.8462917" lon="11.5424667"><ele>516.2</ele><time>2026-04-18T15:13:31.013Z</time></trkpt><trkpt lat="43.8463717" lon="11.5424933"><ele>515.4000000000001</ele><time>2026-04-18T15:13:32.014Z</time></trkpt><trkpt lat="43.8464617" lon="11.5425217"><ele>514.5999999999999</ele><time>2026-04-18T15:13:33.012Z</time></trkpt><trkpt lat="43.8465683" lon="11.5425483"><ele>513.8</ele><time>2026-04-18T15:13:34.014Z</time></trkpt><trkpt lat="43.846655" lon="11.54256"><ele>513.0</ele><time>2026-04-18T15:13:35.013Z</time></trkpt><trkpt lat="43.8467367" lon="11.5425417"><ele>513.8</ele><time>2026-04-18T15:13:36.013Z</time></trkpt><trkpt lat="43.8468083" lon="11.5424667"><ele>514.5999999999999</ele><time>2026-04-18T15:13:37.013Z</time></trkpt><trkpt lat="43.8468817" lon="11.5423667"><ele>515.4000000000001</ele><time>2026-04-18T15:13:38.014Z</time></trkpt><trkpt lat="43.8469567" lon="11.5422633"><ele>516.2</ele><time>2026-04-18T15:13:39.014Z</time></trkpt><trkpt lat="43.84704" lon="11.5421633"><ele>517.0</ele><time>2026-04-18T15:13:40.013Z</time></trkpt><trkpt lat="43.84714" lon="11.5420633"><ele>512.75</ele><time>2026-04-18T15:13:41.014Z</time></trkpt><trkpt lat="43.8472333" lon="11.541945"><ele>508.5</ele><time>2026-04-18T15:13:42.013Z</time></trkpt><trkpt lat="43.8473183" lon="11.54181"><ele>504.25</ele><time>2026-04-18T15:13:43.012Z</time></trkpt><trkpt lat="43.8473933" lon="11.5416767"><ele>500.0</ele><time>2026-04-18T15:13:44.016Z</time></trkpt><trkpt lat="43.847465" lon="11.541565"><ele>499.99999999999994</ele><time>2026-04-18T15:13:45.012Z</time></trkpt><trkpt lat="43.847535" lon="11.54147"><ele>500.0</ele><time>2026-04-18T15:13:46.014Z</time></trkpt><trkpt lat="43.8476033" lon="11.5413967"><ele>500.0</ele><time>2026-04-18T15:13:47.018Z</time></trkpt><trkpt lat="43.8476717" lon="11.5413467"><ele>500.0</ele><time>2026-04-18T15:13:48.015Z</time></trkpt><trkpt lat="43.8477333" lon="11.5413267"><ele>499.99999999999994</ele><time>2026-04-18T15:13:49.013Z</time></trkpt><trkpt lat="43.8478367" lon="11.541415"><ele>500.0</ele><time>2026-04-18T15:13:51.013Z</time></trkpt><trkpt lat="43.8478817" lon="11.5415"><ele>499.99999999999994</ele><time>2026-04-18T15:13:52.013Z</time></trkpt><trkpt lat="43.8479117" lon="11.5416"><ele>500.0</ele><time>2026-04-18T15:13:53.013Z</time></trkpt><trkpt lat="43.8479217" lon="11.5417133"><ele>500.0</ele><time>2026-04-18T15:13:54.017Z</time></trkpt><trkpt lat="43.8479317" lon="11.5418267"><ele>500.0</ele><time>2026-04-18T15:13:55.017Z</time></trkpt><trkpt lat="43.847965" lon="11.5419217"><ele>499.99999999999994</ele><time>2026-04-18T15:13:56.014Z</time></trkpt><trkpt lat="43.84802" lon="11.5420083"><ele>500.0</ele><time>2026-04-18T15:13:57.012Z</time></trkpt><trkpt lat="43.8481067" lon="11.54209"><ele>503.25</ele><time>2026-04-18T15:13:58.013Z</time></trkpt><trkpt lat="43.8482067" lon="11.5421783"><ele>506.5</ele><time>2026-04-18T15:13:59.013Z</time></trkpt><trkpt lat="43.8483033" lon="11.5422717"><ele>509.75</ele><time>2026-04-18T15:14:00.014Z</time></trkpt><trkpt lat="43.8483983" lon="11.542355"><ele>513.0</ele><time>2026-04-18T15:14:01.012Z</time></trkpt><trkpt lat="43.8485033" lon="11.542415"><ele>513.0</ele><time>2026-04-18T15:14:02.014Z</time></trkpt><trkpt lat="43.8486233" lon="11.542445"><ele>513.0</ele><time>2026-04-18T15:14:03.013Z</time></trkpt><trkpt lat="43.848745" lon="11.5424517"><ele>513.0</ele><time>2026-04-18T15:14:04.014Z</time></trkpt><trkpt lat="43.8488567" lon="11.542445"><ele>513.0</ele><time>2026-04-18T15:14:05.013Z</time></trkpt><trkpt lat="43.8489467" lon="11.5424517"><ele>513.0</ele><time>2026-04-18T15:14:06.011Z</time></trkpt><trkpt lat="43.84902" lon="11.542485"><ele>513.0</ele><time>2026-04-18T15:14:07.012Z</time></trkpt><trkpt lat="43.8490683" lon="11.5425417"><ele>513.0</ele><time>2026-04-18T15:14:08.014Z</time></trkpt><trkpt lat="43.84909" lon="11.54265"><ele>513.0</ele><time>2026-04-18T15:14:09.013Z</time></trkpt><trkpt lat="43.8491133" lon="11.5427567"><ele>513.0</ele><time>2026-04-18T15:14:10.013Z</time></trkpt><trkpt lat="43.8491433" lon="11.5428517"><ele>513.0</ele><time>2026-04-18T15:14:11.013Z</time></trkpt><trkpt lat="43.8492333" lon="11.5429533"><ele>513.0</ele><time>2026-04-18T15:14:13.013Z</time></trkpt><trkpt lat="43.8493017" lon="11.5429117"><ele>513.5</ele><time>2026-04-18T15:14:14.015Z</time></trkpt><trkpt lat="43.84937" lon="11.5428617"><ele>514.0</ele><time>2026-04-18T15:14:15.013Z</time></trkpt><trkpt lat="43.8494483" lon="11.5428183"><ele>514.5</ele><time>2026-04-18T15:14:16.015Z</time></trkpt><trkpt lat="43.849535" lon="11.5428017"><ele>515.0</ele><time>2026-04-18T15:14:17.013Z</time></trkpt><trkpt lat="43.849625" lon="11.5428067"><ele>515.5</ele><time>2026-04-18T15:14:18.014Z</time></trkpt><trkpt lat="43.8497033" lon="11.54288"><ele>516.0</ele><time>2026-04-18T15:14:19.015Z</time></trkpt><trkpt lat="43.8497667" lon="11.5429883"><ele>516.0</ele><time>2026-04-18T15:14:20.016Z</time></trkpt><trkpt lat="43.8498167" lon="11.5431233"><ele>516.0</ele><time>2026-04-18T15:14:21.013Z</time></trkpt><trkpt lat="43.8498633" lon="11.5432717"><ele>516.0</ele><time>2026-04-18T15:14:22.014Z</time></trkpt><trkpt lat="43.84992" lon="11.5434217"><ele>516.0</ele><time>2026-04-18T15:14:23.096Z</time></trkpt><trkpt lat="43.849975" lon="11.5435783"><ele>515.8</ele><time>2026-04-18T15:14:24.014Z</time></trkpt><trkpt lat="43.8500333" lon="11.5437267"><ele>515.6</ele><time>2026-04-18T15:14:25.012Z</time></trkpt><trkpt lat="43.8500833" lon="11.54386"><ele>515.4</ele><time>2026-04-18T15:14:26.014Z</time></trkpt><trkpt lat="43.8501317" lon="11.5439567"><ele>515.2</ele><time>2026-04-18T15:14:27.012Z</time></trkpt><trkpt lat="43.8502217" lon="11.5440433"><ele>515.0</ele><time>2026-04-18T15:14:29.013Z</time></trkpt><trkpt lat="43.85035" lon="11.5440083"><ele>515.0</ele><time>2026-04-18T15:14:31.012Z</time></trkpt><trkpt lat="43.85043" lon="11.5440267"><ele>515.0</ele><time>2026-04-18T15:14:32.013Z</time></trkpt><trkpt lat="43.8505017" lon="11.54409"><ele>515.0</ele><time>2026-04-18T15:14:33.013Z</time></trkpt><trkpt lat="43.8505517" lon="11.5442033"><ele>515.0</ele><time>2026-04-18T15:14:34.013Z</time></trkpt><trkpt lat="43.850575" lon="11.5443483"><ele>515.0</ele><time>2026-04-18T15:14:35.013Z</time></trkpt><trkpt lat="43.8505817" lon="11.5445083"><ele>517.6</ele><time>2026-04-18T15:14:36.012Z</time></trkpt><trkpt lat="43.8505783" lon="11.5446767"><ele>520.2</ele><time>2026-04-18T15:14:37.013Z</time></trkpt><trkpt lat="43.8505733" lon="11.5448383"><ele>522.8</ele><time>2026-04-18T15:14:38.015Z</time></trkpt><trkpt lat="43.85058" lon="11.5449783"><ele>525.4</ele><time>2026-04-18T15:14:39.013Z</time></trkpt><trkpt lat="43.850595" lon="11.5450917"><ele>528.0</ele><time>2026-04-18T15:14:40.014Z</time></trkpt><trkpt lat="43.8506267" lon="11.5451817"><ele>528.0</ele><time>2026-04-18T15:14:41.013Z</time></trkpt><trkpt lat="43.8506967" lon="11.5452367"><ele>528.0</ele><time>2026-04-18T15:14:42.013Z</time></trkpt><trkpt lat="43.8507617" lon="11.5453"><ele>528.0</ele><time>2026-04-18T15:14:43.013Z</time></trkpt><trkpt lat="43.8508267" lon="11.5453733"><ele>528.0</ele><time>2026-04-18T15:14:44.016Z</time></trkpt><trkpt lat="43.8508883" lon="11.5454667"><ele>528.0</ele><time>2026-04-18T15:14:45.014Z</time></trkpt><trkpt lat="43.85096" lon="11.5455683"><ele>528.0</ele><time>2026-04-18T15:14:46.012Z</time></trkpt><trkpt lat="43.851025" lon="11.5456767"><ele>526.6</ele><time>2026-04-18T15:14:47.013Z</time></trkpt><trkpt lat="43.85108" lon="11.5457833"><ele>525.1999999999999</ele><time>2026-04-18T15:14:48.014Z</time></trkpt><trkpt lat="43.8511183" lon="11.54589"><ele>523.8</ele><time>2026-04-18T15:14:49.016Z</time></trkpt><trkpt lat="43.8511517" lon="11.5460033"><ele>522.4</ele><time>2026-04-18T15:14:50.015Z</time></trkpt><trkpt lat="43.8511817" lon="11.5461367"><ele>521.0</ele><time>2026-04-18T15:14:51.013Z</time></trkpt><trkpt lat="43.8512283" lon="11.5462883"><ele>524.75</ele><time>2026-04-18T15:14:52.013Z</time></trkpt><trkpt lat="43.8512867" lon="11.54644"><ele>528.5</ele><time>2026-04-18T15:14:53.013Z</time></trkpt><trkpt lat="43.8513233" lon="11.54659"><ele>532.25</ele><time>2026-04-18T15:14:54.013Z</time></trkpt><trkpt lat="43.8513333" lon="11.5467383"><ele>536.0</ele><time>2026-04-18T15:14:55.015Z</time></trkpt><trkpt lat="43.8513233" lon="11.546895"><ele>538.8</ele><time>2026-04-18T15:14:56.017Z</time></trkpt><trkpt lat="43.8513017" lon="11.5470567"><ele>541.6</ele><time>2026-04-18T15:14:57.013Z</time></trkpt><trkpt lat="43.851275" lon="11.5472"><ele>544.4</ele><time>2026-04-18T15:14:58.014Z</time></trkpt><trkpt lat="43.85125" lon="11.5473317"><ele>547.2</ele><time>2026-04-18T15:14:59.015Z</time></trkpt><trkpt lat="43.8512417" lon="11.5474583"><ele>550.0</ele><time>2026-04-18T15:15:00.013Z</time></trkpt><trkpt lat="43.8512517" lon="11.5475817"><ele>550.0</ele><time>2026-04-18T15:15:01.014Z</time></trkpt><trkpt lat="43.851265" lon="11.5476933"><ele>550.0</ele><time>2026-04-18T15:15:02.013Z</time></trkpt><trkpt lat="43.8512817" lon="11.5477933"><ele>550.0</ele><time>2026-04-18T15:15:03.012Z</time></trkpt><trkpt lat="43.85134" lon="11.547905"><ele>550.0</ele><time>2026-04-18T15:15:05.014Z</time></trkpt><trkpt lat="43.8514367" lon="11.5478433"><ele>550.0</ele><time>2026-04-18T15:15:07.013Z</time></trkpt><trkpt lat="43.851515" lon="11.5477917"><ele>550.0</ele><time>2026-04-18T15:15:08.014Z</time></trkpt><trkpt lat="43.8516117" lon="11.5477217"><ele>550.0</ele><time>2026-04-18T15:15:09.013Z</time></trkpt><trkpt lat="43.851705" lon="11.5476617"><ele>550.0</ele><time>2026-04-18T15:15:10.015Z</time></trkpt><trkpt lat="43.8518" lon="11.5475767"><ele>550.0</ele><time>2026-04-18T15:15:11.015Z</time></trkpt><trkpt lat="43.8518967" lon="11.5475067"><ele>550.0</ele><time>2026-04-18T15:15:12.014Z</time></trkpt><trkpt lat="43.8519917" lon="11.5474583"><ele>550.0</ele><time>2026-04-18T15:15:13.013Z</time></trkpt><trkpt lat="43.8520917" lon="11.5474283"><ele>551.5</ele><time>2026-04-18T15:15:14.015Z</time></trkpt><trkpt lat="43.852205" lon="11.5474117"><ele>553.0</ele><time>2026-04-18T15:15:15.012Z</time></trkpt><trkpt lat="43.8523333" lon="11.5474167"><ele>554.5</ele><time>2026-04-18T15:15:16.012Z</time></trkpt><trkpt lat="43.852465" lon="11.5474117"><ele>556.0</ele><time>2026-04-18T15:15:17.012Z</time></trkpt><trkpt lat="43.85259" lon="11.5473967"><ele>556.6</ele><time>2026-04-18T15:15:18.012Z</time></trkpt><trkpt lat="43.8527033" lon="11.5473867"><ele>557.2</ele><time>2026-04-18T15:15:19.013Z</time></trkpt><trkpt lat="43.85281" lon="11.54739"><ele>557.8</ele><time>2026-04-18T15:15:20.014Z</time></trkpt><trkpt lat="43.852905" lon="11.547405"><ele>558.4</ele><time>2026-04-18T15:15:21.013Z</time></trkpt><trkpt lat="43.85299" lon="11.5474417"><ele>559.0</ele><time>2026-04-18T15:15:22.014Z</time></trkpt><trkpt lat="43.8530683" lon="11.547485"><ele>559.0</ele><time>2026-04-18T15:15:23.015Z</time></trkpt><trkpt lat="43.8531517" lon="11.547525"><ele>559.0</ele><time>2026-04-18T15:15:24.015Z</time></trkpt><trkpt lat="43.85324" lon="11.5475483"><ele>559.0</ele><time>2026-04-18T15:15:25.015Z</time></trkpt><trkpt lat="43.8533333" lon="11.54755"><ele>559.0</ele><time>2026-04-18T15:15:26.015Z</time></trkpt><trkpt lat="43.8534283" lon="11.54753"><ele>559.0</ele><time>2026-04-18T15:15:27.012Z</time></trkpt><trkpt lat="43.8535183" lon="11.5475067"><ele>557.0</ele><time>2026-04-18T15:15:28.014Z</time></trkpt><trkpt lat="43.8536017" lon="11.54747"><ele>555.0</ele><time>2026-04-18T15:15:29.014Z</time></trkpt><trkpt lat="43.853675" lon="11.5474417"><ele>553.0</ele><time>2026-04-18T15:15:30.013Z</time></trkpt><trkpt lat="43.85374" lon="11.547425"><ele>551.0</ele><time>2026-04-18T15:15:31.015Z</time></trkpt><trkpt lat="43.8538033" lon="11.54744"><ele>549.0</ele><time>2026-04-18T15:15:32.016Z</time></trkpt><trkpt lat="43.85386" lon="11.5474833"><ele>547.0</ele><time>2026-04-18T15:15:33.013Z</time></trkpt><trkpt lat="43.853905" lon="11.54756"><ele>545.0</ele><time>2026-04-18T15:15:34.014Z</time></trkpt><trkpt lat="43.85394" lon="11.5476633"><ele>545.0</ele><time>2026-04-18T15:15:35.012Z</time></trkpt><trkpt lat="43.8539833" lon="11.5477817"><ele>545.0</ele><time>2026-04-18T15:15:36.012Z</time></trkpt><trkpt lat="43.8540267" lon="11.5479067"><ele>545.0</ele><time>2026-04-18T15:15:37.012Z</time></trkpt><trkpt lat="43.8540783" lon="11.5480283"><ele>545.0</ele><time>2026-04-18T15:15:38.015Z</time></trkpt><trkpt lat="43.8541333" lon="11.5481417"><ele>545.0</ele><time>2026-04-18T15:15:39.014Z</time></trkpt><trkpt lat="43.85418" lon="11.54825"><ele>547.3333333333333</ele><time>2026-04-18T15:15:40.012Z</time></trkpt><trkpt lat="43.8542217" lon="11.548355"><ele>549.6666666666666</ele><time>2026-04-18T15:15:41.012Z</time></trkpt><trkpt lat="43.8542667" lon="11.5484483"><ele>552.0</ele><time>2026-04-18T15:15:42.013Z</time></trkpt><trkpt lat="43.8543183" lon="11.54853"><ele>554.3333333333334</ele><time>2026-04-18T15:15:43.012Z</time></trkpt><trkpt lat="43.85439" lon="11.5486"><ele>556.6666666666667</ele><time>2026-04-18T15:15:44.014Z</time></trkpt><trkpt lat="43.8544717" lon="11.548665"><ele>559.0</ele><time>2026-04-18T15:15:45.012Z</time></trkpt><trkpt lat="43.8545433" lon="11.548725"><ele>559.0</ele><time>2026-04-18T15:15:46.013Z</time></trkpt><trkpt lat="43.8546133" lon="11.5487883"><ele>559.0</ele><time>2026-04-18T15:15:47.012Z</time></trkpt><trkpt lat="43.85468" lon="11.54883"><ele>559.0</ele><time>2026-04-18T15:15:48.011Z</time></trkpt><trkpt lat="43.8548017" lon="11.5488117"><ele>559.0</ele><time>2026-04-18T15:15:50.014Z</time></trkpt><trkpt lat="43.8548667" lon="11.5486967"><ele>559.0</ele><time>2026-04-18T15:15:52.013Z</time></trkpt><trkpt lat="43.8549033" lon="11.5486"><ele>559.0</ele><time>2026-04-18T15:15:54.013Z</time></trkpt><trkpt lat="43.8548517" lon="11.5485367"><ele>559.0</ele><time>2026-04-18T15:16:16.013Z</time></trkpt><trkpt lat="43.8548367" lon="11.5484167"><ele>559.0</ele><time>2026-04-18T15:16:22.015Z</time></trkpt><trkpt lat="43.854795" lon="11.5483383"><ele>559.0</ele><time>2026-04-18T15:16:57.013Z</time></trkpt><trkpt lat="43.8547767" lon="11.5482"><ele>559.0</ele><time>2026-04-18T15:17:00.012Z</time></trkpt><trkpt lat="43.854775" lon="11.548055"><ele>559.0</ele><time>2026-04-18T15:17:02.018Z</time></trkpt><trkpt lat="43.8547767" lon="11.54793"><ele>556.8</ele><time>2026-04-18T15:17:04.016Z</time></trkpt><trkpt lat="43.85474" lon="11.54782"><ele>554.5999999999999</ele><time>2026-04-18T15:17:06.004Z</time></trkpt><trkpt lat="43.8547033" lon="11.5477033"><ele>552.4</ele><time>2026-04-18T15:17:08.018Z</time></trkpt><trkpt lat="43.85468" lon="11.54756"><ele>550.1999999999999</ele><time>2026-04-18T15:17:10.015Z</time></trkpt><trkpt lat="43.8546667" lon="11.5474033"><ele>548.0</ele><time>2026-04-18T15:17:12.015Z</time></trkpt><trkpt lat="43.8546717" lon="11.5473133"><ele>548.0</ele><time>2026-04-18T15:17:13.013Z</time></trkpt><trkpt lat="43.8547267" lon="11.5471517"><ele>548.0</ele><time>2026-04-18T15:17:15.013Z</time></trkpt><trkpt lat="43.8547667" lon="11.547065"><ele>548.0</ele><time>2026-04-18T15:17:16.014Z</time></trkpt><trkpt lat="43.8548" lon="11.5469733"><ele>548.0</ele><time>2026-04-18T15:17:17.014Z</time></trkpt><trkpt lat="43.85484" lon="11.546895"><ele>548.0</ele><time>2026-04-18T15:17:18.013Z</time></trkpt><trkpt lat="43.854915" lon="11.5467667"><ele>544.8</ele><time>2026-04-18T15:17:20.016Z</time></trkpt><trkpt lat="43.8550033" lon="11.546675"><ele>541.5999999999999</ele><time>2026-04-18T15:17:22.014Z</time></trkpt><trkpt lat="43.8551117" lon="11.5466217"><ele>538.4000000000001</ele><time>2026-04-18T15:17:24.014Z</time></trkpt><trkpt lat="43.8552033" lon="11.546625"><ele>535.2</ele><time>2026-04-18T15:17:26.014Z</time></trkpt><trkpt lat="43.855265" lon="11.54657"><ele>532.0</ele><time>2026-04-18T15:17:28.017Z</time></trkpt><trkpt lat="43.8552383" lon="11.5464733"><ele>532.0</ele><time>2026-04-18T15:17:30.014Z</time></trkpt><trkpt lat="43.8551533" lon="11.5463833"><ele>532.0</ele><time>2026-04-18T15:17:32.003Z</time></trkpt><trkpt lat="43.8550617" lon="11.5463283"><ele>532.0</ele><time>2026-04-18T15:17:34.005Z</time></trkpt><trkpt lat="43.8549883" lon="11.5462667"><ele>532.0</ele><time>2026-04-18T15:17:36.013Z</time></trkpt><trkpt lat="43.8549517" lon="11.546175"><ele>532.0</ele><time>2026-04-18T15:17:38.016Z</time></trkpt><trkpt lat="43.8550133" lon="11.5460817"><ele>528.6</ele><time>2026-04-18T15:17:40.013Z</time></trkpt><trkpt lat="43.855115" lon="11.5460417"><ele>525.2</ele><time>2026-04-18T15:17:42.011Z</time></trkpt><trkpt lat="43.8552183" lon="11.5460267"><ele>521.8</ele><time>2026-04-18T15:17:44.015Z</time></trkpt><trkpt lat="43.8552967" lon="11.5459367"><ele>518.4</ele><time>2026-04-18T15:17:46.013Z</time></trkpt><trkpt lat="43.8552933" lon="11.5457933"><ele>515.0</ele><time>2026-04-18T15:17:48.014Z</time></trkpt><trkpt lat="43.85524" lon="11.545645"><ele>511.6</ele><time>2026-04-18T15:17:50.015Z</time></trkpt><trkpt lat="43.8552033" lon="11.5455667"><ele>508.2</ele><time>2026-04-18T15:17:51.012Z</time></trkpt><trkpt lat="43.8551433" lon="11.5454883"><ele>504.79999999999995</ele><time>2026-04-18T15:17:53.014Z</time></trkpt><trkpt lat="43.8552017" lon="11.54539"><ele>501.4</ele><time>2026-04-18T15:17:57.014Z</time></trkpt><trkpt lat="43.85532" lon="11.5453867"><ele>498.0</ele><time>2026-04-18T15:17:59.013Z</time></trkpt><trkpt lat="43.8554367" lon="11.545425"><ele>498.0</ele><time>2026-04-18T15:18:01.013Z</time></trkpt><trkpt lat="43.8555033" lon="11.5454417"><ele>498.0</ele><time>2026-04-18T15:18:02.014Z</time></trkpt><trkpt lat="43.8555683" lon="11.545455"><ele>498.0</ele><time>2026-04-18T15:18:03.013Z</time></trkpt><trkpt lat="43.8556633" lon="11.5455183"><ele>498.0</ele><time>2026-04-18T15:18:05.014Z</time></trkpt><trkpt lat="43.855725" lon="11.5456517"><ele>498.0</ele><time>2026-04-18T15:18:07.013Z</time></trkpt><trkpt lat="43.85574" lon="11.5457367"><ele>498.0</ele><time>2026-04-18T15:18:08.014Z</time></trkpt><trkpt lat="43.8557533" lon="11.5458417"><ele>498.0</ele><time>2026-04-18T15:18:09.014Z</time></trkpt><trkpt lat="43.8557733" lon="11.5459717"><ele>498.0</ele><time>2026-04-18T15:18:10.012Z</time></trkpt><trkpt lat="43.8557933" lon="11.5461083"><ele>498.0</ele><time>2026-04-18T15:18:11.012Z</time></trkpt><trkpt lat="43.8558183" lon="11.5462267"><ele>498.0</ele><time>2026-04-18T15:18:12.013Z</time></trkpt><trkpt lat="43.855845" lon="11.5463267"><ele>498.0</ele><time>2026-04-18T15:18:13.012Z</time></trkpt><trkpt lat="43.85589" lon="11.5464"><ele>498.0</ele><time>2026-04-18T15:18:14.014Z</time></trkpt><trkpt lat="43.8559433" lon="11.5464633"><ele>492.0</ele><time>2026-04-18T15:18:15.012Z</time></trkpt><trkpt lat="43.8559983" lon="11.5465367"><ele>485.99999999999994</ele><time>2026-04-18T15:18:16.015Z</time></trkpt><trkpt lat="43.856055" lon="11.5466317"><ele>479.99999999999994</ele><time>2026-04-18T15:18:17.013Z</time></trkpt><trkpt lat="43.8561133" lon="11.5467383"><ele>474.0</ele><time>2026-04-18T15:18:18.015Z</time></trkpt><trkpt lat="43.856175" lon="11.54686"><ele>468.0</ele><time>2026-04-18T15:18:19.012Z</time></trkpt><trkpt lat="43.8562417" lon="11.54699"><ele>473.25</ele><time>2026-04-18T15:18:20.014Z</time></trkpt><trkpt lat="43.8563033" lon="11.547125"><ele>478.5</ele><time>2026-04-18T15:18:21.012Z</time></trkpt><trkpt lat="43.85635" lon="11.547265"><ele>483.75</ele><time>2026-04-18T15:18:22.012Z</time></trkpt><trkpt lat="43.8564" lon="11.54741"><ele>489.0</ele><time>2026-04-18T15:18:23.011Z</time></trkpt><trkpt lat="43.85644" lon="11.5475483"><ele>489.0</ele><time>2026-04-18T15:18:24.011Z</time></trkpt><trkpt lat="43.85649" lon="11.547655"><ele>489.0</ele><time>2026-04-18T15:18:25.012Z</time></trkpt><trkpt lat="43.856535" lon="11.54773"><ele>489.0</ele><time>2026-04-18T15:18:26.014Z</time></trkpt><trkpt lat="43.85665" lon="11.5477717"><ele>489.0</ele><time>2026-04-18T15:18:28.012Z</time></trkpt><trkpt lat="43.8567183" lon="11.5477433"><ele>489.0</ele><time>2026-04-18T15:18:29.012Z</time></trkpt><trkpt lat="43.85684" lon="11.5477517"><ele>489.2</ele><time>2026-04-18T15:18:31.012Z</time></trkpt><trkpt lat="43.856925" lon="11.547815"><ele>489.4</ele><time>2026-04-18T15:18:32.013Z</time></trkpt><trkpt lat="43.85702" lon="11.547895"><ele>489.6</ele><time>2026-04-18T15:18:33.012Z</time></trkpt><trkpt lat="43.8571233" lon="11.54796"><ele>489.8</ele><time>2026-04-18T15:18:34.012Z</time></trkpt><trkpt lat="43.857235" lon="11.5480167"><ele>490.0</ele><time>2026-04-18T15:18:35.011Z</time></trkpt><trkpt lat="43.8573433" lon="11.54805"><ele>490.0</ele><time>2026-04-18T15:18:36.012Z</time></trkpt><trkpt lat="43.8574433" lon="11.5480817"><ele>490.0</ele><time>2026-04-18T15:18:37.014Z</time></trkpt><trkpt lat="43.85752" lon="11.5481183"><ele>490.0</ele><time>2026-04-18T15:18:38.014Z</time></trkpt><trkpt lat="43.857595" lon="11.5481717"><ele>490.0</ele><time>2026-04-18T15:18:39.013Z</time></trkpt><trkpt lat="43.8576633" lon="11.5482383"><ele>490.0</ele><time>2026-04-18T15:18:40.013Z</time></trkpt><trkpt lat="43.8577417" lon="11.5483317"><ele>485.33333333333337</ele><time>2026-04-18T15:18:41.013Z</time></trkpt><trkpt lat="43.8578017" lon="11.5484383"><ele>480.6666666666667</ele><time>2026-04-18T15:18:42.012Z</time></trkpt><trkpt lat="43.8578417" lon="11.5485467"><ele>476.0</ele><time>2026-04-18T15:18:43.012Z</time></trkpt><trkpt lat="43.85787" lon="11.5486583"><ele>471.33333333333337</ele><time>2026-04-18T15:18:44.014Z</time></trkpt><trkpt lat="43.8578867" lon="11.5487683"><ele>466.6666666666667</ele><time>2026-04-18T15:18:45.013Z</time></trkpt><trkpt lat="43.857895" lon="11.5488867"><ele>462.0</ele><time>2026-04-18T15:18:46.013Z</time></trkpt><trkpt lat="43.857905" lon="11.5490067"><ele>462.0</ele><time>2026-04-18T15:18:47.013Z</time></trkpt><trkpt lat="43.85791" lon="11.54913"><ele>462.00000000000006</ele><time>2026-04-18T15:18:48.013Z</time></trkpt><trkpt lat="43.8579133" lon="11.549265"><ele>462.00000000000006</ele><time>2026-04-18T15:18:49.013Z</time></trkpt><trkpt lat="43.8579083" lon="11.5493967"><ele>462.0</ele><time>2026-04-18T15:18:50.017Z</time></trkpt><trkpt lat="43.8579" lon="11.5495167"><ele>462.0</ele><time>2026-04-18T15:18:51.012Z</time></trkpt><trkpt lat="43.857905" lon="11.54963"><ele>461.6</ele><time>2026-04-18T15:18:52.014Z</time></trkpt><trkpt lat="43.8579317" lon="11.5497383"><ele>461.20000000000005</ele><time>2026-04-18T15:18:53.014Z</time></trkpt><trkpt lat="43.857975" lon="11.549855"><ele>460.8</ele><time>2026-04-18T15:18:54.013Z</time></trkpt><trkpt lat="43.8580183" lon="11.54998"><ele>460.4</ele><time>2026-04-18T15:18:55.013Z</time></trkpt><trkpt lat="43.8580633" lon="11.550125"><ele>460.0</ele><time>2026-04-18T15:18:56.014Z</time></trkpt><trkpt lat="43.8580967" lon="11.55027"><ele>461.0</ele><time>2026-04-18T15:18:57.012Z</time></trkpt><trkpt lat="43.858135" lon="11.5504317"><ele>462.0</ele><time>2026-04-18T15:18:58.012Z</time></trkpt><trkpt lat="43.8581767" lon="11.5505883"><ele>463.0</ele><time>2026-04-18T15:18:59.012Z</time></trkpt><trkpt lat="43.858205" lon="11.5507417"><ele>464.0</ele><time>2026-04-18T15:19:00.013Z</time></trkpt><trkpt lat="43.8582267" lon="11.550895"><ele>464.0</ele><time>2026-04-18T15:19:01.014Z</time></trkpt><trkpt lat="43.8582533" lon="11.55105"><ele>464.0</ele><time>2026-04-18T15:19:02.016Z</time></trkpt><trkpt lat="43.858285" lon="11.5512033"><ele>464.0</ele><time>2026-04-18T15:19:03.012Z</time></trkpt><trkpt lat="43.8583133" lon="11.5513583"><ele>464.0</ele><time>2026-04-18T15:19:04.013Z</time></trkpt><trkpt lat="43.858345" lon="11.55151"><ele>464.8333333333333</ele><time>2026-04-18T15:19:05.013Z</time></trkpt><trkpt lat="43.8583783" lon="11.551645"><ele>465.66666666666663</ele><time>2026-04-18T15:19:06.012Z</time></trkpt><trkpt lat="43.8583983" lon="11.551755"><ele>466.5</ele><time>2026-04-18T15:19:07.014Z</time></trkpt><trkpt lat="43.8584033" lon="11.5518533"><ele>467.33333333333337</ele><time>2026-04-18T15:19:08.016Z</time></trkpt><trkpt lat="43.8583967" lon="11.5519533"><ele>468.1666666666667</ele><time>2026-04-18T15:19:09.013Z</time></trkpt><trkpt lat="43.8583917" lon="11.55211"><ele>469.0</ele><time>2026-04-18T15:19:11.013Z</time></trkpt><trkpt lat="43.858455" lon="11.552205"><ele>469.0</ele><time>2026-04-18T15:19:13.014Z</time></trkpt><trkpt lat="43.85854" lon="11.552205"><ele>469.0</ele><time>2026-04-18T15:19:14.015Z</time></trkpt><trkpt lat="43.8586233" lon="11.5521983"><ele>469.0</ele><time>2026-04-18T15:19:15.013Z</time></trkpt><trkpt lat="43.8587367" lon="11.5521817"><ele>469.0</ele><time>2026-04-18T15:19:16.014Z</time></trkpt><trkpt lat="43.858865" lon="11.55219"><ele>469.0</ele><time>2026-04-18T15:19:17.013Z</time></trkpt><trkpt lat="43.8589583" lon="11.5522083"><ele>469.00000000000006</ele><time>2026-04-18T15:19:18.014Z</time></trkpt><trkpt lat="43.8590433" lon="11.5522433"><ele>469.0</ele><time>2026-04-18T15:19:19.014Z</time></trkpt><trkpt lat="43.8591033" lon="11.552315"><ele>469.0</ele><time>2026-04-18T15:19:20.015Z</time></trkpt><trkpt lat="43.8591533" lon="11.5523983"><ele>469.0</ele><time>2026-04-18T15:19:21.012Z</time></trkpt><trkpt lat="43.85921" lon="11.5524567"><ele>469.00000000000006</ele><time>2026-04-18T15:19:22.013Z</time></trkpt><trkpt lat="43.8592917" lon="11.552495"><ele>469.0</ele><time>2026-04-18T15:19:23.015Z</time></trkpt><trkpt lat="43.8594017" lon="11.55253"><ele>468.0</ele><time>2026-04-18T15:19:24.013Z</time></trkpt><trkpt lat="43.8595033" lon="11.5525783"><ele>467.0</ele><time>2026-04-18T15:19:25.013Z</time></trkpt><trkpt lat="43.8595867" lon="11.55265"><ele>466.0</ele><time>2026-04-18T15:19:26.014Z</time></trkpt><trkpt lat="43.8596667" lon="11.55273"><ele>465.0</ele><time>2026-04-18T15:19:27.013Z</time></trkpt><trkpt lat="43.8597383" lon="11.5528083"><ele>464.0</ele><time>2026-04-18T15:19:28.017Z</time></trkpt><trkpt lat="43.8598033" lon="11.5528867"><ele>463.99999999999994</ele><time>2026-04-18T15:19:29.019Z</time></trkpt><trkpt lat="43.8598633" lon="11.5529683"><ele>464.0</ele><time>2026-04-18T15:19:30.013Z</time></trkpt><trkpt lat="43.8599183" lon="11.5530483"><ele>464.0</ele><time>2026-04-18T15:19:31.013Z</time></trkpt><trkpt lat="43.8599733" lon="11.553125"><ele>464.0</ele><time>2026-04-18T15:19:32.014Z</time></trkpt><trkpt lat="43.8600333" lon="11.55322"><ele>463.99999999999994</ele><time>2026-04-18T15:19:33.014Z</time></trkpt><trkpt lat="43.8600883" lon="11.5533117"><ele>464.0</ele><time>2026-04-18T15:19:34.012Z</time></trkpt><trkpt lat="43.86013" lon="11.5534"><ele>457.49999999999994</ele><time>2026-04-18T15:19:35.013Z</time></trkpt><trkpt lat="43.8601667" lon="11.5534967"><ele>451.0</ele><time>2026-04-18T15:19:36.012Z</time></trkpt><trkpt lat="43.8602" lon="11.5535883"><ele>444.5</ele><time>2026-04-18T15:19:37.013Z</time></trkpt><trkpt lat="43.8602517" lon="11.5537167"><ele>438.0</ele><time>2026-04-18T15:19:39.016Z</time></trkpt><trkpt lat="43.860295" lon="11.5537833"><ele>431.49999999999994</ele><time>2026-04-18T15:19:41.013Z</time></trkpt><trkpt lat="43.8603533" lon="11.5537067"><ele>425.0</ele><time>2026-04-18T15:19:57.012Z</time></trkpt><trkpt lat="43.8604383" lon="11.55362"><ele>425.0</ele><time>2026-04-18T15:20:12.012Z</time></trkpt><trkpt lat="43.860485" lon="11.553495"><ele>425.0</ele><time>2026-04-18T15:20:14.015Z</time></trkpt><trkpt lat="43.8605183" lon="11.55334"><ele>425.0</ele><time>2026-04-18T15:20:16.013Z</time></trkpt><trkpt lat="43.8605267" lon="11.5532267"><ele>425.0</ele><time>2026-04-18T15:20:18.012Z</time></trkpt><trkpt lat="43.8606" lon="11.5532467"><ele>425.0</ele><time>2026-04-18T15:20:23.013Z</time></trkpt><trkpt lat="43.8606533" lon="11.5533467"><ele>425.0</ele><time>2026-04-18T15:20:25.013Z</time></trkpt><trkpt lat="43.860705" lon="11.5534783"><ele>425.0</ele><time>2026-04-18T15:20:27.014Z</time></trkpt><trkpt lat="43.8607517" lon="11.5536183"><ele>425.0</ele><time>2026-04-18T15:20:29.012Z</time></trkpt><trkpt lat="43.8607733" lon="11.5537683"><ele>425.0</ele><time>2026-04-18T15:20:31.011Z</time></trkpt><trkpt lat="43.86077" lon="11.553945"><ele>424.16666666666663</ele><time>2026-04-18T15:20:33.013Z</time></trkpt><trkpt lat="43.8607617" lon="11.5540433"><ele>423.3333333333333</ele><time>2026-04-18T15:20:34.011Z</time></trkpt><trkpt lat="43.8607617" lon="11.5541383"><ele>422.5</ele><time>2026-04-18T15:20:35.013Z</time></trkpt><trkpt lat="43.8607533" lon="11.554235"><ele>421.66666666666663</ele><time>2026-04-18T15:20:36.012Z</time></trkpt><trkpt lat="43.8607433" lon="11.5543283"><ele>420.8333333333333</ele><time>2026-04-18T15:20:37.014Z</time></trkpt><trkpt lat="43.8607283" lon="11.5545167"><ele>420.0</ele><time>2026-04-18T15:20:39.014Z</time></trkpt><trkpt lat="43.8607167" lon="11.5546167"><ele>417.2</ele><time>2026-04-18T15:20:40.013Z</time></trkpt><trkpt lat="43.8607" lon="11.5547133"><ele>414.4</ele><time>2026-04-18T15:20:41.014Z</time></trkpt><trkpt lat="43.8606733" lon="11.554805"><ele>411.6</ele><time>2026-04-18T15:20:42.013Z</time></trkpt><trkpt lat="43.8606483" lon="11.5549533"><ele>408.8</ele><time>2026-04-18T15:20:44.014Z</time></trkpt><trkpt lat="43.8606667" lon="11.5551233"><ele>406.0</ele><time>2026-04-18T15:20:46.013Z</time></trkpt><trkpt lat="43.8606933" lon="11.5552333"><ele>406.00000000000006</ele><time>2026-04-18T15:20:47.012Z</time></trkpt><trkpt lat="43.8607167" lon="11.5553517"><ele>406.0</ele><time>2026-04-18T15:20:48.011Z</time></trkpt><trkpt lat="43.8607283" lon="11.5554683"><ele>406.0</ele><time>2026-04-18T15:20:49.013Z</time></trkpt><trkpt lat="43.8607533" lon="11.5555917"><ele>406.0</ele><time>2026-04-18T15:20:50.015Z</time></trkpt><trkpt lat="43.8607617" lon="11.5556933"><ele>406.00000000000006</ele><time>2026-04-18T15:20:51.011Z</time></trkpt><trkpt lat="43.8607717" lon="11.5557867"><ele>406.0</ele><time>2026-04-18T15:20:52.011Z</time></trkpt><trkpt lat="43.8607567" lon="11.5559567"><ele>404.0</ele><time>2026-04-18T15:20:54.013Z</time></trkpt><trkpt lat="43.8607467" lon="11.5560433"><ele>402.0</ele><time>2026-04-18T15:20:55.013Z</time></trkpt><trkpt lat="43.8606883" lon="11.5561817"><ele>400.0</ele><time>2026-04-18T15:20:57.013Z</time></trkpt><trkpt lat="43.8606367" lon="11.5563183"><ele>398.0</ele><time>2026-04-18T15:20:59.014Z</time></trkpt><trkpt lat="43.86058" lon="11.5564683"><ele>396.0</ele><time>2026-04-18T15:21:01.014Z</time></trkpt><trkpt lat="43.8605533" lon="11.5565517"><ele>393.3333333333333</ele><time>2026-04-18T15:21:02.014Z</time></trkpt><trkpt lat="43.8605267" lon="11.5566367"><ele>390.6666666666667</ele><time>2026-04-18T15:21:03.012Z</time></trkpt><trkpt lat="43.8604917" lon="11.5567233"><ele>388.0</ele><time>2026-04-18T15:21:04.014Z</time></trkpt><trkpt lat="43.86046" lon="11.556805"><ele>385.33333333333337</ele><time>2026-04-18T15:21:05.014Z</time></trkpt><trkpt lat="43.860405" lon="11.5569417"><ele>382.6666666666667</ele><time>2026-04-18T15:21:07.016Z</time></trkpt><trkpt lat="43.86046" lon="11.5570817"><ele>380.0</ele><time>2026-04-18T15:21:10.013Z</time></trkpt><trkpt lat="43.860495" lon="11.5571667"><ele>378.83333333333337</ele><time>2026-04-18T15:21:11.013Z</time></trkpt><trkpt lat="43.8605417" lon="11.5572483"><ele>377.6666666666667</ele><time>2026-04-18T15:21:12.013Z</time></trkpt><trkpt lat="43.860585" lon="11.557335"><ele>376.5</ele><time>2026-04-18T15:21:13.014Z</time></trkpt><trkpt lat="43.860645" lon="11.5574217"><ele>375.3333333333333</ele><time>2026-04-18T15:21:14.014Z</time></trkpt><trkpt lat="43.8606967" lon="11.5575083"><ele>374.16666666666663</ele><time>2026-04-18T15:21:15.014Z</time></trkpt><trkpt lat="43.860745" lon="11.5575783"><ele>373.0</ele><time>2026-04-18T15:21:16.012Z</time></trkpt><trkpt lat="43.8608233" lon="11.5576583"><ele>373.0</ele><time>2026-04-18T15:21:18.014Z</time></trkpt><trkpt lat="43.8609183" lon="11.5577417"><ele>373.0</ele><time>2026-04-18T15:21:20.014Z</time></trkpt><trkpt lat="43.8609717" lon="11.5577917"><ele>373.0</ele><time>2026-04-18T15:21:21.014Z</time></trkpt><trkpt lat="43.8610283" lon="11.5578583"><ele>373.0</ele><time>2026-04-18T15:21:22.015Z</time></trkpt><trkpt lat="43.8610817" lon="11.5579283"><ele>373.0</ele><time>2026-04-18T15:21:23.013Z</time></trkpt><trkpt lat="43.86113" lon="11.5580033"><ele>373.0</ele><time>2026-04-18T15:21:24.014Z</time></trkpt><trkpt lat="43.86118" lon="11.55807"><ele>368.66666666666663</ele><time>2026-04-18T15:21:25.013Z</time></trkpt><trkpt lat="43.8612383" lon="11.5581317"><ele>364.3333333333333</ele><time>2026-04-18T15:21:26.015Z</time></trkpt><trkpt lat="43.8612917" lon="11.5581783"><ele>360.0</ele><time>2026-04-18T15:21:27.013Z</time></trkpt><trkpt lat="43.8614017" lon="11.5582283"><ele>355.6666666666667</ele><time>2026-04-18T15:21:29.014Z</time></trkpt><trkpt lat="43.8615117" lon="11.5582183"><ele>351.33333333333337</ele><time>2026-04-18T15:21:31.012Z</time></trkpt><trkpt lat="43.8615783" lon="11.5581967"><ele>347.0</ele><time>2026-04-18T15:21:32.015Z</time></trkpt><trkpt lat="43.861685" lon="11.558205"><ele>347.0</ele><time>2026-04-18T15:21:34.011Z</time></trkpt><trkpt lat="43.8617633" lon="11.5582833"><ele>347.0</ele><time>2026-04-18T15:21:36.013Z</time></trkpt><trkpt lat="43.86185" lon="11.5583933"><ele>347.0</ele><time>2026-04-18T15:21:38.015Z</time></trkpt><trkpt lat="43.861905" lon="11.5585067"><ele>347.0</ele><time>2026-04-18T15:21:40.013Z</time></trkpt><trkpt lat="43.8619333" lon="11.5585967"><ele>347.0</ele><time>2026-04-18T15:21:42.013Z</time></trkpt><trkpt lat="43.8619433" lon="11.5586933"><ele>337.8</ele><time>2026-04-18T15:21:44.015Z</time></trkpt><trkpt lat="43.8619433" lon="11.5588167"><ele>328.6</ele><time>2026-04-18T15:21:46.004Z</time></trkpt><trkpt lat="43.8619417" lon="11.5589483"><ele>319.40000000000003</ele><time>2026-04-18T15:21:48.012Z</time></trkpt><trkpt lat="43.861935" lon="11.559105"><ele>310.20000000000005</ele><time>2026-04-18T15:21:50.016Z</time></trkpt><trkpt lat="43.8619083" lon="11.5592283"><ele>301.0</ele><time>2026-04-18T15:21:52.014Z</time></trkpt><trkpt lat="43.86188" lon="11.5593117"><ele>301.0</ele><time>2026-04-18T15:21:54.002Z</time></trkpt><trkpt lat="43.86188" lon="11.5594183"><ele>301.0</ele><time>2026-04-18T15:21:56.015Z</time></trkpt><trkpt lat="43.861925" lon="11.559495"><ele>301.0</ele><time>2026-04-18T15:21:58.013Z</time></trkpt><trkpt lat="43.861955" lon="11.55958"><ele>301.0</ele><time>2026-04-18T15:22:00.002Z</time></trkpt><trkpt lat="43.8619483" lon="11.5597133"><ele>301.0</ele><time>2026-04-18T15:22:02.015Z</time></trkpt><trkpt lat="43.8619367" lon="11.5598683"><ele>301.0</ele><time>2026-04-18T15:22:04.014Z</time></trkpt><trkpt lat="43.86196" lon="11.5600167"><ele>297.8333333333333</ele><time>2026-04-18T15:22:06.014Z</time></trkpt><trkpt lat="43.86198" lon="11.5601333"><ele>294.66666666666663</ele><time>2026-04-18T15:22:08.015Z</time></trkpt><trkpt lat="43.8620533" lon="11.560125"><ele>291.5</ele><time>2026-04-18T15:22:12.013Z</time></trkpt><trkpt lat="43.8620783" lon="11.5600417"><ele>288.3333333333333</ele><time>2026-04-18T15:22:13.013Z</time></trkpt><trkpt lat="43.8621" lon="11.5599467"><ele>285.1666666666667</ele><time>2026-04-18T15:22:14.015Z</time></trkpt><trkpt lat="43.86217" lon="11.5598833"><ele>282.0</ele><time>2026-04-18T15:22:16.012Z</time></trkpt><trkpt lat="43.8622133" lon="11.5599933"><ele>282.0</ele><time>2026-04-18T15:22:18.013Z</time></trkpt><trkpt lat="43.8622233" lon="11.5601067"><ele>282.0</ele><time>2026-04-18T15:22:19.013Z</time></trkpt><trkpt lat="43.86223" lon="11.5602367"><ele>282.0</ele><time>2026-04-18T15:22:20.014Z</time></trkpt><trkpt lat="43.862235" lon="11.5603617"><ele>282.0</ele><time>2026-04-18T15:22:21.014Z</time></trkpt><trkpt lat="43.86222" lon="11.560465"><ele>282.0</ele><time>2026-04-18T15:22:22.014Z</time></trkpt><trkpt lat="43.862195" lon="11.560575"><ele>282.0</ele><time>2026-04-18T15:22:23.015Z</time></trkpt><trkpt lat="43.862165" lon="11.5606817"><ele>278.8333333333333</ele><time>2026-04-18T15:22:24.014Z</time></trkpt><trkpt lat="43.8621317" lon="11.5607883"><ele>275.6666666666667</ele><time>2026-04-18T15:22:25.014Z</time></trkpt><trkpt lat="43.8620983" lon="11.5608967"><ele>272.5</ele><time>2026-04-18T15:22:26.015Z</time></trkpt><trkpt lat="43.862085" lon="11.56101"><ele>269.33333333333337</ele><time>2026-04-18T15:22:27.013Z</time></trkpt><trkpt lat="43.8621033" lon="11.561105"><ele>266.1666666666667</ele><time>2026-04-18T15:22:28.013Z</time></trkpt><trkpt lat="43.862125" lon="11.5612267"><ele>263.0</ele><time>2026-04-18T15:22:29.015Z</time></trkpt><trkpt lat="43.8621467" lon="11.5613567"><ele>260.6</ele><time>2026-04-18T15:22:30.015Z</time></trkpt><trkpt lat="43.8621717" lon="11.5614833"><ele>258.20000000000005</ele><time>2026-04-18T15:22:31.013Z</time></trkpt><trkpt lat="43.8622117" lon="11.56161"><ele>255.8</ele><time>2026-04-18T15:22:32.015Z</time></trkpt><trkpt lat="43.8622217" lon="11.561735"><ele>253.4</ele><time>2026-04-18T15:22:33.012Z</time></trkpt><trkpt lat="43.8622367" lon="11.5618633"><ele>251.0</ele><time>2026-04-18T15:22:34.014Z</time></trkpt><trkpt lat="43.8622317" lon="11.5619967"><ele>247.20000000000002</ele><time>2026-04-18T15:22:35.013Z</time></trkpt><trkpt lat="43.8622467" lon="11.562125"><ele>243.40000000000003</ele><time>2026-04-18T15:22:36.013Z</time></trkpt><trkpt lat="43.86225" lon="11.5622467"><ele>239.6</ele><time>2026-04-18T15:22:37.015Z</time></trkpt><trkpt lat="43.8622267" lon="11.5623633"><ele>235.8</ele><time>2026-04-18T15:22:38.015Z</time></trkpt><trkpt lat="43.86219" lon="11.5624783"><ele>232.0</ele><time>2026-04-18T15:22:39.014Z</time></trkpt><trkpt lat="43.8621517" lon="11.5626"><ele>232.0</ele><time>2026-04-18T15:22:40.014Z</time></trkpt><trkpt lat="43.862115" lon="11.5627317"><ele>232.0</ele><time>2026-04-18T15:22:41.014Z</time></trkpt><trkpt lat="43.8620933" lon="11.562855"><ele>232.0</ele><time>2026-04-18T15:22:42.014Z</time></trkpt><trkpt lat="43.8620483" lon="11.5629667"><ele>232.0</ele><time>2026-04-18T15:22:43.015Z</time></trkpt><trkpt lat="43.8620133" lon="11.5630617"><ele>232.0</ele><time>2026-04-18T15:22:44.016Z</time></trkpt><trkpt lat="43.8619833" lon="11.5631883"><ele>231.99999999999997</ele><time>2026-04-18T15:22:46.012Z</time></trkpt><trkpt lat="43.862045" lon="11.5632167"><ele>232.0</ele><time>2026-04-18T15:22:48.012Z</time></trkpt><trkpt lat="43.86211" lon="11.56312"><ele>232.0</ele><time>2026-04-18T15:22:49.014Z</time></trkpt><trkpt lat="43.8621783" lon="11.5630317"><ele>232.0</ele><time>2026-04-18T15:22:50.014Z</time></trkpt><trkpt lat="43.86224" lon="11.56293"><ele>231.99999999999997</ele><time>2026-04-18T15:22:51.012Z</time></trkpt><trkpt lat="43.8623017" lon="11.562825"><ele>232.0</ele><time>2026-04-18T15:22:52.013Z</time></trkpt><trkpt lat="43.8623633" lon="11.5627283"><ele>231.99999999999997</ele><time>2026-04-18T15:22:53.014Z</time></trkpt><trkpt lat="43.8624267" lon="11.562645"><ele>232.0</ele><time>2026-04-18T15:22:54.012Z</time></trkpt><trkpt lat="43.862495" lon="11.5625783"><ele>232.0</ele><time>2026-04-18T15:22:55.011Z</time></trkpt><trkpt lat="43.8625767" lon="11.5625433"><ele>232.0</ele><time>2026-04-18T15:22:56.013Z</time></trkpt><trkpt lat="43.862655" lon="11.5625117"><ele>231.99999999999997</ele><time>2026-04-18T15:22:57.011Z</time></trkpt><trkpt lat="43.8627283" lon="11.5624683"><ele>232.0</ele><time>2026-04-18T15:22:58.014Z</time></trkpt><trkpt lat="43.8628017" lon="11.5624117"><ele>226.6</ele><time>2026-04-18T15:22:59.012Z</time></trkpt><trkpt lat="43.8628633" lon="11.562315"><ele>221.2</ele><time>2026-04-18T15:23:00.012Z</time></trkpt><trkpt lat="43.86293" lon="11.5622067"><ele>215.8</ele><time>2026-04-18T15:23:01.013Z</time></trkpt><trkpt lat="43.863" lon="11.5620917"><ele>210.4</ele><time>2026-04-18T15:23:02.014Z</time></trkpt><trkpt lat="43.86307" lon="11.5619683"><ele>205.0</ele><time>2026-04-18T15:23:03.011Z</time></trkpt><trkpt lat="43.86313" lon="11.5618333"><ele>205.0</ele><time>2026-04-18T15:23:04.014Z</time></trkpt><trkpt lat="43.86318" lon="11.5617033"><ele>205.0</ele><time>2026-04-18T15:23:05.012Z</time></trkpt><trkpt lat="43.8632317" lon="11.561575"><ele>205.0</ele><time>2026-04-18T15:23:06.011Z</time></trkpt><trkpt lat="43.863275" lon="11.5614583"><ele>205.0</ele><time>2026-04-18T15:23:07.013Z</time></trkpt><trkpt lat="43.8633117" lon="11.5613367"><ele>205.0</ele><time>2026-04-18T15:23:08.013Z</time></trkpt><trkpt lat="43.8633483" lon="11.5612167"><ele>207.2</ele><time>2026-04-18T15:23:09.012Z</time></trkpt><trkpt lat="43.863385" lon="11.5610983"><ele>209.4</ele><time>2026-04-18T15:23:10.011Z</time></trkpt><trkpt lat="43.863425" lon="11.560985"><ele>211.60000000000002</ele><time>2026-04-18T15:23:11.013Z</time></trkpt><trkpt lat="43.8634667" lon="11.5608933"><ele>213.8</ele><time>2026-04-18T15:23:12.012Z</time></trkpt><trkpt lat="43.8635583" lon="11.560785"><ele>216.0</ele><time>2026-04-18T15:23:14.013Z</time></trkpt><trkpt lat="43.8636933" lon="11.560815"><ele>212.66666666666666</ele><time>2026-04-18T15:23:16.012Z</time></trkpt><trkpt lat="43.86378" lon="11.56087"><ele>209.33333333333331</ele><time>2026-04-18T15:23:17.013Z</time></trkpt><trkpt lat="43.8638583" lon="11.560935"><ele>206.0</ele><time>2026-04-18T15:23:18.013Z</time></trkpt><trkpt lat="43.863925" lon="11.5610017"><ele>202.66666666666666</ele><time>2026-04-18T15:23:19.013Z</time></trkpt><trkpt lat="43.863965" lon="11.5610783"><ele>199.33333333333331</ele><time>2026-04-18T15:23:20.017Z</time></trkpt><trkpt lat="43.8639783" lon="11.5611733"><ele>196.0</ele><time>2026-04-18T15:23:21.011Z</time></trkpt><trkpt lat="43.8639783" lon="11.5612833"><ele>195.99999999999997</ele><time>2026-04-18T15:23:22.013Z</time></trkpt><trkpt lat="43.86395" lon="11.5613967"><ele>196.0</ele><time>2026-04-18T15:23:23.016Z</time></trkpt><trkpt lat="43.8639133" lon="11.5615033"><ele>196.0</ele><time>2026-04-18T15:23:24.012Z</time></trkpt><trkpt lat="43.8638683" lon="11.5615917"><ele>196.0</ele><time>2026-04-18T15:23:25.014Z</time></trkpt><trkpt lat="43.8638167" lon="11.5616683"><ele>195.99999999999997</ele><time>2026-04-18T15:23:26.013Z</time></trkpt><trkpt lat="43.8637433" lon="11.5617783"><ele>196.0</ele><time>2026-04-18T15:23:28.012Z</time></trkpt><trkpt lat="43.8636917" lon="11.561875"><ele>196.0</ele><time>2026-04-18T15:23:30.015Z</time></trkpt><trkpt lat="43.8636483" lon="11.5619433"><ele>196.0</ele><time>2026-04-18T15:23:32.013Z</time></trkpt><trkpt lat="43.8636083" lon="11.5620333"><ele>196.0</ele><time>2026-04-18T15:23:35.012Z</time></trkpt><trkpt lat="43.8635917" lon="11.5621233"><ele>196.0</ele><time>2026-04-18T15:23:38.014Z</time></trkpt><trkpt lat="43.8635233" lon="11.5620967"><ele>196.0</ele><time>2026-04-18T15:24:23.012Z</time></trkpt><trkpt lat="43.8634483" lon="11.5621567"><ele>196.0</ele><time>2026-04-18T15:24:33.013Z</time></trkpt><trkpt lat="43.8634067" lon="11.56224"><ele>196.0</ele><time>2026-04-18T15:24:36.012Z</time></trkpt><trkpt lat="43.8634667" lon="11.5621833"><ele>197.16666666666666</ele><time>2026-04-18T15:24:39.012Z</time></trkpt><trkpt lat="43.8635417" lon="11.5621233"><ele>198.33333333333331</ele><time>2026-04-18T15:24:41.012Z</time></trkpt><trkpt lat="43.8636367" lon="11.562175"><ele>199.5</ele><time>2026-04-18T15:24:43.012Z</time></trkpt><trkpt lat="43.8636967" lon="11.562255"><ele>200.66666666666669</ele><time>2026-04-18T15:24:44.015Z</time></trkpt><trkpt lat="43.8637567" lon="11.562345"><ele>201.83333333333334</ele><time>2026-04-18T15:24:45.014Z</time></trkpt><trkpt lat="43.86382" lon="11.5624233"><ele>203.0</ele><time>2026-04-18T15:24:46.013Z</time></trkpt><trkpt lat="43.8638783" lon="11.56249"><ele>203.0</ele><time>2026-04-18T15:24:47.013Z</time></trkpt><trkpt lat="43.863935" lon="11.5625433"><ele>203.0</ele><time>2026-04-18T15:24:48.013Z</time></trkpt><trkpt lat="43.8640217" lon="11.5625917"><ele>203.0</ele><time>2026-04-18T15:24:50.015Z</time></trkpt><trkpt lat="43.8640867" lon="11.5626383"><ele>203.0</ele><time>2026-04-18T15:24:53.012Z</time></trkpt><trkpt lat="43.86409" lon="11.5627333"><ele>203.0</ele><time>2026-04-18T15:26:29.012Z</time></trkpt><trkpt lat="43.8640533" lon="11.562805"><ele>203.0</ele><time>2026-04-18T15:26:30.013Z</time></trkpt><trkpt lat="43.8640067" lon="11.5628917"><ele>203.0</ele><time>2026-04-18T15:26:31.012Z</time></trkpt><trkpt lat="43.8639517" lon="11.5629883"><ele>205.0</ele><time>2026-04-18T15:26:32.017Z</time></trkpt><trkpt lat="43.86389" lon="11.5630933"><ele>207.0</ele><time>2026-04-18T15:26:33.012Z</time></trkpt><trkpt lat="43.8638217" lon="11.5631983"><ele>209.0</ele><time>2026-04-18T15:26:34.013Z</time></trkpt><trkpt lat="43.86375" lon="11.563315"><ele>211.0</ele><time>2026-04-18T15:26:35.014Z</time></trkpt><trkpt lat="43.8636767" lon="11.5634383"><ele>213.0</ele><time>2026-04-18T15:26:36.014Z</time></trkpt><trkpt lat="43.863595" lon="11.5635583"><ele>213.0</ele><time>2026-04-18T15:26:37.012Z</time></trkpt><trkpt lat="43.86351" lon="11.5636783"><ele>213.0</ele><time>2026-04-18T15:26:38.013Z</time></trkpt><trkpt lat="43.86342" lon="11.5637917"><ele>213.0</ele><time>2026-04-18T15:26:39.012Z</time></trkpt><trkpt lat="43.8633267" lon="11.5639067"><ele>213.0</ele><time>2026-04-18T15:26:40.012Z</time></trkpt><trkpt lat="43.86323" lon="11.5640267"><ele>212.5</ele><time>2026-04-18T15:26:41.013Z</time></trkpt><trkpt lat="43.8631333" lon="11.5641433"><ele>212.0</ele><time>2026-04-18T15:26:42.012Z</time></trkpt><trkpt lat="43.8630383" lon="11.5642517"><ele>211.5</ele><time>2026-04-18T15:26:43.013Z</time></trkpt><trkpt lat="43.8629483" lon="11.564355"><ele>211.0</ele><time>2026-04-18T15:26:44.014Z</time></trkpt><trkpt lat="43.86286" lon="11.5644633"><ele>211.4</ele><time>2026-04-18T15:26:45.012Z</time></trkpt><trkpt lat="43.8627683" lon="11.5645583"><ele>211.8</ele><time>2026-04-18T15:26:46.013Z</time></trkpt><trkpt lat="43.8626717" lon="11.56464"><ele>212.20000000000002</ele><time>2026-04-18T15:26:47.014Z</time></trkpt><trkpt lat="43.86258" lon="11.564725"><ele>212.60000000000002</ele><time>2026-04-18T15:26:48.01Z</time></trkpt><trkpt lat="43.862485" lon="11.5647967"><ele>213.0</ele><time>2026-04-18T15:26:49.013Z</time></trkpt><trkpt lat="43.8623983" lon="11.5648833"><ele>213.0</ele><time>2026-04-18T15:26:50.013Z</time></trkpt><trkpt lat="43.8623167" lon="11.5649633"><ele>213.0</ele><time>2026-04-18T15:26:51.012Z</time></trkpt><trkpt lat="43.8622433" lon="11.5650367"><ele>213.0</ele><time>2026-04-18T15:26:52.014Z</time></trkpt><trkpt lat="43.862185" lon="11.56511"><ele>213.0</ele><time>2026-04-18T15:26:53.012Z</time></trkpt><trkpt lat="43.8621317" lon="11.56518"><ele>213.0</ele><time>2026-04-18T15:26:54.012Z</time></trkpt><trkpt lat="43.8620667" lon="11.5652333"><ele>213.0</ele><time>2026-04-18T15:26:55.013Z</time></trkpt><trkpt lat="43.8619867" lon="11.56528"><ele>213.0</ele><time>2026-04-18T15:26:56.015Z</time></trkpt><trkpt lat="43.861905" lon="11.56534"><ele>213.0</ele><time>2026-04-18T15:26:57.014Z</time></trkpt><trkpt lat="43.86182" lon="11.5654217"><ele>213.0</ele><time>2026-04-18T15:26:58.013Z</time></trkpt><trkpt lat="43.8617283" lon="11.5655067"><ele>213.0</ele><time>2026-04-18T15:26:59.014Z</time></trkpt><trkpt lat="43.8616367" lon="11.5655867"><ele>213.0</ele><time>2026-04-18T15:27:00.011Z</time></trkpt><trkpt lat="43.86154" lon="11.5656667"><ele>214.0</ele><time>2026-04-18T15:27:01.014Z</time></trkpt><trkpt lat="43.8614517" lon="11.5657533"><ele>215.0</ele><time>2026-04-18T15:27:02.014Z</time></trkpt><trkpt lat="43.8613717" lon="11.56585"><ele>216.0</ele><time>2026-04-18T15:27:03.013Z</time></trkpt><trkpt lat="43.8613017" lon="11.5659533"><ele>217.0</ele><time>2026-04-18T15:27:04.012Z</time></trkpt><trkpt lat="43.8612417" lon="11.5660717"><ele>218.0</ele><time>2026-04-18T15:27:05.013Z</time></trkpt><trkpt lat="43.8611833" lon="11.5661933"><ele>221.8</ele><time>2026-04-18T15:27:06.013Z</time></trkpt><trkpt lat="43.861145" lon="11.5663267"><ele>225.60000000000002</ele><time>2026-04-18T15:27:07.014Z</time></trkpt><trkpt lat="43.86111" lon="11.5664483"><ele>229.39999999999998</ele><time>2026-04-18T15:27:08.015Z</time></trkpt><trkpt lat="43.8610767" lon="11.5665533"><ele>233.2</ele><time>2026-04-18T15:27:09.013Z</time></trkpt><trkpt lat="43.86105" lon="11.5666417"><ele>237.0</ele><time>2026-04-18T15:27:10.013Z</time></trkpt><trkpt lat="43.8610183" lon="11.5667867"><ele>234.33333333333334</ele><time>2026-04-18T15:27:12.011Z</time></trkpt><trkpt lat="43.8609367" lon="11.566865"><ele>231.66666666666669</ele><time>2026-04-18T15:27:14.017Z</time></trkpt><trkpt lat="43.8608717" lon="11.5668583"><ele>229.0</ele><time>2026-04-18T15:27:15.013Z</time></trkpt><trkpt lat="43.8608" lon="11.56684"><ele>226.33333333333334</ele><time>2026-04-18T15:27:16.013Z</time></trkpt><trkpt lat="43.8606933" lon="11.56692"><ele>223.66666666666669</ele><time>2026-04-18T15:27:18.011Z</time></trkpt><trkpt lat="43.8606633" lon="11.567025"><ele>221.0</ele><time>2026-04-18T15:27:19.015Z</time></trkpt><trkpt lat="43.8606533" lon="11.5671517"><ele>221.00000000000003</ele><time>2026-04-18T15:27:20.015Z</time></trkpt><trkpt lat="43.8606217" lon="11.5672617"><ele>221.0</ele><time>2026-04-18T15:27:21.013Z</time></trkpt><trkpt lat="43.8606017" lon="11.567385"><ele>221.0</ele><time>2026-04-18T15:27:22.017Z</time></trkpt><trkpt lat="43.8606017" lon="11.5675133"><ele>221.0</ele><time>2026-04-18T15:27:23.016Z</time></trkpt><trkpt lat="43.8606117" lon="11.5676417"><ele>221.00000000000003</ele><time>2026-04-18T15:27:24.014Z</time></trkpt><trkpt lat="43.860615" lon="11.5677583"><ele>221.0</ele><time>2026-04-18T15:27:25.014Z</time></trkpt><trkpt lat="43.8606333" lon="11.5678583"><ele>221.0</ele><time>2026-04-18T15:27:26.015Z</time></trkpt><trkpt lat="43.860645" lon="11.5679467"><ele>221.00000000000003</ele><time>2026-04-18T15:27:27.013Z</time></trkpt><trkpt lat="43.8605783" lon="11.568065"><ele>221.00000000000003</ele><time>2026-04-18T15:27:29.015Z</time></trkpt><trkpt lat="43.86046" lon="11.5680583"><ele>221.0</ele><time>2026-04-18T15:27:31.014Z</time></trkpt><trkpt lat="43.8603833" lon="11.56794"><ele>221.0</ele><time>2026-04-18T15:27:33.012Z</time></trkpt><trkpt lat="43.8603467" lon="11.5677933"><ele>221.00000000000003</ele><time>2026-04-18T15:27:35.013Z</time></trkpt><trkpt lat="43.8603" lon="11.56763"><ele>221.0</ele><time>2026-04-18T15:27:37.014Z</time></trkpt><trkpt lat="43.8602767" lon="11.5675433"><ele>221.0</ele><time>2026-04-18T15:27:38.014Z</time></trkpt><trkpt lat="43.8602483" lon="11.5674583"><ele>221.0</ele><time>2026-04-18T15:27:39.011Z</time></trkpt><trkpt lat="43.860215" lon="11.5673817"><ele>221.00000000000003</ele><time>2026-04-18T15:27:40.012Z</time></trkpt><trkpt lat="43.8601433" lon="11.56725"><ele>221.0</ele><time>2026-04-18T15:27:42.012Z</time></trkpt><trkpt lat="43.86003" lon="11.5672017"><ele>222.57142857142858</ele><time>2026-04-18T15:27:44.015Z</time></trkpt><trkpt lat="43.8599633" lon="11.5672133"><ele>224.14285714285717</ele><time>2026-04-18T15:27:45.013Z</time></trkpt><trkpt lat="43.8598983" lon="11.5672383"><ele>225.71428571428572</ele><time>2026-04-18T15:27:46.013Z</time></trkpt><trkpt lat="43.8598367" lon="11.5672783"><ele>227.2857142857143</ele><time>2026-04-18T15:27:47.013Z</time></trkpt><trkpt lat="43.8597767" lon="11.5673267"><ele>228.85714285714286</ele><time>2026-04-18T15:27:48.012Z</time></trkpt><trkpt lat="43.8597217" lon="11.5673833"><ele>230.42857142857147</ele><time>2026-04-18T15:27:49.014Z</time></trkpt><trkpt lat="43.8596683" lon="11.5674367"><ele>232.00000000000003</ele><time>2026-04-18T15:27:50.014Z</time></trkpt><trkpt lat="43.8596117" lon="11.5674867"><ele>232.00000000000003</ele><time>2026-04-18T15:27:51.013Z</time></trkpt><trkpt lat="43.859545" lon="11.5675167"><ele>232.0</ele><time>2026-04-18T15:27:52.012Z</time></trkpt><trkpt lat="43.85947" lon="11.56753"><ele>232.00000000000003</ele><time>2026-04-18T15:27:53.014Z</time></trkpt><trkpt lat="43.859395" lon="11.5675283"><ele>232.00000000000003</ele><time>2026-04-18T15:27:54.012Z</time></trkpt><trkpt lat="43.8593167" lon="11.5675267"><ele>232.0</ele><time>2026-04-18T15:27:55.015Z</time></trkpt><trkpt lat="43.859245" lon="11.567525"><ele>232.00000000000003</ele><time>2026-04-18T15:27:56.016Z</time></trkpt><trkpt lat="43.8591783" lon="11.5675183"><ele>232.00000000000003</ele><time>2026-04-18T15:27:57.012Z</time></trkpt><trkpt lat="43.8591083" lon="11.5675117"><ele>233.8</ele><time>2026-04-18T15:27:58.014Z</time></trkpt><trkpt lat="43.8590433" lon="11.5675017"><ele>235.6</ele><time>2026-04-18T15:27:59.012Z</time></trkpt><trkpt lat="43.85898" lon="11.567495"><ele>237.40000000000003</ele><time>2026-04-18T15:28:00.013Z</time></trkpt><trkpt lat="43.85886" lon="11.5675"><ele>239.20000000000002</ele><time>2026-04-18T15:28:02.014Z</time></trkpt><trkpt lat="43.8587717" lon="11.56759"><ele>241.0</ele><time>2026-04-18T15:28:04.012Z</time></trkpt><trkpt lat="43.8587683" lon="11.5677483"><ele>240.99999999999997</ele><time>2026-04-18T15:28:06.014Z</time></trkpt><trkpt lat="43.858855" lon="11.56786"><ele>241.0</ele><time>2026-04-18T15:28:08.013Z</time></trkpt><trkpt lat="43.8589283" lon="11.5678733"><ele>241.0</ele><time>2026-04-18T15:28:09.013Z</time></trkpt><trkpt lat="43.8590083" lon="11.5678633"><ele>241.0</ele><time>2026-04-18T15:28:10.012Z</time></trkpt><trkpt lat="43.859085" lon="11.56785"><ele>240.99999999999997</ele><time>2026-04-18T15:28:11.014Z</time></trkpt><trkpt lat="43.8591583" lon="11.567845"><ele>241.0</ele><time>2026-04-18T15:28:12.014Z</time></trkpt><trkpt lat="43.8592283" lon="11.5678333"><ele>241.85714285714286</ele><time>2026-04-18T15:28:13.013Z</time></trkpt><trkpt lat="43.8593" lon="11.567825"><ele>242.71428571428572</ele><time>2026-04-18T15:28:14.014Z</time></trkpt><trkpt lat="43.8593717" lon="11.5678333"><ele>243.57142857142858</ele><time>2026-04-18T15:28:15.011Z</time></trkpt><trkpt lat="43.859435" lon="11.567835"><ele>244.42857142857144</ele><time>2026-04-18T15:28:16.013Z</time></trkpt><trkpt lat="43.8595317" lon="11.5678733"><ele>245.28571428571428</ele><time>2026-04-18T15:28:18.013Z</time></trkpt><trkpt lat="43.8595333" lon="11.5679683"><ele>246.14285714285717</ele><time>2026-04-18T15:28:20.014Z</time></trkpt><trkpt lat="43.859465" lon="11.568"><ele>247.0</ele><time>2026-04-18T15:28:22.014Z</time></trkpt><trkpt lat="43.85938" lon="11.5680067"><ele>249.8</ele><time>2026-04-18T15:28:24.013Z</time></trkpt><trkpt lat="43.8592817" lon="11.56802"><ele>252.6</ele><time>2026-04-18T15:28:26.016Z</time></trkpt><trkpt lat="43.85917" lon="11.5680567"><ele>255.40000000000003</ele><time>2026-04-18T15:28:28.015Z</time></trkpt><trkpt lat="43.859045" lon="11.5680983"><ele>258.2</ele><time>2026-04-18T15:28:30.012Z</time></trkpt><trkpt lat="43.8589717" lon="11.5681317"><ele>261.0</ele><time>2026-04-18T15:28:31.013Z</time></trkpt><trkpt lat="43.858895" lon="11.56818"><ele>261.0</ele><time>2026-04-18T15:28:32.014Z</time></trkpt><trkpt lat="43.8588233" lon="11.5682333"><ele>261.0</ele><time>2026-04-18T15:28:33.013Z</time></trkpt><trkpt lat="43.8587483" lon="11.5682967"><ele>261.0</ele><time>2026-04-18T15:28:34.012Z</time></trkpt><trkpt lat="43.85868" lon="11.5683533"><ele>261.0</ele><time>2026-04-18T15:28:35.013Z</time></trkpt><trkpt lat="43.8586167" lon="11.5684083"><ele>261.0</ele><time>2026-04-18T15:28:36.012Z</time></trkpt><trkpt lat="43.858555" lon="11.56846"><ele>261.0</ele><time>2026-04-18T15:28:37.013Z</time></trkpt><trkpt lat="43.8584917" lon="11.5685083"><ele>261.0</ele><time>2026-04-18T15:28:38.015Z</time></trkpt><trkpt lat="43.8584217" lon="11.5685467"><ele>261.0</ele><time>2026-04-18T15:28:39.013Z</time></trkpt><trkpt lat="43.8583467" lon="11.5685717"><ele>261.0</ele><time>2026-04-18T15:28:40.013Z</time></trkpt><trkpt lat="43.8582667" lon="11.5685917"><ele>261.0</ele><time>2026-04-18T15:28:41.013Z</time></trkpt><trkpt lat="43.8581917" lon="11.568605"><ele>261.0</ele><time>2026-04-18T15:28:42.013Z</time></trkpt><trkpt lat="43.85812" lon="11.568615"><ele>261.0</ele><time>2026-04-18T15:28:43.013Z</time></trkpt><trkpt lat="43.8580533" lon="11.5686167"><ele>261.0</ele><time>2026-04-18T15:28:44.016Z</time></trkpt><trkpt lat="43.8579867" lon="11.5686233"><ele>261.0</ele><time>2026-04-18T15:28:45.012Z</time></trkpt><trkpt lat="43.8579083" lon="11.56863"><ele>261.0</ele><time>2026-04-18T15:28:46.013Z</time></trkpt><trkpt lat="43.8578317" lon="11.5686233"><ele>261.0</ele><time>2026-04-18T15:28:47.013Z</time></trkpt><trkpt lat="43.8577683" lon="11.5686017"><ele>261.0</ele><time>2026-04-18T15:28:48.011Z</time></trkpt><trkpt lat="43.8576833" lon="11.5685483"><ele>261.0</ele><time>2026-04-18T15:28:50.015Z</time></trkpt><trkpt lat="43.8575983" lon="11.5685217"><ele>261.0</ele><time>2026-04-18T15:28:52.014Z</time></trkpt><trkpt lat="43.8575167" lon="11.5685667"><ele>267.2</ele><time>2026-04-18T15:28:54.013Z</time></trkpt><trkpt lat="43.8574967" lon="11.5687317"><ele>273.40000000000003</ele><time>2026-04-18T15:28:56.016Z</time></trkpt><trkpt lat="43.8574983" lon="11.5688367"><ele>279.6</ele><time>2026-04-18T15:28:57.013Z</time></trkpt><trkpt lat="43.8575" lon="11.568945"><ele>285.8</ele><time>2026-04-18T15:28:58.013Z</time></trkpt><trkpt lat="43.8574967" lon="11.5690433"><ele>292.0</ele><time>2026-04-18T15:28:59.017Z</time></trkpt><trkpt lat="43.8575233" lon="11.5692017"><ele>292.0</ele><time>2026-04-18T15:29:01.013Z</time></trkpt><trkpt lat="43.8575933" lon="11.56934"><ele>292.0</ele><time>2026-04-18T15:29:03.014Z</time></trkpt><trkpt lat="43.8576283" lon="11.5695017"><ele>292.0</ele><time>2026-04-18T15:29:05.004Z</time></trkpt><trkpt lat="43.8576667" lon="11.5695967"><ele>292.0</ele><time>2026-04-18T15:29:07.013Z</time></trkpt><trkpt lat="43.8575717" lon="11.56957"><ele>292.0</ele><time>2026-04-18T15:29:23.014Z</time></trkpt><trkpt lat="43.8575483" lon="11.5694533"><ele>292.0</ele><time>2026-04-18T15:30:50.003Z</time></trkpt><trkpt lat="43.8575133" lon="11.56932"><ele>292.0</ele><time>2026-04-18T15:30:52.013Z</time></trkpt><trkpt lat="43.8575717" lon="11.5693767"><ele>292.0</ele><time>2026-04-18T15:30:58.013Z</time></trkpt><trkpt lat="43.8576" lon="11.569485"><ele>292.0</ele><time>2026-04-18T15:31:06.013Z</time></trkpt><trkpt lat="43.8576233" lon="11.5695667"><ele>292.0</ele><time>2026-04-18T15:31:11.013Z</time></trkpt><trkpt lat="43.8576767" lon="11.5696217"><ele>292.0</ele><time>2026-04-18T15:31:19.013Z</time></trkpt><trkpt lat="43.857785" lon="11.5696517"><ele>292.0</ele><time>2026-04-18T15:31:25.014Z</time></trkpt><trkpt lat="43.8578567" lon="11.569765"><ele>292.0</ele><time>2026-04-18T15:31:59.002Z</time></trkpt><trkpt lat="43.857965" lon="11.569875"><ele>292.0</ele><time>2026-04-18T15:32:06.002Z</time></trkpt><trkpt lat="43.857885" lon="11.5697917"><ele>292.0</ele><time>2026-04-18T15:32:54.013Z</time></trkpt><trkpt lat="43.857905" lon="11.56967"><ele>292.0</ele><time>2026-04-18T15:33:16.004Z</time></trkpt><trkpt lat="43.8579717" lon="11.5696767"><ele>292.0</ele><time>2026-04-18T15:33:25.013Z</time></trkpt><trkpt lat="43.85801" lon="11.5697617"><ele>292.0</ele><time>2026-04-18T15:33:42.011Z</time></trkpt><trkpt lat="43.8580467" lon="11.5698417"><ele>292.0</ele><time>2026-04-18T15:33:47.003Z</time></trkpt><trkpt lat="43.8580933" lon="11.5699333"><ele>292.0</ele><time>2026-04-18T15:33:52.013Z</time></trkpt><trkpt lat="43.8581283" lon="11.5700083"><ele>292.0</ele><time>2026-04-18T15:33:57.012Z</time></trkpt><trkpt lat="43.858135" lon="11.5701"><ele>292.0</ele><time>2026-04-18T15:34:16.011Z</time></trkpt><trkpt lat="43.8582" lon="11.5701033"><ele>292.0</ele><time>2026-04-18T15:34:30.011Z</time></trkpt><trkpt lat="43.8582767" lon="11.57016"><ele>292.0</ele><time>2026-04-18T15:34:50.017Z</time></trkpt><trkpt lat="43.8583067" lon="11.5702383"><ele>292.0</ele><time>2026-04-18T15:35:03.002Z</time></trkpt><trkpt lat="43.85836" lon="11.5703017"><ele>292.0</ele><time>2026-04-18T15:35:15.011Z</time></trkpt><trkpt lat="43.8576893" lon="11.5695551"><ele>292.0</ele><time>2026-04-18T15:36:01.196Z</time></trkpt><trkpt lat="43.8581883" lon="11.5701333"><ele>292.0</ele><time>2026-04-18T15:36:09.013Z</time></trkpt><trkpt lat="43.858025" lon="11.5699333"><ele>292.0</ele><time>2026-04-18T15:36:10.013Z</time></trkpt><trkpt lat="43.8579533" lon="11.5698233"><ele>292.0</ele><time>2026-04-18T15:36:11.015Z</time></trkpt><trkpt lat="43.85783" lon="11.5696917"><ele>292.0</ele><time>2026-04-18T15:36:13.004Z</time></trkpt><trkpt lat="43.857665" lon="11.569535"><ele>292.0</ele><time>2026-04-18T15:36:15.013Z</time></trkpt><trkpt lat="43.8577233" lon="11.5696167"><ele>292.0</ele><time>2026-04-18T15:36:30.012Z</time></trkpt><trkpt lat="43.85778" lon="11.56967"><ele>292.0</ele><time>2026-04-18T15:36:32.005Z</time></trkpt><trkpt lat="43.8576891" lon="11.5695572"><ele>292.0</ele><time>2026-04-18T15:36:45.456Z</time></trkpt></trkseg></trk></gpx>